<?xml version="1.0" encoding="UTF-8"?>
<gpx version="1.1" creator="2bulu-scraper" xmlns="http://www.topografix.com/GPX/1/1">
  <metadata><name>峨眉山后山往返线（到金顶）</name><desc>source: 2bulu.com trackId=88385867; exported 2026-09-01T16:03:34.504Z</desc>
    <bounds minlat="29.4562345" minlon="103.2800831" maxlat="29.5226841" maxlon="103.3372955"/>
    <link href="https://www.2bulu.com/track/t-jyzQ1bcU5hjp%252FR2KBg5Tzw%253D%253D.htm"><text>2bulu 源页面</text></link>
  </metadata>
  <wpt lat="29.456535" lon="103.2811197"><ele>1608</ele><name>
        </name></wpt>
  <wpt lat="29.4719243" lon="103.2846958"><ele>1769</ele><name>
        </name></wpt>
  <wpt lat="29.5012892" lon="103.287188"><ele>2001</ele><name>
        </name></wpt>
  <wpt lat="29.5044757" lon="103.3022328"><ele>2256</ele><name>
        </name></wpt>
  <wpt lat="29.5050085" lon="103.3045287"><ele>2320</ele><name>台阶路
        </name></wpt>
  <wpt lat="29.5050377" lon="103.3050446"><ele>2322</ele><name>左边绕行
        </name></wpt>
  <wpt lat="29.5050278" lon="103.3051147"><ele>2321</ele><name>
        </name></wpt>
  <wpt lat="29.5031517" lon="103.3131905"><ele>2629</ele><name>菌子
        </name></wpt>
  <wpt lat="29.5053566" lon="103.3171119"><ele>2719</ele><name>
        </name></wpt>
  <wpt lat="29.5060196" lon="103.3216412"><ele>2842</ele><name>
        </name></wpt>
  <wpt lat="29.5070905" lon="103.324945"><ele>2900</ele><name>左公厕
        </name></wpt>
  <wpt lat="29.5076262" lon="103.3277366"><ele>2982</ele><name>杜鹃林
        </name></wpt>
  <wpt lat="29.5106692" lon="103.33001"><ele>2995</ele><name>公厕
        </name></wpt>
  <wpt lat="29.5106807" lon="103.3305963"><ele>3007</ele><name>继续杜鹃林
        </name></wpt>
  <wpt lat="29.5100499" lon="103.3317819"><ele>3047</ele><name>万佛顶
        </name></wpt>
  <wpt lat="29.5100499" lon="103.3317819"><ele>3047</ele><name>
        </name></wpt>
  <wpt lat="29.5100846" lon="103.3318803"><ele>3050</ele><name>
        </name></wpt>
  <wpt lat="29.5102178" lon="103.3324716"><ele>3051</ele><name>
        </name></wpt>
  <wpt lat="29.5206737" lon="103.334477"><ele>2970</ele><name>往右金顶
        </name></wpt>
  <wpt lat="29.5213173" lon="103.3356162"><ele>3024</ele><name>
        </name></wpt>
  <wpt lat="29.5215159" lon="103.3358864"><ele>3026</ele><name>金顶了
        </name></wpt>
  <wpt lat="29.5223904" lon="103.3371124"><ele>3029</ele><name>
        </name></wpt>
  <wpt lat="29.5226408" lon="103.3371855"><ele>3035</ele><name>
        </name></wpt>
  <wpt lat="29.5226326" lon="103.3371277"><ele>3042</ele><name>
        </name></wpt>
  <wpt lat="29.522644" lon="103.3371582"><ele>3043</ele><name>下撤
        </name></wpt>
  <wpt lat="29.5225468" lon="103.3372955"><ele>3034</ele><name>
        </name></wpt>
  <wpt lat="29.5198302" lon="103.3340349"><ele>2965</ele><name>轨道
        </name></wpt>
  <wpt lat="29.5120827" lon="103.3326874"><ele>3031</ele><name>
        </name></wpt>
  <wpt lat="29.509966" lon="103.3323597"><ele>3057</ele><name>万佛顶看金顶
        </name></wpt>
  <wpt lat="29.5071869" lon="103.3243141"><ele>2902</ele><name>菌子
        </name></wpt>
  <wpt lat="29.5071409" lon="103.3235719"><ele>2890</ele><name>
        </name></wpt>
  <wpt lat="29.5069447" lon="103.3234863"><ele>2893</ele><name>铁门
        </name></wpt>
  <wpt lat="29.5043392" lon="103.3157196"><ele>2681</ele><name>
        </name></wpt>
  <wpt lat="29.5051019" lon="103.3044453"><ele>2311</ele><name>开始公路了
        </name></wpt>
  <wpt lat="29.5046415" lon="103.3023146"><ele>2256</ele><name>黑垭口
        </name></wpt>
  <wpt lat="29.4890401" lon="103.2841291"><ele>1859</ele><name>
        </name></wpt>
  <wpt lat="29.4833335" lon="103.2843689"><ele>1795</ele><name>关卡
        </name></wpt>
  <wpt lat="29.4829599" lon="103.2844154"><ele>1794</ele><name>马合顺沟
        </name></wpt>
  <wpt lat="29.4621679" lon="103.283606"><ele>1665</ele><name>
        </name></wpt>
  <wpt lat="29.4562861" lon="103.2801087"><ele>1604</ele><name>
        </name></wpt>
  <wpt lat="29.4562861" lon="103.2801087"><ele>1604</ele><name>终点🏁
        </name></wpt>
  <trk><name>峨眉山后山往返线（到金顶）</name>
      <trkseg>
        <trkpt lat="29.456535" lon="103.2811197"><ele>1607.87</ele><time>2026-08-14T15:04:50.000Z</time></trkpt>
        <trkpt lat="29.4565321" lon="103.2810318"><ele>1607.87</ele><time>2026-08-14T15:04:59.000Z</time></trkpt>
        <trkpt lat="29.4565488" lon="103.2809264"><ele>1608.13</ele><time>2026-08-14T15:05:07.000Z</time></trkpt>
        <trkpt lat="29.4565687" lon="103.2808158"><ele>1608.18</ele><time>2026-08-14T15:05:15.000Z</time></trkpt>
        <trkpt lat="29.4565537" lon="103.2807051"><ele>1607.91</ele><time>2026-08-14T15:05:22.000Z</time></trkpt>
        <trkpt lat="29.4565095" lon="103.2806072"><ele>1607.65</ele><time>2026-08-14T15:05:31.000Z</time></trkpt>
        <trkpt lat="29.4564655" lon="103.2804976"><ele>1607.51</ele><time>2026-08-14T15:05:39.000Z</time></trkpt>
        <trkpt lat="29.4564093" lon="103.2804062"><ele>1607.07</ele><time>2026-08-14T15:05:47.000Z</time></trkpt>
        <trkpt lat="29.4563526" lon="103.2803163"><ele>1606.77</ele><time>2026-08-14T15:05:55.000Z</time></trkpt>
        <trkpt lat="29.4562954" lon="103.2802147"><ele>1607.47</ele><time>2026-08-14T15:06:03.000Z</time></trkpt>
        <trkpt lat="29.4562345" lon="103.2801141"><ele>1608.09</ele><time>2026-08-14T15:06:13.000Z</time></trkpt>
        <trkpt lat="29.4562988" lon="103.2800831"><ele>1608.94</ele><time>2026-08-14T15:06:34.000Z</time></trkpt>
        <trkpt lat="29.4564063" lon="103.2801291"><ele>1609.19</ele><time>2026-08-14T15:06:43.000Z</time></trkpt>
        <trkpt lat="29.4564943" lon="103.2802111"><ele>1609.57</ele><time>2026-08-14T15:06:51.000Z</time></trkpt>
        <trkpt lat="29.4565807" lon="103.2802943"><ele>1610.25</ele><time>2026-08-14T15:07:00.000Z</time></trkpt>
        <trkpt lat="29.4566631" lon="103.2803784"><ele>1610.91</ele><time>2026-08-14T15:07:08.000Z</time></trkpt>
        <trkpt lat="29.4567388" lon="103.2804485"><ele>1611.55</ele><time>2026-08-14T15:07:16.000Z</time></trkpt>
        <trkpt lat="29.4568245" lon="103.2805234"><ele>1612.06</ele><time>2026-08-14T15:07:23.000Z</time></trkpt>
        <trkpt lat="29.4569141" lon="103.2805943"><ele>1612.34</ele><time>2026-08-14T15:07:32.000Z</time></trkpt>
        <trkpt lat="29.4569803" lon="103.2806863"><ele>1612.6</ele><time>2026-08-14T15:07:40.000Z</time></trkpt>
        <trkpt lat="29.457039" lon="103.2807918"><ele>1613.34</ele><time>2026-08-14T15:07:48.000Z</time></trkpt>
        <trkpt lat="29.4571003" lon="103.2808839"><ele>1613.9</ele><time>2026-08-14T15:07:56.000Z</time></trkpt>
        <trkpt lat="29.4571763" lon="103.2809584"><ele>1614.45</ele><time>2026-08-14T15:08:04.000Z</time></trkpt>
        <trkpt lat="29.4572696" lon="103.2810264"><ele>1615.4</ele><time>2026-08-14T15:08:12.000Z</time></trkpt>
        <trkpt lat="29.4573729" lon="103.2810758"><ele>1616.68</ele><time>2026-08-14T15:08:20.000Z</time></trkpt>
        <trkpt lat="29.4574714" lon="103.2811251"><ele>1617.68</ele><time>2026-08-14T15:08:28.000Z</time></trkpt>
        <trkpt lat="29.4575526" lon="103.2811987"><ele>1618.33</ele><time>2026-08-14T15:08:36.000Z</time></trkpt>
        <trkpt lat="29.4576085" lon="103.2812878"><ele>1619.21</ele><time>2026-08-14T15:08:44.000Z</time></trkpt>
        <trkpt lat="29.4576573" lon="103.2813815"><ele>1619.96</ele><time>2026-08-14T15:08:52.000Z</time></trkpt>
        <trkpt lat="29.4577124" lon="103.2814642"><ele>1620.67</ele><time>2026-08-14T15:09:00.000Z</time></trkpt>
        <trkpt lat="29.4577927" lon="103.2815189"><ele>1621.64</ele><time>2026-08-14T15:09:08.000Z</time></trkpt>
        <trkpt lat="29.4578941" lon="103.2815005"><ele>1622.88</ele><time>2026-08-14T15:09:16.000Z</time></trkpt>
        <trkpt lat="29.4579947" lon="103.2814455"><ele>1623.62</ele><time>2026-08-14T15:09:23.000Z</time></trkpt>
        <trkpt lat="29.4580933" lon="103.2813819"><ele>1624</ele><time>2026-08-14T15:09:32.000Z</time></trkpt>
        <trkpt lat="29.4581946" lon="103.2813542"><ele>1624.19</ele><time>2026-08-14T15:09:40.000Z</time></trkpt>
        <trkpt lat="29.4582993" lon="103.2813597"><ele>1624.54</ele><time>2026-08-14T15:09:50.000Z</time></trkpt>
        <trkpt lat="29.4584007" lon="103.2813769"><ele>1624.78</ele><time>2026-08-14T15:09:58.000Z</time></trkpt>
        <trkpt lat="29.4585047" lon="103.281402"><ele>1625.46</ele><time>2026-08-14T15:10:06.000Z</time></trkpt>
        <trkpt lat="29.4586069" lon="103.2814341"><ele>1626.2</ele><time>2026-08-14T15:10:13.000Z</time></trkpt>
        <trkpt lat="29.458701" lon="103.2814616"><ele>1627.05</ele><time>2026-08-14T15:10:22.000Z</time></trkpt>
        <trkpt lat="29.4587922" lon="103.2814921"><ele>1628.3</ele><time>2026-08-14T15:10:30.000Z</time></trkpt>
        <trkpt lat="29.4588814" lon="103.2815348"><ele>1629.55</ele><time>2026-08-14T15:10:38.000Z</time></trkpt>
        <trkpt lat="29.458966" lon="103.2815988"><ele>1630.17</ele><time>2026-08-14T15:10:46.000Z</time></trkpt>
        <trkpt lat="29.4590549" lon="103.2816812"><ele>1630.92</ele><time>2026-08-14T15:10:54.000Z</time></trkpt>
        <trkpt lat="29.4591444" lon="103.2817573"><ele>1631.65</ele><time>2026-08-14T15:11:02.000Z</time></trkpt>
        <trkpt lat="29.4592369" lon="103.2818062"><ele>1632.25</ele><time>2026-08-14T15:11:10.000Z</time></trkpt>
        <trkpt lat="29.4593363" lon="103.281793"><ele>1632.8</ele><time>2026-08-14T15:11:17.000Z</time></trkpt>
        <trkpt lat="29.459438" lon="103.2817468"><ele>1633.34</ele><time>2026-08-14T15:11:26.000Z</time></trkpt>
        <trkpt lat="29.45954" lon="103.281704"><ele>1634.33</ele><time>2026-08-14T15:11:34.000Z</time></trkpt>
        <trkpt lat="29.4596461" lon="103.2816893"><ele>1635.29</ele><time>2026-08-14T15:11:42.000Z</time></trkpt>
        <trkpt lat="29.4597448" lon="103.2817269"><ele>1636.06</ele><time>2026-08-14T15:11:50.000Z</time></trkpt>
        <trkpt lat="29.4598377" lon="103.2817888"><ele>1636.99</ele><time>2026-08-14T15:11:58.000Z</time></trkpt>
        <trkpt lat="29.4599344" lon="103.281845"><ele>1638.02</ele><time>2026-08-14T15:12:08.000Z</time></trkpt>
        <trkpt lat="29.4600386" lon="103.2818904"><ele>1639.14</ele><time>2026-08-14T15:12:18.000Z</time></trkpt>
        <trkpt lat="29.4601313" lon="103.2819305"><ele>1640.58</ele><time>2026-08-14T15:12:26.000Z</time></trkpt>
        <trkpt lat="29.4602165" lon="103.2819801"><ele>1641.82</ele><time>2026-08-14T15:12:34.000Z</time></trkpt>
        <trkpt lat="29.4602966" lon="103.2820448"><ele>1643.16</ele><time>2026-08-14T15:12:42.000Z</time></trkpt>
        <trkpt lat="29.4603682" lon="103.2821205"><ele>1644.16</ele><time>2026-08-14T15:12:50.000Z</time></trkpt>
        <trkpt lat="29.4604488" lon="103.2821818"><ele>1644.87</ele><time>2026-08-14T15:12:58.000Z</time></trkpt>
        <trkpt lat="29.460532" lon="103.2822368"><ele>1645.41</ele><time>2026-08-14T15:13:06.000Z</time></trkpt>
        <trkpt lat="29.4606219" lon="103.2822955"><ele>1645.97</ele><time>2026-08-14T15:13:14.000Z</time></trkpt>
        <trkpt lat="29.4607198" lon="103.2823558"><ele>1646.4</ele><time>2026-08-14T15:13:22.000Z</time></trkpt>
        <trkpt lat="29.4608158" lon="103.2824226"><ele>1646.88</ele><time>2026-08-14T15:13:30.000Z</time></trkpt>
        <trkpt lat="29.4609147" lon="103.2824801"><ele>1647.36</ele><time>2026-08-14T15:13:38.000Z</time></trkpt>
        <trkpt lat="29.4610087" lon="103.2825282"><ele>1647.69</ele><time>2026-08-14T15:13:46.000Z</time></trkpt>
        <trkpt lat="29.4611007" lon="103.2825674"><ele>1647.81</ele><time>2026-08-14T15:13:54.000Z</time></trkpt>
        <trkpt lat="29.4611934" lon="103.2826154"><ele>1648.18</ele><time>2026-08-14T15:14:02.000Z</time></trkpt>
        <trkpt lat="29.4612794" lon="103.2826791"><ele>1648.41</ele><time>2026-08-14T15:14:10.000Z</time></trkpt>
        <trkpt lat="29.4613616" lon="103.2827426"><ele>1648.35</ele><time>2026-08-14T15:14:18.000Z</time></trkpt>
        <trkpt lat="29.4614427" lon="103.2827995"><ele>1648.39</ele><time>2026-08-14T15:14:26.000Z</time></trkpt>
        <trkpt lat="29.4615239" lon="103.2828478"><ele>1648.94</ele><time>2026-08-14T15:14:34.000Z</time></trkpt>
        <trkpt lat="29.4616083" lon="103.2828873"><ele>1649.83</ele><time>2026-08-14T15:14:42.000Z</time></trkpt>
        <trkpt lat="29.4617011" lon="103.2829414"><ele>1650.58</ele><time>2026-08-14T15:14:52.000Z</time></trkpt>
        <trkpt lat="29.4617783" lon="103.283013"><ele>1651.29</ele><time>2026-08-14T15:15:00.000Z</time></trkpt>
        <trkpt lat="29.4618508" lon="103.2830791"><ele>1652.23</ele><time>2026-08-14T15:15:08.000Z</time></trkpt>
        <trkpt lat="29.4619335" lon="103.2831306"><ele>1653</ele><time>2026-08-14T15:15:16.000Z</time></trkpt>
        <trkpt lat="29.4620262" lon="103.283165"><ele>1653.83</ele><time>2026-08-14T15:15:24.000Z</time></trkpt>
        <trkpt lat="29.4621024" lon="103.2832225"><ele>1655.04</ele><time>2026-08-14T15:15:32.000Z</time></trkpt>
        <trkpt lat="29.4621445" lon="103.2833183"><ele>1656.37</ele><time>2026-08-14T15:15:40.000Z</time></trkpt>
        <trkpt lat="29.4621447" lon="103.2834389"><ele>1657.77</ele><time>2026-08-14T15:15:48.000Z</time></trkpt>
        <trkpt lat="29.4621445" lon="103.2835605"><ele>1659.02</ele><time>2026-08-14T15:15:55.000Z</time></trkpt>
        <trkpt lat="29.4622094" lon="103.2836455"><ele>1660.27</ele><time>2026-08-14T15:16:04.000Z</time></trkpt>
        <trkpt lat="29.4623155" lon="103.283664"><ele>1661.24</ele><time>2026-08-14T15:16:12.000Z</time></trkpt>
        <trkpt lat="29.4624285" lon="103.2836823"><ele>1662.09</ele><time>2026-08-14T15:16:20.000Z</time></trkpt>
        <trkpt lat="29.462536" lon="103.2836935"><ele>1662.63</ele><time>2026-08-14T15:16:28.000Z</time></trkpt>
        <trkpt lat="29.4626349" lon="103.283647"><ele>1663.08</ele><time>2026-08-14T15:16:36.000Z</time></trkpt>
        <trkpt lat="29.4627298" lon="103.2835925"><ele>1663.45</ele><time>2026-08-14T15:16:44.000Z</time></trkpt>
        <trkpt lat="29.462826" lon="103.2835333"><ele>1663.45</ele><time>2026-08-14T15:16:52.000Z</time></trkpt>
        <trkpt lat="29.4629258" lon="103.2834865"><ele>1663.37</ele><time>2026-08-14T15:17:00.000Z</time></trkpt>
        <trkpt lat="29.4630241" lon="103.2834573"><ele>1663.58</ele><time>2026-08-14T15:17:08.000Z</time></trkpt>
        <trkpt lat="29.4631245" lon="103.2834519"><ele>1664.04</ele><time>2026-08-14T15:17:16.000Z</time></trkpt>
        <trkpt lat="29.4632285" lon="103.2834657"><ele>1664.45</ele><time>2026-08-14T15:17:23.000Z</time></trkpt>
        <trkpt lat="29.4633266" lon="103.2834792"><ele>1665.18</ele><time>2026-08-14T15:17:30.000Z</time></trkpt>
        <trkpt lat="29.463428" lon="103.2834962"><ele>1666.02</ele><time>2026-08-14T15:17:39.000Z</time></trkpt>
        <trkpt lat="29.4635236" lon="103.2835249"><ele>1666.68</ele><time>2026-08-14T15:17:46.000Z</time></trkpt>
        <trkpt lat="29.4636142" lon="103.2835687"><ele>1666.87</ele><time>2026-08-14T15:17:54.000Z</time></trkpt>
        <trkpt lat="29.4636974" lon="103.2836283"><ele>1667.02</ele><time>2026-08-14T15:18:02.000Z</time></trkpt>
        <trkpt lat="29.4637669" lon="103.2837039"><ele>1667.38</ele><time>2026-08-14T15:18:11.000Z</time></trkpt>
        <trkpt lat="29.4638235" lon="103.2838009"><ele>1667.9</ele><time>2026-08-14T15:18:19.000Z</time></trkpt>
        <trkpt lat="29.463905" lon="103.2838696"><ele>1668.48</ele><time>2026-08-14T15:18:35.000Z</time></trkpt>
        <trkpt lat="29.4639984" lon="103.2839316"><ele>1668.88</ele><time>2026-08-14T15:18:42.000Z</time></trkpt>
        <trkpt lat="29.4640954" lon="103.2839801"><ele>1669.54</ele><time>2026-08-14T15:18:51.000Z</time></trkpt>
        <trkpt lat="29.4641856" lon="103.2840358"><ele>1670.14</ele><time>2026-08-14T15:18:59.000Z</time></trkpt>
        <trkpt lat="29.4642711" lon="103.2840894"><ele>1670.9</ele><time>2026-08-14T15:19:07.000Z</time></trkpt>
        <trkpt lat="29.4643478" lon="103.2841653"><ele>1672.38</ele><time>2026-08-14T15:19:15.000Z</time></trkpt>
        <trkpt lat="29.4644243" lon="103.2842439"><ele>1673.41</ele><time>2026-08-14T15:19:23.000Z</time></trkpt>
        <trkpt lat="29.4645128" lon="103.2843051"><ele>1674.2</ele><time>2026-08-14T15:19:31.000Z</time></trkpt>
        <trkpt lat="29.4646175" lon="103.2843306"><ele>1675.06</ele><time>2026-08-14T15:19:39.000Z</time></trkpt>
        <trkpt lat="29.4647277" lon="103.2843379"><ele>1675.89</ele><time>2026-08-14T15:19:47.000Z</time></trkpt>
        <trkpt lat="29.4648344" lon="103.2843236"><ele>1676.46</ele><time>2026-08-14T15:19:55.000Z</time></trkpt>
        <trkpt lat="29.4649375" lon="103.2843265"><ele>1676.98</ele><time>2026-08-14T15:20:03.000Z</time></trkpt>
        <trkpt lat="29.4650404" lon="103.2843437"><ele>1677.58</ele><time>2026-08-14T15:20:11.000Z</time></trkpt>
        <trkpt lat="29.4651433" lon="103.2843723"><ele>1678.04</ele><time>2026-08-14T15:20:19.000Z</time></trkpt>
        <trkpt lat="29.4652463" lon="103.2843757"><ele>1678.48</ele><time>2026-08-14T15:20:27.000Z</time></trkpt>
        <trkpt lat="29.4653492" lon="103.2843632"><ele>1678.71</ele><time>2026-08-14T15:20:35.000Z</time></trkpt>
        <trkpt lat="29.4654479" lon="103.2843401"><ele>1679.3</ele><time>2026-08-14T15:20:43.000Z</time></trkpt>
        <trkpt lat="29.4655321" lon="103.2842742"><ele>1680.01</ele><time>2026-08-14T15:20:51.000Z</time></trkpt>
        <trkpt lat="29.465607" lon="103.2841998"><ele>1680.49</ele><time>2026-08-14T15:20:59.000Z</time></trkpt>
        <trkpt lat="29.4656822" lon="103.2841253"><ele>1680.58</ele><time>2026-08-14T15:21:07.000Z</time></trkpt>
        <trkpt lat="29.4657687" lon="103.2840643"><ele>1680.67</ele><time>2026-08-14T15:21:15.000Z</time></trkpt>
        <trkpt lat="29.4658711" lon="103.2840552"><ele>1681.25</ele><time>2026-08-14T15:21:23.000Z</time></trkpt>
        <trkpt lat="29.4659705" lon="103.2840993"><ele>1682.34</ele><time>2026-08-14T15:21:31.000Z</time></trkpt>
        <trkpt lat="29.4660735" lon="103.2841312"><ele>1683.06</ele><time>2026-08-14T15:21:39.000Z</time></trkpt>
        <trkpt lat="29.4661759" lon="103.2841428"><ele>1683.62</ele><time>2026-08-14T15:21:47.000Z</time></trkpt>
        <trkpt lat="29.4662705" lon="103.2841567"><ele>1684.46</ele><time>2026-08-14T15:21:59.000Z</time></trkpt>
        <trkpt lat="29.4663693" lon="103.2841889"><ele>1685.63</ele><time>2026-08-14T15:22:07.000Z</time></trkpt>
        <trkpt lat="29.4664685" lon="103.2842047"><ele>1686.71</ele><time>2026-08-14T15:22:15.000Z</time></trkpt>
        <trkpt lat="29.4665649" lon="103.2841907"><ele>1687.63</ele><time>2026-08-14T15:22:23.000Z</time></trkpt>
        <trkpt lat="29.4666574" lon="103.284149"><ele>1688.33</ele><time>2026-08-14T15:22:31.000Z</time></trkpt>
        <trkpt lat="29.4667501" lon="103.2841218"><ele>1688.86</ele><time>2026-08-14T15:22:39.000Z</time></trkpt>
        <trkpt lat="29.4668401" lon="103.2841082"><ele>1690.1</ele><time>2026-08-14T15:22:47.000Z</time></trkpt>
        <trkpt lat="29.4669294" lon="103.2841402"><ele>1692.27</ele><time>2026-08-14T15:22:54.000Z</time></trkpt>
        <trkpt lat="29.4670129" lon="103.2842113"><ele>1694.2</ele><time>2026-08-14T15:23:03.000Z</time></trkpt>
        <trkpt lat="29.4670945" lon="103.2842826"><ele>1696.33</ele><time>2026-08-14T15:23:11.000Z</time></trkpt>
        <trkpt lat="29.46718" lon="103.284333"><ele>1697.57</ele><time>2026-08-14T15:23:18.000Z</time></trkpt>
        <trkpt lat="29.4672787" lon="103.2843281"><ele>1698.33</ele><time>2026-08-14T15:23:29.000Z</time></trkpt>
        <trkpt lat="29.4673837" lon="103.2842973"><ele>1699.24</ele><time>2026-08-14T15:23:39.000Z</time></trkpt>
        <trkpt lat="29.4674802" lon="103.2842947"><ele>1700.04</ele><time>2026-08-14T15:23:47.000Z</time></trkpt>
        <trkpt lat="29.4675842" lon="103.2843053"><ele>1701.05</ele><time>2026-08-14T15:23:57.000Z</time></trkpt>
        <trkpt lat="29.4676926" lon="103.2843151"><ele>1702.32</ele><time>2026-08-14T15:24:07.000Z</time></trkpt>
        <trkpt lat="29.4677907" lon="103.2843698"><ele>1703.49</ele><time>2026-08-14T15:24:17.000Z</time></trkpt>
        <trkpt lat="29.467876" lon="103.2844521"><ele>1704.95</ele><time>2026-08-14T15:24:27.000Z</time></trkpt>
        <trkpt lat="29.4679598" lon="103.2845303"><ele>1706.45</ele><time>2026-08-14T15:24:37.000Z</time></trkpt>
        <trkpt lat="29.4680182" lon="103.2846213"><ele>1707.59</ele><time>2026-08-14T15:24:47.000Z</time></trkpt>
        <trkpt lat="29.4680736" lon="103.2847158"><ele>1708.84</ele><time>2026-08-14T15:24:57.000Z</time></trkpt>
        <trkpt lat="29.4681539" lon="103.2847469"><ele>1710.29</ele><time>2026-08-14T15:25:05.000Z</time></trkpt>
        <trkpt lat="29.4682515" lon="103.2847484"><ele>1711.96</ele><time>2026-08-14T15:25:13.000Z</time></trkpt>
        <trkpt lat="29.4683532" lon="103.2847591"><ele>1713.79</ele><time>2026-08-14T15:25:21.000Z</time></trkpt>
        <trkpt lat="29.4684393" lon="103.284828"><ele>1715.49</ele><time>2026-08-14T15:25:31.000Z</time></trkpt>
        <trkpt lat="29.4685159" lon="103.2849194"><ele>1717.1</ele><time>2026-08-14T15:25:41.000Z</time></trkpt>
        <trkpt lat="29.4686122" lon="103.2849533"><ele>1718.91</ele><time>2026-08-14T15:25:51.000Z</time></trkpt>
        <trkpt lat="29.4686835" lon="103.2848949"><ele>1720.76</ele><time>2026-08-14T15:25:59.000Z</time></trkpt>
        <trkpt lat="29.4687335" lon="103.2847989"><ele>1722.53</ele><time>2026-08-14T15:26:07.000Z</time></trkpt>
        <trkpt lat="29.468804" lon="103.2847179"><ele>1723.94</ele><time>2026-08-14T15:26:15.000Z</time></trkpt>
        <trkpt lat="29.468885" lon="103.2846535"><ele>1724.76</ele><time>2026-08-14T15:26:23.000Z</time></trkpt>
        <trkpt lat="29.4689626" lon="103.2845914"><ele>1725.51</ele><time>2026-08-14T15:26:31.000Z</time></trkpt>
        <trkpt lat="29.4690524" lon="103.2845416"><ele>1726.18</ele><time>2026-08-14T15:26:39.000Z</time></trkpt>
        <trkpt lat="29.4691495" lon="103.2845136"><ele>1726.64</ele><time>2026-08-14T15:26:47.000Z</time></trkpt>
        <trkpt lat="29.4692456" lon="103.2845157"><ele>1727.24</ele><time>2026-08-14T15:26:55.000Z</time></trkpt>
        <trkpt lat="29.4693419" lon="103.2845387"><ele>1728.18</ele><time>2026-08-14T15:27:05.000Z</time></trkpt>
        <trkpt lat="29.4694408" lon="103.2845152"><ele>1729.42</ele><time>2026-08-14T15:27:15.000Z</time></trkpt>
        <trkpt lat="29.4695348" lon="103.2844552"><ele>1730.39</ele><time>2026-08-14T15:27:25.000Z</time></trkpt>
        <trkpt lat="29.4696266" lon="103.2844231"><ele>1731.31</ele><time>2026-08-14T15:27:33.000Z</time></trkpt>
        <trkpt lat="29.469725" lon="103.2844383"><ele>1732.32</ele><time>2026-08-14T15:27:41.000Z</time></trkpt>
        <trkpt lat="29.4698188" lon="103.2844879"><ele>1733.35</ele><time>2026-08-14T15:27:49.000Z</time></trkpt>
        <trkpt lat="29.4699121" lon="103.2845072"><ele>1734.8</ele><time>2026-08-14T15:27:57.000Z</time></trkpt>
        <trkpt lat="29.4699953" lon="103.2844663"><ele>1735.77</ele><time>2026-08-14T15:28:05.000Z</time></trkpt>
        <trkpt lat="29.4700692" lon="103.2843862"><ele>1736.15</ele><time>2026-08-14T15:28:13.000Z</time></trkpt>
        <trkpt lat="29.4701474" lon="103.2843179"><ele>1736.48</ele><time>2026-08-14T15:28:21.000Z</time></trkpt>
        <trkpt lat="29.4702395" lon="103.2842865"><ele>1737.11</ele><time>2026-08-14T15:28:29.000Z</time></trkpt>
        <trkpt lat="29.4703283" lon="103.2842584"><ele>1737.99</ele><time>2026-08-14T15:28:37.000Z</time></trkpt>
        <trkpt lat="29.4704152" lon="103.2842303"><ele>1739.01</ele><time>2026-08-14T15:28:45.000Z</time></trkpt>
        <trkpt lat="29.4705142" lon="103.2842301"><ele>1739.67</ele><time>2026-08-14T15:28:53.000Z</time></trkpt>
        <trkpt lat="29.4706118" lon="103.2842739"><ele>1740.7</ele><time>2026-08-14T15:29:01.000Z</time></trkpt>
        <trkpt lat="29.470704" lon="103.2843206"><ele>1741.85</ele><time>2026-08-14T15:29:09.000Z</time></trkpt>
        <trkpt lat="29.4707969" lon="103.2843592"><ele>1743.27</ele><time>2026-08-14T15:29:17.000Z</time></trkpt>
        <trkpt lat="29.4708987" lon="103.2843758"><ele>1744.4</ele><time>2026-08-14T15:29:25.000Z</time></trkpt>
        <trkpt lat="29.4709981" lon="103.2843781"><ele>1745.53</ele><time>2026-08-14T15:29:33.000Z</time></trkpt>
        <trkpt lat="29.4711018" lon="103.2843816"><ele>1746.72</ele><time>2026-08-14T15:29:43.000Z</time></trkpt>
        <trkpt lat="29.4711971" lon="103.2844099"><ele>1748.13</ele><time>2026-08-14T15:29:51.000Z</time></trkpt>
        <trkpt lat="29.4712889" lon="103.284465"><ele>1749.18</ele><time>2026-08-14T15:29:59.000Z</time></trkpt>
        <trkpt lat="29.4713898" lon="103.2844773"><ele>1749.98</ele><time>2026-08-14T15:30:07.000Z</time></trkpt>
        <trkpt lat="29.4714858" lon="103.2844547"><ele>1750.89</ele><time>2026-08-14T15:30:15.000Z</time></trkpt>
        <trkpt lat="29.4715854" lon="103.2844264"><ele>1752.12</ele><time>2026-08-14T15:30:23.000Z</time></trkpt>
        <trkpt lat="29.4716835" lon="103.28441"><ele>1753.32</ele><time>2026-08-14T15:30:31.000Z</time></trkpt>
        <trkpt lat="29.4717781" lon="103.2843882"><ele>1754.74</ele><time>2026-08-14T15:30:39.000Z</time></trkpt>
        <trkpt lat="29.4718643" lon="103.2843533"><ele>1755.86</ele><time>2026-08-14T15:30:47.000Z</time></trkpt>
        <trkpt lat="29.4719519" lon="103.2843139"><ele>1757.09</ele><time>2026-08-14T15:30:57.000Z</time></trkpt>
        <trkpt lat="29.4720448" lon="103.2843082"><ele>1758.95</ele><time>2026-08-14T15:31:07.000Z</time></trkpt>
        <trkpt lat="29.4720941" lon="103.2843902"><ele>1760.81</ele><time>2026-08-14T15:31:23.000Z</time></trkpt>
        <trkpt lat="29.4720513" lon="103.2844855"><ele>1762.36</ele><time>2026-08-14T15:31:33.000Z</time></trkpt>
        <trkpt lat="29.4719829" lon="103.2845858"><ele>1764.38</ele><time>2026-08-14T15:31:43.000Z</time></trkpt>
        <trkpt lat="29.4719243" lon="103.2846958"><ele>1765.72</ele><time>2026-08-14T15:31:54.000Z</time></trkpt>
        <trkpt lat="29.4718941" lon="103.2848127"><ele>1767.2</ele><time>2026-08-14T15:32:06.000Z</time></trkpt>
        <trkpt lat="29.4719707" lon="103.2848274"><ele>1769.2</ele><time>2026-08-14T15:32:23.000Z</time></trkpt>
        <trkpt lat="29.4720602" lon="103.284769"><ele>1771.52</ele><time>2026-08-14T15:32:31.000Z</time></trkpt>
        <trkpt lat="29.4721568" lon="103.2847117"><ele>1773.51</ele><time>2026-08-14T15:32:39.000Z</time></trkpt>
        <trkpt lat="29.4722592" lon="103.2847073"><ele>1775.32</ele><time>2026-08-14T15:32:49.000Z</time></trkpt>
        <trkpt lat="29.4723641" lon="103.2847371"><ele>1777</ele><time>2026-08-14T15:32:59.000Z</time></trkpt>
        <trkpt lat="29.4724668" lon="103.2847784"><ele>1778.57</ele><time>2026-08-14T15:33:09.000Z</time></trkpt>
        <trkpt lat="29.4725649" lon="103.2847928"><ele>1780.53</ele><time>2026-08-14T15:33:19.000Z</time></trkpt>
        <trkpt lat="29.472658" lon="103.2848011"><ele>1782.8</ele><time>2026-08-14T15:33:27.000Z</time></trkpt>
        <trkpt lat="29.4727465" lon="103.2848249"><ele>1784.93</ele><time>2026-08-14T15:33:35.000Z</time></trkpt>
        <trkpt lat="29.4728464" lon="103.2848606"><ele>1786.81</ele><time>2026-08-14T15:33:45.000Z</time></trkpt>
        <trkpt lat="29.4729538" lon="103.284883"><ele>1788.83</ele><time>2026-08-14T15:33:55.000Z</time></trkpt>
        <trkpt lat="29.4730593" lon="103.2848938"><ele>1790.78</ele><time>2026-08-14T15:34:05.000Z</time></trkpt>
        <trkpt lat="29.4731633" lon="103.2849121"><ele>1793.24</ele><time>2026-08-14T15:34:15.000Z</time></trkpt>
        <trkpt lat="29.4732638" lon="103.2849338"><ele>1795.42</ele><time>2026-08-14T15:34:25.000Z</time></trkpt>
        <trkpt lat="29.4733658" lon="103.2849626"><ele>1797.48</ele><time>2026-08-14T15:34:35.000Z</time></trkpt>
        <trkpt lat="29.4734714" lon="103.2849937"><ele>1799.09</ele><time>2026-08-14T15:34:45.000Z</time></trkpt>
        <trkpt lat="29.4735669" lon="103.2849965"><ele>1800.09</ele><time>2026-08-14T15:34:53.000Z</time></trkpt>
        <trkpt lat="29.4736584" lon="103.2849829"><ele>1800.62</ele><time>2026-08-14T15:35:01.000Z</time></trkpt>
        <trkpt lat="29.473749" lon="103.2849761"><ele>1801.2</ele><time>2026-08-14T15:35:09.000Z</time></trkpt>
        <trkpt lat="29.4738497" lon="103.2849848"><ele>1801.88</ele><time>2026-08-14T15:35:19.000Z</time></trkpt>
        <trkpt lat="29.4739444" lon="103.2850054"><ele>1802.71</ele><time>2026-08-14T15:35:27.000Z</time></trkpt>
        <trkpt lat="29.4740408" lon="103.2850069"><ele>1803.64</ele><time>2026-08-14T15:35:35.000Z</time></trkpt>
        <trkpt lat="29.4741322" lon="103.2849832"><ele>1804.47</ele><time>2026-08-14T15:35:43.000Z</time></trkpt>
        <trkpt lat="29.4742188" lon="103.2849222"><ele>1805.13</ele><time>2026-08-14T15:35:51.000Z</time></trkpt>
        <trkpt lat="29.474304" lon="103.2848434"><ele>1805.49</ele><time>2026-08-14T15:35:59.000Z</time></trkpt>
        <trkpt lat="29.4743561" lon="103.2847325"><ele>1805.65</ele><time>2026-08-14T15:36:08.000Z</time></trkpt>
        <trkpt lat="29.4743405" lon="103.2846008"><ele>1805.51</ele><time>2026-08-14T15:36:16.000Z</time></trkpt>
        <trkpt lat="29.4743351" lon="103.284459"><ele>1805.08</ele><time>2026-08-14T15:36:24.000Z</time></trkpt>
        <trkpt lat="29.4743812" lon="103.2843449"><ele>1804.36</ele><time>2026-08-14T15:36:32.000Z</time></trkpt>
        <trkpt lat="29.4744753" lon="103.2842831"><ele>1803.46</ele><time>2026-08-14T15:36:40.000Z</time></trkpt>
        <trkpt lat="29.4745908" lon="103.2842857"><ele>1802.45</ele><time>2026-08-14T15:36:48.000Z</time></trkpt>
        <trkpt lat="29.4746934" lon="103.284286"><ele>1801.06</ele><time>2026-08-14T15:36:54.000Z</time></trkpt>
        <trkpt lat="29.4747682" lon="103.2842343"><ele>1799.9</ele><time>2026-08-14T15:37:00.000Z</time></trkpt>
        <trkpt lat="29.4748276" lon="103.2841381"><ele>1798.86</ele><time>2026-08-14T15:37:08.000Z</time></trkpt>
        <trkpt lat="29.4748924" lon="103.284027"><ele>1798.13</ele><time>2026-08-14T15:37:16.000Z</time></trkpt>
        <trkpt lat="29.4749864" lon="103.2839597"><ele>1797.43</ele><time>2026-08-14T15:37:24.000Z</time></trkpt>
        <trkpt lat="29.4750772" lon="103.2839223"><ele>1796.95</ele><time>2026-08-14T15:37:30.000Z</time></trkpt>
        <trkpt lat="29.475184" lon="103.2838718"><ele>1796.61</ele><time>2026-08-14T15:37:38.000Z</time></trkpt>
        <trkpt lat="29.4752977" lon="103.2838315"><ele>1796.22</ele><time>2026-08-14T15:37:46.000Z</time></trkpt>
        <trkpt lat="29.4753868" lon="103.2837602"><ele>1795.72</ele><time>2026-08-14T15:37:54.000Z</time></trkpt>
        <trkpt lat="29.4754316" lon="103.2836652"><ele>1794.96</ele><time>2026-08-14T15:38:00.000Z</time></trkpt>
        <trkpt lat="29.4754595" lon="103.2835628"><ele>1794.32</ele><time>2026-08-14T15:38:06.000Z</time></trkpt>
        <trkpt lat="29.4754756" lon="103.2834369"><ele>1793.52</ele><time>2026-08-14T15:38:14.000Z</time></trkpt>
        <trkpt lat="29.475454" lon="103.2833209"><ele>1792.49</ele><time>2026-08-14T15:38:20.000Z</time></trkpt>
        <trkpt lat="29.4754205" lon="103.2832106"><ele>1791.38</ele><time>2026-08-14T15:38:26.000Z</time></trkpt>
        <trkpt lat="29.4754001" lon="103.2830858"><ele>1790.37</ele><time>2026-08-14T15:38:34.000Z</time></trkpt>
        <trkpt lat="29.4754542" lon="103.2829958"><ele>1789.37</ele><time>2026-08-14T15:38:42.000Z</time></trkpt>
        <trkpt lat="29.4755431" lon="103.2829536"><ele>1788.3</ele><time>2026-08-14T15:38:48.000Z</time></trkpt>
        <trkpt lat="29.4756495" lon="103.2829103"><ele>1787.21</ele><time>2026-08-14T15:38:54.000Z</time></trkpt>
        <trkpt lat="29.4757398" lon="103.2828516"><ele>1786.26</ele><time>2026-08-14T15:39:00.000Z</time></trkpt>
        <trkpt lat="29.4758398" lon="103.2827971"><ele>1785.38</ele><time>2026-08-14T15:39:08.000Z</time></trkpt>
        <trkpt lat="29.4759354" lon="103.282744"><ele>1782.46</ele><time>2026-08-14T15:39:16.000Z</time></trkpt>
        <trkpt lat="29.4760414" lon="103.2827141"><ele>1780.52</ele><time>2026-08-14T15:39:24.000Z</time></trkpt>
        <trkpt lat="29.4761552" lon="103.2827268"><ele>1779.06</ele><time>2026-08-14T15:39:32.000Z</time></trkpt>
        <trkpt lat="29.4762669" lon="103.2827537"><ele>1777.74</ele><time>2026-08-14T15:39:40.000Z</time></trkpt>
        <trkpt lat="29.4763613" lon="103.2827885"><ele>1776.59</ele><time>2026-08-14T15:39:46.000Z</time></trkpt>
        <trkpt lat="29.4764719" lon="103.2827893"><ele>1775.67</ele><time>2026-08-14T15:39:54.000Z</time></trkpt>
        <trkpt lat="29.4765749" lon="103.2827358"><ele>1774.55</ele><time>2026-08-14T15:40:02.000Z</time></trkpt>
        <trkpt lat="29.4766719" lon="103.2826578"><ele>1773.66</ele><time>2026-08-14T15:40:10.000Z</time></trkpt>
        <trkpt lat="29.4767653" lon="103.28258"><ele>1772.84</ele><time>2026-08-14T15:40:18.000Z</time></trkpt>
        <trkpt lat="29.4768507" lon="103.2824941"><ele>1772.14</ele><time>2026-08-14T15:40:26.000Z</time></trkpt>
        <trkpt lat="29.4769264" lon="103.2824068"><ele>1771.12</ele><time>2026-08-14T15:40:34.000Z</time></trkpt>
        <trkpt lat="29.4770121" lon="103.2823203"><ele>1769.72</ele><time>2026-08-14T15:40:42.000Z</time></trkpt>
        <trkpt lat="29.4770924" lon="103.2822522"><ele>1768.39</ele><time>2026-08-14T15:40:48.000Z</time></trkpt>
        <trkpt lat="29.4771878" lon="103.2821854"><ele>1767.3</ele><time>2026-08-14T15:40:56.000Z</time></trkpt>
        <trkpt lat="29.4772846" lon="103.2821068"><ele>1766.17</ele><time>2026-08-14T15:41:04.000Z</time></trkpt>
        <trkpt lat="29.4773512" lon="103.2820004"><ele>1764.75</ele><time>2026-08-14T15:41:10.000Z</time></trkpt>
        <trkpt lat="29.4773934" lon="103.2818958"><ele>1763.31</ele><time>2026-08-14T15:41:16.000Z</time></trkpt>
        <trkpt lat="29.477461" lon="103.2818279"><ele>1762.42</ele><time>2026-08-14T15:41:22.000Z</time></trkpt>
        <trkpt lat="29.4775014" lon="103.2819233"><ele>1761.86</ele><time>2026-08-14T15:41:28.000Z</time></trkpt>
        <trkpt lat="29.4775114" lon="103.2820481"><ele>1761.43</ele><time>2026-08-14T15:41:34.000Z</time></trkpt>
        <trkpt lat="29.4775132" lon="103.2821796"><ele>1761.44</ele><time>2026-08-14T15:41:42.000Z</time></trkpt>
        <trkpt lat="29.4775286" lon="103.2823183"><ele>1762.02</ele><time>2026-08-14T15:41:50.000Z</time></trkpt>
        <trkpt lat="29.4775521" lon="103.2824326"><ele>1762.38</ele><time>2026-08-14T15:41:56.000Z</time></trkpt>
        <trkpt lat="29.4775616" lon="103.282547"><ele>1762.68</ele><time>2026-08-14T15:42:04.000Z</time></trkpt>
        <trkpt lat="29.4775585" lon="103.2826729"><ele>1762.61</ele><time>2026-08-14T15:42:12.000Z</time></trkpt>
        <trkpt lat="29.4775527" lon="103.2827973"><ele>1762.85</ele><time>2026-08-14T15:42:20.000Z</time></trkpt>
        <trkpt lat="29.4775469" lon="103.2829262"><ele>1763.4</ele><time>2026-08-14T15:42:28.000Z</time></trkpt>
        <trkpt lat="29.4775347" lon="103.2830565"><ele>1763.41</ele><time>2026-08-14T15:42:36.000Z</time></trkpt>
        <trkpt lat="29.4775162" lon="103.2831755"><ele>1763.05</ele><time>2026-08-14T15:42:44.000Z</time></trkpt>
        <trkpt lat="29.4774859" lon="103.28329"><ele>1762.99</ele><time>2026-08-14T15:42:52.000Z</time></trkpt>
        <trkpt lat="29.4774633" lon="103.2834034"><ele>1763.1</ele><time>2026-08-14T15:43:00.000Z</time></trkpt>
        <trkpt lat="29.4774661" lon="103.2835112"><ele>1763.23</ele><time>2026-08-14T15:43:08.000Z</time></trkpt>
        <trkpt lat="29.4775213" lon="103.2835943"><ele>1763.37</ele><time>2026-08-14T15:43:16.000Z</time></trkpt>
        <trkpt lat="29.4776171" lon="103.2836459"><ele>1763.98</ele><time>2026-08-14T15:43:24.000Z</time></trkpt>
        <trkpt lat="29.4777085" lon="103.2837049"><ele>1764.27</ele><time>2026-08-14T15:43:32.000Z</time></trkpt>
        <trkpt lat="29.4777927" lon="103.2837748"><ele>1764.49</ele><time>2026-08-14T15:43:40.000Z</time></trkpt>
        <trkpt lat="29.4778838" lon="103.2838268"><ele>1764.88</ele><time>2026-08-14T15:43:48.000Z</time></trkpt>
        <trkpt lat="29.4779839" lon="103.2838606"><ele>1765.5</ele><time>2026-08-14T15:43:56.000Z</time></trkpt>
        <trkpt lat="29.4780852" lon="103.28382"><ele>1766.1</ele><time>2026-08-14T15:44:04.000Z</time></trkpt>
        <trkpt lat="29.478186" lon="103.2837651"><ele>1766.58</ele><time>2026-08-14T15:44:12.000Z</time></trkpt>
        <trkpt lat="29.4782847" lon="103.2836927"><ele>1767.18</ele><time>2026-08-14T15:44:20.000Z</time></trkpt>
        <trkpt lat="29.478358" lon="103.2836116"><ele>1767.83</ele><time>2026-08-14T15:44:26.000Z</time></trkpt>
        <trkpt lat="29.4784536" lon="103.2836044"><ele>1768.35</ele><time>2026-08-14T15:44:34.000Z</time></trkpt>
        <trkpt lat="29.4785342" lon="103.283655"><ele>1768.68</ele><time>2026-08-14T15:44:40.000Z</time></trkpt>
        <trkpt lat="29.4786205" lon="103.2837064"><ele>1769.08</ele><time>2026-08-14T15:44:46.000Z</time></trkpt>
        <trkpt lat="29.4787079" lon="103.2837418"><ele>1769.42</ele><time>2026-08-14T15:44:52.000Z</time></trkpt>
        <trkpt lat="29.4787799" lon="103.2838262"><ele>1769.72</ele><time>2026-08-14T15:45:00.000Z</time></trkpt>
        <trkpt lat="29.4788147" lon="103.283928"><ele>1770.39</ele><time>2026-08-14T15:45:06.000Z</time></trkpt>
        <trkpt lat="29.4788611" lon="103.2840389"><ele>1770.83</ele><time>2026-08-14T15:45:14.000Z</time></trkpt>
        <trkpt lat="29.4789357" lon="103.2841277"><ele>1771.1</ele><time>2026-08-14T15:45:22.000Z</time></trkpt>
        <trkpt lat="29.4790385" lon="103.2841665"><ele>1771.74</ele><time>2026-08-14T15:45:30.000Z</time></trkpt>
        <trkpt lat="29.4791432" lon="103.2841414"><ele>1772.3</ele><time>2026-08-14T15:45:38.000Z</time></trkpt>
        <trkpt lat="29.4792507" lon="103.2841187"><ele>1773.23</ele><time>2026-08-14T15:45:46.000Z</time></trkpt>
        <trkpt lat="29.4793594" lon="103.2840962"><ele>1773.79</ele><time>2026-08-14T15:45:54.000Z</time></trkpt>
        <trkpt lat="29.4794606" lon="103.2840763"><ele>1773.96</ele><time>2026-08-14T15:46:02.000Z</time></trkpt>
        <trkpt lat="29.4795572" lon="103.2840415"><ele>1774.48</ele><time>2026-08-14T15:46:10.000Z</time></trkpt>
        <trkpt lat="29.4796507" lon="103.2840075"><ele>1775.13</ele><time>2026-08-14T15:46:18.000Z</time></trkpt>
        <trkpt lat="29.4797434" lon="103.283975"><ele>1775.84</ele><time>2026-08-14T15:46:26.000Z</time></trkpt>
        <trkpt lat="29.4798362" lon="103.2839435"><ele>1776.8</ele><time>2026-08-14T15:46:34.000Z</time></trkpt>
        <trkpt lat="29.4799235" lon="103.2839126"><ele>1777.85</ele><time>2026-08-14T15:46:42.000Z</time></trkpt>
        <trkpt lat="29.4800018" lon="103.2838591"><ele>1779.04</ele><time>2026-08-14T15:46:50.000Z</time></trkpt>
        <trkpt lat="29.4800814" lon="103.2837973"><ele>1780.06</ele><time>2026-08-14T15:46:58.000Z</time></trkpt>
        <trkpt lat="29.4801679" lon="103.2837337"><ele>1780.84</ele><time>2026-08-14T15:47:08.000Z</time></trkpt>
        <trkpt lat="29.4802587" lon="103.283682"><ele>1782.02</ele><time>2026-08-14T15:47:18.000Z</time></trkpt>
        <trkpt lat="29.4803451" lon="103.2836297"><ele>1783.24</ele><time>2026-08-14T15:47:28.000Z</time></trkpt>
        <trkpt lat="29.4804138" lon="103.2835481"><ele>1784.5</ele><time>2026-08-14T15:47:38.000Z</time></trkpt>
        <trkpt lat="29.4804617" lon="103.28345"><ele>1786.03</ele><time>2026-08-14T15:47:48.000Z</time></trkpt>
        <trkpt lat="29.4804929" lon="103.283336"><ele>1787.58</ele><time>2026-08-14T15:48:00.000Z</time></trkpt>
        <trkpt lat="29.4805542" lon="103.283258"><ele>1789.92</ele><time>2026-08-14T15:48:12.000Z</time></trkpt>
        <trkpt lat="29.4806455" lon="103.2832694"><ele>1792.68</ele><time>2026-08-14T15:48:24.000Z</time></trkpt>
        <trkpt lat="29.4807039" lon="103.2833641"><ele>1795.22</ele><time>2026-08-14T15:48:36.000Z</time></trkpt>
        <trkpt lat="29.4807141" lon="103.2834895"><ele>1797.94</ele><time>2026-08-14T15:48:46.000Z</time></trkpt>
        <trkpt lat="29.480733" lon="103.2836187"><ele>1800.7</ele><time>2026-08-14T15:48:56.000Z</time></trkpt>
        <trkpt lat="29.4807726" lon="103.2837264"><ele>1802.96</ele><time>2026-08-14T15:49:06.000Z</time></trkpt>
        <trkpt lat="29.4808237" lon="103.2838345"><ele>1804.23</ele><time>2026-08-14T15:49:20.000Z</time></trkpt>
        <trkpt lat="29.4808097" lon="103.2839481"><ele>1805.8</ele><time>2026-08-14T15:49:28.000Z</time></trkpt>
        <trkpt lat="29.4807481" lon="103.2840518"><ele>1806.95</ele><time>2026-08-14T15:49:36.000Z</time></trkpt>
        <trkpt lat="29.4806907" lon="103.2841457"><ele>1808.15</ele><time>2026-08-14T15:49:38.000Z</time></trkpt>
        <trkpt lat="29.4806321" lon="103.2842823"><ele>1808.94</ele><time>2026-08-14T15:49:42.000Z</time></trkpt>
        <trkpt lat="29.4805878" lon="103.2844178"><ele>1809.48</ele><time>2026-08-14T15:49:46.000Z</time></trkpt>
        <trkpt lat="29.4805414" lon="103.2845282"><ele>1809.58</ele><time>2026-08-14T15:49:52.000Z</time></trkpt>
        <trkpt lat="29.4805398" lon="103.2845366"><ele>1809.71</ele><time>2026-08-14T15:50:00.000Z</time></trkpt>
        <trkpt lat="29.4806077" lon="103.2846233"><ele>1809.79</ele><time>2026-08-14T15:50:30.000Z</time></trkpt>
        <trkpt lat="29.4806842" lon="103.2846758"><ele>1809.94</ele><time>2026-08-14T15:50:32.000Z</time></trkpt>
        <trkpt lat="29.4808346" lon="103.2846804"><ele>1810.03</ele><time>2026-08-14T15:50:36.000Z</time></trkpt>
        <trkpt lat="29.4809516" lon="103.2846572"><ele>1810.16</ele><time>2026-08-14T15:50:38.000Z</time></trkpt>
        <trkpt lat="29.4810578" lon="103.284633"><ele>1810.22</ele><time>2026-08-14T15:50:40.000Z</time></trkpt>
        <trkpt lat="29.4811574" lon="103.2846175"><ele>1810.18</ele><time>2026-08-14T15:50:42.000Z</time></trkpt>
        <trkpt lat="29.4813176" lon="103.2845954"><ele>1810.04</ele><time>2026-08-14T15:50:46.000Z</time></trkpt>
        <trkpt lat="29.4814544" lon="103.2845656"><ele>1809.75</ele><time>2026-08-14T15:50:48.000Z</time></trkpt>
        <trkpt lat="29.4815738" lon="103.284528"><ele>1809.34</ele><time>2026-08-14T15:50:50.000Z</time></trkpt>
        <trkpt lat="29.4816936" lon="103.2844882"><ele>1808.93</ele><time>2026-08-14T15:50:52.000Z</time></trkpt>
        <trkpt lat="29.4818244" lon="103.28446"><ele>1808.63</ele><time>2026-08-14T15:50:54.000Z</time></trkpt>
        <trkpt lat="29.4819537" lon="103.2844307"><ele>1808.21</ele><time>2026-08-14T15:50:56.000Z</time></trkpt>
        <trkpt lat="29.4820779" lon="103.284418"><ele>1807.95</ele><time>2026-08-14T15:50:58.000Z</time></trkpt>
        <trkpt lat="29.4821915" lon="103.2844111"><ele>1807.78</ele><time>2026-08-14T15:51:00.000Z</time></trkpt>
        <trkpt lat="29.482297" lon="103.2844112"><ele>1807.65</ele><time>2026-08-14T15:51:02.000Z</time></trkpt>
        <trkpt lat="29.482399" lon="103.2844187"><ele>1807.49</ele><time>2026-08-14T15:51:04.000Z</time></trkpt>
        <trkpt lat="29.4825004" lon="103.2844224"><ele>1807.23</ele><time>2026-08-14T15:51:06.000Z</time></trkpt>
        <trkpt lat="29.4826065" lon="103.2844295"><ele>1806.75</ele><time>2026-08-14T15:51:08.000Z</time></trkpt>
        <trkpt lat="29.4827147" lon="103.2844377"><ele>1806.29</ele><time>2026-08-14T15:51:10.000Z</time></trkpt>
        <trkpt lat="29.4828193" lon="103.2844402"><ele>1805.91</ele><time>2026-08-14T15:51:12.000Z</time></trkpt>
        <trkpt lat="29.4829182" lon="103.2844347"><ele>1805.26</ele><time>2026-08-14T15:51:14.000Z</time></trkpt>
        <trkpt lat="29.4830509" lon="103.2844437"><ele>1804.59</ele><time>2026-08-14T15:51:18.000Z</time></trkpt>
        <trkpt lat="29.4831347" lon="103.2844412"><ele>1803.95</ele><time>2026-08-14T15:51:30.000Z</time></trkpt>
        <trkpt lat="29.483219" lon="103.2844227"><ele>1803.08</ele><time>2026-08-14T15:51:38.000Z</time></trkpt>
        <trkpt lat="29.4833082" lon="103.2843986"><ele>1802.65</ele><time>2026-08-14T15:51:42.000Z</time></trkpt>
        <trkpt lat="29.4833572" lon="103.284385"><ele>1802.3</ele><time>2026-08-14T15:51:46.000Z</time></trkpt>
        <trkpt lat="29.4834676" lon="103.2843647"><ele>1802.14</ele><time>2026-08-14T15:52:04.000Z</time></trkpt>
        <trkpt lat="29.4835856" lon="103.2843246"><ele>1802</ele><time>2026-08-14T15:52:08.000Z</time></trkpt>
        <trkpt lat="29.4836913" lon="103.2842431"><ele>1801.8</ele><time>2026-08-14T15:52:12.000Z</time></trkpt>
        <trkpt lat="29.4837881" lon="103.2841593"><ele>1801.51</ele><time>2026-08-14T15:52:16.000Z</time></trkpt>
        <trkpt lat="29.4838944" lon="103.2840776"><ele>1801.32</ele><time>2026-08-14T15:52:20.000Z</time></trkpt>
        <trkpt lat="29.4840032" lon="103.2840097"><ele>1801.05</ele><time>2026-08-14T15:52:24.000Z</time></trkpt>
        <trkpt lat="29.4841068" lon="103.2839478"><ele>1800.81</ele><time>2026-08-14T15:52:28.000Z</time></trkpt>
        <trkpt lat="29.484224" lon="103.2839105"><ele>1800.73</ele><time>2026-08-14T15:52:34.000Z</time></trkpt>
        <trkpt lat="29.4843234" lon="103.2838817"><ele>1800.86</ele><time>2026-08-14T15:52:38.000Z</time></trkpt>
        <trkpt lat="29.4843998" lon="103.2838258"><ele>1801.06</ele><time>2026-08-14T15:52:42.000Z</time></trkpt>
        <trkpt lat="29.4844484" lon="103.28373"><ele>1801.08</ele><time>2026-08-14T15:52:46.000Z</time></trkpt>
        <trkpt lat="29.4844856" lon="103.2836261"><ele>1801.15</ele><time>2026-08-14T15:52:50.000Z</time></trkpt>
        <trkpt lat="29.4845567" lon="103.283562"><ele>1801.62</ele><time>2026-08-14T15:52:54.000Z</time></trkpt>
        <trkpt lat="29.4846522" lon="103.2835716"><ele>1801.9</ele><time>2026-08-14T15:52:58.000Z</time></trkpt>
        <trkpt lat="29.4847471" lon="103.2836241"><ele>1801.99</ele><time>2026-08-14T15:53:02.000Z</time></trkpt>
        <trkpt lat="29.4848457" lon="103.2836703"><ele>1802.09</ele><time>2026-08-14T15:53:06.000Z</time></trkpt>
        <trkpt lat="29.4849663" lon="103.283721"><ele>1802.11</ele><time>2026-08-14T15:53:12.000Z</time></trkpt>
        <trkpt lat="29.4850914" lon="103.2837481"><ele>1802.14</ele><time>2026-08-14T15:53:18.000Z</time></trkpt>
        <trkpt lat="29.4852208" lon="103.2837708"><ele>1802.36</ele><time>2026-08-14T15:53:24.000Z</time></trkpt>
        <trkpt lat="29.4853507" lon="103.2837754"><ele>1802.58</ele><time>2026-08-14T15:53:30.000Z</time></trkpt>
        <trkpt lat="29.4854628" lon="103.2838082"><ele>1803.04</ele><time>2026-08-14T15:53:36.000Z</time></trkpt>
        <trkpt lat="29.485578" lon="103.2838354"><ele>1803.67</ele><time>2026-08-14T15:53:42.000Z</time></trkpt>
        <trkpt lat="29.4856921" lon="103.2838311"><ele>1804.52</ele><time>2026-08-14T15:53:48.000Z</time></trkpt>
        <trkpt lat="29.4858018" lon="103.2838379"><ele>1805.37</ele><time>2026-08-14T15:53:54.000Z</time></trkpt>
        <trkpt lat="29.4859129" lon="103.2838907"><ele>1806.26</ele><time>2026-08-14T15:54:00.000Z</time></trkpt>
        <trkpt lat="29.4860321" lon="103.2839203"><ele>1807.22</ele><time>2026-08-14T15:54:06.000Z</time></trkpt>
        <trkpt lat="29.4861456" lon="103.2839105"><ele>1808.27</ele><time>2026-08-14T15:54:12.000Z</time></trkpt>
        <trkpt lat="29.4862525" lon="103.2838977"><ele>1809.5</ele><time>2026-08-14T15:54:18.000Z</time></trkpt>
        <trkpt lat="29.4863369" lon="103.2838459"><ele>1811.29</ele><time>2026-08-14T15:54:24.000Z</time></trkpt>
        <trkpt lat="29.4864336" lon="103.2838212"><ele>1813.05</ele><time>2026-08-14T15:54:30.000Z</time></trkpt>
        <trkpt lat="29.4865363" lon="103.2838265"><ele>1814.78</ele><time>2026-08-14T15:54:36.000Z</time></trkpt>
        <trkpt lat="29.4866498" lon="103.2837912"><ele>1816.62</ele><time>2026-08-14T15:54:42.000Z</time></trkpt>
        <trkpt lat="29.4867541" lon="103.2836992"><ele>1818.1</ele><time>2026-08-14T15:54:48.000Z</time></trkpt>
        <trkpt lat="29.4868515" lon="103.2836453"><ele>1819.38</ele><time>2026-08-14T15:54:52.000Z</time></trkpt>
        <trkpt lat="29.4869536" lon="103.2836951"><ele>1820.45</ele><time>2026-08-14T15:54:58.000Z</time></trkpt>
        <trkpt lat="29.4870134" lon="103.2837884"><ele>1821.78</ele><time>2026-08-14T15:55:02.000Z</time></trkpt>
        <trkpt lat="29.4870979" lon="103.2839034"><ele>1822.89</ele><time>2026-08-14T15:55:08.000Z</time></trkpt>
        <trkpt lat="29.4871952" lon="103.2839979"><ele>1824.1</ele><time>2026-08-14T15:55:14.000Z</time></trkpt>
        <trkpt lat="29.4872983" lon="103.2840638"><ele>1825.22</ele><time>2026-08-14T15:55:20.000Z</time></trkpt>
        <trkpt lat="29.4874173" lon="103.2840321"><ele>1826.43</ele><time>2026-08-14T15:55:26.000Z</time></trkpt>
        <trkpt lat="29.4875126" lon="103.2839831"><ele>1827.67</ele><time>2026-08-14T15:55:30.000Z</time></trkpt>
        <trkpt lat="29.4876052" lon="103.2839794"><ele>1828.6</ele><time>2026-08-14T15:55:36.000Z</time></trkpt>
        <trkpt lat="29.4876974" lon="103.2840078"><ele>1829.52</ele><time>2026-08-14T15:55:40.000Z</time></trkpt>
        <trkpt lat="29.4877928" lon="103.2840305"><ele>1830.38</ele><time>2026-08-14T15:55:44.000Z</time></trkpt>
        <trkpt lat="29.4878897" lon="103.2840548"><ele>1831.38</ele><time>2026-08-14T15:55:48.000Z</time></trkpt>
        <trkpt lat="29.4879827" lon="103.2840676"><ele>1832.37</ele><time>2026-08-14T15:55:52.000Z</time></trkpt>
        <trkpt lat="29.4880944" lon="103.2840413"><ele>1833.22</ele><time>2026-08-14T15:55:58.000Z</time></trkpt>
        <trkpt lat="29.4882216" lon="103.2840355"><ele>1834.27</ele><time>2026-08-14T15:56:04.000Z</time></trkpt>
        <trkpt lat="29.4883349" lon="103.2840395"><ele>1835.51</ele><time>2026-08-14T15:56:08.000Z</time></trkpt>
        <trkpt lat="29.4884304" lon="103.28403"><ele>1836.42</ele><time>2026-08-14T15:56:12.000Z</time></trkpt>
        <trkpt lat="29.4885179" lon="103.2840037"><ele>1837.37</ele><time>2026-08-14T15:56:16.000Z</time></trkpt>
        <trkpt lat="29.4886221" lon="103.2839373"><ele>1838.33</ele><time>2026-08-14T15:56:22.000Z</time></trkpt>
        <trkpt lat="29.4887191" lon="103.2838804"><ele>1840.22</ele><time>2026-08-14T15:56:28.000Z</time></trkpt>
        <trkpt lat="29.4887572" lon="103.2838585"><ele>1842.44</ele><time>2026-08-14T15:56:36.000Z</time></trkpt>
        <trkpt lat="29.4888284" lon="103.2838961"><ele>1843.97</ele><time>2026-08-14T15:57:30.000Z</time></trkpt>
        <trkpt lat="29.4889135" lon="103.2839713"><ele>1847.22</ele><time>2026-08-14T15:57:40.000Z</time></trkpt>
        <trkpt lat="29.488988" lon="103.2840505"><ele>1849.34</ele><time>2026-08-14T15:57:48.000Z</time></trkpt>
        <trkpt lat="29.4890635" lon="103.284127"><ele>1851.44</ele><time>2026-08-14T15:57:58.000Z</time></trkpt>
        <trkpt lat="29.4891509" lon="103.2841599"><ele>1853.59</ele><time>2026-08-14T15:58:08.000Z</time></trkpt>
        <trkpt lat="29.4892572" lon="103.2841471"><ele>1855.53</ele><time>2026-08-14T15:58:18.000Z</time></trkpt>
        <trkpt lat="29.4893453" lon="103.2840965"><ele>1857.18</ele><time>2026-08-14T15:58:26.000Z</time></trkpt>
        <trkpt lat="29.4893723" lon="103.2840755"><ele>1858.69</ele><time>2026-08-14T15:58:34.000Z</time></trkpt>
        <trkpt lat="29.4894218" lon="103.2839949"><ele>1859.64</ele><time>2026-08-14T15:58:46.000Z</time></trkpt>
        <trkpt lat="29.4894686" lon="103.2838986"><ele>1860.49</ele><time>2026-08-14T15:58:54.000Z</time></trkpt>
        <trkpt lat="29.4895079" lon="103.2837886"><ele>1861.38</ele><time>2026-08-14T15:59:02.000Z</time></trkpt>
        <trkpt lat="29.4895793" lon="103.283705"><ele>1862.25</ele><time>2026-08-14T15:59:12.000Z</time></trkpt>
        <trkpt lat="29.489676" lon="103.2836389"><ele>1864.68</ele><time>2026-08-14T15:59:22.000Z</time></trkpt>
        <trkpt lat="29.4897805" lon="103.2836077"><ele>1867.07</ele><time>2026-08-14T15:59:30.000Z</time></trkpt>
        <trkpt lat="29.4898844" lon="103.2836224"><ele>1869.14</ele><time>2026-08-14T15:59:38.000Z</time></trkpt>
        <trkpt lat="29.4899864" lon="103.2836343"><ele>1870.9</ele><time>2026-08-14T15:59:46.000Z</time></trkpt>
        <trkpt lat="29.490087" lon="103.2836298"><ele>1872.72</ele><time>2026-08-14T15:59:54.000Z</time></trkpt>
        <trkpt lat="29.4901838" lon="103.2836747"><ele>1874.24</ele><time>2026-08-14T16:00:02.000Z</time></trkpt>
        <trkpt lat="29.4902735" lon="103.2837434"><ele>1875.54</ele><time>2026-08-14T16:00:10.000Z</time></trkpt>
        <trkpt lat="29.490365" lon="103.2838065"><ele>1877.03</ele><time>2026-08-14T16:00:18.000Z</time></trkpt>
        <trkpt lat="29.4904591" lon="103.2838533"><ele>1878.46</ele><time>2026-08-14T16:00:26.000Z</time></trkpt>
        <trkpt lat="29.49056" lon="103.2838529"><ele>1879.81</ele><time>2026-08-14T16:00:34.000Z</time></trkpt>
        <trkpt lat="29.4906189" lon="103.2837724"><ele>1880.97</ele><time>2026-08-14T16:00:40.000Z</time></trkpt>
        <trkpt lat="29.4906434" lon="103.283654"><ele>1882.04</ele><time>2026-08-14T16:00:46.000Z</time></trkpt>
        <trkpt lat="29.4906847" lon="103.2835276"><ele>1883.16</ele><time>2026-08-14T16:00:54.000Z</time></trkpt>
        <trkpt lat="29.490748" lon="103.2834435"><ele>1883.91</ele><time>2026-08-14T16:01:00.000Z</time></trkpt>
        <trkpt lat="29.4908516" lon="103.2833723"><ele>1884.15</ele><time>2026-08-14T16:01:06.000Z</time></trkpt>
        <trkpt lat="29.4909417" lon="103.2832995"><ele>1884.32</ele><time>2026-08-14T16:01:10.000Z</time></trkpt>
        <trkpt lat="29.4910243" lon="103.2832136"><ele>1884.59</ele><time>2026-08-14T16:01:16.000Z</time></trkpt>
        <trkpt lat="29.4911164" lon="103.283174"><ele>1885.1</ele><time>2026-08-14T16:01:26.000Z</time></trkpt>
        <trkpt lat="29.4911791" lon="103.2832493"><ele>1885.71</ele><time>2026-08-14T16:01:34.000Z</time></trkpt>
        <trkpt lat="29.4912677" lon="103.283307"><ele>1885.91</ele><time>2026-08-14T16:01:42.000Z</time></trkpt>
        <trkpt lat="29.4913615" lon="103.2832876"><ele>1886.45</ele><time>2026-08-14T16:01:50.000Z</time></trkpt>
        <trkpt lat="29.491455" lon="103.2832485"><ele>1887.16</ele><time>2026-08-14T16:01:58.000Z</time></trkpt>
        <trkpt lat="29.491552" lon="103.2832336"><ele>1887.98</ele><time>2026-08-14T16:02:06.000Z</time></trkpt>
        <trkpt lat="29.4916601" lon="103.2832356"><ele>1888.8</ele><time>2026-08-14T16:02:14.000Z</time></trkpt>
        <trkpt lat="29.4917574" lon="103.2832381"><ele>1889.93</ele><time>2026-08-14T16:02:21.000Z</time></trkpt>
        <trkpt lat="29.49184" lon="103.283194"><ele>1891.06</ele><time>2026-08-14T16:02:29.000Z</time></trkpt>
        <trkpt lat="29.4918787" lon="103.2831036"><ele>1892.19</ele><time>2026-08-14T16:02:35.000Z</time></trkpt>
        <trkpt lat="29.4919181" lon="103.2829872"><ele>1893.05</ele><time>2026-08-14T16:02:43.000Z</time></trkpt>
        <trkpt lat="29.4919418" lon="103.282865"><ele>1893.91</ele><time>2026-08-14T16:02:51.000Z</time></trkpt>
        <trkpt lat="29.4919557" lon="103.2827327"><ele>1894.74</ele><time>2026-08-14T16:03:00.000Z</time></trkpt>
        <trkpt lat="29.4919734" lon="103.2826044"><ele>1895.31</ele><time>2026-08-14T16:03:08.000Z</time></trkpt>
        <trkpt lat="29.492011" lon="103.2824851"><ele>1895.67</ele><time>2026-08-14T16:03:16.000Z</time></trkpt>
        <trkpt lat="29.4920493" lon="103.2823641"><ele>1895.95</ele><time>2026-08-14T16:03:24.000Z</time></trkpt>
        <trkpt lat="29.4920942" lon="103.2822594"><ele>1895.82</ele><time>2026-08-14T16:03:30.000Z</time></trkpt>
        <trkpt lat="29.4921711" lon="103.2821894"><ele>1895.57</ele><time>2026-08-14T16:03:36.000Z</time></trkpt>
        <trkpt lat="29.4922678" lon="103.2822286"><ele>1895.68</ele><time>2026-08-14T16:03:42.000Z</time></trkpt>
        <trkpt lat="29.4923352" lon="103.2823512"><ele>1896.11</ele><time>2026-08-14T16:03:48.000Z</time></trkpt>
        <trkpt lat="29.4923882" lon="103.2824914"><ele>1896.52</ele><time>2026-08-14T16:03:56.000Z</time></trkpt>
        <trkpt lat="29.4924293" lon="103.2826123"><ele>1897.06</ele><time>2026-08-14T16:04:02.000Z</time></trkpt>
        <trkpt lat="29.4925187" lon="103.2826462"><ele>1897.91</ele><time>2026-08-14T16:04:10.000Z</time></trkpt>
        <trkpt lat="29.4926082" lon="103.2825892"><ele>1899</ele><time>2026-08-14T16:04:18.000Z</time></trkpt>
        <trkpt lat="29.4927045" lon="103.2825086"><ele>1899.63</ele><time>2026-08-14T16:04:26.000Z</time></trkpt>
        <trkpt lat="29.4927791" lon="103.2824205"><ele>1900.12</ele><time>2026-08-14T16:04:32.000Z</time></trkpt>
        <trkpt lat="29.4928464" lon="103.2823061"><ele>1900.61</ele><time>2026-08-14T16:04:40.000Z</time></trkpt>
        <trkpt lat="29.4929331" lon="103.2822368"><ele>1901.33</ele><time>2026-08-14T16:04:48.000Z</time></trkpt>
        <trkpt lat="29.4930292" lon="103.2822614"><ele>1901.95</ele><time>2026-08-14T16:04:56.000Z</time></trkpt>
        <trkpt lat="29.4931337" lon="103.2823253"><ele>1902.41</ele><time>2026-08-14T16:05:04.000Z</time></trkpt>
        <trkpt lat="29.4932405" lon="103.2823808"><ele>1902.81</ele><time>2026-08-14T16:05:12.000Z</time></trkpt>
        <trkpt lat="29.49335" lon="103.2824108"><ele>1903.06</ele><time>2026-08-14T16:05:20.000Z</time></trkpt>
        <trkpt lat="29.4934485" lon="103.2824122"><ele>1903.45</ele><time>2026-08-14T16:05:26.000Z</time></trkpt>
        <trkpt lat="29.4935539" lon="103.2824433"><ele>1903.68</ele><time>2026-08-14T16:05:32.000Z</time></trkpt>
        <trkpt lat="29.4936264" lon="103.28251"><ele>1903.92</ele><time>2026-08-14T16:05:38.000Z</time></trkpt>
        <trkpt lat="29.4936881" lon="103.2825889"><ele>1903.93</ele><time>2026-08-14T16:05:44.000Z</time></trkpt>
        <trkpt lat="29.4937676" lon="103.2826756"><ele>1903.78</ele><time>2026-08-14T16:05:52.000Z</time></trkpt>
        <trkpt lat="29.4938608" lon="103.2827576"><ele>1903.82</ele><time>2026-08-14T16:06:00.000Z</time></trkpt>
        <trkpt lat="29.4939647" lon="103.2828192"><ele>1904.35</ele><time>2026-08-14T16:06:08.000Z</time></trkpt>
        <trkpt lat="29.4940786" lon="103.2828613"><ele>1904.53</ele><time>2026-08-14T16:06:16.000Z</time></trkpt>
        <trkpt lat="29.4941781" lon="103.2828858"><ele>1904.58</ele><time>2026-08-14T16:06:22.000Z</time></trkpt>
        <trkpt lat="29.4942741" lon="103.2828938"><ele>1904.71</ele><time>2026-08-14T16:06:28.000Z</time></trkpt>
        <trkpt lat="29.4943847" lon="103.2829034"><ele>1905.16</ele><time>2026-08-14T16:06:36.000Z</time></trkpt>
        <trkpt lat="29.4944953" lon="103.2829038"><ele>1905.92</ele><time>2026-08-14T16:06:44.000Z</time></trkpt>
        <trkpt lat="29.4946037" lon="103.2829019"><ele>1906.66</ele><time>2026-08-14T16:06:52.000Z</time></trkpt>
        <trkpt lat="29.4947068" lon="103.2829287"><ele>1907.45</ele><time>2026-08-14T16:07:00.000Z</time></trkpt>
        <trkpt lat="29.4947949" lon="103.2829838"><ele>1907.91</ele><time>2026-08-14T16:07:08.000Z</time></trkpt>
        <trkpt lat="29.4948721" lon="103.2830481"><ele>1908.18</ele><time>2026-08-14T16:07:16.000Z</time></trkpt>
        <trkpt lat="29.4949534" lon="103.2831077"><ele>1908.77</ele><time>2026-08-14T16:07:24.000Z</time></trkpt>
        <trkpt lat="29.4950374" lon="103.2831641"><ele>1909.29</ele><time>2026-08-14T16:07:32.000Z</time></trkpt>
        <trkpt lat="29.4951241" lon="103.2832185"><ele>1910.1</ele><time>2026-08-14T16:07:40.000Z</time></trkpt>
        <trkpt lat="29.4952075" lon="103.2832836"><ele>1911.16</ele><time>2026-08-14T16:07:48.000Z</time></trkpt>
        <trkpt lat="29.4953011" lon="103.2833354"><ele>1912.35</ele><time>2026-08-14T16:07:56.000Z</time></trkpt>
        <trkpt lat="29.4954057" lon="103.2833646"><ele>1913.28</ele><time>2026-08-14T16:08:04.000Z</time></trkpt>
        <trkpt lat="29.4955109" lon="103.2833286"><ele>1914.05</ele><time>2026-08-14T16:08:12.000Z</time></trkpt>
        <trkpt lat="29.4956084" lon="103.283276"><ele>1914.71</ele><time>2026-08-14T16:08:20.000Z</time></trkpt>
        <trkpt lat="29.4956795" lon="103.2833191"><ele>1915.26</ele><time>2026-08-14T16:08:26.000Z</time></trkpt>
        <trkpt lat="29.4957312" lon="103.2834061"><ele>1915.52</ele><time>2026-08-14T16:08:32.000Z</time></trkpt>
        <trkpt lat="29.4958118" lon="103.2834828"><ele>1915.78</ele><time>2026-08-14T16:08:40.000Z</time></trkpt>
        <trkpt lat="29.4959133" lon="103.2835456"><ele>1916.6</ele><time>2026-08-14T16:08:48.000Z</time></trkpt>
        <trkpt lat="29.4960219" lon="103.2835787"><ele>1917.44</ele><time>2026-08-14T16:08:56.000Z</time></trkpt>
        <trkpt lat="29.4961345" lon="103.2835951"><ele>1918.41</ele><time>2026-08-14T16:09:04.000Z</time></trkpt>
        <trkpt lat="29.4962402" lon="103.2835955"><ele>1919.41</ele><time>2026-08-14T16:09:12.000Z</time></trkpt>
        <trkpt lat="29.496344" lon="103.283586"><ele>1919.87</ele><time>2026-08-14T16:09:20.000Z</time></trkpt>
        <trkpt lat="29.4964485" lon="103.283569"><ele>1920.34</ele><time>2026-08-14T16:09:28.000Z</time></trkpt>
        <trkpt lat="29.4965433" lon="103.2835221"><ele>1920.97</ele><time>2026-08-14T16:09:36.000Z</time></trkpt>
        <trkpt lat="29.4966259" lon="103.2834425"><ele>1921.57</ele><time>2026-08-14T16:09:44.000Z</time></trkpt>
        <trkpt lat="29.4966903" lon="103.2833303"><ele>1922</ele><time>2026-08-14T16:09:52.000Z</time></trkpt>
        <trkpt lat="29.4967318" lon="103.283215"><ele>1922.14</ele><time>2026-08-14T16:09:58.000Z</time></trkpt>
        <trkpt lat="29.4967864" lon="103.2831191"><ele>1922.11</ele><time>2026-08-14T16:10:04.000Z</time></trkpt>
        <trkpt lat="29.4968623" lon="103.2830494"><ele>1921.95</ele><time>2026-08-14T16:10:10.000Z</time></trkpt>
        <trkpt lat="29.4969635" lon="103.2830524"><ele>1921.7</ele><time>2026-08-14T16:10:18.000Z</time></trkpt>
        <trkpt lat="29.4970314" lon="103.2831549"><ele>1921.66</ele><time>2026-08-14T16:10:26.000Z</time></trkpt>
        <trkpt lat="29.4970709" lon="103.2832892"><ele>1921.9</ele><time>2026-08-14T16:10:34.000Z</time></trkpt>
        <trkpt lat="29.4970951" lon="103.2834155"><ele>1922.22</ele><time>2026-08-14T16:10:40.000Z</time></trkpt>
        <trkpt lat="29.4971229" lon="103.2835502"><ele>1922.33</ele><time>2026-08-14T16:10:48.000Z</time></trkpt>
        <trkpt lat="29.4971854" lon="103.2836508"><ele>1922.7</ele><time>2026-08-14T16:10:56.000Z</time></trkpt>
        <trkpt lat="29.4972098" lon="103.2837657"><ele>1923.29</ele><time>2026-08-14T16:11:04.000Z</time></trkpt>
        <trkpt lat="29.4971844" lon="103.2838924"><ele>1924.4</ele><time>2026-08-14T16:11:15.000Z</time></trkpt>
        <trkpt lat="29.497211" lon="103.2839945"><ele>1926.35</ele><time>2026-08-14T16:11:21.000Z</time></trkpt>
        <trkpt lat="29.4972828" lon="103.284081"><ele>1927.98</ele><time>2026-08-14T16:11:31.000Z</time></trkpt>
        <trkpt lat="29.4973687" lon="103.2841569"><ele>1929.37</ele><time>2026-08-14T16:11:41.000Z</time></trkpt>
        <trkpt lat="29.4974625" lon="103.2842247"><ele>1931.2</ele><time>2026-08-14T16:11:51.000Z</time></trkpt>
        <trkpt lat="29.4975353" lon="103.2843022"><ele>1932.86</ele><time>2026-08-14T16:12:01.000Z</time></trkpt>
        <trkpt lat="29.497583" lon="103.2844073"><ele>1934.38</ele><time>2026-08-14T16:12:11.000Z</time></trkpt>
        <trkpt lat="29.4976131" lon="103.2845168"><ele>1935.47</ele><time>2026-08-14T16:12:19.000Z</time></trkpt>
        <trkpt lat="29.4976512" lon="103.2846208"><ele>1936.13</ele><time>2026-08-14T16:12:27.000Z</time></trkpt>
        <trkpt lat="29.4977242" lon="103.28467"><ele>1936.91</ele><time>2026-08-14T16:12:35.000Z</time></trkpt>
        <trkpt lat="29.497816" lon="103.2846647"><ele>1937.72</ele><time>2026-08-14T16:12:43.000Z</time></trkpt>
        <trkpt lat="29.4979131" lon="103.284648"><ele>1938.48</ele><time>2026-08-14T16:12:51.000Z</time></trkpt>
        <trkpt lat="29.4980174" lon="103.2846375"><ele>1939.24</ele><time>2026-08-14T16:13:01.000Z</time></trkpt>
        <trkpt lat="29.498113" lon="103.2846493"><ele>1940.49</ele><time>2026-08-14T16:13:09.000Z</time></trkpt>
        <trkpt lat="29.4982015" lon="103.2846764"><ele>1941.95</ele><time>2026-08-14T16:13:17.000Z</time></trkpt>
        <trkpt lat="29.4982901" lon="103.2847027"><ele>1943.48</ele><time>2026-08-14T16:13:25.000Z</time></trkpt>
        <trkpt lat="29.4983935" lon="103.2847277"><ele>1945.01</ele><time>2026-08-14T16:13:35.000Z</time></trkpt>
        <trkpt lat="29.4984866" lon="103.2847515"><ele>1946.51</ele><time>2026-08-14T16:13:43.000Z</time></trkpt>
        <trkpt lat="29.4985811" lon="103.2847977"><ele>1947.87</ele><time>2026-08-14T16:13:53.000Z</time></trkpt>
        <trkpt lat="29.498659" lon="103.2848635"><ele>1949.16</ele><time>2026-08-14T16:14:01.000Z</time></trkpt>
        <trkpt lat="29.4987423" lon="103.2849408"><ele>1949.68</ele><time>2026-08-14T16:14:11.000Z</time></trkpt>
        <trkpt lat="29.49883" lon="103.2849749"><ele>1950.11</ele><time>2026-08-14T16:14:19.000Z</time></trkpt>
        <trkpt lat="29.4989194" lon="103.2849743"><ele>1950.51</ele><time>2026-08-14T16:14:27.000Z</time></trkpt>
        <trkpt lat="29.4990237" lon="103.2849684"><ele>1950.94</ele><time>2026-08-14T16:14:37.000Z</time></trkpt>
        <trkpt lat="29.4991246" lon="103.2849919"><ele>1951.33</ele><time>2026-08-14T16:14:47.000Z</time></trkpt>
        <trkpt lat="29.4991461" lon="103.2850966"><ele>1952.3</ele><time>2026-08-14T16:14:57.000Z</time></trkpt>
        <trkpt lat="29.4991095" lon="103.2852017"><ele>1954.12</ele><time>2026-08-14T16:15:05.000Z</time></trkpt>
        <trkpt lat="29.4990803" lon="103.2853193"><ele>1955.94</ele><time>2026-08-14T16:15:18.000Z</time></trkpt>
        <trkpt lat="29.4990749" lon="103.2854447"><ele>1958.07</ele><time>2026-08-14T16:15:23.000Z</time></trkpt>
        <trkpt lat="29.4991281" lon="103.2855421"><ele>1960</ele><time>2026-08-14T16:15:33.000Z</time></trkpt>
        <trkpt lat="29.4992212" lon="103.2856049"><ele>1962.01</ele><time>2026-08-14T16:15:43.000Z</time></trkpt>
        <trkpt lat="29.4992856" lon="103.2856845"><ele>1963.64</ele><time>2026-08-14T16:15:51.000Z</time></trkpt>
        <trkpt lat="29.4993055" lon="103.2857839"><ele>1964.91</ele><time>2026-08-14T16:15:59.000Z</time></trkpt>
        <trkpt lat="29.4993159" lon="103.2858965"><ele>1966.48</ele><time>2026-08-14T16:16:09.000Z</time></trkpt>
        <trkpt lat="29.4993722" lon="103.2859845"><ele>1967.78</ele><time>2026-08-14T16:16:19.000Z</time></trkpt>
        <trkpt lat="29.4994642" lon="103.2860392"><ele>1969.04</ele><time>2026-08-14T16:16:29.000Z</time></trkpt>
        <trkpt lat="29.4995604" lon="103.2860654"><ele>1969.93</ele><time>2026-08-14T16:16:37.000Z</time></trkpt>
        <trkpt lat="29.499664" lon="103.2861005"><ele>1970.69</ele><time>2026-08-14T16:16:47.000Z</time></trkpt>
        <trkpt lat="29.4997441" lon="103.2861645"><ele>1971.36</ele><time>2026-08-14T16:16:55.000Z</time></trkpt>
        <trkpt lat="29.4998402" lon="103.2862113"><ele>1972.05</ele><time>2026-08-14T16:17:05.000Z</time></trkpt>
        <trkpt lat="29.4999355" lon="103.2862337"><ele>1972.77</ele><time>2026-08-14T16:17:13.000Z</time></trkpt>
        <trkpt lat="29.50003" lon="103.2862302"><ele>1973.23</ele><time>2026-08-14T16:17:21.000Z</time></trkpt>
        <trkpt lat="29.5001253" lon="103.2862361"><ele>1974.03</ele><time>2026-08-14T16:17:29.000Z</time></trkpt>
        <trkpt lat="29.500218" lon="103.2862705"><ele>1974.92</ele><time>2026-08-14T16:17:37.000Z</time></trkpt>
        <trkpt lat="29.5003125" lon="103.2862931"><ele>1975.57</ele><time>2026-08-14T16:17:45.000Z</time></trkpt>
        <trkpt lat="29.5004049" lon="103.2863331"><ele>1976.18</ele><time>2026-08-14T16:17:55.000Z</time></trkpt>
        <trkpt lat="29.5004778" lon="103.2864138"><ele>1976.99</ele><time>2026-08-14T16:18:05.000Z</time></trkpt>
        <trkpt lat="29.5005524" lon="103.2864799"><ele>1977.65</ele><time>2026-08-14T16:18:13.000Z</time></trkpt>
        <trkpt lat="29.5006314" lon="103.2865378"><ele>1978.12</ele><time>2026-08-14T16:18:21.000Z</time></trkpt>
        <trkpt lat="29.5007113" lon="103.2866093"><ele>1979.11</ele><time>2026-08-14T16:18:31.000Z</time></trkpt>
        <trkpt lat="29.5007627" lon="103.2866973"><ele>1980.24</ele><time>2026-08-14T16:18:39.000Z</time></trkpt>
        <trkpt lat="29.5008367" lon="103.2867735"><ele>1981.17</ele><time>2026-08-14T16:18:49.000Z</time></trkpt>
        <trkpt lat="29.5009377" lon="103.286804"><ele>1982.55</ele><time>2026-08-14T16:18:59.000Z</time></trkpt>
        <trkpt lat="29.5010366" lon="103.2868177"><ele>1984.1</ele><time>2026-08-14T16:19:07.000Z</time></trkpt>
        <trkpt lat="29.5011346" lon="103.2868278"><ele>1985.56</ele><time>2026-08-14T16:19:15.000Z</time></trkpt>
        <trkpt lat="29.5012342" lon="103.2868217"><ele>1986.81</ele><time>2026-08-14T16:19:23.000Z</time></trkpt>
        <trkpt lat="29.5013341" lon="103.2868339"><ele>1988.06</ele><time>2026-08-14T16:19:33.000Z</time></trkpt>
        <trkpt lat="29.5014224" lon="103.2868659"><ele>1989.02</ele><time>2026-08-14T16:19:43.000Z</time></trkpt>
        <trkpt lat="29.501489" lon="103.2869336"><ele>1989.7</ele><time>2026-08-14T16:19:53.000Z</time></trkpt>
        <trkpt lat="29.5014594" lon="103.2870362"><ele>1990.54</ele><time>2026-08-14T16:20:05.000Z</time></trkpt>
        <trkpt lat="29.5013718" lon="103.2871031"><ele>1991.92</ele><time>2026-08-14T16:20:17.000Z</time></trkpt>
        <trkpt lat="29.5012892" lon="103.287188"><ele>1994.03</ele><time>2026-08-14T16:20:29.000Z</time></trkpt>
        <trkpt lat="29.5012619" lon="103.287297"><ele>1996.91</ele><time>2026-08-14T16:20:58.000Z</time></trkpt>
        <trkpt lat="29.5012983" lon="103.2874196"><ele>1998.76</ele><time>2026-08-14T16:21:08.000Z</time></trkpt>
        <trkpt lat="29.5013521" lon="103.2875339"><ele>2000.44</ele><time>2026-08-14T16:21:18.000Z</time></trkpt>
        <trkpt lat="29.5013852" lon="103.2876493"><ele>2002.03</ele><time>2026-08-14T16:21:28.000Z</time></trkpt>
        <trkpt lat="29.5013975" lon="103.2877646"><ele>2003.67</ele><time>2026-08-14T16:21:38.000Z</time></trkpt>
        <trkpt lat="29.5013815" lon="103.2878796"><ele>2005.36</ele><time>2026-08-14T16:21:48.000Z</time></trkpt>
        <trkpt lat="29.5013246" lon="103.2879656"><ele>2007.17</ele><time>2026-08-14T16:21:57.000Z</time></trkpt>
        <trkpt lat="29.5012317" lon="103.2880009"><ele>2008.92</ele><time>2026-08-14T16:22:07.000Z</time></trkpt>
        <trkpt lat="29.5011291" lon="103.2880192"><ele>2010.38</ele><time>2026-08-14T16:22:17.000Z</time></trkpt>
        <trkpt lat="29.5010552" lon="103.2880865"><ele>2012.09</ele><time>2026-08-14T16:22:27.000Z</time></trkpt>
        <trkpt lat="29.5009901" lon="103.2881745"><ele>2013.68</ele><time>2026-08-14T16:22:37.000Z</time></trkpt>
        <trkpt lat="29.5009408" lon="103.2882861"><ele>2015.05</ele><time>2026-08-14T16:22:47.000Z</time></trkpt>
        <trkpt lat="29.5009382" lon="103.2883989"><ele>2016.2</ele><time>2026-08-14T16:22:55.000Z</time></trkpt>
        <trkpt lat="29.5009845" lon="103.2884983"><ele>2017.06</ele><time>2026-08-14T16:23:03.000Z</time></trkpt>
        <trkpt lat="29.5010526" lon="103.2886032"><ele>2017.68</ele><time>2026-08-14T16:23:13.000Z</time></trkpt>
        <trkpt lat="29.5011301" lon="103.2886814"><ele>2018.14</ele><time>2026-08-14T16:23:24.000Z</time></trkpt>
        <trkpt lat="29.5012289" lon="103.2886751"><ele>2018.92</ele><time>2026-08-14T16:23:31.000Z</time></trkpt>
        <trkpt lat="29.5013188" lon="103.288622"><ele>2019.62</ele><time>2026-08-14T16:23:39.000Z</time></trkpt>
        <trkpt lat="29.5014088" lon="103.2885458"><ele>2020</ele><time>2026-08-14T16:23:49.000Z</time></trkpt>
        <trkpt lat="29.5014966" lon="103.2884951"><ele>2020.11</ele><time>2026-08-14T16:23:55.000Z</time></trkpt>
        <trkpt lat="29.5016004" lon="103.2884751"><ele>2020.19</ele><time>2026-08-14T16:24:03.000Z</time></trkpt>
        <trkpt lat="29.5017041" lon="103.2884613"><ele>2020.34</ele><time>2026-08-14T16:24:11.000Z</time></trkpt>
        <trkpt lat="29.501804" lon="103.2884486"><ele>2020.67</ele><time>2026-08-14T16:24:21.000Z</time></trkpt>
        <trkpt lat="29.5018906" lon="103.2884123"><ele>2021.19</ele><time>2026-08-14T16:24:29.000Z</time></trkpt>
        <trkpt lat="29.5019751" lon="103.2883553"><ele>2021.92</ele><time>2026-08-14T16:24:39.000Z</time></trkpt>
        <trkpt lat="29.5020682" lon="103.2882918"><ele>2022.84</ele><time>2026-08-14T16:24:49.000Z</time></trkpt>
        <trkpt lat="29.5021505" lon="103.2882332"><ele>2023.99</ele><time>2026-08-14T16:24:57.000Z</time></trkpt>
        <trkpt lat="29.502246" lon="103.2881892"><ele>2025.34</ele><time>2026-08-14T16:25:07.000Z</time></trkpt>
        <trkpt lat="29.5023509" lon="103.2881738"><ele>2026.86</ele><time>2026-08-14T16:25:23.000Z</time></trkpt>
        <trkpt lat="29.5024446" lon="103.2881567"><ele>2029.02</ele><time>2026-08-14T16:25:33.000Z</time></trkpt>
        <trkpt lat="29.5025362" lon="103.2881716"><ele>2030.84</ele><time>2026-08-14T16:25:43.000Z</time></trkpt>
        <trkpt lat="29.5026173" lon="103.288226"><ele>2032.46</ele><time>2026-08-14T16:25:53.000Z</time></trkpt>
        <trkpt lat="29.5026732" lon="103.2883211"><ele>2034.52</ele><time>2026-08-14T16:26:05.000Z</time></trkpt>
        <trkpt lat="29.5026891" lon="103.2884393"><ele>2036.76</ele><time>2026-08-14T16:26:15.000Z</time></trkpt>
        <trkpt lat="29.5027094" lon="103.2885619"><ele>2038.84</ele><time>2026-08-14T16:26:25.000Z</time></trkpt>
        <trkpt lat="29.5027515" lon="103.2886655"><ele>2040.3</ele><time>2026-08-14T16:26:35.000Z</time></trkpt>
        <trkpt lat="29.5028002" lon="103.2887602"><ele>2041.2</ele><time>2026-08-14T16:26:46.000Z</time></trkpt>
        <trkpt lat="29.5028623" lon="103.2888457"><ele>2042.11</ele><time>2026-08-14T16:26:56.000Z</time></trkpt>
        <trkpt lat="29.502933" lon="103.2889285"><ele>2042.96</ele><time>2026-08-14T16:27:06.000Z</time></trkpt>
        <trkpt lat="29.5029986" lon="103.2890167"><ele>2043.77</ele><time>2026-08-14T16:27:16.000Z</time></trkpt>
        <trkpt lat="29.5030528" lon="103.2891189"><ele>2044.95</ele><time>2026-08-14T16:27:26.000Z</time></trkpt>
        <trkpt lat="29.5030982" lon="103.2892319"><ele>2046.02</ele><time>2026-08-14T16:27:36.000Z</time></trkpt>
        <trkpt lat="29.5031237" lon="103.2893424"><ele>2047.14</ele><time>2026-08-14T16:27:44.000Z</time></trkpt>
        <trkpt lat="29.5031469" lon="103.289451"><ele>2047.89</ele><time>2026-08-14T16:27:52.000Z</time></trkpt>
        <trkpt lat="29.5031737" lon="103.2895584"><ele>2048.44</ele><time>2026-08-14T16:28:00.000Z</time></trkpt>
        <trkpt lat="29.5032026" lon="103.2896654"><ele>2048.83</ele><time>2026-08-14T16:28:08.000Z</time></trkpt>
        <trkpt lat="29.5032313" lon="103.2897665"><ele>2049.5</ele><time>2026-08-14T16:28:16.000Z</time></trkpt>
        <trkpt lat="29.5033057" lon="103.2898539"><ele>2050.28</ele><time>2026-08-14T16:28:26.000Z</time></trkpt>
        <trkpt lat="29.5033983" lon="103.2898737"><ele>2051.06</ele><time>2026-08-14T16:28:34.000Z</time></trkpt>
        <trkpt lat="29.5035036" lon="103.2898582"><ele>2051.75</ele><time>2026-08-14T16:28:44.000Z</time></trkpt>
        <trkpt lat="29.5036055" lon="103.2898283"><ele>2052.48</ele><time>2026-08-14T16:28:54.000Z</time></trkpt>
        <trkpt lat="29.5037058" lon="103.2897973"><ele>2053.61</ele><time>2026-08-14T16:29:04.000Z</time></trkpt>
        <trkpt lat="29.5038146" lon="103.2897746"><ele>2055</ele><time>2026-08-14T16:29:14.000Z</time></trkpt>
        <trkpt lat="29.5039089" lon="103.289791"><ele>2055.76</ele><time>2026-08-14T16:29:22.000Z</time></trkpt>
        <trkpt lat="29.5039601" lon="103.2898736"><ele>2057.04</ele><time>2026-08-14T16:29:30.000Z</time></trkpt>
        <trkpt lat="29.5039917" lon="103.2899786"><ele>2058.14</ele><time>2026-08-14T16:29:38.000Z</time></trkpt>
        <trkpt lat="29.504053" lon="103.2900756"><ele>2058.53</ele><time>2026-08-14T16:29:48.000Z</time></trkpt>
        <trkpt lat="29.5041464" lon="103.2901317"><ele>2059.04</ele><time>2026-08-14T16:29:58.000Z</time></trkpt>
        <trkpt lat="29.5042411" lon="103.2901483"><ele>2060.32</ele><time>2026-08-14T16:30:08.000Z</time></trkpt>
        <trkpt lat="29.5043443" lon="103.2901404"><ele>2061.75</ele><time>2026-08-14T16:30:18.000Z</time></trkpt>
        <trkpt lat="29.504441" lon="103.2901381"><ele>2063.11</ele><time>2026-08-14T16:30:26.000Z</time></trkpt>
        <trkpt lat="29.5045371" lon="103.290175"><ele>2064.33</ele><time>2026-08-14T16:30:36.000Z</time></trkpt>
        <trkpt lat="29.5045555" lon="103.2902676"><ele>2065.58</ele><time>2026-08-14T16:30:44.000Z</time></trkpt>
        <trkpt lat="29.5045023" lon="103.2903733"><ele>2067.01</ele><time>2026-08-14T16:30:54.000Z</time></trkpt>
        <trkpt lat="29.504433" lon="103.2904743"><ele>2068.06</ele><time>2026-08-14T16:31:04.000Z</time></trkpt>
        <trkpt lat="29.5043754" lon="103.2905822"><ele>2068.81</ele><time>2026-08-14T16:31:16.000Z</time></trkpt>
        <trkpt lat="29.5043491" lon="103.2906915"><ele>2070.09</ele><time>2026-08-14T16:31:28.000Z</time></trkpt>
        <trkpt lat="29.5043459" lon="103.2908117"><ele>2071.77</ele><time>2026-08-14T16:31:40.000Z</time></trkpt>
        <trkpt lat="29.5043674" lon="103.2909238"><ele>2073.29</ele><time>2026-08-14T16:31:50.000Z</time></trkpt>
        <trkpt lat="29.5044221" lon="103.2910205"><ele>2074.09</ele><time>2026-08-14T16:32:00.000Z</time></trkpt>
        <trkpt lat="29.5045037" lon="103.2911002"><ele>2075.04</ele><time>2026-08-14T16:32:10.000Z</time></trkpt>
        <trkpt lat="29.5045979" lon="103.2911744"><ele>2076.41</ele><time>2026-08-14T16:32:20.000Z</time></trkpt>
        <trkpt lat="29.5046808" lon="103.2912365"><ele>2077.79</ele><time>2026-08-14T16:32:28.000Z</time></trkpt>
        <trkpt lat="29.5047614" lon="103.2913182"><ele>2078.67</ele><time>2026-08-14T16:32:38.000Z</time></trkpt>
        <trkpt lat="29.5048407" lon="103.2914025"><ele>2079.2</ele><time>2026-08-14T16:32:48.000Z</time></trkpt>
        <trkpt lat="29.5049077" lon="103.2914987"><ele>2080.02</ele><time>2026-08-14T16:32:58.000Z</time></trkpt>
        <trkpt lat="29.5049889" lon="103.2915818"><ele>2080.79</ele><time>2026-08-14T16:33:08.000Z</time></trkpt>
        <trkpt lat="29.5050788" lon="103.2916478"><ele>2081.54</ele><time>2026-08-14T16:33:18.000Z</time></trkpt>
        <trkpt lat="29.5051514" lon="103.2917192"><ele>2082.5</ele><time>2026-08-14T16:33:28.000Z</time></trkpt>
        <trkpt lat="29.5052127" lon="103.2918109"><ele>2083.82</ele><time>2026-08-14T16:33:38.000Z</time></trkpt>
        <trkpt lat="29.5052617" lon="103.2919045"><ele>2085.05</ele><time>2026-08-14T16:33:46.000Z</time></trkpt>
        <trkpt lat="29.5053216" lon="103.2920036"><ele>2085.97</ele><time>2026-08-14T16:33:56.000Z</time></trkpt>
        <trkpt lat="29.5054096" lon="103.2920698"><ele>2086.59</ele><time>2026-08-14T16:34:08.000Z</time></trkpt>
        <trkpt lat="29.505502" lon="103.292106"><ele>2087.92</ele><time>2026-08-14T16:34:18.000Z</time></trkpt>
        <trkpt lat="29.5055961" lon="103.2921328"><ele>2088.96</ele><time>2026-08-14T16:34:28.000Z</time></trkpt>
        <trkpt lat="29.5056953" lon="103.2921471"><ele>2090.41</ele><time>2026-08-14T16:34:40.000Z</time></trkpt>
        <trkpt lat="29.5057887" lon="103.2921528"><ele>2092.44</ele><time>2026-08-14T16:34:50.000Z</time></trkpt>
        <trkpt lat="29.5058507" lon="103.2922317"><ele>2094.43</ele><time>2026-08-14T16:35:02.000Z</time></trkpt>
        <trkpt lat="29.5058638" lon="103.2923443"><ele>2096.65</ele><time>2026-08-14T16:35:12.000Z</time></trkpt>
        <trkpt lat="29.5058882" lon="103.2924602"><ele>2098.88</ele><time>2026-08-14T16:35:22.000Z</time></trkpt>
        <trkpt lat="29.505933" lon="103.2925565"><ele>2100.81</ele><time>2026-08-14T16:35:32.000Z</time></trkpt>
        <trkpt lat="29.5059953" lon="103.2926379"><ele>2102.1</ele><time>2026-08-14T16:35:42.000Z</time></trkpt>
        <trkpt lat="29.5060577" lon="103.2927309"><ele>2103.16</ele><time>2026-08-14T16:35:54.000Z</time></trkpt>
        <trkpt lat="29.5061204" lon="103.2928176"><ele>2104.43</ele><time>2026-08-14T16:36:04.000Z</time></trkpt>
        <trkpt lat="29.5061827" lon="103.2929074"><ele>2105.54</ele><time>2026-08-14T16:36:16.000Z</time></trkpt>
        <trkpt lat="29.5062486" lon="103.2929986"><ele>2106.57</ele><time>2026-08-14T16:36:28.000Z</time></trkpt>
        <trkpt lat="29.5063158" lon="103.2930903"><ele>2107.58</ele><time>2026-08-14T16:36:40.000Z</time></trkpt>
        <trkpt lat="29.5063086" lon="103.2931936"><ele>2110.15</ele><time>2026-08-14T16:36:52.000Z</time></trkpt>
        <trkpt lat="29.506231" lon="103.2932493"><ele>2113.16</ele><time>2026-08-14T16:37:04.000Z</time></trkpt>
        <trkpt lat="29.506136" lon="103.2933043"><ele>2115.24</ele><time>2026-08-14T16:37:16.000Z</time></trkpt>
        <trkpt lat="29.5060477" lon="103.2933726"><ele>2116.88</ele><time>2026-08-14T16:37:48.000Z</time></trkpt>
        <trkpt lat="29.5059889" lon="103.2934758"><ele>2118.99</ele><time>2026-08-14T16:37:58.000Z</time></trkpt>
        <trkpt lat="29.5059743" lon="103.2935916"><ele>2120.5</ele><time>2026-08-14T16:38:08.000Z</time></trkpt>
        <trkpt lat="29.5059751" lon="103.2937157"><ele>2121.43</ele><time>2026-08-14T16:38:22.000Z</time></trkpt>
        <trkpt lat="29.5059716" lon="103.2938355"><ele>2122.23</ele><time>2026-08-14T16:38:36.000Z</time></trkpt>
        <trkpt lat="29.5059972" lon="103.2939524"><ele>2124.1</ele><time>2026-08-14T16:38:50.000Z</time></trkpt>
        <trkpt lat="29.5060655" lon="103.2940332"><ele>2125.81</ele><time>2026-08-14T16:39:04.000Z</time></trkpt>
        <trkpt lat="29.5061414" lon="103.2941123"><ele>2127.29</ele><time>2026-08-14T16:39:16.000Z</time></trkpt>
        <trkpt lat="29.5062167" lon="103.2941811"><ele>2129.57</ele><time>2026-08-14T16:39:30.000Z</time></trkpt>
        <trkpt lat="29.506298" lon="103.2942417"><ele>2131.52</ele><time>2026-08-14T16:39:42.000Z</time></trkpt>
        <trkpt lat="29.5063848" lon="103.2942774"><ele>2133.11</ele><time>2026-08-14T16:39:54.000Z</time></trkpt>
        <trkpt lat="29.5064769" lon="103.2942936"><ele>2134.03</ele><time>2026-08-14T16:40:06.000Z</time></trkpt>
        <trkpt lat="29.5065701" lon="103.2943047"><ele>2135.83</ele><time>2026-08-14T16:40:22.000Z</time></trkpt>
        <trkpt lat="29.506663" lon="103.2943102"><ele>2137.84</ele><time>2026-08-14T16:40:48.000Z</time></trkpt>
        <trkpt lat="29.5067539" lon="103.294338"><ele>2140.9</ele><time>2026-08-14T16:40:58.000Z</time></trkpt>
        <trkpt lat="29.5068138" lon="103.2944151"><ele>2142.87</ele><time>2026-08-14T16:41:24.000Z</time></trkpt>
        <trkpt lat="29.5068451" lon="103.2945211"><ele>2145.2</ele><time>2026-08-14T16:41:34.000Z</time></trkpt>
        <trkpt lat="29.5068089" lon="103.2946345"><ele>2146.93</ele><time>2026-08-14T16:41:44.000Z</time></trkpt>
        <trkpt lat="29.5067506" lon="103.2947417"><ele>2148.82</ele><time>2026-08-14T16:41:56.000Z</time></trkpt>
        <trkpt lat="29.5067121" lon="103.294856"><ele>2151.32</ele><time>2026-08-14T16:42:06.000Z</time></trkpt>
        <trkpt lat="29.5067133" lon="103.2949721"><ele>2153.32</ele><time>2026-08-14T16:42:16.000Z</time></trkpt>
        <trkpt lat="29.5067416" lon="103.2950824"><ele>2155.14</ele><time>2026-08-14T16:42:26.000Z</time></trkpt>
        <trkpt lat="29.5067708" lon="103.2951899"><ele>2156.65</ele><time>2026-08-14T16:42:36.000Z</time></trkpt>
        <trkpt lat="29.5067938" lon="103.2953023"><ele>2157.88</ele><time>2026-08-14T16:42:48.000Z</time></trkpt>
        <trkpt lat="29.5068031" lon="103.2954166"><ele>2159.67</ele><time>2026-08-14T16:43:00.000Z</time></trkpt>
        <trkpt lat="29.5067827" lon="103.2955314"><ele>2161.41</ele><time>2026-08-14T16:43:14.000Z</time></trkpt>
        <trkpt lat="29.5067463" lon="103.2956405"><ele>2164.15</ele><time>2026-08-14T16:43:26.000Z</time></trkpt>
        <trkpt lat="29.5067117" lon="103.2957531"><ele>2166.88</ele><time>2026-08-14T16:43:38.000Z</time></trkpt>
        <trkpt lat="29.5066926" lon="103.2958615"><ele>2170</ele><time>2026-08-14T16:43:50.000Z</time></trkpt>
        <trkpt lat="29.5066843" lon="103.2959683"><ele>2172.5</ele><time>2026-08-14T16:44:02.000Z</time></trkpt>
        <trkpt lat="29.5066868" lon="103.2960804"><ele>2173.98</ele><time>2026-08-14T16:44:14.000Z</time></trkpt>
        <trkpt lat="29.5066867" lon="103.2961488"><ele>2174.93</ele><time>2026-08-14T16:44:20.000Z</time></trkpt>
        <trkpt lat="29.5066875" lon="103.2962526"><ele>2175.3</ele><time>2026-08-14T16:44:32.000Z</time></trkpt>
        <trkpt lat="29.5066954" lon="103.2963603"><ele>2174.96</ele><time>2026-08-14T16:44:40.000Z</time></trkpt>
        <trkpt lat="29.5067014" lon="103.2964685"><ele>2175.13</ele><time>2026-08-14T16:44:48.000Z</time></trkpt>
        <trkpt lat="29.5066946" lon="103.2965764"><ele>2176.11</ele><time>2026-08-14T16:44:56.000Z</time></trkpt>
        <trkpt lat="29.506673" lon="103.2966839"><ele>2177.19</ele><time>2026-08-14T16:45:06.000Z</time></trkpt>
        <trkpt lat="29.5066481" lon="103.2968025"><ele>2177.87</ele><time>2026-08-14T16:45:18.000Z</time></trkpt>
        <trkpt lat="29.5066445" lon="103.296925"><ele>2178.95</ele><time>2026-08-14T16:45:30.000Z</time></trkpt>
        <trkpt lat="29.5066523" lon="103.2970369"><ele>2180.53</ele><time>2026-08-14T16:45:42.000Z</time></trkpt>
        <trkpt lat="29.5066336" lon="103.2971387"><ele>2182.07</ele><time>2026-08-14T16:45:52.000Z</time></trkpt>
        <trkpt lat="29.5065854" lon="103.297237"><ele>2183.72</ele><time>2026-08-14T16:46:02.000Z</time></trkpt>
        <trkpt lat="29.5065489" lon="103.2973405"><ele>2185.25</ele><time>2026-08-14T16:46:14.000Z</time></trkpt>
        <trkpt lat="29.5065374" lon="103.2974464"><ele>2186.67</ele><time>2026-08-14T16:46:28.000Z</time></trkpt>
        <trkpt lat="29.506544" lon="103.2975533"><ele>2187.89</ele><time>2026-08-14T16:46:38.000Z</time></trkpt>
        <trkpt lat="29.5065692" lon="103.2976661"><ele>2188.69</ele><time>2026-08-14T16:46:48.000Z</time></trkpt>
        <trkpt lat="29.5065865" lon="103.2977867"><ele>2189.16</ele><time>2026-08-14T16:46:58.000Z</time></trkpt>
        <trkpt lat="29.5065419" lon="103.2978754"><ele>2189.41</ele><time>2026-08-14T16:47:08.000Z</time></trkpt>
        <trkpt lat="29.5064496" lon="103.2978944"><ele>2190.06</ele><time>2026-08-14T16:47:18.000Z</time></trkpt>
        <trkpt lat="29.5063388" lon="103.2978837"><ele>2191.55</ele><time>2026-08-14T16:47:30.000Z</time></trkpt>
        <trkpt lat="29.5062312" lon="103.297901"><ele>2193.4</ele><time>2026-08-14T16:47:42.000Z</time></trkpt>
        <trkpt lat="29.5061467" lon="103.2979499"><ele>2195.78</ele><time>2026-08-14T16:47:52.000Z</time></trkpt>
        <trkpt lat="29.5060821" lon="103.2980338"><ele>2197.88</ele><time>2026-08-14T16:48:02.000Z</time></trkpt>
        <trkpt lat="29.5060302" lon="103.2981406"><ele>2199.68</ele><time>2026-08-14T16:48:12.000Z</time></trkpt>
        <trkpt lat="29.5059744" lon="103.2982359"><ele>2200.74</ele><time>2026-08-14T16:48:22.000Z</time></trkpt>
        <trkpt lat="29.5058986" lon="103.2983071"><ele>2201.74</ele><time>2026-08-14T16:48:32.000Z</time></trkpt>
        <trkpt lat="29.5058121" lon="103.2983401"><ele>2202.62</ele><time>2026-08-14T16:48:42.000Z</time></trkpt>
        <trkpt lat="29.5057197" lon="103.29836"><ele>2203.1</ele><time>2026-08-14T16:48:52.000Z</time></trkpt>
        <trkpt lat="29.5056289" lon="103.2983892"><ele>2203.63</ele><time>2026-08-14T16:49:02.000Z</time></trkpt>
        <trkpt lat="29.5055468" lon="103.2984525"><ele>2204.25</ele><time>2026-08-14T16:49:12.000Z</time></trkpt>
        <trkpt lat="29.5054897" lon="103.2985518"><ele>2204.96</ele><time>2026-08-14T16:49:22.000Z</time></trkpt>
        <trkpt lat="29.5054515" lon="103.2986627"><ele>2206.14</ele><time>2026-08-14T16:49:34.000Z</time></trkpt>
        <trkpt lat="29.5054044" lon="103.2987636"><ele>2207.06</ele><time>2026-08-14T16:49:46.000Z</time></trkpt>
        <trkpt lat="29.5053507" lon="103.298853"><ele>2208.58</ele><time>2026-08-14T16:49:56.000Z</time></trkpt>
        <trkpt lat="29.5052985" lon="103.2989548"><ele>2210.33</ele><time>2026-08-14T16:50:06.000Z</time></trkpt>
        <trkpt lat="29.505264" lon="103.2990671"><ele>2212.03</ele><time>2026-08-14T16:50:16.000Z</time></trkpt>
        <trkpt lat="29.5052461" lon="103.2991943"><ele>2213.21</ele><time>2026-08-14T16:50:26.000Z</time></trkpt>
        <trkpt lat="29.5051845" lon="103.2992974"><ele>2213.96</ele><time>2026-08-14T16:50:36.000Z</time></trkpt>
        <trkpt lat="29.5050969" lon="103.2993274"><ele>2214.56</ele><time>2026-08-14T16:50:44.000Z</time></trkpt>
        <trkpt lat="29.5050144" lon="103.2992798"><ele>2215.14</ele><time>2026-08-14T16:50:52.000Z</time></trkpt>
        <trkpt lat="29.5049302" lon="103.2992081"><ele>2215.55</ele><time>2026-08-14T16:51:02.000Z</time></trkpt>
        <trkpt lat="29.5048335" lon="103.2991686"><ele>2215.99</ele><time>2026-08-14T16:51:12.000Z</time></trkpt>
        <trkpt lat="29.5047357" lon="103.2991571"><ele>2216.06</ele><time>2026-08-14T16:51:22.000Z</time></trkpt>
        <trkpt lat="29.5046413" lon="103.2991566"><ele>2216.58</ele><time>2026-08-14T16:51:32.000Z</time></trkpt>
        <trkpt lat="29.5045459" lon="103.2991533"><ele>2217.09</ele><time>2026-08-14T16:51:42.000Z</time></trkpt>
        <trkpt lat="29.5044517" lon="103.299165"><ele>2218.01</ele><time>2026-08-14T16:51:54.000Z</time></trkpt>
        <trkpt lat="29.5043524" lon="103.2991701"><ele>2219</ele><time>2026-08-14T16:52:06.000Z</time></trkpt>
        <trkpt lat="29.5042597" lon="103.299149"><ele>2219.79</ele><time>2026-08-14T16:52:16.000Z</time></trkpt>
        <trkpt lat="29.5041798" lon="103.299095"><ele>2221.12</ele><time>2026-08-14T16:52:26.000Z</time></trkpt>
        <trkpt lat="29.504123" lon="103.298996"><ele>2222.71</ele><time>2026-08-14T16:52:36.000Z</time></trkpt>
        <trkpt lat="29.5040852" lon="103.2988831"><ele>2224.26</ele><time>2026-08-14T16:52:46.000Z</time></trkpt>
        <trkpt lat="29.5040341" lon="103.298786"><ele>2225.41</ele><time>2026-08-14T16:52:56.000Z</time></trkpt>
        <trkpt lat="29.5039561" lon="103.2987434"><ele>2226.55</ele><time>2026-08-14T16:53:04.000Z</time></trkpt>
        <trkpt lat="29.5038566" lon="103.2987499"><ele>2227.01</ele><time>2026-08-14T16:53:14.000Z</time></trkpt>
        <trkpt lat="29.5037547" lon="103.2988061"><ele>2227.33</ele><time>2026-08-14T16:53:24.000Z</time></trkpt>
        <trkpt lat="29.5036596" lon="103.2988535"><ele>2227.43</ele><time>2026-08-14T16:53:32.000Z</time></trkpt>
        <trkpt lat="29.5035581" lon="103.2988927"><ele>2228.06</ele><time>2026-08-14T16:53:42.000Z</time></trkpt>
        <trkpt lat="29.5034731" lon="103.2989498"><ele>2229.34</ele><time>2026-08-14T16:53:52.000Z</time></trkpt>
        <trkpt lat="29.5034018" lon="103.2990356"><ele>2230.3</ele><time>2026-08-14T16:54:02.000Z</time></trkpt>
        <trkpt lat="29.5033807" lon="103.2991535"><ele>2231.54</ele><time>2026-08-14T16:54:12.000Z</time></trkpt>
        <trkpt lat="29.5034097" lon="103.2992637"><ele>2232.21</ele><time>2026-08-14T16:54:22.000Z</time></trkpt>
        <trkpt lat="29.5034553" lon="103.2993738"><ele>2233</ele><time>2026-08-14T16:54:33.000Z</time></trkpt>
        <trkpt lat="29.5034951" lon="103.2994827"><ele>2233.94</ele><time>2026-08-14T16:54:43.000Z</time></trkpt>
        <trkpt lat="29.5035023" lon="103.2995562"><ele>2234.67</ele><time>2026-08-14T16:54:52.000Z</time></trkpt>
        <trkpt lat="29.5035048" lon="103.2996566"><ele>2235.07</ele><time>2026-08-14T16:55:02.000Z</time></trkpt>
        <trkpt lat="29.5034937" lon="103.2997629"><ele>2235.67</ele><time>2026-08-14T16:55:10.000Z</time></trkpt>
        <trkpt lat="29.5034756" lon="103.2998766"><ele>2236.5</ele><time>2026-08-14T16:55:20.000Z</time></trkpt>
        <trkpt lat="29.5034488" lon="103.2999981"><ele>2237.15</ele><time>2026-08-14T16:55:30.000Z</time></trkpt>
        <trkpt lat="29.5034314" lon="103.3001275"><ele>2237.86</ele><time>2026-08-14T16:55:40.000Z</time></trkpt>
        <trkpt lat="29.5034428" lon="103.3002475"><ele>2239.02</ele><time>2026-08-14T16:55:50.000Z</time></trkpt>
        <trkpt lat="29.503482" lon="103.3003632"><ele>2240.26</ele><time>2026-08-14T16:56:00.000Z</time></trkpt>
        <trkpt lat="29.5035282" lon="103.3004717"><ele>2241.13</ele><time>2026-08-14T16:56:10.000Z</time></trkpt>
        <trkpt lat="29.5035834" lon="103.3005778"><ele>2241.89</ele><time>2026-08-14T16:56:20.000Z</time></trkpt>
        <trkpt lat="29.5036386" lon="103.3006835"><ele>2242.64</ele><time>2026-08-14T16:56:30.000Z</time></trkpt>
        <trkpt lat="29.5036926" lon="103.3007781"><ele>2243.22</ele><time>2026-08-14T16:56:38.000Z</time></trkpt>
        <trkpt lat="29.5037526" lon="103.3008803"><ele>2243.79</ele><time>2026-08-14T16:56:48.000Z</time></trkpt>
        <trkpt lat="29.5038058" lon="103.3009745"><ele>2244.4</ele><time>2026-08-14T16:56:56.000Z</time></trkpt>
        <trkpt lat="29.503869" lon="103.3010716"><ele>2244.8</ele><time>2026-08-14T16:57:06.000Z</time></trkpt>
        <trkpt lat="29.5039316" lon="103.3011758"><ele>2245.43</ele><time>2026-08-14T16:57:16.000Z</time></trkpt>
        <trkpt lat="29.5039806" lon="103.3012713"><ele>2246.39</ele><time>2026-08-14T16:57:24.000Z</time></trkpt>
        <trkpt lat="29.5040258" lon="103.3013747"><ele>2247.32</ele><time>2026-08-14T16:57:34.000Z</time></trkpt>
        <trkpt lat="29.5040646" lon="103.3014755"><ele>2247.9</ele><time>2026-08-14T16:57:42.000Z</time></trkpt>
        <trkpt lat="29.5041216" lon="103.3015751"><ele>2248.66</ele><time>2026-08-14T16:57:52.000Z</time></trkpt>
        <trkpt lat="29.5041831" lon="103.301657"><ele>2249.65</ele><time>2026-08-14T16:58:00.000Z</time></trkpt>
        <trkpt lat="29.504254" lon="103.3017441"><ele>2250.44</ele><time>2026-08-14T16:58:10.000Z</time></trkpt>
        <trkpt lat="29.5043208" lon="103.3018225"><ele>2251.24</ele><time>2026-08-14T16:58:18.000Z</time></trkpt>
        <trkpt lat="29.5043751" lon="103.301921"><ele>2251.99</ele><time>2026-08-14T16:58:28.000Z</time></trkpt>
        <trkpt lat="29.5044117" lon="103.3020274"><ele>2253.13</ele><time>2026-08-14T16:58:38.000Z</time></trkpt>
        <trkpt lat="29.5044396" lon="103.3021359"><ele>2253.9</ele><time>2026-08-14T16:58:48.000Z</time></trkpt>
        <trkpt lat="29.5044757" lon="103.3022328"><ele>2254.58</ele><time>2026-08-14T16:58:59.000Z</time></trkpt>
        <trkpt lat="29.5045387" lon="103.3023136"><ele>2255.37</ele><time>2026-08-14T16:59:34.000Z</time></trkpt>
        <trkpt lat="29.5046147" lon="103.302383"><ele>2257.24</ele><time>2026-08-14T16:59:42.000Z</time></trkpt>
        <trkpt lat="29.5046782" lon="103.3024779"><ele>2258.33</ele><time>2026-08-14T16:59:52.000Z</time></trkpt>
        <trkpt lat="29.5047056" lon="103.3025892"><ele>2259.06</ele><time>2026-08-14T17:00:02.000Z</time></trkpt>
        <trkpt lat="29.5046697" lon="103.3026999"><ele>2259.9</ele><time>2026-08-14T17:00:14.000Z</time></trkpt>
        <trkpt lat="29.5046038" lon="103.3027861"><ele>2260.74</ele><time>2026-08-14T17:00:24.000Z</time></trkpt>
        <trkpt lat="29.5045331" lon="103.30288"><ele>2261.85</ele><time>2026-08-14T17:00:36.000Z</time></trkpt>
        <trkpt lat="29.5044759" lon="103.3029776"><ele>2263.25</ele><time>2026-08-14T17:00:48.000Z</time></trkpt>
        <trkpt lat="29.5044348" lon="103.3030767"><ele>2264.72</ele><time>2026-08-14T17:01:02.000Z</time></trkpt>
        <trkpt lat="29.5044115" lon="103.303182"><ele>2266.52</ele><time>2026-08-14T17:01:16.000Z</time></trkpt>
        <trkpt lat="29.5044185" lon="103.303295"><ele>2268.38</ele><time>2026-08-14T17:01:30.000Z</time></trkpt>
        <trkpt lat="29.5044897" lon="103.3033474"><ele>2269.32</ele><time>2026-08-14T17:01:44.000Z</time></trkpt>
        <trkpt lat="29.5045821" lon="103.3033025"><ele>2270.71</ele><time>2026-08-14T17:02:28.000Z</time></trkpt>
        <trkpt lat="29.5046874" lon="103.3032423"><ele>2272.81</ele><time>2026-08-14T17:02:38.000Z</time></trkpt>
        <trkpt lat="29.504801" lon="103.3032062"><ele>2274.57</ele><time>2026-08-14T17:02:48.000Z</time></trkpt>
        <trkpt lat="29.5049048" lon="103.3031663"><ele>2276.13</ele><time>2026-08-14T17:02:58.000Z</time></trkpt>
        <trkpt lat="29.5049961" lon="103.3031318"><ele>2277.3</ele><time>2026-08-14T17:03:08.000Z</time></trkpt>
        <trkpt lat="29.5050895" lon="103.3031344"><ele>2278.75</ele><time>2026-08-14T17:03:20.000Z</time></trkpt>
        <trkpt lat="29.5051569" lon="103.3032024"><ele>2280.37</ele><time>2026-08-14T17:03:38.000Z</time></trkpt>
        <trkpt lat="29.5051805" lon="103.3033208"><ele>2282.06</ele><time>2026-08-14T17:03:56.000Z</time></trkpt>
        <trkpt lat="29.5051854" lon="103.3034474"><ele>2284.26</ele><time>2026-08-14T17:04:10.000Z</time></trkpt>
        <trkpt lat="29.5052037" lon="103.3035602"><ele>2286.37</ele><time>2026-08-14T17:04:22.000Z</time></trkpt>
        <trkpt lat="29.5052641" lon="103.3036362"><ele>2288.39</ele><time>2026-08-14T17:04:34.000Z</time></trkpt>
        <trkpt lat="29.5053462" lon="103.3036805"><ele>2290.35</ele><time>2026-08-14T17:04:48.000Z</time></trkpt>
        <trkpt lat="29.5054273" lon="103.303732"><ele>2291.68</ele><time>2026-08-14T17:05:02.000Z</time></trkpt>
        <trkpt lat="29.5054728" lon="103.303823"><ele>2293.55</ele><time>2026-08-14T17:05:18.000Z</time></trkpt>
        <trkpt lat="29.505441" lon="103.3039237"><ele>2295.38</ele><time>2026-08-14T17:05:32.000Z</time></trkpt>
        <trkpt lat="29.5053696" lon="103.3040148"><ele>2296.62</ele><time>2026-08-14T17:05:46.000Z</time></trkpt>
        <trkpt lat="29.5053072" lon="103.3041124"><ele>2299.13</ele><time>2026-08-14T17:06:00.000Z</time></trkpt>
        <trkpt lat="29.5052687" lon="103.304218"><ele>2301.76</ele><time>2026-08-14T17:06:16.000Z</time></trkpt>
        <trkpt lat="29.5052237" lon="103.3043145"><ele>2304.33</ele><time>2026-08-14T17:06:32.000Z</time></trkpt>
        <trkpt lat="29.5051719" lon="103.3044012"><ele>2307.62</ele><time>2026-08-14T17:06:44.000Z</time></trkpt>
        <trkpt lat="29.5051007" lon="103.3044731"><ele>2310.77</ele><time>2026-08-14T17:07:00.000Z</time></trkpt>
        <trkpt lat="29.5050085" lon="103.3045287"><ele>2313.62</ele><time>2026-08-14T17:07:18.000Z</time></trkpt>
        <trkpt lat="29.5049629" lon="103.3046253"><ele>2316.39</ele><time>2026-08-14T17:07:42.000Z</time></trkpt>
        <trkpt lat="29.5049693" lon="103.3047327"><ele>2318.11</ele><time>2026-08-14T17:07:58.000Z</time></trkpt>
        <trkpt lat="29.504983" lon="103.3048425"><ele>2319.21</ele><time>2026-08-14T17:08:14.000Z</time></trkpt>
        <trkpt lat="29.5050244" lon="103.3049405"><ele>2319.89</ele><time>2026-08-14T17:08:32.000Z</time></trkpt>
        <trkpt lat="29.5050377" lon="103.3050446"><ele>2319.84</ele><time>2026-08-14T17:08:44.000Z</time></trkpt>
        <trkpt lat="29.505022" lon="103.3051605"><ele>2320.68</ele><time>2026-08-14T17:13:55.000Z</time></trkpt>
        <trkpt lat="29.5049648" lon="103.3052444"><ele>2320.52</ele><time>2026-08-14T17:14:07.000Z</time></trkpt>
        <trkpt lat="29.504885" lon="103.3052961"><ele>2319.82</ele><time>2026-08-14T17:14:21.000Z</time></trkpt>
        <trkpt lat="29.5047983" lon="103.3053479"><ele>2319.52</ele><time>2026-08-14T17:14:33.000Z</time></trkpt>
        <trkpt lat="29.504758" lon="103.3054455"><ele>2319.62</ele><time>2026-08-14T17:14:49.000Z</time></trkpt>
        <trkpt lat="29.5047536" lon="103.3055658"><ele>2319.71</ele><time>2026-08-14T17:15:03.000Z</time></trkpt>
        <trkpt lat="29.5047075" lon="103.3056638"><ele>2320.18</ele><time>2026-08-14T17:15:17.000Z</time></trkpt>
        <trkpt lat="29.5046545" lon="103.3057628"><ele>2320.92</ele><time>2026-08-14T17:15:31.000Z</time></trkpt>
        <trkpt lat="29.5046369" lon="103.3058678"><ele>2320.95</ele><time>2026-08-14T17:15:47.000Z</time></trkpt>
        <trkpt lat="29.5046387" lon="103.305975"><ele>2320.65</ele><time>2026-08-14T17:16:09.000Z</time></trkpt>
        <trkpt lat="29.5046647" lon="103.3060768"><ele>2320.5</ele><time>2026-08-14T17:16:41.000Z</time></trkpt>
        <trkpt lat="29.5046577" lon="103.3061829"><ele>2322.11</ele><time>2026-08-14T17:17:51.000Z</time></trkpt>
        <trkpt lat="29.5046196" lon="103.306282"><ele>2324.34</ele><time>2026-08-14T17:18:07.000Z</time></trkpt>
        <trkpt lat="29.5045782" lon="103.3063748"><ele>2326.03</ele><time>2026-08-14T17:18:35.000Z</time></trkpt>
        <trkpt lat="29.5045436" lon="103.3064722"><ele>2329.31</ele><time>2026-08-14T17:19:13.000Z</time></trkpt>
        <trkpt lat="29.5044738" lon="103.3065367"><ele>2333.06</ele><time>2026-08-14T17:19:49.000Z</time></trkpt>
        <trkpt lat="29.5043884" lon="103.3065893"><ele>2337.33</ele><time>2026-08-14T17:20:25.000Z</time></trkpt>
        <trkpt lat="29.5043188" lon="103.306662"><ele>2341.97</ele><time>2026-08-14T17:21:17.000Z</time></trkpt>
        <trkpt lat="29.5042629" lon="103.3067627"><ele>2346.7</ele><time>2026-08-14T17:22:31.000Z</time></trkpt>
        <trkpt lat="29.5041981" lon="103.306839"><ele>2351.21</ele><time>2026-08-14T17:23:01.000Z</time></trkpt>
        <trkpt lat="29.5041413" lon="103.3069217"><ele>2356.17</ele><time>2026-08-14T17:23:31.000Z</time></trkpt>
        <trkpt lat="29.5040874" lon="103.3070056"><ele>2360.7</ele><time>2026-08-14T17:23:57.000Z</time></trkpt>
        <trkpt lat="29.5040747" lon="103.3071071"><ele>2365.06</ele><time>2026-08-14T17:24:51.000Z</time></trkpt>
        <trkpt lat="29.5040359" lon="103.3072128"><ele>2369.15</ele><time>2026-08-14T17:26:27.000Z</time></trkpt>
        <trkpt lat="29.5039978" lon="103.307312"><ele>2373.37</ele><time>2026-08-14T17:26:49.000Z</time></trkpt>
        <trkpt lat="29.5039693" lon="103.3074176"><ele>2378.93</ele><time>2026-08-14T17:27:27.000Z</time></trkpt>
        <trkpt lat="29.503912" lon="103.3075027"><ele>2383.3</ele><time>2026-08-14T17:29:19.000Z</time></trkpt>
        <trkpt lat="29.5038414" lon="103.3075714"><ele>2389.28</ele><time>2026-08-14T17:29:53.000Z</time></trkpt>
        <trkpt lat="29.5037611" lon="103.3076272"><ele>2396.71</ele><time>2026-08-14T17:30:23.000Z</time></trkpt>
        <trkpt lat="29.5037646" lon="103.307716"><ele>2403.44</ele><time>2026-08-14T17:31:11.000Z</time></trkpt>
        <trkpt lat="29.5037683" lon="103.3078208"><ele>2408.05</ele><time>2026-08-14T17:31:49.000Z</time></trkpt>
        <trkpt lat="29.5037768" lon="103.3079305"><ele>2412.16</ele><time>2026-08-14T17:32:17.000Z</time></trkpt>
        <trkpt lat="29.5037636" lon="103.3080406"><ele>2416.53</ele><time>2026-08-14T17:32:47.000Z</time></trkpt>
        <trkpt lat="29.5037122" lon="103.3081266"><ele>2421.63</ele><time>2026-08-14T17:33:19.000Z</time></trkpt>
        <trkpt lat="29.5036716" lon="103.3082199"><ele>2427.7</ele><time>2026-08-14T17:34:53.000Z</time></trkpt>
        <trkpt lat="29.503624" lon="103.3083115"><ele>2430.99</ele><time>2026-08-14T17:35:21.000Z</time></trkpt>
        <trkpt lat="29.5035359" lon="103.308332"><ele>2435.2</ele><time>2026-08-14T17:35:47.000Z</time></trkpt>
        <trkpt lat="29.5034637" lon="103.3083954"><ele>2441.03</ele><time>2026-08-14T17:37:57.000Z</time></trkpt>
        <trkpt lat="29.5034409" lon="103.3085022"><ele>2446.88</ele><time>2026-08-14T17:38:19.000Z</time></trkpt>
        <trkpt lat="29.5034874" lon="103.3085896"><ele>2450.34</ele><time>2026-08-14T17:38:45.000Z</time></trkpt>
        <trkpt lat="29.5035167" lon="103.3086913"><ele>2454.27</ele><time>2026-08-14T17:39:15.000Z</time></trkpt>
        <trkpt lat="29.5035497" lon="103.3087916"><ele>2457.76</ele><time>2026-08-14T17:39:39.000Z</time></trkpt>
        <trkpt lat="29.5035692" lon="103.308897"><ele>2461.11</ele><time>2026-08-14T17:40:03.000Z</time></trkpt>
        <trkpt lat="29.5035229" lon="103.3089905"><ele>2464.06</ele><time>2026-08-14T17:41:37.000Z</time></trkpt>
        <trkpt lat="29.5035458" lon="103.3090973"><ele>2468.43</ele><time>2026-08-14T17:41:53.000Z</time></trkpt>
        <trkpt lat="29.5035364" lon="103.3092041"><ele>2470.94</ele><time>2026-08-14T17:42:25.000Z</time></trkpt>
        <trkpt lat="29.5035316" lon="103.3093168"><ele>2474.21</ele><time>2026-08-14T17:42:51.000Z</time></trkpt>
        <trkpt lat="29.5035151" lon="103.3094256"><ele>2478.17</ele><time>2026-08-14T17:43:09.000Z</time></trkpt>
        <trkpt lat="29.5034919" lon="103.3095328"><ele>2481.42</ele><time>2026-08-14T17:43:33.000Z</time></trkpt>
        <trkpt lat="29.5034972" lon="103.3096395"><ele>2483.64</ele><time>2026-08-14T17:44:29.000Z</time></trkpt>
        <trkpt lat="29.5034406" lon="103.3097117"><ele>2487.91</ele><time>2026-08-14T17:45:05.000Z</time></trkpt>
        <trkpt lat="29.5033991" lon="103.3098001"><ele>2493.27</ele><time>2026-08-14T17:45:51.000Z</time></trkpt>
        <trkpt lat="29.5033343" lon="103.3098733"><ele>2496.98</ele><time>2026-08-14T17:46:39.000Z</time></trkpt>
        <trkpt lat="29.503352" lon="103.3099584"><ele>2501.46</ele><time>2026-08-14T17:47:13.000Z</time></trkpt>
        <trkpt lat="29.50339" lon="103.3100602"><ele>2505.11</ele><time>2026-08-14T17:47:25.000Z</time></trkpt>
        <trkpt lat="29.5033701" lon="103.3101679"><ele>2507.06</ele><time>2026-08-14T17:47:39.000Z</time></trkpt>
        <trkpt lat="29.5033518" lon="103.3102194"><ele>2508.4</ele><time>2026-08-14T17:47:43.000Z</time></trkpt>
        <trkpt lat="29.5033558" lon="103.3103069"><ele>2509.2</ele><time>2026-08-14T17:47:59.000Z</time></trkpt>
        <trkpt lat="29.5034072" lon="103.3103929"><ele>2510.11</ele><time>2026-08-14T17:48:19.000Z</time></trkpt>
        <trkpt lat="29.5034394" lon="103.310432"><ele>2511.49</ele><time>2026-08-14T17:48:23.000Z</time></trkpt>
        <trkpt lat="29.503503" lon="103.3104823"><ele>2512.43</ele><time>2026-08-14T17:48:53.000Z</time></trkpt>
        <trkpt lat="29.5035361" lon="103.3105737"><ele>2514.23</ele><time>2026-08-14T17:49:21.000Z</time></trkpt>
        <trkpt lat="29.5035315" lon="103.3106806"><ele>2516.59</ele><time>2026-08-14T17:50:01.000Z</time></trkpt>
        <trkpt lat="29.5035182" lon="103.3107914"><ele>2518.43</ele><time>2026-08-14T17:50:37.000Z</time></trkpt>
        <trkpt lat="29.5034495" lon="103.3108559"><ele>2521.48</ele><time>2026-08-14T17:51:29.000Z</time></trkpt>
        <trkpt lat="29.503336" lon="103.3108597"><ele>2525.93</ele><time>2026-08-14T17:53:01.000Z</time></trkpt>
        <trkpt lat="29.503294" lon="103.3109512"><ele>2531.46</ele><time>2026-08-14T17:55:02.000Z</time></trkpt>
        <trkpt lat="29.5032215" lon="103.3110123"><ele>2535.41</ele><time>2026-08-14T17:55:22.000Z</time></trkpt>
        <trkpt lat="29.5031393" lon="103.3110604"><ele>2538.54</ele><time>2026-08-14T17:55:46.000Z</time></trkpt>
        <trkpt lat="29.5030834" lon="103.3111416"><ele>2541.72</ele><time>2026-08-14T17:56:22.000Z</time></trkpt>
        <trkpt lat="29.5030357" lon="103.311233"><ele>2547.42</ele><time>2026-08-14T17:56:52.000Z</time></trkpt>
        <trkpt lat="29.5030117" lon="103.3113403"><ele>2551.44</ele><time>2026-08-14T17:58:06.000Z</time></trkpt>
        <trkpt lat="29.5029716" lon="103.3114395"><ele>2554.65</ele><time>2026-08-14T17:58:32.000Z</time></trkpt>
        <trkpt lat="29.5029171" lon="103.3115258"><ele>2556.94</ele><time>2026-08-14T17:58:58.000Z</time></trkpt>
        <trkpt lat="29.5028673" lon="103.3116157"><ele>2559.74</ele><time>2026-08-14T17:59:54.000Z</time></trkpt>
        <trkpt lat="29.5028725" lon="103.3117218"><ele>2564.5</ele><time>2026-08-14T18:00:58.000Z</time></trkpt>
        <trkpt lat="29.5028591" lon="103.3118286"><ele>2569.7</ele><time>2026-08-14T18:01:18.000Z</time></trkpt>
        <trkpt lat="29.5028554" lon="103.3119354"><ele>2574.38</ele><time>2026-08-14T18:01:52.000Z</time></trkpt>
        <trkpt lat="29.5028682" lon="103.3120481"><ele>2580.12</ele><time>2026-08-14T18:02:20.000Z</time></trkpt>
        <trkpt lat="29.5028718" lon="103.3121569"><ele>2585.45</ele><time>2026-08-14T18:03:00.000Z</time></trkpt>
        <trkpt lat="29.5028257" lon="103.312247"><ele>2590.4</ele><time>2026-08-14T18:03:20.000Z</time></trkpt>
        <trkpt lat="29.5027613" lon="103.3123359"><ele>2593.69</ele><time>2026-08-14T18:03:34.000Z</time></trkpt>
        <trkpt lat="29.5027458" lon="103.3124369"><ele>2596.36</ele><time>2026-08-14T18:03:44.000Z</time></trkpt>
        <trkpt lat="29.5027435" lon="103.312543"><ele>2598.59</ele><time>2026-08-14T18:03:56.000Z</time></trkpt>
        <trkpt lat="29.5027288" lon="103.3126506"><ele>2600.64</ele><time>2026-08-14T18:04:14.000Z</time></trkpt>
        <trkpt lat="29.5027469" lon="103.3127526"><ele>2603.04</ele><time>2026-08-14T18:04:26.000Z</time></trkpt>
        <trkpt lat="29.5027453" lon="103.3128579"><ele>2604.92</ele><time>2026-08-14T18:04:46.000Z</time></trkpt>
        <trkpt lat="29.5027862" lon="103.3129474"><ele>2607.66</ele><time>2026-08-14T18:04:58.000Z</time></trkpt>
        <trkpt lat="29.502817" lon="103.3130482"><ele>2609.93</ele><time>2026-08-14T18:05:24.000Z</time></trkpt>
        <trkpt lat="29.5028763" lon="103.3131332"><ele>2612.18</ele><time>2026-08-14T18:06:32.000Z</time></trkpt>
        <trkpt lat="29.5029736" lon="103.3131561"><ele>2614.2</ele><time>2026-08-14T18:06:50.000Z</time></trkpt>
        <trkpt lat="29.503066" lon="103.3131467"><ele>2617.12</ele><time>2026-08-14T18:07:16.000Z</time></trkpt>
        <trkpt lat="29.5031517" lon="103.3131905"><ele>2620.86</ele><time>2026-08-14T18:07:46.000Z</time></trkpt>
        <trkpt lat="29.5031719" lon="103.3133163"><ele>2624.41</ele><time>2026-08-14T18:09:22.000Z</time></trkpt>
        <trkpt lat="29.5032063" lon="103.3134155"><ele>2632.38</ele><time>2026-08-14T18:10:10.000Z</time></trkpt>
        <trkpt lat="29.5032244" lon="103.3135212"><ele>2637.79</ele><time>2026-08-14T18:10:39.000Z</time></trkpt>
        <trkpt lat="29.5032457" lon="103.3136279"><ele>2641.93</ele><time>2026-08-14T18:10:55.000Z</time></trkpt>
        <trkpt lat="29.5032548" lon="103.3137351"><ele>2644.53</ele><time>2026-08-14T18:11:13.000Z</time></trkpt>
        <trkpt lat="29.5032326" lon="103.3138366"><ele>2646.27</ele><time>2026-08-14T18:11:37.000Z</time></trkpt>
        <trkpt lat="29.5032468" lon="103.3139416"><ele>2647.76</ele><time>2026-08-14T18:11:55.000Z</time></trkpt>
        <trkpt lat="29.5032723" lon="103.3140481"><ele>2649.43</ele><time>2026-08-14T18:12:19.000Z</time></trkpt>
        <trkpt lat="29.5033038" lon="103.314155"><ele>2651.2</ele><time>2026-08-14T18:12:45.000Z</time></trkpt>
        <trkpt lat="29.5033465" lon="103.3142621"><ele>2654.25</ele><time>2026-08-14T18:13:03.000Z</time></trkpt>
        <trkpt lat="29.5033967" lon="103.3143576"><ele>2656.75</ele><time>2026-08-14T18:13:29.000Z</time></trkpt>
        <trkpt lat="29.5034472" lon="103.3144546"><ele>2659.09</ele><time>2026-08-14T18:13:45.000Z</time></trkpt>
        <trkpt lat="29.5034623" lon="103.3145584"><ele>2661.12</ele><time>2026-08-14T18:13:59.000Z</time></trkpt>
        <trkpt lat="29.5034897" lon="103.3146593"><ele>2663.2</ele><time>2026-08-14T18:14:11.000Z</time></trkpt>
        <trkpt lat="29.5035277" lon="103.3147531"><ele>2664.66</ele><time>2026-08-14T18:14:25.000Z</time></trkpt>
        <trkpt lat="29.5035625" lon="103.3148558"><ele>2666.14</ele><time>2026-08-14T18:14:41.000Z</time></trkpt>
        <trkpt lat="29.5036143" lon="103.314945"><ele>2667.75</ele><time>2026-08-14T18:14:55.000Z</time></trkpt>
        <trkpt lat="29.5036994" lon="103.3149946"><ele>2669.31</ele><time>2026-08-14T18:15:15.000Z</time></trkpt>
        <trkpt lat="29.503793" lon="103.3150188"><ele>2672.33</ele><time>2026-08-14T18:15:31.000Z</time></trkpt>
        <trkpt lat="29.5038714" lon="103.3150821"><ele>2674.7</ele><time>2026-08-14T18:15:51.000Z</time></trkpt>
        <trkpt lat="29.503947" lon="103.3151452"><ele>2677.84</ele><time>2026-08-14T18:16:29.000Z</time></trkpt>
        <trkpt lat="29.5040257" lon="103.3152018"><ele>2680.42</ele><time>2026-08-14T18:17:15.000Z</time></trkpt>
        <trkpt lat="29.5041057" lon="103.3152671"><ele>2682.67</ele><time>2026-08-14T18:17:31.000Z</time></trkpt>
        <trkpt lat="29.5041574" lon="103.3153587"><ele>2684.34</ele><time>2026-08-14T18:17:47.000Z</time></trkpt>
        <trkpt lat="29.5041958" lon="103.3154595"><ele>2685.71</ele><time>2026-08-14T18:18:10.000Z</time></trkpt>
        <trkpt lat="29.5042686" lon="103.3155136"><ele>2687.39</ele><time>2026-08-14T18:19:36.000Z</time></trkpt>
        <trkpt lat="29.5042973" lon="103.3156128"><ele>2688.47</ele><time>2026-08-14T18:19:48.000Z</time></trkpt>
        <trkpt lat="29.5043436" lon="103.315712"><ele>2688.84</ele><time>2026-08-14T18:20:02.000Z</time></trkpt>
        <trkpt lat="29.5043902" lon="103.315817"><ele>2688.98</ele><time>2026-08-14T18:20:20.000Z</time></trkpt>
        <trkpt lat="29.5044599" lon="103.3158953"><ele>2688.43</ele><time>2026-08-14T18:20:36.000Z</time></trkpt>
        <trkpt lat="29.5045118" lon="103.3159865"><ele>2686.78</ele><time>2026-08-14T18:20:50.000Z</time></trkpt>
        <trkpt lat="29.5045517" lon="103.3160895"><ele>2685.11</ele><time>2026-08-14T18:21:02.000Z</time></trkpt>
        <trkpt lat="29.5046116" lon="103.3161681"><ele>2683.9</ele><time>2026-08-14T18:21:16.000Z</time></trkpt>
        <trkpt lat="29.5046867" lon="103.3162314"><ele>2683.1</ele><time>2026-08-14T18:21:30.000Z</time></trkpt>
        <trkpt lat="29.5047667" lon="103.3162901"><ele>2681.94</ele><time>2026-08-14T18:21:44.000Z</time></trkpt>
        <trkpt lat="29.5048473" lon="103.3163484"><ele>2681.62</ele><time>2026-08-14T18:22:18.000Z</time></trkpt>
        <trkpt lat="29.5049372" lon="103.3163905"><ele>2682.22</ele><time>2026-08-14T18:22:46.000Z</time></trkpt>
        <trkpt lat="29.50503" lon="103.3164156"><ele>2683.59</ele><time>2026-08-14T18:23:12.000Z</time></trkpt>
        <trkpt lat="29.5051231" lon="103.3164415"><ele>2685.44</ele><time>2026-08-14T18:23:44.000Z</time></trkpt>
        <trkpt lat="29.5051985" lon="103.3165036"><ele>2688.34</ele><time>2026-08-14T18:24:12.000Z</time></trkpt>
        <trkpt lat="29.5052543" lon="103.3165912"><ele>2691.18</ele><time>2026-08-14T18:25:00.000Z</time></trkpt>
        <trkpt lat="29.5052721" lon="103.3166291"><ele>2695.46</ele><time>2026-08-14T18:25:02.000Z</time></trkpt>
        <trkpt lat="29.5053077" lon="103.3167041"><ele>2698.13</ele><time>2026-08-14T18:25:28.000Z</time></trkpt>
        <trkpt lat="29.5053397" lon="103.3167998"><ele>2701.31</ele><time>2026-08-14T18:25:56.000Z</time></trkpt>
        <trkpt lat="29.5053237" lon="103.316902"><ele>2704.68</ele><time>2026-08-14T18:26:28.000Z</time></trkpt>
        <trkpt lat="29.5053394" lon="103.3170046"><ele>2708.22</ele><time>2026-08-14T18:26:50.000Z</time></trkpt>
        <trkpt lat="29.5053566" lon="103.3171119"><ele>2711.28</ele><time>2026-08-14T18:27:19.000Z</time></trkpt>
        <trkpt lat="29.5053062" lon="103.3172073"><ele>2714.76</ele><time>2026-08-14T18:31:12.000Z</time></trkpt>
        <trkpt lat="29.5052433" lon="103.3172913"><ele>2718.4</ele><time>2026-08-14T18:31:34.000Z</time></trkpt>
        <trkpt lat="29.50519" lon="103.3173816"><ele>2722.43</ele><time>2026-08-14T18:31:56.000Z</time></trkpt>
        <trkpt lat="29.5051679" lon="103.3174967"><ele>2725.16</ele><time>2026-08-14T18:32:32.000Z</time></trkpt>
        <trkpt lat="29.5051657" lon="103.3176081"><ele>2730.64</ele><time>2026-08-14T18:32:54.000Z</time></trkpt>
        <trkpt lat="29.5051838" lon="103.3177173"><ele>2735.97</ele><time>2026-08-14T18:33:33.000Z</time></trkpt>
        <trkpt lat="29.5052089" lon="103.3178308"><ele>2739.67</ele><time>2026-08-14T18:33:47.000Z</time></trkpt>
        <trkpt lat="29.5052486" lon="103.3179343"><ele>2743.19</ele><time>2026-08-14T18:33:57.000Z</time></trkpt>
        <trkpt lat="29.5052334" lon="103.3180453"><ele>2745.53</ele><time>2026-08-14T18:34:19.000Z</time></trkpt>
        <trkpt lat="29.5052393" lon="103.3181536"><ele>2748.02</ele><time>2026-08-14T18:34:35.000Z</time></trkpt>
        <trkpt lat="29.5052552" lon="103.3182607"><ele>2749.84</ele><time>2026-08-14T18:34:51.000Z</time></trkpt>
        <trkpt lat="29.5052847" lon="103.3183617"><ele>2751.85</ele><time>2026-08-14T18:35:17.000Z</time></trkpt>
        <trkpt lat="29.5053258" lon="103.3184605"><ele>2754.71</ele><time>2026-08-14T18:35:39.000Z</time></trkpt>
        <trkpt lat="29.5054016" lon="103.3185188"><ele>2758.15</ele><time>2026-08-14T18:35:57.000Z</time></trkpt>
        <trkpt lat="29.5054932" lon="103.3185626"><ele>2761.36</ele><time>2026-08-14T18:36:51.000Z</time></trkpt>
        <trkpt lat="29.5055622" lon="103.3186321"><ele>2763.75</ele><time>2026-08-14T18:37:07.000Z</time></trkpt>
        <trkpt lat="29.5056222" lon="103.3187189"><ele>2765.82</ele><time>2026-08-14T18:37:21.000Z</time></trkpt>
        <trkpt lat="29.5056962" lon="103.3188001"><ele>2766.76</ele><time>2026-08-14T18:37:33.000Z</time></trkpt>
        <trkpt lat="29.5057357" lon="103.3189012"><ele>2767.01</ele><time>2026-08-14T18:37:47.000Z</time></trkpt>
        <trkpt lat="29.5057836" lon="103.3189978"><ele>2767.97</ele><time>2026-08-14T18:38:03.000Z</time></trkpt>
        <trkpt lat="29.5058477" lon="103.31908"><ele>2769.25</ele><time>2026-08-14T18:38:21.000Z</time></trkpt>
        <trkpt lat="29.5058823" lon="103.3191852"><ele>2771.54</ele><time>2026-08-14T18:38:51.000Z</time></trkpt>
        <trkpt lat="29.5059025" lon="103.3192936"><ele>2773.86</ele><time>2026-08-14T18:39:05.000Z</time></trkpt>
        <trkpt lat="29.5059331" lon="103.3193966"><ele>2775.16</ele><time>2026-08-14T18:39:27.000Z</time></trkpt>
        <trkpt lat="29.5059661" lon="103.3194968"><ele>2776.21</ele><time>2026-08-14T18:39:41.000Z</time></trkpt>
        <trkpt lat="29.5059944" lon="103.3196132"><ele>2777.24</ele><time>2026-08-14T18:39:53.000Z</time></trkpt>
        <trkpt lat="29.5060195" lon="103.3197357"><ele>2777.92</ele><time>2026-08-14T18:40:03.000Z</time></trkpt>
        <trkpt lat="29.5060552" lon="103.319848"><ele>2778.36</ele><time>2026-08-14T18:40:13.000Z</time></trkpt>
        <trkpt lat="29.506085" lon="103.3199616"><ele>2778.71</ele><time>2026-08-14T18:40:23.000Z</time></trkpt>
        <trkpt lat="29.5061152" lon="103.3200643"><ele>2778.86</ele><time>2026-08-14T18:40:29.000Z</time></trkpt>
        <trkpt lat="29.5061212" lon="103.3201689"><ele>2779.73</ele><time>2026-08-14T18:40:48.000Z</time></trkpt>
        <trkpt lat="29.5060954" lon="103.3202689"><ele>2782.86</ele><time>2026-08-14T18:41:04.000Z</time></trkpt>
        <trkpt lat="29.5060208" lon="103.3203217"><ele>2785.81</ele><time>2026-08-14T18:41:36.000Z</time></trkpt>
        <trkpt lat="29.505965" lon="103.3204034"><ele>2790.49</ele><time>2026-08-14T18:42:32.000Z</time></trkpt>
        <trkpt lat="29.5058959" lon="103.3204755"><ele>2794.94</ele><time>2026-08-14T18:42:52.000Z</time></trkpt>
        <trkpt lat="29.50583" lon="103.3205498"><ele>2799.41</ele><time>2026-08-14T18:43:18.000Z</time></trkpt>
        <trkpt lat="29.5058111" lon="103.3206482"><ele>2803.16</ele><time>2026-08-14T18:44:08.000Z</time></trkpt>
        <trkpt lat="29.505797" lon="103.3207614"><ele>2806.95</ele><time>2026-08-14T18:44:30.000Z</time></trkpt>
        <trkpt lat="29.5058282" lon="103.3208729"><ele>2809.68</ele><time>2026-08-14T18:44:44.000Z</time></trkpt>
        <trkpt lat="29.5058687" lon="103.3209766"><ele>2812.17</ele><time>2026-08-14T18:45:08.000Z</time></trkpt>
        <trkpt lat="29.5059079" lon="103.3210768"><ele>2815.04</ele><time>2026-08-14T18:45:26.000Z</time></trkpt>
        <trkpt lat="29.5059258" lon="103.3211815"><ele>2816.61</ele><time>2026-08-14T18:46:02.000Z</time></trkpt>
        <trkpt lat="29.5059104" lon="103.321288"><ele>2817.8</ele><time>2026-08-14T18:46:46.000Z</time></trkpt>
        <trkpt lat="29.5059335" lon="103.3213894"><ele>2820.28</ele><time>2026-08-14T18:47:24.000Z</time></trkpt>
        <trkpt lat="29.5060177" lon="103.3214493"><ele>2823.07</ele><time>2026-08-14T18:48:31.000Z</time></trkpt>
        <trkpt lat="29.5059872" lon="103.3215485"><ele>2826.03</ele><time>2026-08-14T18:49:01.000Z</time></trkpt>
        <trkpt lat="29.5060196" lon="103.3216412"><ele>2831.09</ele><time>2026-08-14T18:49:41.000Z</time></trkpt>
        <trkpt lat="29.5060711" lon="103.3217392"><ele>2835.7</ele><time>2026-08-14T18:50:45.000Z</time></trkpt>
        <trkpt lat="29.5061131" lon="103.3218307"><ele>2840.74</ele><time>2026-08-14T18:51:39.000Z</time></trkpt>
        <trkpt lat="29.506134" lon="103.3219376"><ele>2845.89</ele><time>2026-08-14T18:52:47.000Z</time></trkpt>
        <trkpt lat="29.5061779" lon="103.3220444"><ele>2851.06</ele><time>2026-08-14T18:53:11.000Z</time></trkpt>
        <trkpt lat="29.5062121" lon="103.3221447"><ele>2856.25</ele><time>2026-08-14T18:53:49.000Z</time></trkpt>
        <trkpt lat="29.5062078" lon="103.3222498"><ele>2861.55</ele><time>2026-08-14T18:54:15.000Z</time></trkpt>
        <trkpt lat="29.5062014" lon="103.3222932"><ele>2866.14</ele><time>2026-08-14T18:54:17.000Z</time></trkpt>
        <trkpt lat="29.5061812" lon="103.3223774"><ele>2868.83</ele><time>2026-08-14T18:54:53.000Z</time></trkpt>
        <trkpt lat="29.5061945" lon="103.3224795"><ele>2872.18</ele><time>2026-08-14T18:55:13.000Z</time></trkpt>
        <trkpt lat="29.5062416" lon="103.322582"><ele>2874.13</ele><time>2026-08-14T18:55:31.000Z</time></trkpt>
        <trkpt lat="29.5062899" lon="103.3226834"><ele>2876.15</ele><time>2026-08-14T18:55:47.000Z</time></trkpt>
        <trkpt lat="29.5063321" lon="103.3227838"><ele>2878.01</ele><time>2026-08-14T18:56:05.000Z</time></trkpt>
        <trkpt lat="29.506382" lon="103.3228778"><ele>2879.97</ele><time>2026-08-14T18:56:31.000Z</time></trkpt>
        <trkpt lat="29.5064302" lon="103.3229808"><ele>2883.5</ele><time>2026-08-14T18:56:49.000Z</time></trkpt>
        <trkpt lat="29.5065014" lon="103.3230587"><ele>2887.22</ele><time>2026-08-14T18:57:01.000Z</time></trkpt>
        <trkpt lat="29.5065894" lon="103.3231099"><ele>2890.1</ele><time>2026-08-14T18:57:13.000Z</time></trkpt>
        <trkpt lat="29.506665" lon="103.3231755"><ele>2892.54</ele><time>2026-08-14T18:57:25.000Z</time></trkpt>
        <trkpt lat="29.5067315" lon="103.3232484"><ele>2894.93</ele><time>2026-08-14T18:57:37.000Z</time></trkpt>
        <trkpt lat="29.5068088" lon="103.3233072"><ele>2896.83</ele><time>2026-08-14T18:57:49.000Z</time></trkpt>
        <trkpt lat="29.5068618" lon="103.3234064"><ele>2897.94</ele><time>2026-08-14T18:58:03.000Z</time></trkpt>
        <trkpt lat="29.5069299" lon="103.3234866"><ele>2897.93</ele><time>2026-08-14T18:58:17.000Z</time></trkpt>
        <trkpt lat="29.5070104" lon="103.3235409"><ele>2897.1</ele><time>2026-08-14T18:58:29.000Z</time></trkpt>
        <trkpt lat="29.5070995" lon="103.3235857"><ele>2895.96</ele><time>2026-08-14T18:58:37.000Z</time></trkpt>
        <trkpt lat="29.5072009" lon="103.3236342"><ele>2894.94</ele><time>2026-08-14T18:58:45.000Z</time></trkpt>
        <trkpt lat="29.5072916" lon="103.3236968"><ele>2893.97</ele><time>2026-08-14T18:58:53.000Z</time></trkpt>
        <trkpt lat="29.507373" lon="103.3237536"><ele>2893.42</ele><time>2026-08-14T18:59:07.000Z</time></trkpt>
        <trkpt lat="29.5073936" lon="103.3238536"><ele>2892.87</ele><time>2026-08-14T18:59:15.000Z</time></trkpt>
        <trkpt lat="29.5073624" lon="103.3239695"><ele>2892.47</ele><time>2026-08-14T18:59:27.000Z</time></trkpt>
        <trkpt lat="29.5073145" lon="103.324083"><ele>2892.32</ele><time>2026-08-14T18:59:43.000Z</time></trkpt>
        <trkpt lat="29.5072666" lon="103.3241879"><ele>2892.66</ele><time>2026-08-14T19:00:03.000Z</time></trkpt>
        <trkpt lat="29.5072035" lon="103.3242772"><ele>2893.39</ele><time>2026-08-14T19:00:19.000Z</time></trkpt>
        <trkpt lat="29.5071696" lon="103.3243893"><ele>2893.68</ele><time>2026-08-14T19:00:33.000Z</time></trkpt>
        <trkpt lat="29.5071411" lon="103.3245049"><ele>2893.97</ele><time>2026-08-14T19:00:41.000Z</time></trkpt>
        <trkpt lat="29.5071397" lon="103.324621"><ele>2894.41</ele><time>2026-08-14T19:00:51.000Z</time></trkpt>
        <trkpt lat="29.5071317" lon="103.3247366"><ele>2895.3</ele><time>2026-08-14T19:01:17.000Z</time></trkpt>
        <trkpt lat="29.5071067" lon="103.3248402"><ele>2897.06</ele><time>2026-08-14T19:01:29.000Z</time></trkpt>
        <trkpt lat="29.5070905" lon="103.324945"><ele>2898.32</ele><time>2026-08-14T19:01:43.000Z</time></trkpt>
        <trkpt lat="29.507094" lon="103.3250508"><ele>2899.19</ele><time>2026-08-14T19:02:01.000Z</time></trkpt>
        <trkpt lat="29.5071089" lon="103.3251629"><ele>2900.12</ele><time>2026-08-14T19:02:17.000Z</time></trkpt>
        <trkpt lat="29.5070937" lon="103.3252717"><ele>2901.3</ele><time>2026-08-14T19:02:39.000Z</time></trkpt>
        <trkpt lat="29.5070921" lon="103.325379"><ele>2902.5</ele><time>2026-08-14T19:03:11.000Z</time></trkpt>
        <trkpt lat="29.5070965" lon="103.3254972"><ele>2904.09</ele><time>2026-08-14T19:03:29.000Z</time></trkpt>
        <trkpt lat="29.5071687" lon="103.3255507"><ele>2905.88</ele><time>2026-08-14T19:03:39.000Z</time></trkpt>
        <trkpt lat="29.507261" lon="103.32558"><ele>2906.73</ele><time>2026-08-14T19:03:49.000Z</time></trkpt>
        <trkpt lat="29.5073496" lon="103.3256266"><ele>2907.7</ele><time>2026-08-14T19:04:07.000Z</time></trkpt>
        <trkpt lat="29.5074263" lon="103.3256941"><ele>2909.11</ele><time>2026-08-14T19:04:27.000Z</time></trkpt>
        <trkpt lat="29.5075088" lon="103.3257527"><ele>2910.68</ele><time>2026-08-14T19:04:57.000Z</time></trkpt>
        <trkpt lat="29.5075684" lon="103.3258362"><ele>2912.92</ele><time>2026-08-14T19:06:27.000Z</time></trkpt>
        <trkpt lat="29.5076542" lon="103.3258896"><ele>2914.36</ele><time>2026-08-14T19:07:21.000Z</time></trkpt>
        <trkpt lat="29.507719" lon="103.3259735"><ele>2916.22</ele><time>2026-08-14T19:11:04.000Z</time></trkpt>
        <trkpt lat="29.5077305" lon="103.326088"><ele>2917.39</ele><time>2026-08-14T19:11:38.000Z</time></trkpt>
        <trkpt lat="29.5077565" lon="103.3261959"><ele>2919.1</ele><time>2026-08-14T19:12:20.000Z</time></trkpt>
        <trkpt lat="29.5077055" lon="103.3262674"><ele>2921.43</ele><time>2026-08-14T19:12:58.000Z</time></trkpt>
        <trkpt lat="29.5076435" lon="103.3263505"><ele>2924.04</ele><time>2026-08-14T19:13:18.000Z</time></trkpt>
        <trkpt lat="29.507561" lon="103.3264045"><ele>2926.49</ele><time>2026-08-14T19:13:42.000Z</time></trkpt>
        <trkpt lat="29.5074762" lon="103.326454"><ele>2929.71</ele><time>2026-08-14T19:14:02.000Z</time></trkpt>
        <trkpt lat="29.5074018" lon="103.3265268"><ele>2933.23</ele><time>2026-08-14T19:14:30.000Z</time></trkpt>
        <trkpt lat="29.5073427" lon="103.3266149"><ele>2936.57</ele><time>2026-08-14T19:15:02.000Z</time></trkpt>
        <trkpt lat="29.5072895" lon="103.3267081"><ele>2939.71</ele><time>2026-08-14T19:15:20.000Z</time></trkpt>
        <trkpt lat="29.5072075" lon="103.3267332"><ele>2942.65</ele><time>2026-08-14T19:15:32.000Z</time></trkpt>
        <trkpt lat="29.5071215" lon="103.3267612"><ele>2945.16</ele><time>2026-08-14T19:15:56.000Z</time></trkpt>
        <trkpt lat="29.5070582" lon="103.3268279"><ele>2947.51</ele><time>2026-08-14T19:16:46.000Z</time></trkpt>
        <trkpt lat="29.5070197" lon="103.3269217"><ele>2949.97</ele><time>2026-08-14T19:17:14.000Z</time></trkpt>
        <trkpt lat="29.5070484" lon="103.3270184"><ele>2951.97</ele><time>2026-08-14T19:17:40.000Z</time></trkpt>
        <trkpt lat="29.5071241" lon="103.3270854"><ele>2953.42</ele><time>2026-08-14T19:17:56.000Z</time></trkpt>
        <trkpt lat="29.5071995" lon="103.3271574"><ele>2954.27</ele><time>2026-08-14T19:18:04.000Z</time></trkpt>
        <trkpt lat="29.5072712" lon="103.3272436"><ele>2955.55</ele><time>2026-08-14T19:18:16.000Z</time></trkpt>
        <trkpt lat="29.5073417" lon="103.3273238"><ele>2958.98</ele><time>2026-08-14T19:18:30.000Z</time></trkpt>
        <trkpt lat="29.5074149" lon="103.3274068"><ele>2964.26</ele><time>2026-08-14T19:18:42.000Z</time></trkpt>
        <trkpt lat="29.5074628" lon="103.3275023"><ele>2968.22</ele><time>2026-08-14T19:18:52.000Z</time></trkpt>
        <trkpt lat="29.5074851" lon="103.327608"><ele>2971.07</ele><time>2026-08-14T19:19:02.000Z</time></trkpt>
        <trkpt lat="29.5075437" lon="103.3276936"><ele>2972.83</ele><time>2026-08-14T19:19:12.000Z</time></trkpt>
        <trkpt lat="29.5076262" lon="103.3277366"><ele>2974.26</ele><time>2026-08-14T19:19:23.000Z</time></trkpt>
        <trkpt lat="29.5077136" lon="103.3277016"><ele>2977.57</ele><time>2026-08-14T19:19:41.000Z</time></trkpt>
        <trkpt lat="29.5077923" lon="103.3276119"><ele>2980.47</ele><time>2026-08-14T19:19:53.000Z</time></trkpt>
        <trkpt lat="29.5078926" lon="103.3275769"><ele>2981.82</ele><time>2026-08-14T19:20:05.000Z</time></trkpt>
        <trkpt lat="29.5079689" lon="103.3276251"><ele>2981.93</ele><time>2026-08-14T19:20:15.000Z</time></trkpt>
        <trkpt lat="29.5080066" lon="103.3277383"><ele>2981.78</ele><time>2026-08-14T19:20:31.000Z</time></trkpt>
        <trkpt lat="29.5080165" lon="103.3278593"><ele>2981.44</ele><time>2026-08-14T19:20:43.000Z</time></trkpt>
        <trkpt lat="29.5080574" lon="103.3279658"><ele>2981.38</ele><time>2026-08-14T19:20:55.000Z</time></trkpt>
        <trkpt lat="29.5081109" lon="103.3280634"><ele>2981.77</ele><time>2026-08-14T19:21:05.000Z</time></trkpt>
        <trkpt lat="29.5081818" lon="103.3281394"><ele>2982.91</ele><time>2026-08-14T19:21:17.000Z</time></trkpt>
        <trkpt lat="29.5082425" lon="103.328219"><ele>2984.11</ele><time>2026-08-14T19:21:29.000Z</time></trkpt>
        <trkpt lat="29.5082981" lon="103.3283067"><ele>2984.73</ele><time>2026-08-14T19:21:49.000Z</time></trkpt>
        <trkpt lat="29.5083789" lon="103.3283634"><ele>2986.33</ele><time>2026-08-14T19:22:09.000Z</time></trkpt>
        <trkpt lat="29.5084762" lon="103.3283569"><ele>2987.61</ele><time>2026-08-14T19:22:19.000Z</time></trkpt>
        <trkpt lat="29.508574" lon="103.3283691"><ele>2988.27</ele><time>2026-08-14T19:22:31.000Z</time></trkpt>
        <trkpt lat="29.5086704" lon="103.3283867"><ele>2988.54</ele><time>2026-08-14T19:22:45.000Z</time></trkpt>
        <trkpt lat="29.5087625" lon="103.328396"><ele>2988.36</ele><time>2026-08-14T19:23:01.000Z</time></trkpt>
        <trkpt lat="29.5088542" lon="103.3283682"><ele>2988.16</ele><time>2026-08-14T19:23:11.000Z</time></trkpt>
        <trkpt lat="29.5089342" lon="103.3282932"><ele>2987.1</ele><time>2026-08-14T19:23:23.000Z</time></trkpt>
        <trkpt lat="29.5090043" lon="103.328209"><ele>2985.74</ele><time>2026-08-14T19:23:33.000Z</time></trkpt>
        <trkpt lat="29.5090929" lon="103.3281712"><ele>2984.9</ele><time>2026-08-14T19:23:43.000Z</time></trkpt>
        <trkpt lat="29.5091863" lon="103.3281644"><ele>2983.66</ele><time>2026-08-14T19:23:49.000Z</time></trkpt>
        <trkpt lat="29.5092752" lon="103.3281389"><ele>2982.77</ele><time>2026-08-14T19:24:11.000Z</time></trkpt>
        <trkpt lat="29.5093733" lon="103.3281274"><ele>2980.97</ele><time>2026-08-14T19:24:21.000Z</time></trkpt>
        <trkpt lat="29.5094662" lon="103.3281321"><ele>2979.77</ele><time>2026-08-14T19:24:29.000Z</time></trkpt>
        <trkpt lat="29.5095724" lon="103.3281533"><ele>2978.27</ele><time>2026-08-14T19:24:41.000Z</time></trkpt>
        <trkpt lat="29.509672" lon="103.3281907"><ele>2977</ele><time>2026-08-14T19:24:51.000Z</time></trkpt>
        <trkpt lat="29.5097484" lon="103.3282554"><ele>2976.2</ele><time>2026-08-14T19:25:05.000Z</time></trkpt>
        <trkpt lat="29.5098135" lon="103.3283224"><ele>2975.69</ele><time>2026-08-14T19:25:15.000Z</time></trkpt>
        <trkpt lat="29.5098097" lon="103.3284224"><ele>2975.33</ele><time>2026-08-14T19:25:35.000Z</time></trkpt>
        <trkpt lat="29.5097935" lon="103.3285329"><ele>2974.84</ele><time>2026-08-14T19:26:03.000Z</time></trkpt>
        <trkpt lat="29.5097802" lon="103.3285703"><ele>2974.87</ele><time>2026-08-14T19:26:05.000Z</time></trkpt>
        <trkpt lat="29.5097981" lon="103.3286535"><ele>2974.98</ele><time>2026-08-14T19:26:25.000Z</time></trkpt>
        <trkpt lat="29.5098576" lon="103.3287277"><ele>2975.66</ele><time>2026-08-14T19:26:41.000Z</time></trkpt>
        <trkpt lat="29.5099299" lon="103.3287978"><ele>2976.64</ele><time>2026-08-14T19:27:23.000Z</time></trkpt>
        <trkpt lat="29.5099792" lon="103.3288956"><ele>2977.61</ele><time>2026-08-14T19:28:27.000Z</time></trkpt>
        <trkpt lat="29.510025" lon="103.3290024"><ele>2978.65</ele><time>2026-08-14T19:28:39.000Z</time></trkpt>
        <trkpt lat="29.5100853" lon="103.3290963"><ele>2979.73</ele><time>2026-08-14T19:28:55.000Z</time></trkpt>
        <trkpt lat="29.5101467" lon="103.3291761"><ele>2981.06</ele><time>2026-08-14T19:29:13.000Z</time></trkpt>
        <trkpt lat="29.51022" lon="103.3292458"><ele>2982.96</ele><time>2026-08-14T19:29:29.000Z</time></trkpt>
        <trkpt lat="29.510263" lon="103.3293352"><ele>2984.86</ele><time>2026-08-14T19:29:45.000Z</time></trkpt>
        <trkpt lat="29.5103027" lon="103.3294272"><ele>2986.84</ele><time>2026-08-14T19:29:59.000Z</time></trkpt>
        <trkpt lat="29.5103481" lon="103.329537"><ele>2988.56</ele><time>2026-08-14T19:30:09.000Z</time></trkpt>
        <trkpt lat="29.5104107" lon="103.329647"><ele>2990.43</ele><time>2026-08-14T19:30:19.000Z</time></trkpt>
        <trkpt lat="29.5104869" lon="103.3297388"><ele>2992.55</ele><time>2026-08-14T19:30:27.000Z</time></trkpt>
        <trkpt lat="29.5105643" lon="103.329829"><ele>2993.82</ele><time>2026-08-14T19:30:35.000Z</time></trkpt>
        <trkpt lat="29.5106209" lon="103.3299193"><ele>2994.42</ele><time>2026-08-14T19:30:43.000Z</time></trkpt>
        <trkpt lat="29.5106692" lon="103.33001"><ele>2994.62</ele><time>2026-08-14T19:30:51.000Z</time></trkpt>
        <trkpt lat="29.5107052" lon="103.3301127"><ele>2994.65</ele><time>2026-08-14T19:31:05.000Z</time></trkpt>
        <trkpt lat="29.5107303" lon="103.3302254"><ele>2994.85</ele><time>2026-08-14T19:31:15.000Z</time></trkpt>
        <trkpt lat="29.5107828" lon="103.3303127"><ele>2994.95</ele><time>2026-08-14T19:31:31.000Z</time></trkpt>
        <trkpt lat="29.5107804" lon="103.3304126"><ele>2995.58</ele><time>2026-08-14T19:31:55.000Z</time></trkpt>
        <trkpt lat="29.5107271" lon="103.3305009"><ele>2996.79</ele><time>2026-08-14T19:32:25.000Z</time></trkpt>
        <trkpt lat="29.5106807" lon="103.3305963"><ele>2999.29</ele><time>2026-08-14T19:32:57.000Z</time></trkpt>
        <trkpt lat="29.5106392" lon="103.3306961"><ele>3002.54</ele><time>2026-08-14T19:34:38.000Z</time></trkpt>
        <trkpt lat="29.5105686" lon="103.3307648"><ele>3004.37</ele><time>2026-08-14T19:35:16.000Z</time></trkpt>
        <trkpt lat="29.5105142" lon="103.3308528"><ele>3005.89</ele><time>2026-08-14T19:36:04.000Z</time></trkpt>
        <trkpt lat="29.5104346" lon="103.330903"><ele>3007.66</ele><time>2026-08-14T19:36:26.000Z</time></trkpt>
        <trkpt lat="29.5103401" lon="103.3309358"><ele>3009.16</ele><time>2026-08-14T19:36:40.000Z</time></trkpt>
        <trkpt lat="29.5102408" lon="103.330946"><ele>3010.48</ele><time>2026-08-14T19:36:54.000Z</time></trkpt>
        <trkpt lat="29.5101595" lon="103.3309897"><ele>3012.05</ele><time>2026-08-14T19:37:28.000Z</time></trkpt>
        <trkpt lat="29.5101059" lon="103.3310764"><ele>3013.61</ele><time>2026-08-14T19:38:02.000Z</time></trkpt>
        <trkpt lat="29.5100491" lon="103.3311611"><ele>3015.76</ele><time>2026-08-14T19:38:26.000Z</time></trkpt>
        <trkpt lat="29.5099892" lon="103.3312481"><ele>3018.38</ele><time>2026-08-14T19:38:52.000Z</time></trkpt>
        <trkpt lat="29.5099697" lon="103.3313599"><ele>3021.27</ele><time>2026-08-14T19:40:35.000Z</time></trkpt>
        <trkpt lat="29.5099735" lon="103.3314667"><ele>3025.74</ele><time>2026-08-14T19:40:49.000Z</time></trkpt>
        <trkpt lat="29.5099886" lon="103.3315799"><ele>3028.94</ele><time>2026-08-14T19:41:11.000Z</time></trkpt>
        <trkpt lat="29.510019" lon="103.3316826"><ele>3034.59</ele><time>2026-08-14T19:41:37.000Z</time></trkpt>
        <trkpt lat="29.5100499" lon="103.3317819"><ele>3039.38</ele><time>2026-08-14T19:41:49.000Z</time></trkpt>
        <trkpt lat="29.5100846" lon="103.3318803"><ele>3042.56</ele><time>2026-08-14T19:42:47.000Z</time></trkpt>
        <trkpt lat="29.5100846" lon="103.3318803"><ele>3042.56</ele><time>2026-08-14T19:43:54.000Z</time></trkpt>
      </trkseg>
      <trkseg>
        <trkpt lat="29.5099449" lon="103.3323212"><ele>3045.55</ele><time>2026-08-14T19:51:57.000Z</time></trkpt>
        <trkpt lat="29.5099449" lon="103.3323212"><ele>3045.55</ele><time>2026-08-14T19:51:58.000Z</time></trkpt>
        <trkpt lat="29.510025" lon="103.3323975"><ele>3052.27</ele><time>2026-08-14T19:52:23.000Z</time></trkpt>
        <trkpt lat="29.510118" lon="103.332435"><ele>3054.2</ele><time>2026-08-14T19:52:35.000Z</time></trkpt>
        <trkpt lat="29.5102178" lon="103.3324716"><ele>3054.33</ele><time>2026-08-14T19:52:52.000Z</time></trkpt>
        <trkpt lat="29.5103268" lon="103.332502"><ele>3053.02</ele><time>2026-08-14T19:53:17.000Z</time></trkpt>
        <trkpt lat="29.5104331" lon="103.3325363"><ele>3049.74</ele><time>2026-08-14T19:53:25.000Z</time></trkpt>
        <trkpt lat="29.5105276" lon="103.3325615"><ele>3046.9</ele><time>2026-08-14T19:53:33.000Z</time></trkpt>
        <trkpt lat="29.5106189" lon="103.3325836"><ele>3044.37</ele><time>2026-08-14T19:53:41.000Z</time></trkpt>
        <trkpt lat="29.5107209" lon="103.3325537"><ele>3042.07</ele><time>2026-08-14T19:53:51.000Z</time></trkpt>
        <trkpt lat="29.5108187" lon="103.3325338"><ele>3040.33</ele><time>2026-08-14T19:53:59.000Z</time></trkpt>
        <trkpt lat="29.5109117" lon="103.3325208"><ele>3039.18</ele><time>2026-08-14T19:54:06.000Z</time></trkpt>
        <trkpt lat="29.5109988" lon="103.3324885"><ele>3038.36</ele><time>2026-08-14T19:54:14.000Z</time></trkpt>
        <trkpt lat="29.5110996" lon="103.3324779"><ele>3037.82</ele><time>2026-08-14T19:54:26.000Z</time></trkpt>
        <trkpt lat="29.5112003" lon="103.3324651"><ele>3037.81</ele><time>2026-08-14T19:54:36.000Z</time></trkpt>
        <trkpt lat="29.5113047" lon="103.3324508"><ele>3038.25</ele><time>2026-08-14T19:54:46.000Z</time></trkpt>
        <trkpt lat="29.5114131" lon="103.3324358"><ele>3038.97</ele><time>2026-08-14T19:54:56.000Z</time></trkpt>
        <trkpt lat="29.5115097" lon="103.3324435"><ele>3039.45</ele><time>2026-08-14T19:55:04.000Z</time></trkpt>
        <trkpt lat="29.511603" lon="103.3324824"><ele>3039.81</ele><time>2026-08-14T19:55:12.000Z</time></trkpt>
        <trkpt lat="29.511707" lon="103.3324971"><ele>3039.86</ele><time>2026-08-14T19:55:22.000Z</time></trkpt>
        <trkpt lat="29.5117981" lon="103.3325235"><ele>3039.91</ele><time>2026-08-14T19:55:32.000Z</time></trkpt>
        <trkpt lat="29.5118914" lon="103.33256"><ele>3040.05</ele><time>2026-08-14T19:55:42.000Z</time></trkpt>
        <trkpt lat="29.5119615" lon="103.332634"><ele>3039.58</ele><time>2026-08-14T19:55:50.000Z</time></trkpt>
        <trkpt lat="29.5120305" lon="103.3327036"><ele>3039.09</ele><time>2026-08-14T19:56:00.000Z</time></trkpt>
        <trkpt lat="29.5121105" lon="103.332752"><ele>3038.16</ele><time>2026-08-14T19:56:17.000Z</time></trkpt>
        <trkpt lat="29.5122068" lon="103.3327398"><ele>3036.66</ele><time>2026-08-14T19:56:24.000Z</time></trkpt>
        <trkpt lat="29.5123059" lon="103.3327233"><ele>3034.84</ele><time>2026-08-14T19:56:30.000Z</time></trkpt>
        <trkpt lat="29.5124137" lon="103.3327089"><ele>3033.25</ele><time>2026-08-14T19:56:38.000Z</time></trkpt>
        <trkpt lat="29.5125068" lon="103.332663"><ele>3031.22</ele><time>2026-08-14T19:56:56.000Z</time></trkpt>
        <trkpt lat="29.5126008" lon="103.3326582"><ele>3027.86</ele><time>2026-08-14T19:57:06.000Z</time></trkpt>
        <trkpt lat="29.5127027" lon="103.3326535"><ele>3024.83</ele><time>2026-08-14T19:57:18.000Z</time></trkpt>
        <trkpt lat="29.5127947" lon="103.3326363"><ele>3021.64</ele><time>2026-08-14T19:57:29.000Z</time></trkpt>
        <trkpt lat="29.5128785" lon="103.3325911"><ele>3018.54</ele><time>2026-08-14T19:57:43.000Z</time></trkpt>
        <trkpt lat="29.5128908" lon="103.3324959"><ele>3014.56</ele><time>2026-08-14T19:57:54.000Z</time></trkpt>
        <trkpt lat="29.5129493" lon="103.3324185"><ele>3011.11</ele><time>2026-08-14T19:58:04.000Z</time></trkpt>
        <trkpt lat="29.5130059" lon="103.3323342"><ele>3007.8</ele><time>2026-08-14T19:58:14.000Z</time></trkpt>
        <trkpt lat="29.5130846" lon="103.3322655"><ele>3004.56</ele><time>2026-08-14T19:58:26.000Z</time></trkpt>
        <trkpt lat="29.5130652" lon="103.3321747"><ele>3001.23</ele><time>2026-08-14T19:58:36.000Z</time></trkpt>
        <trkpt lat="29.5130203" lon="103.3320754"><ele>2998.26</ele><time>2026-08-14T19:58:44.000Z</time></trkpt>
        <trkpt lat="29.5130266" lon="103.3320085"><ele>2995.86</ele><time>2026-08-14T19:58:58.000Z</time></trkpt>
        <trkpt lat="29.5130928" lon="103.3319314"><ele>2994.1</ele><time>2026-08-14T19:59:16.000Z</time></trkpt>
        <trkpt lat="29.5131643" lon="103.3318322"><ele>2992.34</ele><time>2026-08-14T19:59:41.000Z</time></trkpt>
        <trkpt lat="29.5132586" lon="103.3317765"><ele>2990.58</ele><time>2026-08-14T19:59:47.000Z</time></trkpt>
        <trkpt lat="29.5133602" lon="103.3317549"><ele>2989.36</ele><time>2026-08-14T19:59:55.000Z</time></trkpt>
        <trkpt lat="29.5134665" lon="103.3317326"><ele>2988.7</ele><time>2026-08-14T20:00:09.000Z</time></trkpt>
        <trkpt lat="29.513557" lon="103.3316785"><ele>2989.1</ele><time>2026-08-14T20:00:19.000Z</time></trkpt>
        <trkpt lat="29.5136263" lon="103.3316"><ele>2989.7</ele><time>2026-08-14T20:00:29.000Z</time></trkpt>
        <trkpt lat="29.5136881" lon="103.3314962"><ele>2990.53</ele><time>2026-08-14T20:00:41.000Z</time></trkpt>
        <trkpt lat="29.513724" lon="103.3313909"><ele>2991.61</ele><time>2026-08-14T20:00:51.000Z</time></trkpt>
        <trkpt lat="29.513753" lon="103.3312758"><ele>2992.11</ele><time>2026-08-14T20:01:03.000Z</time></trkpt>
        <trkpt lat="29.5138045" lon="103.3311815"><ele>2992.73</ele><time>2026-08-14T20:01:15.000Z</time></trkpt>
        <trkpt lat="29.5138899" lon="103.3311476"><ele>2993.76</ele><time>2026-08-14T20:01:25.000Z</time></trkpt>
        <trkpt lat="29.5139902" lon="103.3311353"><ele>2994.64</ele><time>2026-08-14T20:01:37.000Z</time></trkpt>
        <trkpt lat="29.5140995" lon="103.3311445"><ele>2995.65</ele><time>2026-08-14T20:01:47.000Z</time></trkpt>
        <trkpt lat="29.5142073" lon="103.3311585"><ele>2996.04</ele><time>2026-08-14T20:01:55.000Z</time></trkpt>
        <trkpt lat="29.5143173" lon="103.33116"><ele>2996.08</ele><time>2026-08-14T20:02:05.000Z</time></trkpt>
        <trkpt lat="29.5143658" lon="103.3311724"><ele>2996.02</ele><time>2026-08-14T20:02:07.000Z</time></trkpt>
        <trkpt lat="29.5144415" lon="103.3311827"><ele>2995.92</ele><time>2026-08-14T20:02:15.000Z</time></trkpt>
        <trkpt lat="29.514513" lon="103.3311916"><ele>2995.46</ele><time>2026-08-14T20:02:23.000Z</time></trkpt>
        <trkpt lat="29.5145975" lon="103.3312169"><ele>2994.95</ele><time>2026-08-14T20:02:33.000Z</time></trkpt>
        <trkpt lat="29.5146841" lon="103.3312653"><ele>2994.23</ele><time>2026-08-14T20:02:52.000Z</time></trkpt>
        <trkpt lat="29.5147696" lon="103.3313384"><ele>2992.69</ele><time>2026-08-14T20:02:58.000Z</time></trkpt>
        <trkpt lat="29.5148571" lon="103.3314073"><ele>2991.65</ele><time>2026-08-14T20:03:04.000Z</time></trkpt>
        <trkpt lat="29.5149638" lon="103.3314495"><ele>2991.45</ele><time>2026-08-14T20:03:12.000Z</time></trkpt>
        <trkpt lat="29.5150645" lon="103.3314522"><ele>2990.96</ele><time>2026-08-14T20:03:20.000Z</time></trkpt>
        <trkpt lat="29.5151617" lon="103.3314415"><ele>2991.04</ele><time>2026-08-14T20:03:28.000Z</time></trkpt>
        <trkpt lat="29.5152647" lon="103.3314171"><ele>2991.34</ele><time>2026-08-14T20:03:38.000Z</time></trkpt>
        <trkpt lat="29.515364" lon="103.3313955"><ele>2991.97</ele><time>2026-08-14T20:03:49.000Z</time></trkpt>
        <trkpt lat="29.5154631" lon="103.3313826"><ele>2993.13</ele><time>2026-08-14T20:03:59.000Z</time></trkpt>
        <trkpt lat="29.5155636" lon="103.3313966"><ele>2993.29</ele><time>2026-08-14T20:04:07.000Z</time></trkpt>
        <trkpt lat="29.5156575" lon="103.3314205"><ele>2993.26</ele><time>2026-08-14T20:04:15.000Z</time></trkpt>
        <trkpt lat="29.5157418" lon="103.3314751"><ele>2993.37</ele><time>2026-08-14T20:04:23.000Z</time></trkpt>
        <trkpt lat="29.5158071" lon="103.3315683"><ele>2993.2</ele><time>2026-08-14T20:04:33.000Z</time></trkpt>
        <trkpt lat="29.5158605" lon="103.3316617"><ele>2992.72</ele><time>2026-08-14T20:04:41.000Z</time></trkpt>
        <trkpt lat="29.5159195" lon="103.3317462"><ele>2992.57</ele><time>2026-08-14T20:04:51.000Z</time></trkpt>
        <trkpt lat="29.5159748" lon="103.3318656"><ele>2992.44</ele><time>2026-08-14T20:05:01.000Z</time></trkpt>
        <trkpt lat="29.516022" lon="103.3319687"><ele>2992.3</ele><time>2026-08-14T20:05:11.000Z</time></trkpt>
        <trkpt lat="29.5160796" lon="103.3320579"><ele>2992.38</ele><time>2026-08-14T20:05:19.000Z</time></trkpt>
        <trkpt lat="29.5161617" lon="103.3321418"><ele>2992.73</ele><time>2026-08-14T20:05:27.000Z</time></trkpt>
        <trkpt lat="29.5162354" lon="103.3322302"><ele>2993.64</ele><time>2026-08-14T20:05:37.000Z</time></trkpt>
        <trkpt lat="29.5162888" lon="103.3323322"><ele>2993.86</ele><time>2026-08-14T20:05:47.000Z</time></trkpt>
        <trkpt lat="29.5163358" lon="103.3324278"><ele>2993.79</ele><time>2026-08-14T20:05:55.000Z</time></trkpt>
        <trkpt lat="29.5163945" lon="103.3325434"><ele>2993.46</ele><time>2026-08-14T20:06:01.000Z</time></trkpt>
        <trkpt lat="29.5164352" lon="103.3326203"><ele>2993.11</ele><time>2026-08-14T20:06:05.000Z</time></trkpt>
        <trkpt lat="29.5164936" lon="103.332705"><ele>2992.24</ele><time>2026-08-14T20:06:15.000Z</time></trkpt>
        <trkpt lat="29.5165551" lon="103.332794"><ele>2991.38</ele><time>2026-08-14T20:06:23.000Z</time></trkpt>
        <trkpt lat="29.5166214" lon="103.3328793"><ele>2990.46</ele><time>2026-08-14T20:06:31.000Z</time></trkpt>
        <trkpt lat="29.5166834" lon="103.3329631"><ele>2989.2</ele><time>2026-08-14T20:06:39.000Z</time></trkpt>
        <trkpt lat="29.5167562" lon="103.3330409"><ele>2987.58</ele><time>2026-08-14T20:06:47.000Z</time></trkpt>
        <trkpt lat="29.5168458" lon="103.333088"><ele>2986</ele><time>2026-08-14T20:06:55.000Z</time></trkpt>
        <trkpt lat="29.5169367" lon="103.3331243"><ele>2984.44</ele><time>2026-08-14T20:07:03.000Z</time></trkpt>
        <trkpt lat="29.5170468" lon="103.3331529"><ele>2982.39</ele><time>2026-08-14T20:07:11.000Z</time></trkpt>
        <trkpt lat="29.5171546" lon="103.3331458"><ele>2980.73</ele><time>2026-08-14T20:07:19.000Z</time></trkpt>
        <trkpt lat="29.5172487" lon="103.3331155"><ele>2978.63</ele><time>2026-08-14T20:07:27.000Z</time></trkpt>
        <trkpt lat="29.5173286" lon="103.3330564"><ele>2976.93</ele><time>2026-08-14T20:07:35.000Z</time></trkpt>
        <trkpt lat="29.5174108" lon="103.3329838"><ele>2975.69</ele><time>2026-08-14T20:07:43.000Z</time></trkpt>
        <trkpt lat="29.5175006" lon="103.3329091"><ele>2974.69</ele><time>2026-08-14T20:07:53.000Z</time></trkpt>
        <trkpt lat="29.5175778" lon="103.3328361"><ele>2973.76</ele><time>2026-08-14T20:08:03.000Z</time></trkpt>
        <trkpt lat="29.5176345" lon="103.3327364"><ele>2973.31</ele><time>2026-08-14T20:08:15.000Z</time></trkpt>
        <trkpt lat="29.5176985" lon="103.3326504"><ele>2972.73</ele><time>2026-08-14T20:08:25.000Z</time></trkpt>
        <trkpt lat="29.517771" lon="103.3325656"><ele>2972.47</ele><time>2026-08-14T20:08:33.000Z</time></trkpt>
        <trkpt lat="29.5178498" lon="103.3325043"><ele>2972.58</ele><time>2026-08-14T20:08:41.000Z</time></trkpt>
        <trkpt lat="29.5179407" lon="103.3324573"><ele>2972.82</ele><time>2026-08-14T20:08:51.000Z</time></trkpt>
        <trkpt lat="29.5180297" lon="103.3324201"><ele>2973.17</ele><time>2026-08-14T20:08:59.000Z</time></trkpt>
        <trkpt lat="29.5181301" lon="103.3324136"><ele>2973.33</ele><time>2026-08-14T20:09:09.000Z</time></trkpt>
        <trkpt lat="29.5182241" lon="103.3324343"><ele>2973.61</ele><time>2026-08-14T20:09:17.000Z</time></trkpt>
        <trkpt lat="29.5183122" lon="103.332514"><ele>2973.89</ele><time>2026-08-14T20:09:29.000Z</time></trkpt>
        <trkpt lat="29.518398" lon="103.3326012"><ele>2974.15</ele><time>2026-08-14T20:09:39.000Z</time></trkpt>
        <trkpt lat="29.5184747" lon="103.3326978"><ele>2974.38</ele><time>2026-08-14T20:09:47.000Z</time></trkpt>
        <trkpt lat="29.5185482" lon="103.3327893"><ele>2974.31</ele><time>2026-08-14T20:09:55.000Z</time></trkpt>
        <trkpt lat="29.51864" lon="103.3328482"><ele>2973.98</ele><time>2026-08-14T20:10:03.000Z</time></trkpt>
        <trkpt lat="29.518746" lon="103.3328828"><ele>2973.48</ele><time>2026-08-14T20:10:13.000Z</time></trkpt>
        <trkpt lat="29.5188408" lon="103.33291"><ele>2972.75</ele><time>2026-08-14T20:10:23.000Z</time></trkpt>
        <trkpt lat="29.5189288" lon="103.3329537"><ele>2971.42</ele><time>2026-08-14T20:10:33.000Z</time></trkpt>
        <trkpt lat="29.5190202" lon="103.3329935"><ele>2970.3</ele><time>2026-08-14T20:10:43.000Z</time></trkpt>
        <trkpt lat="29.5191131" lon="103.3330374"><ele>2969.02</ele><time>2026-08-14T20:10:53.000Z</time></trkpt>
        <trkpt lat="29.5191636" lon="103.3331289"><ele>2967.96</ele><time>2026-08-14T20:11:09.000Z</time></trkpt>
        <trkpt lat="29.5191942" lon="103.3332319"><ele>2967.57</ele><time>2026-08-14T20:11:25.000Z</time></trkpt>
        <trkpt lat="29.5192198" lon="103.3333422"><ele>2967.87</ele><time>2026-08-14T20:11:45.000Z</time></trkpt>
        <trkpt lat="29.5192546" lon="103.3334473"><ele>2968.83</ele><time>2026-08-14T20:11:59.000Z</time></trkpt>
        <trkpt lat="29.5193299" lon="103.3335089"><ele>2969.75</ele><time>2026-08-14T20:12:19.000Z</time></trkpt>
        <trkpt lat="29.5194204" lon="103.3335598"><ele>2969.75</ele><time>2026-08-14T20:12:35.000Z</time></trkpt>
        <trkpt lat="29.5195187" lon="103.3335918"><ele>2968.58</ele><time>2026-08-14T20:12:49.000Z</time></trkpt>
        <trkpt lat="29.5195863" lon="103.3336758"><ele>2967.08</ele><time>2026-08-14T20:13:05.000Z</time></trkpt>
        <trkpt lat="29.5196485" lon="103.3337751"><ele>2964.5</ele><time>2026-08-14T20:13:17.000Z</time></trkpt>
        <trkpt lat="29.5197096" lon="103.3338782"><ele>2962.26</ele><time>2026-08-14T20:13:27.000Z</time></trkpt>
        <trkpt lat="29.5197711" lon="103.3339751"><ele>2960.75</ele><time>2026-08-14T20:13:35.000Z</time></trkpt>
        <trkpt lat="29.519836" lon="103.3340628"><ele>2959.7</ele><time>2026-08-14T20:13:43.000Z</time></trkpt>
        <trkpt lat="29.5198939" lon="103.3341584"><ele>2959.12</ele><time>2026-08-14T20:13:51.000Z</time></trkpt>
        <trkpt lat="29.5199691" lon="103.3342343"><ele>2958.52</ele><time>2026-08-14T20:14:01.000Z</time></trkpt>
        <trkpt lat="29.520054" lon="103.3342855"><ele>2958.23</ele><time>2026-08-14T20:14:15.000Z</time></trkpt>
        <trkpt lat="29.5201387" lon="103.3343287"><ele>2957.68</ele><time>2026-08-14T20:14:27.000Z</time></trkpt>
        <trkpt lat="29.5202238" lon="103.334365"><ele>2957.89</ele><time>2026-08-14T20:14:45.000Z</time></trkpt>
        <trkpt lat="29.5203072" lon="103.3344061"><ele>2958.75</ele><time>2026-08-14T20:15:12.000Z</time></trkpt>
        <trkpt lat="29.5203997" lon="103.3344327"><ele>2960.28</ele><time>2026-08-14T20:15:49.000Z</time></trkpt>
        <trkpt lat="29.5204955" lon="103.3344545"><ele>2962.38</ele><time>2026-08-14T20:16:15.000Z</time></trkpt>
        <trkpt lat="29.5205876" lon="103.3344525"><ele>2964.41</ele><time>2026-08-14T20:16:37.000Z</time></trkpt>
        <trkpt lat="29.5206737" lon="103.334477"><ele>2966.35</ele><time>2026-08-14T20:16:59.000Z</time></trkpt>
        <trkpt lat="29.5206486" lon="103.3345416"><ele>2967.99</ele><time>2026-08-14T20:17:37.000Z</time></trkpt>
        <trkpt lat="29.5205789" lon="103.3346203"><ele>2969.21</ele><time>2026-08-14T20:17:49.000Z</time></trkpt>
        <trkpt lat="29.5204876" lon="103.3346901"><ele>2970.09</ele><time>2026-08-14T20:18:01.000Z</time></trkpt>
        <trkpt lat="29.5204731" lon="103.3347891"><ele>2971.18</ele><time>2026-08-14T20:18:37.000Z</time></trkpt>
        <trkpt lat="29.520521" lon="103.3348751"><ele>2972.94</ele><time>2026-08-14T20:18:53.000Z</time></trkpt>
        <trkpt lat="29.5205882" lon="103.3349545"><ele>2974.86</ele><time>2026-08-14T20:19:34.000Z</time></trkpt>
        <trkpt lat="29.520681" lon="103.3349624"><ele>2978.23</ele><time>2026-08-14T20:19:54.000Z</time></trkpt>
        <trkpt lat="29.5207769" lon="103.3349156"><ele>2981.83</ele><time>2026-08-14T20:20:32.000Z</time></trkpt>
        <trkpt lat="29.5208749" lon="103.3349045"><ele>2986.25</ele><time>2026-08-14T20:20:52.000Z</time></trkpt>
        <trkpt lat="29.5209088" lon="103.3349804"><ele>2989.19</ele><time>2026-08-14T20:21:34.000Z</time></trkpt>
        <trkpt lat="29.520891" lon="103.3350945"><ele>2991.83</ele><time>2026-08-14T20:22:14.000Z</time></trkpt>
        <trkpt lat="29.5208815" lon="103.3352125"><ele>2994.77</ele><time>2026-08-14T20:23:02.000Z</time></trkpt>
        <trkpt lat="29.5209239" lon="103.3353047"><ele>2998.13</ele><time>2026-08-14T20:23:46.000Z</time></trkpt>
        <trkpt lat="29.5209986" lon="103.3353675"><ele>3003.03</ele><time>2026-08-14T20:24:16.000Z</time></trkpt>
        <trkpt lat="29.5210932" lon="103.3353969"><ele>3006.56</ele><time>2026-08-14T20:24:52.000Z</time></trkpt>
        <trkpt lat="29.5211809" lon="103.33545"><ele>3009.93</ele><time>2026-08-14T20:25:16.000Z</time></trkpt>
        <trkpt lat="29.521255" lon="103.335526"><ele>3013.3</ele><time>2026-08-14T20:25:32.000Z</time></trkpt>
        <trkpt lat="29.5213173" lon="103.3356162"><ele>3016.59</ele><time>2026-08-14T20:25:44.000Z</time></trkpt>
        <trkpt lat="29.5213699" lon="103.3357162"><ele>3019.62</ele><time>2026-08-14T20:26:55.000Z</time></trkpt>
        <trkpt lat="29.5214405" lon="103.3358078"><ele>3021.83</ele><time>2026-08-14T20:27:03.000Z</time></trkpt>
        <trkpt lat="29.5215159" lon="103.3358864"><ele>3023.44</ele><time>2026-08-14T20:27:15.000Z</time></trkpt>
        <trkpt lat="29.5215834" lon="103.3359628"><ele>3024.6</ele><time>2026-08-14T20:27:37.000Z</time></trkpt>
        <trkpt lat="29.5216569" lon="103.3360441"><ele>3025.37</ele><time>2026-08-14T20:27:47.000Z</time></trkpt>
        <trkpt lat="29.5217229" lon="103.3361217"><ele>3025.95</ele><time>2026-08-14T20:27:57.000Z</time></trkpt>
        <trkpt lat="29.5217988" lon="103.3361865"><ele>3026.32</ele><time>2026-08-14T20:28:09.000Z</time></trkpt>
        <trkpt lat="29.5218542" lon="103.3362869"><ele>3026.74</ele><time>2026-08-14T20:28:25.000Z</time></trkpt>
        <trkpt lat="29.521846" lon="103.3363896"><ele>3026.76</ele><time>2026-08-14T20:28:45.000Z</time></trkpt>
        <trkpt lat="29.5218083" lon="103.3364917"><ele>3026.7</ele><time>2026-08-14T20:28:59.000Z</time></trkpt>
        <trkpt lat="29.521778" lon="103.3365983"><ele>3026.52</ele><time>2026-08-14T20:29:19.000Z</time></trkpt>
        <trkpt lat="29.521813" lon="103.3366832"><ele>3027.25</ele><time>2026-08-14T20:29:31.000Z</time></trkpt>
        <trkpt lat="29.5218906" lon="103.3367481"><ele>3027.59</ele><time>2026-08-14T20:29:43.000Z</time></trkpt>
        <trkpt lat="29.5219911" lon="103.3368125"><ele>3028.34</ele><time>2026-08-14T20:29:55.000Z</time></trkpt>
        <trkpt lat="29.5220861" lon="103.3368783"><ele>3028.79</ele><time>2026-08-14T20:30:05.000Z</time></trkpt>
        <trkpt lat="29.5221787" lon="103.3369454"><ele>3029.43</ele><time>2026-08-14T20:30:15.000Z</time></trkpt>
        <trkpt lat="29.5222475" lon="103.3369847"><ele>3029.62</ele><time>2026-08-14T20:30:25.000Z</time></trkpt>
        <trkpt lat="29.5223026" lon="103.3370667"><ele>3030.02</ele><time>2026-08-14T20:32:23.000Z</time></trkpt>
        <trkpt lat="29.5223904" lon="103.3371124"><ele>3029.82</ele><time>2026-08-14T20:32:39.000Z</time></trkpt>
        <trkpt lat="29.5224652" lon="103.3371776"><ele>3029.32</ele><time>2026-08-14T20:33:25.000Z</time></trkpt>
        <trkpt lat="29.5225333" lon="103.3372697"><ele>3029.11</ele><time>2026-08-14T20:33:33.000Z</time></trkpt>
        <trkpt lat="29.5226237" lon="103.3372728"><ele>3028.93</ele><time>2026-08-14T20:33:55.000Z</time></trkpt>
        <trkpt lat="29.5226408" lon="103.3371855"><ele>3029.84</ele><time>2026-08-14T20:34:27.000Z</time></trkpt>
        <trkpt lat="29.5226841" lon="103.3370667"><ele>3032.03</ele><time>2026-08-14T20:44:26.000Z</time></trkpt>
        <trkpt lat="29.5226841" lon="103.3370667"><ele>3032.03</ele><time>2026-08-14T20:44:26.000Z</time></trkpt>
        <trkpt lat="29.5226326" lon="103.3371277"><ele>3042.48</ele><time>2026-08-14T20:53:20.000Z</time></trkpt>
        <trkpt lat="29.5226326" lon="103.3371277"><ele>3042.48</ele><time>2026-08-14T20:53:21.000Z</time></trkpt>
        <trkpt lat="29.5226326" lon="103.3371277"><ele>3042.48</ele><time>2026-08-14T20:53:41.000Z</time></trkpt>
      </trkseg>
      <trkseg>
        <trkpt lat="29.5226364" lon="103.3372421"><ele>3042.48</ele><time>2026-08-14T20:59:49.000Z</time></trkpt>
        <trkpt lat="29.5226364" lon="103.3372421"><ele>3042.48</ele><time>2026-08-14T20:59:55.000Z</time></trkpt>
        <trkpt lat="29.5225468" lon="103.3372955"><ele>3042.38</ele><time>2026-08-14T21:00:09.000Z</time></trkpt>
        <trkpt lat="29.5224716" lon="103.3372069"><ele>3038.97</ele><time>2026-08-14T21:00:27.000Z</time></trkpt>
        <trkpt lat="29.5223976" lon="103.3371344"><ele>3035.62</ele><time>2026-08-14T21:00:31.000Z</time></trkpt>
        <trkpt lat="29.5223125" lon="103.3370661"><ele>3033.64</ele><time>2026-08-14T21:00:40.000Z</time></trkpt>
        <trkpt lat="29.5222218" lon="103.3369894"><ele>3032.51</ele><time>2026-08-14T21:00:53.000Z</time></trkpt>
        <trkpt lat="29.522138" lon="103.3369164"><ele>3031.83</ele><time>2026-08-14T21:01:01.000Z</time></trkpt>
        <trkpt lat="29.5220557" lon="103.3368286"><ele>3031.31</ele><time>2026-08-14T21:01:09.000Z</time></trkpt>
        <trkpt lat="29.5219582" lon="103.3367645"><ele>3031.12</ele><time>2026-08-14T21:01:15.000Z</time></trkpt>
        <trkpt lat="29.5218664" lon="103.3366929"><ele>3031.13</ele><time>2026-08-14T21:01:23.000Z</time></trkpt>
        <trkpt lat="29.5218032" lon="103.336612"><ele>3031.14</ele><time>2026-08-14T21:01:35.000Z</time></trkpt>
        <trkpt lat="29.5217449" lon="103.3365335"><ele>3031.31</ele><time>2026-08-14T21:01:46.000Z</time></trkpt>
        <trkpt lat="29.5217829" lon="103.3364563"><ele>3031.27</ele><time>2026-08-14T21:02:00.000Z</time></trkpt>
        <trkpt lat="29.5218105" lon="103.3363511"><ele>3030.64</ele><time>2026-08-14T21:02:18.000Z</time></trkpt>
        <trkpt lat="29.5218199" lon="103.3362357"><ele>3029.35</ele><time>2026-08-14T21:02:32.000Z</time></trkpt>
        <trkpt lat="29.5217728" lon="103.3361296"><ele>3028.71</ele><time>2026-08-14T21:02:42.000Z</time></trkpt>
        <trkpt lat="29.521699" lon="103.3360569"><ele>3028.89</ele><time>2026-08-14T21:02:50.000Z</time></trkpt>
        <trkpt lat="29.5216212" lon="103.3359794"><ele>3028.98</ele><time>2026-08-14T21:03:00.000Z</time></trkpt>
        <trkpt lat="29.5215536" lon="103.3358984"><ele>3029</ele><time>2026-08-14T21:03:10.000Z</time></trkpt>
        <trkpt lat="29.5214757" lon="103.3358213"><ele>3028.88</ele><time>2026-08-14T21:03:18.000Z</time></trkpt>
        <trkpt lat="29.5214017" lon="103.3357397"><ele>3028.96</ele><time>2026-08-14T21:03:26.000Z</time></trkpt>
        <trkpt lat="29.5213699" lon="103.3356963"><ele>3029</ele><time>2026-08-14T21:03:34.000Z</time></trkpt>
        <trkpt lat="29.5213137" lon="103.3356153"><ele>3029.1</ele><time>2026-08-14T21:04:12.000Z</time></trkpt>
        <trkpt lat="29.5212607" lon="103.3355243"><ele>3029.18</ele><time>2026-08-14T21:04:20.000Z</time></trkpt>
        <trkpt lat="29.521199" lon="103.3354593"><ele>3028.89</ele><time>2026-08-14T21:04:28.000Z</time></trkpt>
        <trkpt lat="29.5211254" lon="103.3353991"><ele>3028.92</ele><time>2026-08-14T21:05:08.000Z</time></trkpt>
        <trkpt lat="29.5210336" lon="103.3353455"><ele>3027.95</ele><time>2026-08-14T21:05:18.000Z</time></trkpt>
        <trkpt lat="29.5209675" lon="103.3353281"><ele>3026.49</ele><time>2026-08-14T21:05:28.000Z</time></trkpt>
        <trkpt lat="29.5208931" lon="103.3352661"><ele>3024.36</ele><time>2026-08-14T21:10:06.000Z</time></trkpt>
        <trkpt lat="29.5208492" lon="103.3351593"><ele>3020.66</ele><time>2026-08-14T21:10:18.000Z</time></trkpt>
        <trkpt lat="29.5208651" lon="103.335046"><ele>3017.21</ele><time>2026-08-14T21:10:34.000Z</time></trkpt>
        <trkpt lat="29.5208797" lon="103.3349375"><ele>3014.48</ele><time>2026-08-14T21:10:44.000Z</time></trkpt>
        <trkpt lat="29.5208297" lon="103.3348477"><ele>3012.03</ele><time>2026-08-14T21:10:56.000Z</time></trkpt>
        <trkpt lat="29.5207471" lon="103.3348618"><ele>3008.94</ele><time>2026-08-14T21:11:06.000Z</time></trkpt>
        <trkpt lat="29.5206464" lon="103.3349074"><ele>3005.95</ele><time>2026-08-14T21:11:16.000Z</time></trkpt>
        <trkpt lat="29.5205539" lon="103.3348722"><ele>3003.56</ele><time>2026-08-14T21:11:26.000Z</time></trkpt>
        <trkpt lat="29.5205087" lon="103.3348311"><ele>3000.23</ele><time>2026-08-14T21:11:40.000Z</time></trkpt>
        <trkpt lat="29.5204446" lon="103.3347667"><ele>2996.93</ele><time>2026-08-14T21:11:59.000Z</time></trkpt>
        <trkpt lat="29.5204559" lon="103.334672"><ele>2993.46</ele><time>2026-08-14T21:12:15.000Z</time></trkpt>
        <trkpt lat="29.5205264" lon="103.3345854"><ele>2989.75</ele><time>2026-08-14T21:12:25.000Z</time></trkpt>
        <trkpt lat="29.52061" lon="103.3345045"><ele>2986.98</ele><time>2026-08-14T21:12:37.000Z</time></trkpt>
        <trkpt lat="29.5205854" lon="103.3344323"><ele>2984.23</ele><time>2026-08-14T21:12:55.000Z</time></trkpt>
        <trkpt lat="29.5204948" lon="103.3343979"><ele>2981.98</ele><time>2026-08-14T21:13:09.000Z</time></trkpt>
        <trkpt lat="29.5203913" lon="103.334377"><ele>2980.23</ele><time>2026-08-14T21:13:17.000Z</time></trkpt>
        <trkpt lat="29.5202787" lon="103.3343416"><ele>2978.71</ele><time>2026-08-14T21:13:27.000Z</time></trkpt>
        <trkpt lat="29.5201795" lon="103.3342931"><ele>2976.66</ele><time>2026-08-14T21:13:35.000Z</time></trkpt>
        <trkpt lat="29.5200833" lon="103.3342511"><ele>2974.57</ele><time>2026-08-14T21:13:45.000Z</time></trkpt>
        <trkpt lat="29.519986" lon="103.3342007"><ele>2972.92</ele><time>2026-08-14T21:13:55.000Z</time></trkpt>
        <trkpt lat="29.5199057" lon="103.3341299"><ele>2971.07</ele><time>2026-08-14T21:14:05.000Z</time></trkpt>
        <trkpt lat="29.5198302" lon="103.3340349"><ele>2969.62</ele><time>2026-08-14T21:14:15.000Z</time></trkpt>
        <trkpt lat="29.5197728" lon="103.3339725"><ele>2967.78</ele><time>2026-08-14T21:14:23.000Z</time></trkpt>
        <trkpt lat="29.5197041" lon="103.333884"><ele>2965.61</ele><time>2026-08-14T21:14:31.000Z</time></trkpt>
        <trkpt lat="29.5196458" lon="103.3337852"><ele>2962.93</ele><time>2026-08-14T21:14:40.000Z</time></trkpt>
        <trkpt lat="29.5195781" lon="103.3337009"><ele>2961.03</ele><time>2026-08-14T21:14:50.000Z</time></trkpt>
        <trkpt lat="29.5195294" lon="103.3336001"><ele>2959.99</ele><time>2026-08-14T21:15:04.000Z</time></trkpt>
        <trkpt lat="29.5194533" lon="103.3335275"><ele>2959.5</ele><time>2026-08-14T21:15:18.000Z</time></trkpt>
        <trkpt lat="29.519365" lon="103.3335003"><ele>2959.98</ele><time>2026-08-14T21:15:35.000Z</time></trkpt>
        <trkpt lat="29.5192745" lon="103.33346"><ele>2961.25</ele><time>2026-08-14T21:16:05.000Z</time></trkpt>
        <trkpt lat="29.5191974" lon="103.3334004"><ele>2962.87</ele><time>2026-08-14T21:16:17.000Z</time></trkpt>
        <trkpt lat="29.5191646" lon="103.3333041"><ele>2964.47</ele><time>2026-08-14T21:16:27.000Z</time></trkpt>
        <trkpt lat="29.5191304" lon="103.3331949"><ele>2965.65</ele><time>2026-08-14T21:16:39.000Z</time></trkpt>
        <trkpt lat="29.5191176" lon="103.333072"><ele>2965.86</ele><time>2026-08-14T21:16:53.000Z</time></trkpt>
        <trkpt lat="29.5190467" lon="103.3329918"><ele>2965.7</ele><time>2026-08-14T21:17:07.000Z</time></trkpt>
        <trkpt lat="29.5189585" lon="103.3329461"><ele>2965.26</ele><time>2026-08-14T21:17:17.000Z</time></trkpt>
        <trkpt lat="29.5188776" lon="103.3328945"><ele>2964.79</ele><time>2026-08-14T21:17:27.000Z</time></trkpt>
        <trkpt lat="29.5187871" lon="103.3328725"><ele>2964.31</ele><time>2026-08-14T21:17:37.000Z</time></trkpt>
        <trkpt lat="29.5186882" lon="103.3328488"><ele>2964.06</ele><time>2026-08-14T21:17:49.000Z</time></trkpt>
        <trkpt lat="29.5185914" lon="103.3328165"><ele>2964.32</ele><time>2026-08-14T21:17:59.000Z</time></trkpt>
        <trkpt lat="29.518502" lon="103.3327456"><ele>2964.91</ele><time>2026-08-14T21:18:09.000Z</time></trkpt>
        <trkpt lat="29.5184228" lon="103.332672"><ele>2965.97</ele><time>2026-08-14T21:18:19.000Z</time></trkpt>
        <trkpt lat="29.5183573" lon="103.332588"><ele>2966.79</ele><time>2026-08-14T21:18:29.000Z</time></trkpt>
        <trkpt lat="29.5182903" lon="103.3325014"><ele>2967.66</ele><time>2026-08-14T21:18:39.000Z</time></trkpt>
        <trkpt lat="29.5182146" lon="103.3324266"><ele>2968.38</ele><time>2026-08-14T21:18:49.000Z</time></trkpt>
        <trkpt lat="29.518125" lon="103.332397"><ele>2969.02</ele><time>2026-08-14T21:18:57.000Z</time></trkpt>
        <trkpt lat="29.5180207" lon="103.3324124"><ele>2969.64</ele><time>2026-08-14T21:19:07.000Z</time></trkpt>
        <trkpt lat="29.5179677" lon="103.3324416"><ele>2970.46</ele><time>2026-08-14T21:19:11.000Z</time></trkpt>
        <trkpt lat="29.5178902" lon="103.332472"><ele>2970.96</ele><time>2026-08-14T21:19:19.000Z</time></trkpt>
        <trkpt lat="29.5178018" lon="103.3325173"><ele>2971.51</ele><time>2026-08-14T21:19:27.000Z</time></trkpt>
        <trkpt lat="29.5177224" lon="103.3325951"><ele>2971.7</ele><time>2026-08-14T21:19:35.000Z</time></trkpt>
        <trkpt lat="29.5176484" lon="103.3326774"><ele>2972.21</ele><time>2026-08-14T21:19:43.000Z</time></trkpt>
        <trkpt lat="29.5175878" lon="103.3327644"><ele>2973</ele><time>2026-08-14T21:19:51.000Z</time></trkpt>
        <trkpt lat="29.5175159" lon="103.3328401"><ele>2973.9</ele><time>2026-08-14T21:20:01.000Z</time></trkpt>
        <trkpt lat="29.5174434" lon="103.3329047"><ele>2974.63</ele><time>2026-08-14T21:20:09.000Z</time></trkpt>
        <trkpt lat="29.5173663" lon="103.3329653"><ele>2974.69</ele><time>2026-08-14T21:20:17.000Z</time></trkpt>
        <trkpt lat="29.5172935" lon="103.3330366"><ele>2974.92</ele><time>2026-08-14T21:20:25.000Z</time></trkpt>
        <trkpt lat="29.5172096" lon="103.3330893"><ele>2974.93</ele><time>2026-08-14T21:20:33.000Z</time></trkpt>
        <trkpt lat="29.5171216" lon="103.3331178"><ele>2974.64</ele><time>2026-08-14T21:20:40.000Z</time></trkpt>
        <trkpt lat="29.5170241" lon="103.3331325"><ele>2973.54</ele><time>2026-08-14T21:20:48.000Z</time></trkpt>
        <trkpt lat="29.5169279" lon="103.3331154"><ele>2972.46</ele><time>2026-08-14T21:20:55.000Z</time></trkpt>
        <trkpt lat="29.5168331" lon="103.3330883"><ele>2971.64</ele><time>2026-08-14T21:21:03.000Z</time></trkpt>
        <trkpt lat="29.5167376" lon="103.333043"><ele>2970.9</ele><time>2026-08-14T21:21:15.000Z</time></trkpt>
        <trkpt lat="29.5166663" lon="103.3329643"><ele>2970.64</ele><time>2026-08-14T21:21:25.000Z</time></trkpt>
        <trkpt lat="29.5166241" lon="103.3328583"><ele>2970.79</ele><time>2026-08-14T21:21:35.000Z</time></trkpt>
        <trkpt lat="29.5165726" lon="103.3327624"><ele>2971.1</ele><time>2026-08-14T21:21:51.000Z</time></trkpt>
        <trkpt lat="29.5165197" lon="103.3326676"><ele>2972.49</ele><time>2026-08-14T21:22:03.000Z</time></trkpt>
        <trkpt lat="29.5164498" lon="103.3325856"><ele>2974.05</ele><time>2026-08-14T21:22:15.000Z</time></trkpt>
        <trkpt lat="29.5163907" lon="103.3324916"><ele>2975.57</ele><time>2026-08-14T21:22:27.000Z</time></trkpt>
        <trkpt lat="29.5163448" lon="103.3323928"><ele>2976.32</ele><time>2026-08-14T21:22:37.000Z</time></trkpt>
        <trkpt lat="29.5163022" lon="103.3322984"><ele>2978.03</ele><time>2026-08-14T21:22:49.000Z</time></trkpt>
        <trkpt lat="29.5162456" lon="103.3322061"><ele>2980.12</ele><time>2026-08-14T21:22:59.000Z</time></trkpt>
        <trkpt lat="29.5161848" lon="103.332126"><ele>2982.09</ele><time>2026-08-14T21:23:09.000Z</time></trkpt>
        <trkpt lat="29.5161156" lon="103.3320504"><ele>2984.31</ele><time>2026-08-14T21:23:21.000Z</time></trkpt>
        <trkpt lat="29.5160597" lon="103.3319526"><ele>2987.13</ele><time>2026-08-14T21:23:33.000Z</time></trkpt>
        <trkpt lat="29.5159992" lon="103.3318462"><ele>2988.96</ele><time>2026-08-14T21:23:41.000Z</time></trkpt>
        <trkpt lat="29.5159396" lon="103.3317375"><ele>2990.34</ele><time>2026-08-14T21:23:49.000Z</time></trkpt>
        <trkpt lat="29.5158804" lon="103.3316403"><ele>2990.99</ele><time>2026-08-14T21:23:57.000Z</time></trkpt>
        <trkpt lat="29.5158127" lon="103.3315423"><ele>2991.26</ele><time>2026-08-14T21:24:05.000Z</time></trkpt>
        <trkpt lat="29.5157362" lon="103.3314494"><ele>2991.62</ele><time>2026-08-14T21:24:13.000Z</time></trkpt>
        <trkpt lat="29.5156511" lon="103.3313811"><ele>2992.33</ele><time>2026-08-14T21:24:21.000Z</time></trkpt>
        <trkpt lat="29.5155508" lon="103.331333"><ele>2992.85</ele><time>2026-08-14T21:24:29.000Z</time></trkpt>
        <trkpt lat="29.5154457" lon="103.3313137"><ele>2993.24</ele><time>2026-08-14T21:24:37.000Z</time></trkpt>
        <trkpt lat="29.5153387" lon="103.3313087"><ele>2993.77</ele><time>2026-08-14T21:24:45.000Z</time></trkpt>
        <trkpt lat="29.5152306" lon="103.3313292"><ele>2994.17</ele><time>2026-08-14T21:24:53.000Z</time></trkpt>
        <trkpt lat="29.5151298" lon="103.3313569"><ele>2994.03</ele><time>2026-08-14T21:24:59.000Z</time></trkpt>
        <trkpt lat="29.515022" lon="103.3313848"><ele>2993.11</ele><time>2026-08-14T21:25:07.000Z</time></trkpt>
        <trkpt lat="29.514913" lon="103.3313937"><ele>2992.96</ele><time>2026-08-14T21:25:15.000Z</time></trkpt>
        <trkpt lat="29.514818" lon="103.3313661"><ele>2992.32</ele><time>2026-08-14T21:25:23.000Z</time></trkpt>
        <trkpt lat="29.5147285" lon="103.3313085"><ele>2991.52</ele><time>2026-08-14T21:25:33.000Z</time></trkpt>
        <trkpt lat="29.5146474" lon="103.3312479"><ele>2990.58</ele><time>2026-08-14T21:25:44.000Z</time></trkpt>
        <trkpt lat="29.5145473" lon="103.3312006"><ele>2989.65</ele><time>2026-08-14T21:25:50.000Z</time></trkpt>
        <trkpt lat="29.5144465" lon="103.3311828"><ele>2988.89</ele><time>2026-08-14T21:25:58.000Z</time></trkpt>
        <trkpt lat="29.5143462" lon="103.3311701"><ele>2988.64</ele><time>2026-08-14T21:26:10.000Z</time></trkpt>
        <trkpt lat="29.514255" lon="103.3311521"><ele>2988.55</ele><time>2026-08-14T21:26:18.000Z</time></trkpt>
        <trkpt lat="29.5141658" lon="103.3311196"><ele>2989.11</ele><time>2026-08-14T21:26:26.000Z</time></trkpt>
        <trkpt lat="29.5140698" lon="103.3310872"><ele>2989.55</ele><time>2026-08-14T21:26:34.000Z</time></trkpt>
        <trkpt lat="29.5139567" lon="103.3310727"><ele>2990.26</ele><time>2026-08-14T21:26:42.000Z</time></trkpt>
        <trkpt lat="29.5138575" lon="103.3310823"><ele>2991.17</ele><time>2026-08-14T21:26:48.000Z</time></trkpt>
        <trkpt lat="29.5137631" lon="103.3311228"><ele>2992.41</ele><time>2026-08-14T21:26:56.000Z</time></trkpt>
        <trkpt lat="29.5136931" lon="103.3312015"><ele>2993.66</ele><time>2026-08-14T21:27:04.000Z</time></trkpt>
        <trkpt lat="29.5136475" lon="103.3313145"><ele>2994.06</ele><time>2026-08-14T21:27:16.000Z</time></trkpt>
        <trkpt lat="29.5136049" lon="103.3314193"><ele>2994.55</ele><time>2026-08-14T21:27:30.000Z</time></trkpt>
        <trkpt lat="29.5135669" lon="103.3315231"><ele>2994.39</ele><time>2026-08-14T21:27:40.000Z</time></trkpt>
        <trkpt lat="29.5135123" lon="103.3316193"><ele>2994.03</ele><time>2026-08-14T21:27:52.000Z</time></trkpt>
        <trkpt lat="29.5134949" lon="103.331649"><ele>2994.13</ele><time>2026-08-14T21:27:54.000Z</time></trkpt>
        <trkpt lat="29.5134472" lon="103.3317059"><ele>2994.19</ele><time>2026-08-14T21:28:06.000Z</time></trkpt>
        <trkpt lat="29.5133679" lon="103.331742"><ele>2994.45</ele><time>2026-08-14T21:28:16.000Z</time></trkpt>
        <trkpt lat="29.5132721" lon="103.3317538"><ele>2994.91</ele><time>2026-08-14T21:28:28.000Z</time></trkpt>
        <trkpt lat="29.5131809" lon="103.3317867"><ele>2994.33</ele><time>2026-08-14T21:28:38.000Z</time></trkpt>
        <trkpt lat="29.5131121" lon="103.3318581"><ele>2993.51</ele><time>2026-08-14T21:28:58.000Z</time></trkpt>
        <trkpt lat="29.5130479" lon="103.3319435"><ele>2991.27</ele><time>2026-08-14T21:29:10.000Z</time></trkpt>
        <trkpt lat="29.5129832" lon="103.3320318"><ele>2989.61</ele><time>2026-08-14T21:29:28.000Z</time></trkpt>
        <trkpt lat="29.5129951" lon="103.3321365"><ele>2988.91</ele><time>2026-08-14T21:29:40.000Z</time></trkpt>
        <trkpt lat="29.5130518" lon="103.3322346"><ele>2988.87</ele><time>2026-08-14T21:29:52.000Z</time></trkpt>
        <trkpt lat="29.5130302" lon="103.3323172"><ele>2989.24</ele><time>2026-08-14T21:30:12.000Z</time></trkpt>
        <trkpt lat="29.5129594" lon="103.3323823"><ele>2990.48</ele><time>2026-08-14T21:30:32.000Z</time></trkpt>
        <trkpt lat="29.5128883" lon="103.3324531"><ele>2992.52</ele><time>2026-08-14T21:30:58.000Z</time></trkpt>
        <trkpt lat="29.5128636" lon="103.3325502"><ele>2995.77</ele><time>2026-08-14T21:31:16.000Z</time></trkpt>
        <trkpt lat="29.5128002" lon="103.3326187"><ele>2998.3</ele><time>2026-08-14T21:32:28.000Z</time></trkpt>
        <trkpt lat="29.5127068" lon="103.3326492"><ele>3001.77</ele><time>2026-08-14T21:32:42.000Z</time></trkpt>
        <trkpt lat="29.5126068" lon="103.3326539"><ele>3004.28</ele><time>2026-08-14T21:33:05.000Z</time></trkpt>
        <trkpt lat="29.5125161" lon="103.3326246"><ele>3008.18</ele><time>2026-08-14T21:33:27.000Z</time></trkpt>
        <trkpt lat="29.5124483" lon="103.3326706"><ele>3012.12</ele><time>2026-08-14T21:33:47.000Z</time></trkpt>
        <trkpt lat="29.5123627" lon="103.3326993"><ele>3016.03</ele><time>2026-08-14T21:34:21.000Z</time></trkpt>
        <trkpt lat="29.5122651" lon="103.3327076"><ele>3019.97</ele><time>2026-08-14T21:34:39.000Z</time></trkpt>
        <trkpt lat="29.5121689" lon="103.3327194"><ele>3023.02</ele><time>2026-08-14T21:34:55.000Z</time></trkpt>
        <trkpt lat="29.5120827" lon="103.3326874"><ele>3025.66</ele><time>2026-08-14T21:35:13.000Z</time></trkpt>
        <trkpt lat="29.511989" lon="103.3326683"><ele>3028.08</ele><time>2026-08-14T21:35:35.000Z</time></trkpt>
        <trkpt lat="29.5119194" lon="103.3326049"><ele>3030.52</ele><time>2026-08-14T21:35:45.000Z</time></trkpt>
        <trkpt lat="29.5118545" lon="103.3325259"><ele>3031.9</ele><time>2026-08-14T21:35:59.000Z</time></trkpt>
        <trkpt lat="29.5117715" lon="103.3324841"><ele>3033.36</ele><time>2026-08-14T21:36:11.000Z</time></trkpt>
        <trkpt lat="29.5116752" lon="103.3324583"><ele>3035.05</ele><time>2026-08-14T21:36:25.000Z</time></trkpt>
        <trkpt lat="29.5115717" lon="103.3324489"><ele>3037.06</ele><time>2026-08-14T21:36:35.000Z</time></trkpt>
        <trkpt lat="29.5114824" lon="103.3324155"><ele>3038.82</ele><time>2026-08-14T21:36:44.000Z</time></trkpt>
        <trkpt lat="29.5113777" lon="103.3324177"><ele>3040.61</ele><time>2026-08-14T21:36:54.000Z</time></trkpt>
        <trkpt lat="29.5112714" lon="103.3324391"><ele>3041.82</ele><time>2026-08-14T21:37:02.000Z</time></trkpt>
        <trkpt lat="29.5111737" lon="103.3324657"><ele>3043.03</ele><time>2026-08-14T21:37:12.000Z</time></trkpt>
        <trkpt lat="29.511074" lon="103.3324809"><ele>3044.44</ele><time>2026-08-14T21:37:20.000Z</time></trkpt>
        <trkpt lat="29.5109962" lon="103.3324791"><ele>3045.46</ele><time>2026-08-14T21:37:31.000Z</time></trkpt>
        <trkpt lat="29.5109078" lon="103.332494"><ele>3046.19</ele><time>2026-08-14T21:37:48.000Z</time></trkpt>
        <trkpt lat="29.5107971" lon="103.3325043"><ele>3046.2</ele><time>2026-08-14T21:37:56.000Z</time></trkpt>
        <trkpt lat="29.510691" lon="103.3325126"><ele>3045.7</ele><time>2026-08-14T21:38:04.000Z</time></trkpt>
        <trkpt lat="29.5105879" lon="103.3325431"><ele>3045.22</ele><time>2026-08-14T21:38:12.000Z</time></trkpt>
        <trkpt lat="29.5104891" lon="103.3325245"><ele>3044.71</ele><time>2026-08-14T21:38:20.000Z</time></trkpt>
        <trkpt lat="29.5103948" lon="103.3324982"><ele>3044.14</ele><time>2026-08-14T21:38:28.000Z</time></trkpt>
        <trkpt lat="29.5103076" lon="103.3324655"><ele>3043.77</ele><time>2026-08-14T21:38:40.000Z</time></trkpt>
        <trkpt lat="29.5102341" lon="103.3324434"><ele>3044.11</ele><time>2026-08-14T21:39:00.000Z</time></trkpt>
        <trkpt lat="29.5101537" lon="103.3324092"><ele>3045.6</ele><time>2026-08-14T21:39:24.000Z</time></trkpt>
        <trkpt lat="29.5100638" lon="103.3323706"><ele>3047.88</ele><time>2026-08-14T21:39:46.000Z</time></trkpt>
        <trkpt lat="29.509966" lon="103.3323597"><ele>3050.53</ele><time>2026-08-14T21:40:04.000Z</time></trkpt>
        <trkpt lat="29.5100212" lon="103.3322754"><ele>3053.1</ele><time>2026-08-14T21:43:52.000Z</time></trkpt>
        <trkpt lat="29.5101299" lon="103.3322601"><ele>3057.03</ele><time>2026-08-14T21:43:58.000Z</time></trkpt>
        <trkpt lat="29.5101773" lon="103.3322578"><ele>3059.17</ele><time>2026-08-14T21:44:08.000Z</time></trkpt>
        <trkpt lat="29.5101962" lon="103.3321753"><ele>3060.65</ele><time>2026-08-14T21:45:02.000Z</time></trkpt>
        <trkpt lat="29.5101585" lon="103.3320735"><ele>3061.2</ele><time>2026-08-14T21:45:10.000Z</time></trkpt>
        <trkpt lat="29.5100877" lon="103.331967"><ele>3061.23</ele><time>2026-08-14T21:45:45.000Z</time></trkpt>
        <trkpt lat="29.5100679" lon="103.3318446"><ele>3061.05</ele><time>2026-08-14T21:45:53.000Z</time></trkpt>
        <trkpt lat="29.5100339" lon="103.3317183"><ele>3060.66</ele><time>2026-08-14T21:46:03.000Z</time></trkpt>
        <trkpt lat="29.5099885" lon="103.3316269"><ele>3059.89</ele><time>2026-08-14T21:46:14.000Z</time></trkpt>
        <trkpt lat="29.5099567" lon="103.3315152"><ele>3059.14</ele><time>2026-08-14T21:46:33.000Z</time></trkpt>
        <trkpt lat="29.5099407" lon="103.3314062"><ele>3057.97</ele><time>2026-08-14T21:46:41.000Z</time></trkpt>
        <trkpt lat="29.5099289" lon="103.3312872"><ele>3056.95</ele><time>2026-08-14T21:46:51.000Z</time></trkpt>
        <trkpt lat="29.5099691" lon="103.3311818"><ele>3055.85</ele><time>2026-08-14T21:47:01.000Z</time></trkpt>
        <trkpt lat="29.5100219" lon="103.331082"><ele>3054.88</ele><time>2026-08-14T21:47:11.000Z</time></trkpt>
        <trkpt lat="29.5100874" lon="103.331001"><ele>3053.55</ele><time>2026-08-14T21:47:21.000Z</time></trkpt>
        <trkpt lat="29.5101538" lon="103.3309091"><ele>3051.15</ele><time>2026-08-14T21:47:31.000Z</time></trkpt>
        <trkpt lat="29.5102443" lon="103.3308521"><ele>3049.18</ele><time>2026-08-14T21:47:37.000Z</time></trkpt>
        <trkpt lat="29.5103511" lon="103.3308306"><ele>3047.36</ele><time>2026-08-14T21:47:45.000Z</time></trkpt>
        <trkpt lat="29.5104563" lon="103.3308202"><ele>3046.06</ele><time>2026-08-14T21:47:53.000Z</time></trkpt>
        <trkpt lat="29.5105159" lon="103.3307535"><ele>3044.37</ele><time>2026-08-14T21:48:05.000Z</time></trkpt>
        <trkpt lat="29.5105895" lon="103.3306927"><ele>3042.43</ele><time>2026-08-14T21:48:17.000Z</time></trkpt>
        <trkpt lat="29.5106244" lon="103.3305958"><ele>3039.07</ele><time>2026-08-14T21:48:29.000Z</time></trkpt>
        <trkpt lat="29.5106611" lon="103.3304922"><ele>3035.39</ele><time>2026-08-14T21:48:41.000Z</time></trkpt>
        <trkpt lat="29.5107195" lon="103.3304114"><ele>3030.8</ele><time>2026-08-14T21:48:53.000Z</time></trkpt>
        <trkpt lat="29.5107554" lon="103.3303119"><ele>3026.2</ele><time>2026-08-14T21:49:03.000Z</time></trkpt>
        <trkpt lat="29.5107308" lon="103.3302167"><ele>3022.52</ele><time>2026-08-14T21:49:13.000Z</time></trkpt>
        <trkpt lat="29.5106908" lon="103.3301123"><ele>3017.78</ele><time>2026-08-14T21:49:21.000Z</time></trkpt>
        <trkpt lat="29.510659" lon="103.3300048"><ele>3014.22</ele><time>2026-08-14T21:49:29.000Z</time></trkpt>
        <trkpt lat="29.5106101" lon="103.3299025"><ele>3010.71</ele><time>2026-08-14T21:49:37.000Z</time></trkpt>
        <trkpt lat="29.5105475" lon="103.3298141"><ele>3007.75</ele><time>2026-08-14T21:49:45.000Z</time></trkpt>
        <trkpt lat="29.5104942" lon="103.3297421"><ele>3005.6</ele><time>2026-08-14T21:50:01.000Z</time></trkpt>
        <trkpt lat="29.5104244" lon="103.3296754"><ele>3003.89</ele><time>2026-08-14T21:50:49.000Z</time></trkpt>
        <trkpt lat="29.5103575" lon="103.3295864"><ele>3001.99</ele><time>2026-08-14T21:50:59.000Z</time></trkpt>
        <trkpt lat="29.5102898" lon="103.329494"><ele>3000.93</ele><time>2026-08-14T21:51:07.000Z</time></trkpt>
        <trkpt lat="29.5102624" lon="103.3293896"><ele>3000.59</ele><time>2026-08-14T21:51:16.000Z</time></trkpt>
        <trkpt lat="29.5102055" lon="103.3292986"><ele>3000.83</ele><time>2026-08-14T21:51:26.000Z</time></trkpt>
        <trkpt lat="29.5101803" lon="103.3291962"><ele>3001.28</ele><time>2026-08-14T21:51:36.000Z</time></trkpt>
        <trkpt lat="29.5101212" lon="103.329118"><ele>3001.32</ele><time>2026-08-14T21:51:58.000Z</time></trkpt>
        <trkpt lat="29.5100583" lon="103.3290435"><ele>3001.03</ele><time>2026-08-14T21:52:10.000Z</time></trkpt>
        <trkpt lat="29.5099938" lon="103.3289579"><ele>3000.64</ele><time>2026-08-14T21:52:20.000Z</time></trkpt>
        <trkpt lat="29.5099451" lon="103.3288616"><ele>2999.79</ele><time>2026-08-14T21:52:34.000Z</time></trkpt>
        <trkpt lat="29.5099027" lon="103.3287617"><ele>2998.91</ele><time>2026-08-14T21:52:46.000Z</time></trkpt>
        <trkpt lat="29.509832" lon="103.3286783"><ele>2997.97</ele><time>2026-08-14T21:53:06.000Z</time></trkpt>
        <trkpt lat="29.509766" lon="103.3285786"><ele>2997.04</ele><time>2026-08-14T21:53:16.000Z</time></trkpt>
        <trkpt lat="29.5097703" lon="103.3284666"><ele>2996.41</ele><time>2026-08-14T21:53:32.000Z</time></trkpt>
        <trkpt lat="29.5097906" lon="103.3283507"><ele>2994.43</ele><time>2026-08-14T21:53:44.000Z</time></trkpt>
        <trkpt lat="29.5097859" lon="103.32824"><ele>2992.42</ele><time>2026-08-14T21:53:58.000Z</time></trkpt>
        <trkpt lat="29.509742" lon="103.3281493"><ele>2990.28</ele><time>2026-08-14T21:54:08.000Z</time></trkpt>
        <trkpt lat="29.5096678" lon="103.3280888"><ele>2988.11</ele><time>2026-08-14T21:54:16.000Z</time></trkpt>
        <trkpt lat="29.5095733" lon="103.3280555"><ele>2986.82</ele><time>2026-08-14T21:54:28.000Z</time></trkpt>
        <trkpt lat="29.5094727" lon="103.3280414"><ele>2985.79</ele><time>2026-08-14T21:54:46.000Z</time></trkpt>
        <trkpt lat="29.5093852" lon="103.3280891"><ele>2985.33</ele><time>2026-08-14T21:55:06.000Z</time></trkpt>
        <trkpt lat="29.5092958" lon="103.3281051"><ele>2984.72</ele><time>2026-08-14T21:55:22.000Z</time></trkpt>
        <trkpt lat="29.5092057" lon="103.3281165"><ele>2983.95</ele><time>2026-08-14T21:55:52.000Z</time></trkpt>
        <trkpt lat="29.5091056" lon="103.3281655"><ele>2983.41</ele><time>2026-08-14T21:56:04.000Z</time></trkpt>
        <trkpt lat="29.5090063" lon="103.3282052"><ele>2983.01</ele><time>2026-08-14T21:56:16.000Z</time></trkpt>
        <trkpt lat="29.5089223" lon="103.3282565"><ele>2982.77</ele><time>2026-08-14T21:56:30.000Z</time></trkpt>
        <trkpt lat="29.5088426" lon="103.3283229"><ele>2983.27</ele><time>2026-08-14T21:56:44.000Z</time></trkpt>
        <trkpt lat="29.5087568" lon="103.3283537"><ele>2983.69</ele><time>2026-08-14T21:56:58.000Z</time></trkpt>
        <trkpt lat="29.5086623" lon="103.3283473"><ele>2984.66</ele><time>2026-08-14T21:57:14.000Z</time></trkpt>
        <trkpt lat="29.5085532" lon="103.3283285"><ele>2986.28</ele><time>2026-08-14T21:57:37.000Z</time></trkpt>
        <trkpt lat="29.5084565" lon="103.328325"><ele>2987.87</ele><time>2026-08-14T21:57:53.000Z</time></trkpt>
        <trkpt lat="29.5083553" lon="103.3283007"><ele>2988.68</ele><time>2026-08-14T21:58:09.000Z</time></trkpt>
        <trkpt lat="29.508291" lon="103.3282231"><ele>2989.93</ele><time>2026-08-14T21:58:23.000Z</time></trkpt>
        <trkpt lat="29.5082376" lon="103.328133"><ele>2990.81</ele><time>2026-08-14T21:58:37.000Z</time></trkpt>
        <trkpt lat="29.5081676" lon="103.3280593"><ele>2990.65</ele><time>2026-08-14T21:58:53.000Z</time></trkpt>
        <trkpt lat="29.5081099" lon="103.3279768"><ele>2989.7</ele><time>2026-08-14T21:59:05.000Z</time></trkpt>
        <trkpt lat="29.5080812" lon="103.3278631"><ele>2988.47</ele><time>2026-08-14T21:59:19.000Z</time></trkpt>
        <trkpt lat="29.5080481" lon="103.3277558"><ele>2987.92</ele><time>2026-08-14T21:59:29.000Z</time></trkpt>
        <trkpt lat="29.5080086" lon="103.3276587"><ele>2988.21</ele><time>2026-08-14T21:59:43.000Z</time></trkpt>
        <trkpt lat="29.5079903" lon="103.3276177"><ele>2988.05</ele><time>2026-08-14T21:59:45.000Z</time></trkpt>
        <trkpt lat="29.5079338" lon="103.3275626"><ele>2987.96</ele><time>2026-08-14T21:59:55.000Z</time></trkpt>
        <trkpt lat="29.5078493" lon="103.3275451"><ele>2987.96</ele><time>2026-08-14T22:00:07.000Z</time></trkpt>
        <trkpt lat="29.5077546" lon="103.3275805"><ele>2988.05</ele><time>2026-08-14T22:00:25.000Z</time></trkpt>
        <trkpt lat="29.5076642" lon="103.3276271"><ele>2986.74</ele><time>2026-08-14T22:00:41.000Z</time></trkpt>
        <trkpt lat="29.5075671" lon="103.327639"><ele>2986.5</ele><time>2026-08-14T22:00:55.000Z</time></trkpt>
        <trkpt lat="29.5074869" lon="103.3275724"><ele>2986.21</ele><time>2026-08-14T22:01:07.000Z</time></trkpt>
        <trkpt lat="29.5074524" lon="103.327466"><ele>2986.75</ele><time>2026-08-14T22:01:21.000Z</time></trkpt>
        <trkpt lat="29.5073938" lon="103.3273667"><ele>2985.92</ele><time>2026-08-14T22:01:31.000Z</time></trkpt>
        <trkpt lat="29.507361" lon="103.3273148"><ele>2984.25</ele><time>2026-08-14T22:01:35.000Z</time></trkpt>
        <trkpt lat="29.5073087" lon="103.3272478"><ele>2982.96</ele><time>2026-08-14T22:01:42.000Z</time></trkpt>
        <trkpt lat="29.5072349" lon="103.3271852"><ele>2983.11</ele><time>2026-08-14T22:01:52.000Z</time></trkpt>
        <trkpt lat="29.507155" lon="103.3271128"><ele>2983.55</ele><time>2026-08-14T22:02:04.000Z</time></trkpt>
        <trkpt lat="29.5070742" lon="103.3270309"><ele>2983.97</ele><time>2026-08-14T22:02:20.000Z</time></trkpt>
        <trkpt lat="29.5070327" lon="103.3269286"><ele>2982.72</ele><time>2026-08-14T22:02:32.000Z</time></trkpt>
        <trkpt lat="29.5070306" lon="103.3268083"><ele>2981.29</ele><time>2026-08-14T22:02:44.000Z</time></trkpt>
        <trkpt lat="29.507064" lon="103.3267001"><ele>2979.79</ele><time>2026-08-14T22:02:54.000Z</time></trkpt>
        <trkpt lat="29.5071517" lon="103.3266267"><ele>2978.23</ele><time>2026-08-14T22:03:08.000Z</time></trkpt>
        <trkpt lat="29.5072655" lon="103.3266122"><ele>2976.03</ele><time>2026-08-14T22:03:18.000Z</time></trkpt>
        <trkpt lat="29.5073526" lon="103.3265601"><ele>2974.51</ele><time>2026-08-14T22:03:30.000Z</time></trkpt>
        <trkpt lat="29.5074043" lon="103.3264672"><ele>2972.39</ele><time>2026-08-14T22:03:44.000Z</time></trkpt>
        <trkpt lat="29.5074654" lon="103.3263879"><ele>2970.59</ele><time>2026-08-14T22:03:56.000Z</time></trkpt>
        <trkpt lat="29.5075387" lon="103.3263272"><ele>2968.37</ele><time>2026-08-14T22:04:14.000Z</time></trkpt>
        <trkpt lat="29.5076224" lon="103.3262795"><ele>2965.96</ele><time>2026-08-14T22:04:28.000Z</time></trkpt>
        <trkpt lat="29.5076866" lon="103.3262069"><ele>2962.78</ele><time>2026-08-14T22:04:56.000Z</time></trkpt>
        <trkpt lat="29.5077499" lon="103.3261185"><ele>2958.98</ele><time>2026-08-14T22:05:12.000Z</time></trkpt>
        <trkpt lat="29.5077462" lon="103.3260136"><ele>2954.98</ele><time>2026-08-14T22:05:32.000Z</time></trkpt>
        <trkpt lat="29.507707" lon="103.3259096"><ele>2951.56</ele><time>2026-08-14T22:05:50.000Z</time></trkpt>
        <trkpt lat="29.5076285" lon="103.3258362"><ele>2949.03</ele><time>2026-08-14T22:06:08.000Z</time></trkpt>
        <trkpt lat="29.5075569" lon="103.3257576"><ele>2945.43</ele><time>2026-08-14T22:06:24.000Z</time></trkpt>
        <trkpt lat="29.507482" lon="103.3256873"><ele>2940.61</ele><time>2026-08-14T22:06:38.000Z</time></trkpt>
        <trkpt lat="29.5074065" lon="103.3256196"><ele>2936.25</ele><time>2026-08-14T22:06:56.000Z</time></trkpt>
        <trkpt lat="29.5073303" lon="103.3255522"><ele>2931.61</ele><time>2026-08-14T22:07:28.000Z</time></trkpt>
        <trkpt lat="29.5072475" lon="103.3254959"><ele>2926.81</ele><time>2026-08-14T22:07:38.000Z</time></trkpt>
        <trkpt lat="29.5071541" lon="103.3254835"><ele>2922.93</ele><time>2026-08-14T22:07:42.000Z</time></trkpt>
        <trkpt lat="29.5070831" lon="103.3254234"><ele>2920.36</ele><time>2026-08-14T22:07:56.000Z</time></trkpt>
        <trkpt lat="29.5070785" lon="103.32532"><ele>2918.01</ele><time>2026-08-14T22:08:10.000Z</time></trkpt>
        <trkpt lat="29.5070774" lon="103.325202"><ele>2916.44</ele><time>2026-08-14T22:08:24.000Z</time></trkpt>
        <trkpt lat="29.5070878" lon="103.3250874"><ele>2914.44</ele><time>2026-08-14T22:08:40.000Z</time></trkpt>
        <trkpt lat="29.507083" lon="103.3249706"><ele>2912.48</ele><time>2026-08-14T22:08:50.000Z</time></trkpt>
        <trkpt lat="29.5070864" lon="103.3248598"><ele>2911.02</ele><time>2026-08-14T22:08:58.000Z</time></trkpt>
        <trkpt lat="29.5071099" lon="103.3247577"><ele>2909.29</ele><time>2026-08-14T22:09:12.000Z</time></trkpt>
        <trkpt lat="29.5071272" lon="103.324653"><ele>2907.16</ele><time>2026-08-14T22:09:26.000Z</time></trkpt>
        <trkpt lat="29.5071554" lon="103.3245469"><ele>2905.56</ele><time>2026-08-14T22:09:38.000Z</time></trkpt>
        <trkpt lat="29.5071655" lon="103.3244345"><ele>2904.23</ele><time>2026-08-14T22:09:52.000Z</time></trkpt>
        <trkpt lat="29.5071869" lon="103.3243141"><ele>2903.26</ele><time>2026-08-14T22:10:14.000Z</time></trkpt>
        <trkpt lat="29.5072058" lon="103.3242026"><ele>2902.64</ele><time>2026-08-14T22:10:51.000Z</time></trkpt>
        <trkpt lat="29.5071905" lon="103.3241006"><ele>2901.82</ele><time>2026-08-14T22:11:25.000Z</time></trkpt>
        <trkpt lat="29.5072286" lon="103.3240135"><ele>2901.8</ele><time>2026-08-14T22:12:19.000Z</time></trkpt>
        <trkpt lat="29.507288" lon="103.323937"><ele>2901.59</ele><time>2026-08-14T22:12:47.000Z</time></trkpt>
        <trkpt lat="29.507296" lon="103.3238402"><ele>2899.91</ele><time>2026-08-14T22:13:11.000Z</time></trkpt>
        <trkpt lat="29.5072745" lon="103.3237291"><ele>2897.42</ele><time>2026-08-14T22:13:39.000Z</time></trkpt>
        <trkpt lat="29.5072294" lon="103.3236305"><ele>2895.06</ele><time>2026-08-14T22:13:59.000Z</time></trkpt>
        <trkpt lat="29.5071409" lon="103.3235719"><ele>2893.14</ele><time>2026-08-14T22:14:21.000Z</time></trkpt>
        <trkpt lat="29.5070267" lon="103.323555"><ele>2891.93</ele><time>2026-08-14T22:15:32.000Z</time></trkpt>
        <trkpt lat="29.5069447" lon="103.3234863"><ele>2890.77</ele><time>2026-08-14T22:15:48.000Z</time></trkpt>
        <trkpt lat="29.5068756" lon="103.3234112"><ele>2891.8</ele><time>2026-08-14T22:16:34.000Z</time></trkpt>
        <trkpt lat="29.5068264" lon="103.3233173"><ele>2893.86</ele><time>2026-08-14T22:16:58.000Z</time></trkpt>
        <trkpt lat="29.5067649" lon="103.3232289"><ele>2895.23</ele><time>2026-08-14T22:17:16.000Z</time></trkpt>
        <trkpt lat="29.5066882" lon="103.3231661"><ele>2895.37</ele><time>2026-08-14T22:17:36.000Z</time></trkpt>
        <trkpt lat="29.5066201" lon="103.3230958"><ele>2896.58</ele><time>2026-08-14T22:17:51.000Z</time></trkpt>
        <trkpt lat="29.5065388" lon="103.3230387"><ele>2898.29</ele><time>2026-08-14T22:18:09.000Z</time></trkpt>
        <trkpt lat="29.5064526" lon="103.3229804"><ele>2898.67</ele><time>2026-08-14T22:18:23.000Z</time></trkpt>
        <trkpt lat="29.5063925" lon="103.3228865"><ele>2898.79</ele><time>2026-08-14T22:18:35.000Z</time></trkpt>
        <trkpt lat="29.5063513" lon="103.3227849"><ele>2898.44</ele><time>2026-08-14T22:18:47.000Z</time></trkpt>
        <trkpt lat="29.5062972" lon="103.3226938"><ele>2897.81</ele><time>2026-08-14T22:19:01.000Z</time></trkpt>
        <trkpt lat="29.5062256" lon="103.3226242"><ele>2897.39</ele><time>2026-08-14T22:20:29.000Z</time></trkpt>
        <trkpt lat="29.506216" lon="103.3225174"><ele>2895.83</ele><time>2026-08-14T22:20:55.000Z</time></trkpt>
        <trkpt lat="29.5061791" lon="103.3224106"><ele>2893.67</ele><time>2026-08-14T22:21:09.000Z</time></trkpt>
        <trkpt lat="29.5061505" lon="103.3223038"><ele>2891.84</ele><time>2026-08-14T22:21:21.000Z</time></trkpt>
        <trkpt lat="29.5061789" lon="103.3222027"><ele>2890.2</ele><time>2026-08-14T22:21:41.000Z</time></trkpt>
        <trkpt lat="29.5061865" lon="103.3220865"><ele>2888.36</ele><time>2026-08-14T22:21:49.000Z</time></trkpt>
        <trkpt lat="29.506165" lon="103.3219817"><ele>2886.14</ele><time>2026-08-14T22:22:01.000Z</time></trkpt>
        <trkpt lat="29.5061296" lon="103.321876"><ele>2883.22</ele><time>2026-08-14T22:22:17.000Z</time></trkpt>
        <trkpt lat="29.5060775" lon="103.3217753"><ele>2880.56</ele><time>2026-08-14T22:22:37.000Z</time></trkpt>
        <trkpt lat="29.5060466" lon="103.321665"><ele>2877.37</ele><time>2026-08-14T22:22:57.000Z</time></trkpt>
        <trkpt lat="29.5059951" lon="103.3215738"><ele>2873.07</ele><time>2026-08-14T22:23:13.000Z</time></trkpt>
        <trkpt lat="29.5059601" lon="103.3214784"><ele>2868.57</ele><time>2026-08-14T22:23:43.000Z</time></trkpt>
        <trkpt lat="29.5059594" lon="103.3213749"><ele>2862.5</ele><time>2026-08-14T22:24:15.000Z</time></trkpt>
        <trkpt lat="29.5059177" lon="103.3212855"><ele>2856.41</ele><time>2026-08-14T22:24:35.000Z</time></trkpt>
        <trkpt lat="29.5058921" lon="103.3211842"><ele>2851.32</ele><time>2026-08-14T22:24:55.000Z</time></trkpt>
        <trkpt lat="29.5058963" lon="103.3210724"><ele>2846.52</ele><time>2026-08-14T22:25:15.000Z</time></trkpt>
        <trkpt lat="29.505894" lon="103.3209627"><ele>2842.25</ele><time>2026-08-14T22:25:35.000Z</time></trkpt>
        <trkpt lat="29.5058717" lon="103.3208603"><ele>2837.44</ele><time>2026-08-14T22:25:55.000Z</time></trkpt>
        <trkpt lat="29.5058258" lon="103.3207609"><ele>2833.5</ele><time>2026-08-14T22:26:10.000Z</time></trkpt>
        <trkpt lat="29.5058007" lon="103.3206565"><ele>2829.81</ele><time>2026-08-14T22:26:24.000Z</time></trkpt>
        <trkpt lat="29.5058108" lon="103.3205443"><ele>2826.67</ele><time>2026-08-14T22:26:41.000Z</time></trkpt>
        <trkpt lat="29.5058692" lon="103.3204466"><ele>2824.28</ele><time>2026-08-14T22:26:59.000Z</time></trkpt>
        <trkpt lat="29.5059376" lon="103.3203661"><ele>2822.35</ele><time>2026-08-14T22:27:15.000Z</time></trkpt>
        <trkpt lat="29.5060044" lon="103.3202857"><ele>2820.04</ele><time>2026-08-14T22:27:33.000Z</time></trkpt>
        <trkpt lat="29.5060753" lon="103.3202155"><ele>2817.66</ele><time>2026-08-14T22:27:55.000Z</time></trkpt>
        <trkpt lat="29.5061306" lon="103.3201312"><ele>2814.85</ele><time>2026-08-14T22:28:13.000Z</time></trkpt>
        <trkpt lat="29.5061393" lon="103.3200293"><ele>2812.55</ele><time>2026-08-14T22:28:52.000Z</time></trkpt>
        <trkpt lat="29.5061241" lon="103.3199214"><ele>2808.91</ele><time>2026-08-14T22:29:07.000Z</time></trkpt>
        <trkpt lat="29.5060915" lon="103.3198123"><ele>2805.82</ele><time>2026-08-14T22:29:19.000Z</time></trkpt>
        <trkpt lat="29.5060596" lon="103.319698"><ele>2803.3</ele><time>2026-08-14T22:29:31.000Z</time></trkpt>
        <trkpt lat="29.5060203" lon="103.3195881"><ele>2801.19</ele><time>2026-08-14T22:29:59.000Z</time></trkpt>
        <trkpt lat="29.505981" lon="103.3194689"><ele>2798.83</ele><time>2026-08-14T22:30:13.000Z</time></trkpt>
        <trkpt lat="29.5059572" lon="103.3193579"><ele>2796.4</ele><time>2026-08-14T22:30:23.000Z</time></trkpt>
        <trkpt lat="29.505928" lon="103.3192503"><ele>2794.75</ele><time>2026-08-14T22:30:35.000Z</time></trkpt>
        <trkpt lat="29.5059007" lon="103.3191439"><ele>2793.17</ele><time>2026-08-14T22:30:49.000Z</time></trkpt>
        <trkpt lat="29.5058727" lon="103.3190319"><ele>2792.02</ele><time>2026-08-14T22:31:07.000Z</time></trkpt>
        <trkpt lat="29.5058198" lon="103.3189349"><ele>2790.53</ele><time>2026-08-14T22:31:23.000Z</time></trkpt>
        <trkpt lat="29.5057651" lon="103.3188435"><ele>2790.45</ele><time>2026-08-14T22:31:43.000Z</time></trkpt>
        <trkpt lat="29.5057125" lon="103.3187477"><ele>2788.86</ele><time>2026-08-14T22:31:57.000Z</time></trkpt>
        <trkpt lat="29.5056443" lon="103.3186726"><ele>2787.37</ele><time>2026-08-14T22:32:13.000Z</time></trkpt>
        <trkpt lat="29.5055836" lon="103.3185877"><ele>2786.26</ele><time>2026-08-14T22:32:27.000Z</time></trkpt>
        <trkpt lat="29.5055353" lon="103.3184922"><ele>2784.84</ele><time>2026-08-14T22:32:41.000Z</time></trkpt>
        <trkpt lat="29.5054543" lon="103.3184387"><ele>2783.18</ele><time>2026-08-14T22:32:57.000Z</time></trkpt>
        <trkpt lat="29.5053723" lon="103.3183781"><ele>2781.1</ele><time>2026-08-14T22:33:11.000Z</time></trkpt>
        <trkpt lat="29.5053186" lon="103.31829"><ele>2779.01</ele><time>2026-08-14T22:33:23.000Z</time></trkpt>
        <trkpt lat="29.5052861" lon="103.3181911"><ele>2777.14</ele><time>2026-08-14T22:33:39.000Z</time></trkpt>
        <trkpt lat="29.5052789" lon="103.3180837"><ele>2774.06</ele><time>2026-08-14T22:33:51.000Z</time></trkpt>
        <trkpt lat="29.5052878" lon="103.3179687"><ele>2770.77</ele><time>2026-08-14T22:34:05.000Z</time></trkpt>
        <trkpt lat="29.5052902" lon="103.317852"><ele>2766.33</ele><time>2026-08-14T22:34:19.000Z</time></trkpt>
        <trkpt lat="29.5052422" lon="103.3177643"><ele>2762.67</ele><time>2026-08-14T22:34:25.000Z</time></trkpt>
        <trkpt lat="29.5052024" lon="103.3176649"><ele>2760.68</ele><time>2026-08-14T22:34:37.000Z</time></trkpt>
        <trkpt lat="29.5051793" lon="103.3175543"><ele>2759.4</ele><time>2026-08-14T22:34:55.000Z</time></trkpt>
        <trkpt lat="29.5051889" lon="103.3174453"><ele>2757.13</ele><time>2026-08-14T22:35:15.000Z</time></trkpt>
        <trkpt lat="29.5052" lon="103.3173374"><ele>2754.62</ele><time>2026-08-14T22:35:31.000Z</time></trkpt>
        <trkpt lat="29.5052382" lon="103.3172359"><ele>2752.72</ele><time>2026-08-14T22:35:51.000Z</time></trkpt>
        <trkpt lat="29.5052981" lon="103.3171541"><ele>2750.1</ele><time>2026-08-14T22:36:13.000Z</time></trkpt>
        <trkpt lat="29.5053436" lon="103.3170561"><ele>2744.88</ele><time>2026-08-14T22:36:33.000Z</time></trkpt>
        <trkpt lat="29.5053444" lon="103.3169453"><ele>2740.73</ele><time>2026-08-14T22:36:47.000Z</time></trkpt>
        <trkpt lat="29.5053055" lon="103.3168472"><ele>2737.18</ele><time>2026-08-14T22:36:59.000Z</time></trkpt>
        <trkpt lat="29.5053145" lon="103.3167431"><ele>2734.92</ele><time>2026-08-14T22:37:23.000Z</time></trkpt>
        <trkpt lat="29.505287" lon="103.316648"><ele>2732.17</ele><time>2026-08-14T22:37:39.000Z</time></trkpt>
        <trkpt lat="29.5052554" lon="103.3165507"><ele>2728.88</ele><time>2026-08-14T22:37:59.000Z</time></trkpt>
        <trkpt lat="29.5052152" lon="103.3164464"><ele>2725.51</ele><time>2026-08-14T22:38:13.000Z</time></trkpt>
        <trkpt lat="29.5051428" lon="103.3163797"><ele>2721.59</ele><time>2026-08-14T22:38:31.000Z</time></trkpt>
        <trkpt lat="29.505054" lon="103.3163384"><ele>2719.34</ele><time>2026-08-14T22:38:59.000Z</time></trkpt>
        <trkpt lat="29.5049614" lon="103.3163103"><ele>2715.87</ele><time>2026-08-14T22:39:21.000Z</time></trkpt>
        <trkpt lat="29.5048697" lon="103.3162789"><ele>2712.99</ele><time>2026-08-14T22:39:47.000Z</time></trkpt>
        <trkpt lat="29.5047824" lon="103.3162386"><ele>2707.34</ele><time>2026-08-14T22:40:07.000Z</time></trkpt>
        <trkpt lat="29.5047017" lon="103.3161883"><ele>2702.01</ele><time>2026-08-14T22:40:31.000Z</time></trkpt>
        <trkpt lat="29.5046235" lon="103.3161346"><ele>2697.36</ele><time>2026-08-14T22:40:41.000Z</time></trkpt>
        <trkpt lat="29.5045402" lon="103.31608"><ele>2693.93</ele><time>2026-08-14T22:40:53.000Z</time></trkpt>
        <trkpt lat="29.5044834" lon="103.315997"><ele>2689.24</ele><time>2026-08-14T22:41:05.000Z</time></trkpt>
        <trkpt lat="29.5044364" lon="103.3159039"><ele>2686.11</ele><time>2026-08-14T22:41:17.000Z</time></trkpt>
        <trkpt lat="29.5043931" lon="103.3158089"><ele>2684.28</ele><time>2026-08-14T22:41:35.000Z</time></trkpt>
        <trkpt lat="29.5043392" lon="103.3157196"><ele>2682.85</ele><time>2026-08-14T22:43:29.000Z</time></trkpt>
        <trkpt lat="29.5043259" lon="103.3156128"><ele>2681.86</ele><time>2026-08-14T22:45:45.000Z</time></trkpt>
        <trkpt lat="29.5042591" lon="103.3155289"><ele>2681.15</ele><time>2026-08-14T22:45:59.000Z</time></trkpt>
        <trkpt lat="29.5042198" lon="103.3154256"><ele>2680.6</ele><time>2026-08-14T22:46:19.000Z</time></trkpt>
        <trkpt lat="29.5041662" lon="103.3153365"><ele>2680.79</ele><time>2026-08-14T22:46:29.000Z</time></trkpt>
        <trkpt lat="29.5040982" lon="103.3152403"><ele>2681.85</ele><time>2026-08-14T22:46:43.000Z</time></trkpt>
        <trkpt lat="29.5040122" lon="103.3151701"><ele>2681.9</ele><time>2026-08-14T22:46:53.000Z</time></trkpt>
        <trkpt lat="29.5039333" lon="103.3151095"><ele>2682.29</ele><time>2026-08-14T22:47:03.000Z</time></trkpt>
        <trkpt lat="29.503857" lon="103.3150512"><ele>2682.83</ele><time>2026-08-14T22:47:34.000Z</time></trkpt>
        <trkpt lat="29.5037935" lon="103.3149753"><ele>2683.48</ele><time>2026-08-14T22:47:48.000Z</time></trkpt>
        <trkpt lat="29.5037089" lon="103.3149495"><ele>2683.02</ele><time>2026-08-14T22:48:02.000Z</time></trkpt>
        <trkpt lat="29.5036188" lon="103.314954"><ele>2682.71</ele><time>2026-08-14T22:48:16.000Z</time></trkpt>
        <trkpt lat="29.5035533" lon="103.3148812"><ele>2681.97</ele><time>2026-08-14T22:48:28.000Z</time></trkpt>
        <trkpt lat="29.5035047" lon="103.3147829"><ele>2681.47</ele><time>2026-08-14T22:48:40.000Z</time></trkpt>
        <trkpt lat="29.5034813" lon="103.3146722"><ele>2680.29</ele><time>2026-08-14T22:48:54.000Z</time></trkpt>
        <trkpt lat="29.5034514" lon="103.3145598"><ele>2678.61</ele><time>2026-08-14T22:49:08.000Z</time></trkpt>
        <trkpt lat="29.5034442" lon="103.314449"><ele>2676.69</ele><time>2026-08-14T22:49:22.000Z</time></trkpt>
        <trkpt lat="29.503423" lon="103.3143399"><ele>2674.75</ele><time>2026-08-14T22:49:32.000Z</time></trkpt>
        <trkpt lat="29.5033707" lon="103.3142551"><ele>2673.98</ele><time>2026-08-14T22:49:56.000Z</time></trkpt>
        <trkpt lat="29.5033355" lon="103.3141506"><ele>2672.98</ele><time>2026-08-14T22:50:16.000Z</time></trkpt>
        <trkpt lat="29.5032997" lon="103.3140491"><ele>2671.47</ele><time>2026-08-14T22:50:34.000Z</time></trkpt>
        <trkpt lat="29.5032851" lon="103.3139435"><ele>2669.05</ele><time>2026-08-14T22:50:54.000Z</time></trkpt>
        <trkpt lat="29.5032509" lon="103.3138365"><ele>2666.34</ele><time>2026-08-14T22:51:10.000Z</time></trkpt>
        <trkpt lat="29.5032458" lon="103.3137291"><ele>2663.37</ele><time>2026-08-14T22:51:32.000Z</time></trkpt>
        <trkpt lat="29.5032431" lon="103.3136219"><ele>2658.61</ele><time>2026-08-14T22:51:50.000Z</time></trkpt>
        <trkpt lat="29.5032199" lon="103.3135149"><ele>2654.86</ele><time>2026-08-14T22:52:08.000Z</time></trkpt>
        <trkpt lat="29.5031926" lon="103.3134137"><ele>2651.65</ele><time>2026-08-14T22:52:22.000Z</time></trkpt>
        <trkpt lat="29.5031846" lon="103.3133089"><ele>2648.59</ele><time>2026-08-14T22:52:36.000Z</time></trkpt>
        <trkpt lat="29.503167" lon="103.3132025"><ele>2645.57</ele><time>2026-08-14T22:52:54.000Z</time></trkpt>
        <trkpt lat="29.5031122" lon="103.3131185"><ele>2643.19</ele><time>2026-08-14T22:53:12.000Z</time></trkpt>
        <trkpt lat="29.5030238" lon="103.3130715"><ele>2641.28</ele><time>2026-08-14T22:53:30.000Z</time></trkpt>
        <trkpt lat="29.5029282" lon="103.313054"><ele>2639.57</ele><time>2026-08-14T22:53:52.000Z</time></trkpt>
        <trkpt lat="29.5028401" lon="103.3130044"><ele>2638.02</ele><time>2026-08-14T22:54:12.000Z</time></trkpt>
        <trkpt lat="29.5027924" lon="103.3129116"><ele>2635.39</ele><time>2026-08-14T22:54:28.000Z</time></trkpt>
        <trkpt lat="29.5027631" lon="103.312803"><ele>2632.37</ele><time>2026-08-14T22:54:47.000Z</time></trkpt>
        <trkpt lat="29.5027601" lon="103.3126854"><ele>2629.23</ele><time>2026-08-14T22:55:03.000Z</time></trkpt>
        <trkpt lat="29.5027589" lon="103.3126355"><ele>2626.45</ele><time>2026-08-14T22:55:05.000Z</time></trkpt>
        <trkpt lat="29.5027445" lon="103.3125488"><ele>2624.86</ele><time>2026-08-14T22:55:25.000Z</time></trkpt>
        <trkpt lat="29.5027352" lon="103.3124402"><ele>2623.29</ele><time>2026-08-14T22:55:41.000Z</time></trkpt>
        <trkpt lat="29.5027278" lon="103.3123241"><ele>2621.59</ele><time>2026-08-14T22:55:55.000Z</time></trkpt>
        <trkpt lat="29.5027695" lon="103.3122239"><ele>2620.19</ele><time>2026-08-14T22:56:07.000Z</time></trkpt>
        <trkpt lat="29.5028289" lon="103.312125"><ele>2618.05</ele><time>2026-08-14T22:56:27.000Z</time></trkpt>
        <trkpt lat="29.5028662" lon="103.3120148"><ele>2614.97</ele><time>2026-08-14T22:56:45.000Z</time></trkpt>
        <trkpt lat="29.5028713" lon="103.3119061"><ele>2611.49</ele><time>2026-08-14T22:57:01.000Z</time></trkpt>
        <trkpt lat="29.5028632" lon="103.3117926"><ele>2607.7</ele><time>2026-08-14T22:57:23.000Z</time></trkpt>
        <trkpt lat="29.5028649" lon="103.3116834"><ele>2603.78</ele><time>2026-08-14T22:57:41.000Z</time></trkpt>
        <trkpt lat="29.5029011" lon="103.3115845"><ele>2599.96</ele><time>2026-08-14T22:59:05.000Z</time></trkpt>
        <trkpt lat="29.5029297" lon="103.3114853"><ele>2596.05</ele><time>2026-08-14T22:59:29.000Z</time></trkpt>
        <trkpt lat="29.5029696" lon="103.3113861"><ele>2591.83</ele><time>2026-08-14T23:00:07.000Z</time></trkpt>
        <trkpt lat="29.5030056" lon="103.3112869"><ele>2588.77</ele><time>2026-08-14T23:00:19.000Z</time></trkpt>
        <trkpt lat="29.5030505" lon="103.3111935"><ele>2586.29</ele><time>2026-08-14T23:00:31.000Z</time></trkpt>
        <trkpt lat="29.5031" lon="103.3110964"><ele>2583.55</ele><time>2026-08-14T23:00:45.000Z</time></trkpt>
        <trkpt lat="29.5031636" lon="103.3110148"><ele>2580.94</ele><time>2026-08-14T23:01:21.000Z</time></trkpt>
        <trkpt lat="29.5032419" lon="103.3109562"><ele>2576.54</ele><time>2026-08-14T23:01:58.000Z</time></trkpt>
        <trkpt lat="29.5033058" lon="103.3108822"><ele>2571.81</ele><time>2026-08-14T23:02:18.000Z</time></trkpt>
        <trkpt lat="29.503376" lon="103.3108181"><ele>2567.29</ele><time>2026-08-14T23:02:48.000Z</time></trkpt>
        <trkpt lat="29.5034637" lon="103.3107758"><ele>2563.76</ele><time>2026-08-14T23:04:28.000Z</time></trkpt>
        <trkpt lat="29.5035133" lon="103.3106842"><ele>2559.37</ele><time>2026-08-14T23:05:22.000Z</time></trkpt>
        <trkpt lat="29.5035468" lon="103.3105862"><ele>2553.29</ele><time>2026-08-14T23:06:00.000Z</time></trkpt>
        <trkpt lat="29.5035435" lon="103.3104753"><ele>2546.82</ele><time>2026-08-14T23:06:18.000Z</time></trkpt>
        <trkpt lat="29.5035029" lon="103.3103717"><ele>2541.98</ele><time>2026-08-14T23:06:34.000Z</time></trkpt>
        <trkpt lat="29.5034758" lon="103.3103401"><ele>2538.29</ele><time>2026-08-14T23:06:36.000Z</time></trkpt>
        <trkpt lat="29.503431" lon="103.3102718"><ele>2536.16</ele><time>2026-08-14T23:06:46.000Z</time></trkpt>
        <trkpt lat="29.5033966" lon="103.310169"><ele>2534.57</ele><time>2026-08-14T23:07:00.000Z</time></trkpt>
        <trkpt lat="29.5034104" lon="103.3100649"><ele>2532.62</ele><time>2026-08-14T23:07:12.000Z</time></trkpt>
        <trkpt lat="29.503392" lon="103.3099508"><ele>2529.96</ele><time>2026-08-14T23:07:26.000Z</time></trkpt>
        <trkpt lat="29.5033535" lon="103.3098456"><ele>2526.96</ele><time>2026-08-14T23:07:46.000Z</time></trkpt>
        <trkpt lat="29.5033898" lon="103.3097562"><ele>2524.57</ele><time>2026-08-14T23:08:00.000Z</time></trkpt>
        <trkpt lat="29.5034133" lon="103.3097242"><ele>2521.66</ele><time>2026-08-14T23:08:02.000Z</time></trkpt>
        <trkpt lat="29.5034429" lon="103.3096493"><ele>2519.52</ele><time>2026-08-14T23:08:20.000Z</time></trkpt>
        <trkpt lat="29.5034938" lon="103.309561"><ele>2516.88</ele><time>2026-08-14T23:08:32.000Z</time></trkpt>
        <trkpt lat="29.5035043" lon="103.3094509"><ele>2513.8</ele><time>2026-08-14T23:08:48.000Z</time></trkpt>
        <trkpt lat="29.5035255" lon="103.3093339"><ele>2510.14</ele><time>2026-08-14T23:09:02.000Z</time></trkpt>
        <trkpt lat="29.5035434" lon="103.3092219"><ele>2506.14</ele><time>2026-08-14T23:09:10.000Z</time></trkpt>
        <trkpt lat="29.5035531" lon="103.3091129"><ele>2503.37</ele><time>2026-08-14T23:09:22.000Z</time></trkpt>
        <trkpt lat="29.5035657" lon="103.3090054"><ele>2500.33</ele><time>2026-08-14T23:09:36.000Z</time></trkpt>
        <trkpt lat="29.50358" lon="103.3088985"><ele>2496.43</ele><time>2026-08-14T23:09:52.000Z</time></trkpt>
        <trkpt lat="29.5035807" lon="103.3087861"><ele>2492.13</ele><time>2026-08-14T23:10:08.000Z</time></trkpt>
        <trkpt lat="29.5035564" lon="103.3086716"><ele>2487.51</ele><time>2026-08-14T23:10:20.000Z</time></trkpt>
        <trkpt lat="29.5035366" lon="103.3085623"><ele>2482.92</ele><time>2026-08-14T23:10:32.000Z</time></trkpt>
        <trkpt lat="29.5034786" lon="103.3084839"><ele>2478.37</ele><time>2026-08-14T23:10:44.000Z</time></trkpt>
        <trkpt lat="29.5034589" lon="103.3083879"><ele>2474.54</ele><time>2026-08-14T23:10:56.000Z</time></trkpt>
        <trkpt lat="29.5034944" lon="103.3082952"><ele>2470.06</ele><time>2026-08-14T23:11:10.000Z</time></trkpt>
        <trkpt lat="29.5035851" lon="103.3082496"><ele>2465.63</ele><time>2026-08-14T23:11:26.000Z</time></trkpt>
        <trkpt lat="29.5036696" lon="103.3081923"><ele>2461.58</ele><time>2026-08-14T23:11:40.000Z</time></trkpt>
        <trkpt lat="29.5037083" lon="103.3080995"><ele>2457.64</ele><time>2026-08-14T23:11:52.000Z</time></trkpt>
        <trkpt lat="29.5037437" lon="103.3079929"><ele>2453.76</ele><time>2026-08-14T23:12:04.000Z</time></trkpt>
        <trkpt lat="29.5037865" lon="103.3078942"><ele>2449.64</ele><time>2026-08-14T23:12:24.000Z</time></trkpt>
        <trkpt lat="29.5037955" lon="103.3077886"><ele>2444.44</ele><time>2026-08-14T23:12:42.000Z</time></trkpt>
        <trkpt lat="29.5038153" lon="103.3076866"><ele>2439.18</ele><time>2026-08-14T23:12:58.000Z</time></trkpt>
        <trkpt lat="29.5037878" lon="103.3075864"><ele>2434.85</ele><time>2026-08-14T23:13:18.000Z</time></trkpt>
        <trkpt lat="29.5038395" lon="103.3075215"><ele>2430.75</ele><time>2026-08-14T23:13:38.000Z</time></trkpt>
        <trkpt lat="29.5038942" lon="103.307435"><ele>2426.54</ele><time>2026-08-14T23:14:18.000Z</time></trkpt>
        <trkpt lat="29.5039759" lon="103.307373"><ele>2421.17</ele><time>2026-08-14T23:14:40.000Z</time></trkpt>
        <trkpt lat="29.5040399" lon="103.3072686"><ele>2417.03</ele><time>2026-08-14T23:15:07.000Z</time></trkpt>
        <trkpt lat="29.5040837" lon="103.3071646"><ele>2410.62</ele><time>2026-08-14T23:15:17.000Z</time></trkpt>
        <trkpt lat="29.5041183" lon="103.3070624"><ele>2405.1</ele><time>2026-08-14T23:15:39.000Z</time></trkpt>
        <trkpt lat="29.5041492" lon="103.3069617"><ele>2398.43</ele><time>2026-08-14T23:15:51.000Z</time></trkpt>
        <trkpt lat="29.5041753" lon="103.3068562"><ele>2393.73</ele><time>2026-08-14T23:16:03.000Z</time></trkpt>
        <trkpt lat="29.5042191" lon="103.3067605"><ele>2389.3</ele><time>2026-08-14T23:16:17.000Z</time></trkpt>
        <trkpt lat="29.5042858" lon="103.3066801"><ele>2385.21</ele><time>2026-08-14T23:16:29.000Z</time></trkpt>
        <trkpt lat="29.5043344" lon="103.3065821"><ele>2381.27</ele><time>2026-08-14T23:16:45.000Z</time></trkpt>
        <trkpt lat="29.5043691" lon="103.3064709"><ele>2377.57</ele><time>2026-08-14T23:16:59.000Z</time></trkpt>
        <trkpt lat="29.504439" lon="103.3064011"><ele>2373.45</ele><time>2026-08-14T23:17:11.000Z</time></trkpt>
        <trkpt lat="29.5045125" lon="103.3063359"><ele>2369.75</ele><time>2026-08-14T23:17:25.000Z</time></trkpt>
        <trkpt lat="29.5045974" lon="103.3062821"><ele>2365.43</ele><time>2026-08-14T23:17:59.000Z</time></trkpt>
        <trkpt lat="29.5046525" lon="103.3061969"><ele>2358.19</ele><time>2026-08-14T23:18:15.000Z</time></trkpt>
        <trkpt lat="29.5047027" lon="103.3060932"><ele>2351.75</ele><time>2026-08-14T23:18:29.000Z</time></trkpt>
        <trkpt lat="29.5047221" lon="103.3059781"><ele>2345.65</ele><time>2026-08-14T23:18:43.000Z</time></trkpt>
        <trkpt lat="29.5046894" lon="103.3058661"><ele>2340.77</ele><time>2026-08-14T23:19:01.000Z</time></trkpt>
        <trkpt lat="29.5046742" lon="103.3057452"><ele>2336.26</ele><time>2026-08-14T23:19:13.000Z</time></trkpt>
        <trkpt lat="29.5047024" lon="103.3056447"><ele>2331.63</ele><time>2026-08-14T23:19:25.000Z</time></trkpt>
        <trkpt lat="29.5047705" lon="103.3055581"><ele>2328.41</ele><time>2026-08-14T23:19:39.000Z</time></trkpt>
        <trkpt lat="29.5048055" lon="103.305453"><ele>2325.59</ele><time>2026-08-14T23:19:51.000Z</time></trkpt>
        <trkpt lat="29.5048139" lon="103.3053342"><ele>2323.66</ele><time>2026-08-14T23:20:11.000Z</time></trkpt>
        <trkpt lat="29.5048658" lon="103.305251"><ele>2322.07</ele><time>2026-08-14T23:20:21.000Z</time></trkpt>
        <trkpt lat="29.5049465" lon="103.3052105"><ele>2320.77</ele><time>2026-08-14T23:20:31.000Z</time></trkpt>
        <trkpt lat="29.5050146" lon="103.3051382"><ele>2319.11</ele><time>2026-08-14T23:20:41.000Z</time></trkpt>
        <trkpt lat="29.5050602" lon="103.3050385"><ele>2318.23</ele><time>2026-08-14T23:22:51.000Z</time></trkpt>
        <trkpt lat="29.505064" lon="103.3049316"><ele>2316.29</ele><time>2026-08-14T23:23:03.000Z</time></trkpt>
        <trkpt lat="29.5050017" lon="103.3048313"><ele>2315.84</ele><time>2026-08-14T23:23:17.000Z</time></trkpt>
        <trkpt lat="29.5049718" lon="103.3047085"><ele>2315.94</ele><time>2026-08-14T23:23:27.000Z</time></trkpt>
        <trkpt lat="29.5049746" lon="103.3045845"><ele>2315.97</ele><time>2026-08-14T23:23:39.000Z</time></trkpt>
        <trkpt lat="29.5050192" lon="103.3044893"><ele>2314.8</ele><time>2026-08-14T23:23:49.000Z</time></trkpt>
        <trkpt lat="29.5051019" lon="103.3044453"><ele>2313.81</ele><time>2026-08-14T23:23:59.000Z</time></trkpt>
        <trkpt lat="29.5051922" lon="103.3043787"><ele>2312.65</ele><time>2026-08-14T23:24:15.000Z</time></trkpt>
        <trkpt lat="29.5052643" lon="103.3042832"><ele>2311.31</ele><time>2026-08-14T23:24:24.000Z</time></trkpt>
        <trkpt lat="29.505313" lon="103.304165"><ele>2309.88</ele><time>2026-08-14T23:24:32.000Z</time></trkpt>
        <trkpt lat="29.5053485" lon="103.3040456"><ele>2308.72</ele><time>2026-08-14T23:24:38.000Z</time></trkpt>
        <trkpt lat="29.5053775" lon="103.3039161"><ele>2307.74</ele><time>2026-08-14T23:24:46.000Z</time></trkpt>
        <trkpt lat="29.5054398" lon="103.3038185"><ele>2306.36</ele><time>2026-08-14T23:24:54.000Z</time></trkpt>
        <trkpt lat="29.5054751" lon="103.3037106"><ele>2305.11</ele><time>2026-08-14T23:25:04.000Z</time></trkpt>
        <trkpt lat="29.5054292" lon="103.3036151"><ele>2303.9</ele><time>2026-08-14T23:25:16.000Z</time></trkpt>
        <trkpt lat="29.5053429" lon="103.3035528"><ele>2301.66</ele><time>2026-08-14T23:25:28.000Z</time></trkpt>
        <trkpt lat="29.5052453" lon="103.3035133"><ele>2300.4</ele><time>2026-08-14T23:25:38.000Z</time></trkpt>
        <trkpt lat="29.5051713" lon="103.303434"><ele>2299.21</ele><time>2026-08-14T23:25:48.000Z</time></trkpt>
        <trkpt lat="29.5051477" lon="103.3033781"><ele>2298.42</ele><time>2026-08-14T23:25:52.000Z</time></trkpt>
        <trkpt lat="29.5051602" lon="103.3032798"><ele>2297.37</ele><time>2026-08-14T23:26:02.000Z</time></trkpt>
        <trkpt lat="29.5051747" lon="103.3031711"><ele>2296.13</ele><time>2026-08-14T23:26:10.000Z</time></trkpt>
        <trkpt lat="29.5051307" lon="103.3030834"><ele>2294.37</ele><time>2026-08-14T23:26:18.000Z</time></trkpt>
        <trkpt lat="29.5050492" lon="103.3030451"><ele>2293.16</ele><time>2026-08-14T23:26:26.000Z</time></trkpt>
        <trkpt lat="29.5049403" lon="103.3030589"><ele>2292.19</ele><time>2026-08-14T23:26:36.000Z</time></trkpt>
        <trkpt lat="29.5048405" lon="103.3031003"><ele>2290.86</ele><time>2026-08-14T23:26:44.000Z</time></trkpt>
        <trkpt lat="29.5047357" lon="103.3031474"><ele>2289.5</ele><time>2026-08-14T23:26:54.000Z</time></trkpt>
        <trkpt lat="29.5046461" lon="103.30321"><ele>2288.06</ele><time>2026-08-14T23:27:04.000Z</time></trkpt>
        <trkpt lat="29.5045601" lon="103.3032644"><ele>2285.75</ele><time>2026-08-14T23:27:20.000Z</time></trkpt>
        <trkpt lat="29.5044779" lon="103.3033138"><ele>2282.34</ele><time>2026-08-14T23:27:24.000Z</time></trkpt>
        <trkpt lat="29.504401" lon="103.3032803"><ele>2280.08</ele><time>2026-08-14T23:27:30.000Z</time></trkpt>
        <trkpt lat="29.5043901" lon="103.3031707"><ele>2278.12</ele><time>2026-08-14T23:27:38.000Z</time></trkpt>
        <trkpt lat="29.5044086" lon="103.3030492"><ele>2275.58</ele><time>2026-08-14T23:27:46.000Z</time></trkpt>
        <trkpt lat="29.5044525" lon="103.3029415"><ele>2273.49</ele><time>2026-08-14T23:27:54.000Z</time></trkpt>
        <trkpt lat="29.5045179" lon="103.3028371"><ele>2271.23</ele><time>2026-08-14T23:28:00.000Z</time></trkpt>
        <trkpt lat="29.5045906" lon="103.3027353"><ele>2269.28</ele><time>2026-08-14T23:28:08.000Z</time></trkpt>
        <trkpt lat="29.5046572" lon="103.3026409"><ele>2267.46</ele><time>2026-08-14T23:28:16.000Z</time></trkpt>
        <trkpt lat="29.5047069" lon="103.3025264"><ele>2265.53</ele><time>2026-08-14T23:28:26.000Z</time></trkpt>
        <trkpt lat="29.5046994" lon="103.3024042"><ele>2263.21</ele><time>2026-08-14T23:28:35.000Z</time></trkpt>
        <trkpt lat="29.5046415" lon="103.3023146"><ele>2260.58</ele><time>2026-08-14T23:28:45.000Z</time></trkpt>
        <trkpt lat="29.5045414" lon="103.3022664"><ele>2258.4</ele><time>2026-08-14T23:28:55.000Z</time></trkpt>
        <trkpt lat="29.5044606" lon="103.3021804"><ele>2256.61</ele><time>2026-08-14T23:29:27.000Z</time></trkpt>
        <trkpt lat="29.5044116" lon="103.302072"><ele>2255.33</ele><time>2026-08-14T23:29:35.000Z</time></trkpt>
        <trkpt lat="29.5043599" lon="103.3019788"><ele>2254.72</ele><time>2026-08-14T23:29:43.000Z</time></trkpt>
        <trkpt lat="29.5042948" lon="103.3018755"><ele>2254.01</ele><time>2026-08-14T23:29:53.000Z</time></trkpt>
        <trkpt lat="29.5042345" lon="103.3017856"><ele>2253.1</ele><time>2026-08-14T23:30:01.000Z</time></trkpt>
        <trkpt lat="29.5041707" lon="103.3016897"><ele>2252.43</ele><time>2026-08-14T23:30:11.000Z</time></trkpt>
        <trkpt lat="29.50412" lon="103.3015969"><ele>2251.29</ele><time>2026-08-14T23:30:19.000Z</time></trkpt>
        <trkpt lat="29.5040786" lon="103.3014995"><ele>2249.83</ele><time>2026-08-14T23:30:27.000Z</time></trkpt>
        <trkpt lat="29.5040328" lon="103.3014004"><ele>2248.52</ele><time>2026-08-14T23:30:37.000Z</time></trkpt>
        <trkpt lat="29.5039989" lon="103.3012951"><ele>2248.89</ele><time>2026-08-14T23:30:45.000Z</time></trkpt>
        <trkpt lat="29.5039477" lon="103.3012049"><ele>2249.12</ele><time>2026-08-14T23:30:53.000Z</time></trkpt>
        <trkpt lat="29.5038865" lon="103.3011092"><ele>2249.79</ele><time>2026-08-14T23:31:01.000Z</time></trkpt>
        <trkpt lat="29.5038294" lon="103.3010224"><ele>2250.31</ele><time>2026-08-14T23:31:09.000Z</time></trkpt>
        <trkpt lat="29.5037617" lon="103.3009331"><ele>2250.91</ele><time>2026-08-14T23:31:17.000Z</time></trkpt>
        <trkpt lat="29.5037004" lon="103.3008424"><ele>2250.88</ele><time>2026-08-14T23:31:25.000Z</time></trkpt>
        <trkpt lat="29.5036464" lon="103.3007452"><ele>2250.4</ele><time>2026-08-14T23:31:33.000Z</time></trkpt>
        <trkpt lat="29.5036051" lon="103.3006401"><ele>2250.26</ele><time>2026-08-14T23:31:41.000Z</time></trkpt>
        <trkpt lat="29.5035696" lon="103.3005381"><ele>2250.42</ele><time>2026-08-14T23:31:49.000Z</time></trkpt>
        <trkpt lat="29.5035323" lon="103.3004379"><ele>2250.21</ele><time>2026-08-14T23:31:57.000Z</time></trkpt>
        <trkpt lat="29.5034951" lon="103.3003384"><ele>2249.54</ele><time>2026-08-14T23:32:05.000Z</time></trkpt>
        <trkpt lat="29.503459" lon="103.3002278"><ele>2248.46</ele><time>2026-08-14T23:32:13.000Z</time></trkpt>
        <trkpt lat="29.5034346" lon="103.3001074"><ele>2247.54</ele><time>2026-08-14T23:32:21.000Z</time></trkpt>
        <trkpt lat="29.5034444" lon="103.2999896"><ele>2246.12</ele><time>2026-08-14T23:32:29.000Z</time></trkpt>
        <trkpt lat="29.5034617" lon="103.299868"><ele>2244.47</ele><time>2026-08-14T23:32:37.000Z</time></trkpt>
        <trkpt lat="29.5034837" lon="103.2997567"><ele>2242.88</ele><time>2026-08-14T23:32:45.000Z</time></trkpt>
        <trkpt lat="29.5035102" lon="103.2996381"><ele>2241.21</ele><time>2026-08-14T23:32:55.000Z</time></trkpt>
        <trkpt lat="29.5035128" lon="103.2995222"><ele>2239.79</ele><time>2026-08-14T23:33:03.000Z</time></trkpt>
        <trkpt lat="29.5035102" lon="103.2994132"><ele>2238.42</ele><time>2026-08-14T23:33:11.000Z</time></trkpt>
        <trkpt lat="29.5035094" lon="103.2993067"><ele>2237.19</ele><time>2026-08-14T23:33:19.000Z</time></trkpt>
        <trkpt lat="29.5034942" lon="103.2992007"><ele>2235.92</ele><time>2026-08-14T23:33:27.000Z</time></trkpt>
        <trkpt lat="29.5034813" lon="103.2990831"><ele>2234.4</ele><time>2026-08-14T23:33:37.000Z</time></trkpt>
        <trkpt lat="29.5035031" lon="103.2989667"><ele>2233.36</ele><time>2026-08-14T23:33:47.000Z</time></trkpt>
        <trkpt lat="29.5035823" lon="103.2988857"><ele>2232.24</ele><time>2026-08-14T23:33:55.000Z</time></trkpt>
        <trkpt lat="29.5036766" lon="103.2988408"><ele>2231.11</ele><time>2026-08-14T23:34:03.000Z</time></trkpt>
        <trkpt lat="29.5037708" lon="103.2988073"><ele>2229.94</ele><time>2026-08-14T23:34:11.000Z</time></trkpt>
        <trkpt lat="29.5038578" lon="103.2987635"><ele>2228.98</ele><time>2026-08-14T23:34:19.000Z</time></trkpt>
        <trkpt lat="29.5039506" lon="103.2987367"><ele>2228.28</ele><time>2026-08-14T23:34:27.000Z</time></trkpt>
        <trkpt lat="29.5040479" lon="103.2987384"><ele>2227.94</ele><time>2026-08-14T23:34:35.000Z</time></trkpt>
        <trkpt lat="29.5041177" lon="103.2988238"><ele>2227.32</ele><time>2026-08-14T23:34:45.000Z</time></trkpt>
        <trkpt lat="29.5041554" lon="103.298949"><ele>2226.63</ele><time>2026-08-14T23:34:53.000Z</time></trkpt>
        <trkpt lat="29.5042012" lon="103.2990601"><ele>2226.53</ele><time>2026-08-14T23:35:01.000Z</time></trkpt>
        <trkpt lat="29.5042739" lon="103.2991379"><ele>2226.54</ele><time>2026-08-14T23:35:09.000Z</time></trkpt>
        <trkpt lat="29.5043715" lon="103.2991728"><ele>2226.51</ele><time>2026-08-14T23:35:17.000Z</time></trkpt>
        <trkpt lat="29.5044773" lon="103.2991642"><ele>2226.09</ele><time>2026-08-14T23:35:25.000Z</time></trkpt>
        <trkpt lat="29.5045898" lon="103.2991424"><ele>2225.42</ele><time>2026-08-14T23:35:33.000Z</time></trkpt>
        <trkpt lat="29.5046933" lon="103.2991425"><ele>2223.74</ele><time>2026-08-14T23:35:41.000Z</time></trkpt>
        <trkpt lat="29.504801" lon="103.2991535"><ele>2221.71</ele><time>2026-08-14T23:35:51.000Z</time></trkpt>
        <trkpt lat="29.5049" lon="103.2991571"><ele>2219.94</ele><time>2026-08-14T23:35:59.000Z</time></trkpt>
        <trkpt lat="29.5050013" lon="103.2991749"><ele>2218.35</ele><time>2026-08-14T23:36:09.000Z</time></trkpt>
        <trkpt lat="29.5050809" lon="103.2992267"><ele>2217.25</ele><time>2026-08-14T23:36:17.000Z</time></trkpt>
        <trkpt lat="29.5051783" lon="103.2992557"><ele>2215.85</ele><time>2026-08-14T23:36:27.000Z</time></trkpt>
        <trkpt lat="29.5052649" lon="103.2992055"><ele>2214.61</ele><time>2026-08-14T23:36:35.000Z</time></trkpt>
        <trkpt lat="29.5053128" lon="103.2990977"><ele>2213.36</ele><time>2026-08-14T23:36:43.000Z</time></trkpt>
        <trkpt lat="29.5053369" lon="103.298979"><ele>2212.05</ele><time>2026-08-14T23:36:51.000Z</time></trkpt>
        <trkpt lat="29.5053747" lon="103.2988732"><ele>2211.3</ele><time>2026-08-14T23:36:59.000Z</time></trkpt>
        <trkpt lat="29.5054215" lon="103.29877"><ele>2210.68</ele><time>2026-08-14T23:37:07.000Z</time></trkpt>
        <trkpt lat="29.5054765" lon="103.2986745"><ele>2210.02</ele><time>2026-08-14T23:37:15.000Z</time></trkpt>
        <trkpt lat="29.5055272" lon="103.2985709"><ele>2209.74</ele><time>2026-08-14T23:37:23.000Z</time></trkpt>
        <trkpt lat="29.5055628" lon="103.2984526"><ele>2209.16</ele><time>2026-08-14T23:37:31.000Z</time></trkpt>
        <trkpt lat="29.5056159" lon="103.2983581"><ele>2208.45</ele><time>2026-08-14T23:37:39.000Z</time></trkpt>
        <trkpt lat="29.5057061" lon="103.2982903"><ele>2207.41</ele><time>2026-08-14T23:37:47.000Z</time></trkpt>
        <trkpt lat="29.5058181" lon="103.2982546"><ele>2206.44</ele><time>2026-08-14T23:37:55.000Z</time></trkpt>
        <trkpt lat="29.5059227" lon="103.2982286"><ele>2205.52</ele><time>2026-08-14T23:38:03.000Z</time></trkpt>
        <trkpt lat="29.5060194" lon="103.2981748"><ele>2204.22</ele><time>2026-08-14T23:38:11.000Z</time></trkpt>
        <trkpt lat="29.5060994" lon="103.2981031"><ele>2202.93</ele><time>2026-08-14T23:38:19.000Z</time></trkpt>
        <trkpt lat="29.5061561" lon="103.2980082"><ele>2201.72</ele><time>2026-08-14T23:38:27.000Z</time></trkpt>
        <trkpt lat="29.5062137" lon="103.2979117"><ele>2200.82</ele><time>2026-08-14T23:38:35.000Z</time></trkpt>
        <trkpt lat="29.5062964" lon="103.2978452"><ele>2200.08</ele><time>2026-08-14T23:38:43.000Z</time></trkpt>
        <trkpt lat="29.506392" lon="103.2978194"><ele>2199.45</ele><time>2026-08-14T23:38:51.000Z</time></trkpt>
        <trkpt lat="29.5065028" lon="103.297819"><ele>2199.12</ele><time>2026-08-14T23:38:59.000Z</time></trkpt>
        <trkpt lat="29.5065951" lon="103.2977906"><ele>2198.18</ele><time>2026-08-14T23:39:07.000Z</time></trkpt>
        <trkpt lat="29.5066276" lon="103.297686"><ele>2196.9</ele><time>2026-08-14T23:39:17.000Z</time></trkpt>
        <trkpt lat="29.5066055" lon="103.2975594"><ele>2196.24</ele><time>2026-08-14T23:39:25.000Z</time></trkpt>
        <trkpt lat="29.5065869" lon="103.2975035"><ele>2195.1</ele><time>2026-08-14T23:39:27.000Z</time></trkpt>
        <trkpt lat="29.5065759" lon="103.2974137"><ele>2194.18</ele><time>2026-08-14T23:39:35.000Z</time></trkpt>
        <trkpt lat="29.5065914" lon="103.2972923"><ele>2193.14</ele><time>2026-08-14T23:39:43.000Z</time></trkpt>
        <trkpt lat="29.5066204" lon="103.2971601"><ele>2192.56</ele><time>2026-08-14T23:39:51.000Z</time></trkpt>
        <trkpt lat="29.5066604" lon="103.2970318"><ele>2191.94</ele><time>2026-08-14T23:39:59.000Z</time></trkpt>
        <trkpt lat="29.5066745" lon="103.2969067"><ele>2191.11</ele><time>2026-08-14T23:40:07.000Z</time></trkpt>
        <trkpt lat="29.5066664" lon="103.2967835"><ele>2189.71</ele><time>2026-08-14T23:40:15.000Z</time></trkpt>
        <trkpt lat="29.5066681" lon="103.2966668"><ele>2187.82</ele><time>2026-08-14T23:40:23.000Z</time></trkpt>
        <trkpt lat="29.5066822" lon="103.2965469"><ele>2186.05</ele><time>2026-08-14T23:40:32.000Z</time></trkpt>
        <trkpt lat="29.5066853" lon="103.2964254"><ele>2184.15</ele><time>2026-08-14T23:40:40.000Z</time></trkpt>
        <trkpt lat="29.506674" lon="103.2963032"><ele>2182.06</ele><time>2026-08-14T23:40:48.000Z</time></trkpt>
        <trkpt lat="29.5066648" lon="103.2961867"><ele>2180.51</ele><time>2026-08-14T23:40:56.000Z</time></trkpt>
        <trkpt lat="29.5066616" lon="103.2960724"><ele>2179.35</ele><time>2026-08-14T23:41:04.000Z</time></trkpt>
        <trkpt lat="29.5066625" lon="103.2959585"><ele>2178.07</ele><time>2026-08-14T23:41:12.000Z</time></trkpt>
        <trkpt lat="29.5066877" lon="103.2958388"><ele>2176.8</ele><time>2026-08-14T23:41:20.000Z</time></trkpt>
        <trkpt lat="29.5067158" lon="103.2957283"><ele>2176.12</ele><time>2026-08-14T23:41:28.000Z</time></trkpt>
        <trkpt lat="29.5067491" lon="103.2956156"><ele>2175.14</ele><time>2026-08-14T23:41:36.000Z</time></trkpt>
        <trkpt lat="29.5067849" lon="103.2955076"><ele>2173.8</ele><time>2026-08-14T23:41:42.000Z</time></trkpt>
        <trkpt lat="29.5068179" lon="103.2954011"><ele>2172.97</ele><time>2026-08-14T23:41:50.000Z</time></trkpt>
        <trkpt lat="29.5068164" lon="103.2952834"><ele>2171.58</ele><time>2026-08-14T23:42:00.000Z</time></trkpt>
        <trkpt lat="29.5067949" lon="103.2951671"><ele>2169.13</ele><time>2026-08-14T23:42:08.000Z</time></trkpt>
        <trkpt lat="29.5067666" lon="103.2950404"><ele>2167.13</ele><time>2026-08-14T23:42:16.000Z</time></trkpt>
        <trkpt lat="29.5067392" lon="103.2949214"><ele>2165.8</ele><time>2026-08-14T23:42:24.000Z</time></trkpt>
        <trkpt lat="29.5067094" lon="103.2948003"><ele>2164.04</ele><time>2026-08-14T23:42:34.000Z</time></trkpt>
        <trkpt lat="29.5067195" lon="103.294707"><ele>2162.23</ele><time>2026-08-14T23:42:42.000Z</time></trkpt>
        <trkpt lat="29.5067576" lon="103.2946124"><ele>2160.48</ele><time>2026-08-14T23:42:54.000Z</time></trkpt>
        <trkpt lat="29.5067954" lon="103.2945101"><ele>2158.23</ele><time>2026-08-14T23:43:04.000Z</time></trkpt>
        <trkpt lat="29.5068005" lon="103.2944044"><ele>2156.07</ele><time>2026-08-14T23:43:14.000Z</time></trkpt>
        <trkpt lat="29.5067823" lon="103.294326"><ele>2154.42</ele><time>2026-08-14T23:43:24.000Z</time></trkpt>
        <trkpt lat="29.506715" lon="103.2942522"><ele>2153.58</ele><time>2026-08-14T23:43:40.000Z</time></trkpt>
        <trkpt lat="29.5066246" lon="103.2942187"><ele>2152.85</ele><time>2026-08-14T23:43:48.000Z</time></trkpt>
        <trkpt lat="29.506515" lon="103.2942162"><ele>2152.49</ele><time>2026-08-14T23:43:56.000Z</time></trkpt>
        <trkpt lat="29.5064131" lon="103.2942223"><ele>2152.67</ele><time>2026-08-14T23:44:04.000Z</time></trkpt>
        <trkpt lat="29.5063153" lon="103.2941997"><ele>2152.57</ele><time>2026-08-14T23:44:14.000Z</time></trkpt>
        <trkpt lat="29.5062315" lon="103.294153"><ele>2152.24</ele><time>2026-08-14T23:44:24.000Z</time></trkpt>
        <trkpt lat="29.5061561" lon="103.2940751"><ele>2151.55</ele><time>2026-08-14T23:44:34.000Z</time></trkpt>
        <trkpt lat="29.5060845" lon="103.293993"><ele>2149.98</ele><time>2026-08-14T23:44:44.000Z</time></trkpt>
        <trkpt lat="29.5060078" lon="103.2939119"><ele>2147.71</ele><time>2026-08-14T23:44:56.000Z</time></trkpt>
        <trkpt lat="29.5059617" lon="103.2938155"><ele>2144.78</ele><time>2026-08-14T23:45:06.000Z</time></trkpt>
        <trkpt lat="29.5059524" lon="103.2937087"><ele>2141.97</ele><time>2026-08-14T23:45:16.000Z</time></trkpt>
        <trkpt lat="29.5059606" lon="103.2935935"><ele>2138.75</ele><time>2026-08-14T23:45:28.000Z</time></trkpt>
        <trkpt lat="29.5059794" lon="103.2934707"><ele>2135.87</ele><time>2026-08-14T23:45:38.000Z</time></trkpt>
        <trkpt lat="29.506014" lon="103.2933521"><ele>2133.79</ele><time>2026-08-14T23:45:46.000Z</time></trkpt>
        <trkpt lat="29.5060696" lon="103.2932531"><ele>2132.39</ele><time>2026-08-14T23:45:54.000Z</time></trkpt>
        <trkpt lat="29.5061553" lon="103.2931961"><ele>2131.54</ele><time>2026-08-14T23:46:02.000Z</time></trkpt>
        <trkpt lat="29.5062499" lon="103.2931477"><ele>2130.51</ele><time>2026-08-14T23:46:12.000Z</time></trkpt>
        <trkpt lat="29.5063063" lon="103.2930538"><ele>2128.93</ele><time>2026-08-14T23:46:22.000Z</time></trkpt>
        <trkpt lat="29.5062808" lon="103.2929471"><ele>2127.19</ele><time>2026-08-14T23:46:32.000Z</time></trkpt>
        <trkpt lat="29.5062064" lon="103.2928487"><ele>2125.43</ele><time>2026-08-14T23:46:40.000Z</time></trkpt>
        <trkpt lat="29.5061235" lon="103.2927662"><ele>2123.98</ele><time>2026-08-14T23:46:48.000Z</time></trkpt>
        <trkpt lat="29.5060442" lon="103.2926898"><ele>2122.89</ele><time>2026-08-14T23:46:56.000Z</time></trkpt>
        <trkpt lat="29.5059696" lon="103.2926036"><ele>2122.39</ele><time>2026-08-14T23:47:06.000Z</time></trkpt>
        <trkpt lat="29.505904" lon="103.292513"><ele>2121.16</ele><time>2026-08-14T23:47:16.000Z</time></trkpt>
        <trkpt lat="29.5058394" lon="103.2924095"><ele>2119.64</ele><time>2026-08-14T23:47:26.000Z</time></trkpt>
        <trkpt lat="29.5057835" lon="103.2923016"><ele>2118.42</ele><time>2026-08-14T23:47:34.000Z</time></trkpt>
        <trkpt lat="29.505755" lon="103.2921931"><ele>2117.44</ele><time>2026-08-14T23:47:44.000Z</time></trkpt>
        <trkpt lat="29.5056887" lon="103.2921136"><ele>2116.39</ele><time>2026-08-14T23:47:54.000Z</time></trkpt>
        <trkpt lat="29.5055982" lon="103.292091"><ele>2115.41</ele><time>2026-08-14T23:48:06.000Z</time></trkpt>
        <trkpt lat="29.5054971" lon="103.2920879"><ele>2113.88</ele><time>2026-08-14T23:48:18.000Z</time></trkpt>
        <trkpt lat="29.5053983" lon="103.2920536"><ele>2111.62</ele><time>2026-08-14T23:48:28.000Z</time></trkpt>
        <trkpt lat="29.5053164" lon="103.2919933"><ele>2109.83</ele><time>2026-08-14T23:48:38.000Z</time></trkpt>
        <trkpt lat="29.5052398" lon="103.2919122"><ele>2108.2</ele><time>2026-08-14T23:48:48.000Z</time></trkpt>
        <trkpt lat="29.5051747" lon="103.2918192"><ele>2106.4</ele><time>2026-08-14T23:48:56.000Z</time></trkpt>
        <trkpt lat="29.5051189" lon="103.2917294"><ele>2104.41</ele><time>2026-08-14T23:49:04.000Z</time></trkpt>
        <trkpt lat="29.5050499" lon="103.2916368"><ele>2102.47</ele><time>2026-08-14T23:49:14.000Z</time></trkpt>
        <trkpt lat="29.504975" lon="103.2915439"><ele>2100.52</ele><time>2026-08-14T23:49:24.000Z</time></trkpt>
        <trkpt lat="29.5048853" lon="103.2914628"><ele>2098.76</ele><time>2026-08-14T23:49:34.000Z</time></trkpt>
        <trkpt lat="29.5048106" lon="103.2913806"><ele>2097.09</ele><time>2026-08-14T23:49:42.000Z</time></trkpt>
        <trkpt lat="29.5047482" lon="103.2912976"><ele>2095.76</ele><time>2026-08-14T23:49:50.000Z</time></trkpt>
        <trkpt lat="29.5046799" lon="103.2912197"><ele>2094.45</ele><time>2026-08-14T23:49:58.000Z</time></trkpt>
        <trkpt lat="29.5046088" lon="103.2911552"><ele>2093.21</ele><time>2026-08-14T23:50:06.000Z</time></trkpt>
        <trkpt lat="29.5045278" lon="103.2910952"><ele>2092.27</ele><time>2026-08-14T23:50:16.000Z</time></trkpt>
        <trkpt lat="29.5044462" lon="103.2910245"><ele>2090.89</ele><time>2026-08-14T23:50:26.000Z</time></trkpt>
        <trkpt lat="29.504375" lon="103.2909491"><ele>2090.01</ele><time>2026-08-14T23:50:34.000Z</time></trkpt>
        <trkpt lat="29.5043338" lon="103.2908437"><ele>2089.47</ele><time>2026-08-14T23:50:44.000Z</time></trkpt>
        <trkpt lat="29.5043203" lon="103.2907218"><ele>2088.67</ele><time>2026-08-14T23:50:54.000Z</time></trkpt>
        <trkpt lat="29.5043395" lon="103.2905958"><ele>2087.74</ele><time>2026-08-14T23:51:06.000Z</time></trkpt>
        <trkpt lat="29.5043881" lon="103.2904873"><ele>2086.07</ele><time>2026-08-14T23:51:16.000Z</time></trkpt>
        <trkpt lat="29.5044559" lon="103.2903979"><ele>2083.75</ele><time>2026-08-14T23:51:26.000Z</time></trkpt>
        <trkpt lat="29.5045217" lon="103.2903095"><ele>2080.82</ele><time>2026-08-14T23:51:36.000Z</time></trkpt>
        <trkpt lat="29.5045567" lon="103.290203"><ele>2078.83</ele><time>2026-08-14T23:51:46.000Z</time></trkpt>
        <trkpt lat="29.5044946" lon="103.2901351"><ele>2077.64</ele><time>2026-08-14T23:51:56.000Z</time></trkpt>
        <trkpt lat="29.5043893" lon="103.2901105"><ele>2075.75</ele><time>2026-08-14T23:52:04.000Z</time></trkpt>
        <trkpt lat="29.504277" lon="103.2901173"><ele>2075.05</ele><time>2026-08-14T23:52:14.000Z</time></trkpt>
        <trkpt lat="29.5041619" lon="103.2901206"><ele>2073.51</ele><time>2026-08-14T23:52:24.000Z</time></trkpt>
        <trkpt lat="29.5040561" lon="103.290102"><ele>2071.88</ele><time>2026-08-14T23:52:34.000Z</time></trkpt>
        <trkpt lat="29.5039614" lon="103.2900509"><ele>2069.72</ele><time>2026-08-14T23:52:44.000Z</time></trkpt>
        <trkpt lat="29.5039171" lon="103.2899537"><ele>2068.35</ele><time>2026-08-14T23:52:52.000Z</time></trkpt>
        <trkpt lat="29.5038923" lon="103.2898418"><ele>2067.28</ele><time>2026-08-14T23:53:00.000Z</time></trkpt>
        <trkpt lat="29.50382" lon="103.2897795"><ele>2066.97</ele><time>2026-08-14T23:53:10.000Z</time></trkpt>
        <trkpt lat="29.5037393" lon="103.2898126"><ele>2066.39</ele><time>2026-08-14T23:53:18.000Z</time></trkpt>
        <trkpt lat="29.5036395" lon="103.2898392"><ele>2065.69</ele><time>2026-08-14T23:53:28.000Z</time></trkpt>
        <trkpt lat="29.5035339" lon="103.2898345"><ele>2064.99</ele><time>2026-08-14T23:53:38.000Z</time></trkpt>
        <trkpt lat="29.5034262" lon="103.2898328"><ele>2063.59</ele><time>2026-08-14T23:53:48.000Z</time></trkpt>
        <trkpt lat="29.5033306" lon="103.289821"><ele>2061.7</ele><time>2026-08-14T23:53:56.000Z</time></trkpt>
        <trkpt lat="29.5032514" lon="103.2897539"><ele>2060.04</ele><time>2026-08-14T23:54:06.000Z</time></trkpt>
        <trkpt lat="29.5032111" lon="103.2896556"><ele>2058.06</ele><time>2026-08-14T23:54:14.000Z</time></trkpt>
        <trkpt lat="29.5031867" lon="103.2895493"><ele>2056.43</ele><time>2026-08-14T23:54:22.000Z</time></trkpt>
        <trkpt lat="29.503164" lon="103.289432"><ele>2055.35</ele><time>2026-08-14T23:54:32.000Z</time></trkpt>
        <trkpt lat="29.5031397" lon="103.2893245"><ele>2054.11</ele><time>2026-08-14T23:54:42.000Z</time></trkpt>
        <trkpt lat="29.5031034" lon="103.2892108"><ele>2053.64</ele><time>2026-08-14T23:54:52.000Z</time></trkpt>
        <trkpt lat="29.503065" lon="103.2890954"><ele>2053.29</ele><time>2026-08-14T23:55:02.000Z</time></trkpt>
        <trkpt lat="29.5030147" lon="103.2890028"><ele>2052.81</ele><time>2026-08-14T23:55:10.000Z</time></trkpt>
        <trkpt lat="29.502956" lon="103.2889075"><ele>2052.23</ele><time>2026-08-14T23:55:20.000Z</time></trkpt>
        <trkpt lat="29.5028894" lon="103.2888158"><ele>2051.67</ele><time>2026-08-14T23:55:30.000Z</time></trkpt>
        <trkpt lat="29.5028064" lon="103.2887309"><ele>2050.97</ele><time>2026-08-14T23:55:40.000Z</time></trkpt>
        <trkpt lat="29.5027413" lon="103.288625"><ele>2049.65</ele><time>2026-08-14T23:55:50.000Z</time></trkpt>
        <trkpt lat="29.5027012" lon="103.2885052"><ele>2048.2</ele><time>2026-08-14T23:56:00.000Z</time></trkpt>
        <trkpt lat="29.5026744" lon="103.2883811"><ele>2046.9</ele><time>2026-08-14T23:56:10.000Z</time></trkpt>
        <trkpt lat="29.502651" lon="103.2882624"><ele>2045.45</ele><time>2026-08-14T23:56:20.000Z</time></trkpt>
        <trkpt lat="29.5025885" lon="103.2881752"><ele>2044.14</ele><time>2026-08-14T23:56:30.000Z</time></trkpt>
        <trkpt lat="29.5024964" lon="103.2881456"><ele>2042.57</ele><time>2026-08-14T23:56:40.000Z</time></trkpt>
        <trkpt lat="29.5024224" lon="103.2881525"><ele>2040.9</ele><time>2026-08-14T23:56:50.000Z</time></trkpt>
        <trkpt lat="29.5023345" lon="103.288163"><ele>2039.17</ele><time>2026-08-14T23:57:40.000Z</time></trkpt>
        <trkpt lat="29.502239" lon="103.2881765"><ele>2036.61</ele><time>2026-08-14T23:58:12.000Z</time></trkpt>
        <trkpt lat="29.5021417" lon="103.2882058"><ele>2034.51</ele><time>2026-08-14T23:58:20.000Z</time></trkpt>
        <trkpt lat="29.5020431" lon="103.2882452"><ele>2032.99</ele><time>2026-08-14T23:58:30.000Z</time></trkpt>
        <trkpt lat="29.5019476" lon="103.2883039"><ele>2031.47</ele><time>2026-08-14T23:58:38.000Z</time></trkpt>
        <trkpt lat="29.5018593" lon="103.2883625"><ele>2030.04</ele><time>2026-08-14T23:58:47.000Z</time></trkpt>
        <trkpt lat="29.5017694" lon="103.2884135"><ele>2028.54</ele><time>2026-08-14T23:58:57.000Z</time></trkpt>
        <trkpt lat="29.5016641" lon="103.2884493"><ele>2027.32</ele><time>2026-08-14T23:59:06.000Z</time></trkpt>
        <trkpt lat="29.5015603" lon="103.288468"><ele>2025.85</ele><time>2026-08-14T23:59:14.000Z</time></trkpt>
        <trkpt lat="29.5014564" lon="103.2884869"><ele>2024.56</ele><time>2026-08-14T23:59:22.000Z</time></trkpt>
        <trkpt lat="29.5013657" lon="103.2885475"><ele>2023.48</ele><time>2026-08-14T23:59:30.000Z</time></trkpt>
        <trkpt lat="29.50128" lon="103.2886124"><ele>2022.58</ele><time>2026-08-14T23:59:38.000Z</time></trkpt>
        <trkpt lat="29.5011869" lon="103.2886656"><ele>2022.02</ele><time>2026-08-14T23:59:48.000Z</time></trkpt>
        <trkpt lat="29.5010948" lon="103.2886216"><ele>2021.56</ele><time>2026-08-14T23:59:58.000Z</time></trkpt>
        <trkpt lat="29.5010231" lon="103.2885191"><ele>2021.34</ele><time>2026-08-15T00:00:06.000Z</time></trkpt>
        <trkpt lat="29.5009734" lon="103.2884119"><ele>2021.11</ele><time>2026-08-15T00:00:14.000Z</time></trkpt>
        <trkpt lat="29.500939" lon="103.2883034"><ele>2020.81</ele><time>2026-08-15T00:00:22.000Z</time></trkpt>
        <trkpt lat="29.5009586" lon="103.2881807"><ele>2020.55</ele><time>2026-08-15T00:00:30.000Z</time></trkpt>
        <trkpt lat="29.5010192" lon="103.2880833"><ele>2019.86</ele><time>2026-08-15T00:00:38.000Z</time></trkpt>
        <trkpt lat="29.5010893" lon="103.287997"><ele>2019.15</ele><time>2026-08-15T00:00:48.000Z</time></trkpt>
        <trkpt lat="29.5011671" lon="103.2879314"><ele>2018.57</ele><time>2026-08-15T00:00:56.000Z</time></trkpt>
        <trkpt lat="29.5012665" lon="103.287907"><ele>2018.24</ele><time>2026-08-15T00:01:06.000Z</time></trkpt>
        <trkpt lat="29.5013619" lon="103.2878502"><ele>2017.42</ele><time>2026-08-15T00:01:16.000Z</time></trkpt>
        <trkpt lat="29.5014162" lon="103.2877556"><ele>2016.73</ele><time>2026-08-15T00:01:24.000Z</time></trkpt>
        <trkpt lat="29.5014146" lon="103.28763"><ele>2016.05</ele><time>2026-08-15T00:01:34.000Z</time></trkpt>
        <trkpt lat="29.501367" lon="103.2875068"><ele>2015.14</ele><time>2026-08-15T00:01:44.000Z</time></trkpt>
        <trkpt lat="29.501318" lon="103.2873987"><ele>2013.92</ele><time>2026-08-15T00:01:52.000Z</time></trkpt>
        <trkpt lat="29.5012747" lon="103.287286"><ele>2012.44</ele><time>2026-08-15T00:02:02.000Z</time></trkpt>
        <trkpt lat="29.5012688" lon="103.2871602"><ele>2010.09</ele><time>2026-08-15T00:02:12.000Z</time></trkpt>
        <trkpt lat="29.5013222" lon="103.2870698"><ele>2008.19</ele><time>2026-08-15T00:02:20.000Z</time></trkpt>
        <trkpt lat="29.5014042" lon="103.2869932"><ele>2006.96</ele><time>2026-08-15T00:02:28.000Z</time></trkpt>
        <trkpt lat="29.5014741" lon="103.2869029"><ele>2005.67</ele><time>2026-08-15T00:02:36.000Z</time></trkpt>
        <trkpt lat="29.5014413" lon="103.2868119"><ele>2004.66</ele><time>2026-08-15T00:02:48.000Z</time></trkpt>
        <trkpt lat="29.5013509" lon="103.2867892"><ele>2003.21</ele><time>2026-08-15T00:03:00.000Z</time></trkpt>
        <trkpt lat="29.5012373" lon="103.286803"><ele>2000.77</ele><time>2026-08-15T00:03:12.000Z</time></trkpt>
        <trkpt lat="29.5011182" lon="103.2868264"><ele>1998.56</ele><time>2026-08-15T00:03:22.000Z</time></trkpt>
        <trkpt lat="29.5010028" lon="103.2868378"><ele>1997.36</ele><time>2026-08-15T00:03:32.000Z</time></trkpt>
        <trkpt lat="29.5009056" lon="103.2868251"><ele>1996.72</ele><time>2026-08-15T00:03:40.000Z</time></trkpt>
        <trkpt lat="29.5008121" lon="103.2867798"><ele>1996.15</ele><time>2026-08-15T00:03:50.000Z</time></trkpt>
        <trkpt lat="29.5007266" lon="103.2867121"><ele>1994.79</ele><time>2026-08-15T00:04:00.000Z</time></trkpt>
        <trkpt lat="29.5006666" lon="103.2866156"><ele>1993.06</ele><time>2026-08-15T00:04:08.000Z</time></trkpt>
        <trkpt lat="29.5006067" lon="103.2865281"><ele>1991.24</ele><time>2026-08-15T00:04:16.000Z</time></trkpt>
        <trkpt lat="29.5005335" lon="103.2864641"><ele>1990.07</ele><time>2026-08-15T00:04:26.000Z</time></trkpt>
        <trkpt lat="29.5004504" lon="103.2864038"><ele>1989.23</ele><time>2026-08-15T00:04:36.000Z</time></trkpt>
        <trkpt lat="29.5003709" lon="103.2863328"><ele>1987.94</ele><time>2026-08-15T00:04:50.000Z</time></trkpt>
        <trkpt lat="29.5002878" lon="103.2862802"><ele>1986.55</ele><time>2026-08-15T00:05:02.000Z</time></trkpt>
        <trkpt lat="29.5001849" lon="103.2862804"><ele>1986.02</ele><time>2026-08-15T00:05:10.000Z</time></trkpt>
        <trkpt lat="29.5000878" lon="103.2862876"><ele>1986.14</ele><time>2026-08-15T00:05:18.000Z</time></trkpt>
        <trkpt lat="29.4999827" lon="103.2863055"><ele>1986.46</ele><time>2026-08-15T00:05:28.000Z</time></trkpt>
        <trkpt lat="29.4998879" lon="103.2863079"><ele>1986.94</ele><time>2026-08-15T00:05:36.000Z</time></trkpt>
        <trkpt lat="29.4997889" lon="103.2862799"><ele>1987.31</ele><time>2026-08-15T00:05:46.000Z</time></trkpt>
        <trkpt lat="29.4996881" lon="103.2862523"><ele>1987.45</ele><time>2026-08-15T00:05:54.000Z</time></trkpt>
        <trkpt lat="29.4995853" lon="103.2862093"><ele>1987.34</ele><time>2026-08-15T00:06:04.000Z</time></trkpt>
        <trkpt lat="29.4994906" lon="103.2861672"><ele>1987.12</ele><time>2026-08-15T00:06:14.000Z</time></trkpt>
        <trkpt lat="29.4994076" lon="103.2861095"><ele>1986.31</ele><time>2026-08-15T00:06:24.000Z</time></trkpt>
        <trkpt lat="29.4993271" lon="103.2860467"><ele>1985.5</ele><time>2026-08-15T00:06:32.000Z</time></trkpt>
        <trkpt lat="29.4992753" lon="103.2859375"><ele>1983.69</ele><time>2026-08-15T00:06:38.000Z</time></trkpt>
        <trkpt lat="29.4992464" lon="103.2858294"><ele>1981.53</ele><time>2026-08-15T00:06:44.000Z</time></trkpt>
        <trkpt lat="29.4992483" lon="103.2857132"><ele>1979.8</ele><time>2026-08-15T00:06:56.000Z</time></trkpt>
        <trkpt lat="29.4992319" lon="103.2855899"><ele>1978.53</ele><time>2026-08-15T00:07:06.000Z</time></trkpt>
        <trkpt lat="29.4991717" lon="103.2854997"><ele>1977.31</ele><time>2026-08-15T00:07:14.000Z</time></trkpt>
        <trkpt lat="29.4990877" lon="103.2854455"><ele>1976.47</ele><time>2026-08-15T00:07:24.000Z</time></trkpt>
        <trkpt lat="29.4990387" lon="103.2853631"><ele>1975.63</ele><time>2026-08-15T00:07:34.000Z</time></trkpt>
        <trkpt lat="29.4990408" lon="103.2852563"><ele>1974.07</ele><time>2026-08-15T00:07:46.000Z</time></trkpt>
        <trkpt lat="29.499078" lon="103.2851465"><ele>1971.98</ele><time>2026-08-15T00:07:54.000Z</time></trkpt>
        <trkpt lat="29.4991265" lon="103.285037"><ele>1970.7</ele><time>2026-08-15T00:08:02.000Z</time></trkpt>
        <trkpt lat="29.4991224" lon="103.2849343"><ele>1969.68</ele><time>2026-08-15T00:08:10.000Z</time></trkpt>
        <trkpt lat="29.499045" lon="103.2849032"><ele>1968.78</ele><time>2026-08-15T00:08:22.000Z</time></trkpt>
        <trkpt lat="29.4989467" lon="103.2849212"><ele>1967.65</ele><time>2026-08-15T00:08:32.000Z</time></trkpt>
        <trkpt lat="29.4988427" lon="103.2849245"><ele>1966.85</ele><time>2026-08-15T00:08:42.000Z</time></trkpt>
        <trkpt lat="29.4987446" lon="103.2849003"><ele>1965.77</ele><time>2026-08-15T00:08:48.000Z</time></trkpt>
        <trkpt lat="29.4986424" lon="103.2848587"><ele>1964.41</ele><time>2026-08-15T00:08:58.000Z</time></trkpt>
        <trkpt lat="29.4985481" lon="103.2847998"><ele>1962.22</ele><time>2026-08-15T00:09:06.000Z</time></trkpt>
        <trkpt lat="29.4984532" lon="103.2847588"><ele>1960.47</ele><time>2026-08-15T00:09:14.000Z</time></trkpt>
        <trkpt lat="29.4983507" lon="103.2847259"><ele>1959.15</ele><time>2026-08-15T00:09:24.000Z</time></trkpt>
        <trkpt lat="29.4982542" lon="103.2847016"><ele>1957.98</ele><time>2026-08-15T00:09:34.000Z</time></trkpt>
        <trkpt lat="29.4981601" lon="103.2846628"><ele>1957.25</ele><time>2026-08-15T00:09:44.000Z</time></trkpt>
        <trkpt lat="29.4980698" lon="103.2846351"><ele>1955.95</ele><time>2026-08-15T00:09:52.000Z</time></trkpt>
        <trkpt lat="29.4979735" lon="103.284629"><ele>1954.88</ele><time>2026-08-15T00:10:00.000Z</time></trkpt>
        <trkpt lat="29.4978804" lon="103.2846419"><ele>1953.76</ele><time>2026-08-15T00:10:08.000Z</time></trkpt>
        <trkpt lat="29.4977887" lon="103.2846604"><ele>1952.73</ele><time>2026-08-15T00:10:16.000Z</time></trkpt>
        <trkpt lat="29.4976887" lon="103.2846562"><ele>1951.47</ele><time>2026-08-15T00:10:26.000Z</time></trkpt>
        <trkpt lat="29.4976172" lon="103.2845794"><ele>1949.97</ele><time>2026-08-15T00:10:36.000Z</time></trkpt>
        <trkpt lat="29.4975736" lon="103.2844767"><ele>1948.03</ele><time>2026-08-15T00:10:44.000Z</time></trkpt>
        <trkpt lat="29.4975375" lon="103.284363"><ele>1945.89</ele><time>2026-08-15T00:10:52.000Z</time></trkpt>
        <trkpt lat="29.4974975" lon="103.2842605"><ele>1944.4</ele><time>2026-08-15T00:11:02.000Z</time></trkpt>
        <trkpt lat="29.4974259" lon="103.2841704"><ele>1943.05</ele><time>2026-08-15T00:11:14.000Z</time></trkpt>
        <trkpt lat="29.4973492" lon="103.2841027"><ele>1940.98</ele><time>2026-08-15T00:11:24.000Z</time></trkpt>
        <trkpt lat="29.4972778" lon="103.2840257"><ele>1939.91</ele><time>2026-08-15T00:11:36.000Z</time></trkpt>
        <trkpt lat="29.4972094" lon="103.2839498"><ele>1939.24</ele><time>2026-08-15T00:11:46.000Z</time></trkpt>
        <trkpt lat="29.4971566" lon="103.2838567"><ele>1938.01</ele><time>2026-08-15T00:11:56.000Z</time></trkpt>
        <trkpt lat="29.4971754" lon="103.2837515"><ele>1936.87</ele><time>2026-08-15T00:12:06.000Z</time></trkpt>
        <trkpt lat="29.4972052" lon="103.2836542"><ele>1935.7</ele><time>2026-08-15T00:12:16.000Z</time></trkpt>
        <trkpt lat="29.4971687" lon="103.2835666"><ele>1934.34</ele><time>2026-08-15T00:12:28.000Z</time></trkpt>
        <trkpt lat="29.4971036" lon="103.2834942"><ele>1933.65</ele><time>2026-08-15T00:12:38.000Z</time></trkpt>
        <trkpt lat="29.4970445" lon="103.2833982"><ele>1931.33</ele><time>2026-08-15T00:12:48.000Z</time></trkpt>
        <trkpt lat="29.4970145" lon="103.2832926"><ele>1929.16</ele><time>2026-08-15T00:12:56.000Z</time></trkpt>
        <trkpt lat="29.4969878" lon="103.2831898"><ele>1926.57</ele><time>2026-08-15T00:13:04.000Z</time></trkpt>
        <trkpt lat="29.4969411" lon="103.2830833"><ele>1924.72</ele><time>2026-08-15T00:13:14.000Z</time></trkpt>
        <trkpt lat="29.4968606" lon="103.2830102"><ele>1922.92</ele><time>2026-08-15T00:13:24.000Z</time></trkpt>
        <trkpt lat="29.4967972" lon="103.2830643"><ele>1921.4</ele><time>2026-08-15T00:13:49.000Z</time></trkpt>
        <trkpt lat="29.4967393" lon="103.2831632"><ele>1920.45</ele><time>2026-08-15T00:14:03.000Z</time></trkpt>
        <trkpt lat="29.496698" lon="103.2832821"><ele>1919.67</ele><time>2026-08-15T00:14:15.000Z</time></trkpt>
        <trkpt lat="29.4966613" lon="103.283396"><ele>1919.12</ele><time>2026-08-15T00:14:25.000Z</time></trkpt>
        <trkpt lat="29.4965964" lon="103.2834805"><ele>1918.63</ele><time>2026-08-15T00:14:35.000Z</time></trkpt>
        <trkpt lat="29.4964991" lon="103.2835293"><ele>1918.54</ele><time>2026-08-15T00:14:50.000Z</time></trkpt>
        <trkpt lat="29.4963939" lon="103.2835711"><ele>1918.31</ele><time>2026-08-15T00:14:59.000Z</time></trkpt>
        <trkpt lat="29.4962839" lon="103.2835782"><ele>1918.2</ele><time>2026-08-15T00:15:09.000Z</time></trkpt>
        <trkpt lat="29.4961781" lon="103.2835684"><ele>1918.02</ele><time>2026-08-15T00:15:19.000Z</time></trkpt>
        <trkpt lat="29.4960793" lon="103.2835552"><ele>1917.93</ele><time>2026-08-15T00:15:27.000Z</time></trkpt>
        <trkpt lat="29.4959835" lon="103.2835546"><ele>1917.93</ele><time>2026-08-15T00:15:35.000Z</time></trkpt>
        <trkpt lat="29.4958785" lon="103.2835313"><ele>1917.7</ele><time>2026-08-15T00:15:45.000Z</time></trkpt>
        <trkpt lat="29.4957886" lon="103.2834941"><ele>1917.51</ele><time>2026-08-15T00:15:53.000Z</time></trkpt>
        <trkpt lat="29.4956973" lon="103.283436"><ele>1916.88</ele><time>2026-08-15T00:16:03.000Z</time></trkpt>
        <trkpt lat="29.4956251" lon="103.2833486"><ele>1916.21</ele><time>2026-08-15T00:16:13.000Z</time></trkpt>
        <trkpt lat="29.495568" lon="103.2832468"><ele>1915.31</ele><time>2026-08-15T00:16:21.000Z</time></trkpt>
        <trkpt lat="29.4954824" lon="103.2832513"><ele>1914.7</ele><time>2026-08-15T00:16:31.000Z</time></trkpt>
        <trkpt lat="29.4953964" lon="103.2832967"><ele>1913.81</ele><time>2026-08-15T00:16:41.000Z</time></trkpt>
        <trkpt lat="29.4952996" lon="103.2833123"><ele>1912.77</ele><time>2026-08-15T00:16:51.000Z</time></trkpt>
        <trkpt lat="29.4951978" lon="103.2832894"><ele>1911.67</ele><time>2026-08-15T00:17:01.000Z</time></trkpt>
        <trkpt lat="29.4951151" lon="103.2832343"><ele>1910.6</ele><time>2026-08-15T00:17:09.000Z</time></trkpt>
        <trkpt lat="29.49503" lon="103.2831634"><ele>1909.9</ele><time>2026-08-15T00:17:19.000Z</time></trkpt>
        <trkpt lat="29.4949391" lon="103.2830951"><ele>1909.14</ele><time>2026-08-15T00:17:29.000Z</time></trkpt>
        <trkpt lat="29.4948487" lon="103.2830415"><ele>1908.55</ele><time>2026-08-15T00:17:39.000Z</time></trkpt>
        <trkpt lat="29.4947688" lon="103.2829828"><ele>1908.03</ele><time>2026-08-15T00:17:47.000Z</time></trkpt>
        <trkpt lat="29.4946841" lon="103.2829105"><ele>1907.53</ele><time>2026-08-15T00:17:57.000Z</time></trkpt>
        <trkpt lat="29.4945914" lon="103.282845"><ele>1906.89</ele><time>2026-08-15T00:18:07.000Z</time></trkpt>
        <trkpt lat="29.4944844" lon="103.2828285"><ele>1906.2</ele><time>2026-08-15T00:18:17.000Z</time></trkpt>
        <trkpt lat="29.4943739" lon="103.2828243"><ele>1905.35</ele><time>2026-08-15T00:18:27.000Z</time></trkpt>
        <trkpt lat="29.494279" lon="103.2828105"><ele>1904.71</ele><time>2026-08-15T00:18:35.000Z</time></trkpt>
        <trkpt lat="29.4941747" lon="103.2828083"><ele>1903.95</ele><time>2026-08-15T00:18:45.000Z</time></trkpt>
        <trkpt lat="29.4940665" lon="103.2828098"><ele>1903.16</ele><time>2026-08-15T00:18:55.000Z</time></trkpt>
        <trkpt lat="29.4940059" lon="103.2828002"><ele>1902.03</ele><time>2026-08-15T00:19:01.000Z</time></trkpt>
        <trkpt lat="29.49393" lon="103.2827629"><ele>1901.2</ele><time>2026-08-15T00:19:11.000Z</time></trkpt>
        <trkpt lat="29.4938433" lon="103.2827157"><ele>1900.4</ele><time>2026-08-15T00:19:19.000Z</time></trkpt>
        <trkpt lat="29.4937551" lon="103.2826609"><ele>1899.79</ele><time>2026-08-15T00:19:27.000Z</time></trkpt>
        <trkpt lat="29.493681" lon="103.2825932"><ele>1899.55</ele><time>2026-08-15T00:19:35.000Z</time></trkpt>
        <trkpt lat="29.4936166" lon="103.2825104"><ele>1899.03</ele><time>2026-08-15T00:19:43.000Z</time></trkpt>
        <trkpt lat="29.4935422" lon="103.2824293"><ele>1898.26</ele><time>2026-08-15T00:19:53.000Z</time></trkpt>
        <trkpt lat="29.4934548" lon="103.2823675"><ele>1897.6</ele><time>2026-08-15T00:20:03.000Z</time></trkpt>
        <trkpt lat="29.4933583" lon="103.2823592"><ele>1897.24</ele><time>2026-08-15T00:20:11.000Z</time></trkpt>
        <trkpt lat="29.4932651" lon="103.2823585"><ele>1896.63</ele><time>2026-08-15T00:20:19.000Z</time></trkpt>
        <trkpt lat="29.4931767" lon="103.28234"><ele>1896.45</ele><time>2026-08-15T00:20:27.000Z</time></trkpt>
        <trkpt lat="29.4930848" lon="103.2822899"><ele>1896.35</ele><time>2026-08-15T00:20:37.000Z</time></trkpt>
        <trkpt lat="29.493" lon="103.2822338"><ele>1896.24</ele><time>2026-08-15T00:20:45.000Z</time></trkpt>
        <trkpt lat="29.4929151" lon="103.2821829"><ele>1896.01</ele><time>2026-08-15T00:20:53.000Z</time></trkpt>
        <trkpt lat="29.4928256" lon="103.2822096"><ele>1895.81</ele><time>2026-08-15T00:21:01.000Z</time></trkpt>
        <trkpt lat="29.49276" lon="103.2822995"><ele>1895.68</ele><time>2026-08-15T00:21:09.000Z</time></trkpt>
        <trkpt lat="29.4927061" lon="103.2823968"><ele>1895.73</ele><time>2026-08-15T00:21:17.000Z</time></trkpt>
        <trkpt lat="29.4926296" lon="103.2824798"><ele>1895.68</ele><time>2026-08-15T00:21:31.000Z</time></trkpt>
        <trkpt lat="29.492552" lon="103.2825485"><ele>1895.5</ele><time>2026-08-15T00:21:39.000Z</time></trkpt>
        <trkpt lat="29.4924603" lon="103.2826109"><ele>1894.85</ele><time>2026-08-15T00:21:47.000Z</time></trkpt>
        <trkpt lat="29.492371" lon="103.2825967"><ele>1894.81</ele><time>2026-08-15T00:21:55.000Z</time></trkpt>
        <trkpt lat="29.4923308" lon="103.2825035"><ele>1894.75</ele><time>2026-08-15T00:22:03.000Z</time></trkpt>
        <trkpt lat="29.4922989" lon="103.2823743"><ele>1894.63</ele><time>2026-08-15T00:22:13.000Z</time></trkpt>
        <trkpt lat="29.4922546" lon="103.2822617"><ele>1894.28</ele><time>2026-08-15T00:22:21.000Z</time></trkpt>
        <trkpt lat="29.4921796" lon="103.2822007"><ele>1893.92</ele><time>2026-08-15T00:22:29.000Z</time></trkpt>
        <trkpt lat="29.492109" lon="103.2822638"><ele>1893.09</ele><time>2026-08-15T00:22:39.000Z</time></trkpt>
        <trkpt lat="29.4920587" lon="103.2823762"><ele>1892.36</ele><time>2026-08-15T00:22:49.000Z</time></trkpt>
        <trkpt lat="29.4920192" lon="103.2825046"><ele>1891.94</ele><time>2026-08-15T00:22:59.000Z</time></trkpt>
        <trkpt lat="29.4919786" lon="103.2826321"><ele>1891.43</ele><time>2026-08-15T00:23:09.000Z</time></trkpt>
        <trkpt lat="29.4919509" lon="103.2827605"><ele>1891.19</ele><time>2026-08-15T00:23:19.000Z</time></trkpt>
        <trkpt lat="29.4919332" lon="103.2828754"><ele>1890.74</ele><time>2026-08-15T00:23:27.000Z</time></trkpt>
        <trkpt lat="29.4919052" lon="103.2829898"><ele>1890.17</ele><time>2026-08-15T00:23:37.000Z</time></trkpt>
        <trkpt lat="29.4918667" lon="103.2830927"><ele>1889.86</ele><time>2026-08-15T00:23:45.000Z</time></trkpt>
        <trkpt lat="29.4918215" lon="103.2831856"><ele>1889.48</ele><time>2026-08-15T00:23:53.000Z</time></trkpt>
        <trkpt lat="29.4917573" lon="103.2832584"><ele>1889.05</ele><time>2026-08-15T00:24:01.000Z</time></trkpt>
        <trkpt lat="29.4916652" lon="103.2832674"><ele>1888.36</ele><time>2026-08-15T00:24:09.000Z</time></trkpt>
        <trkpt lat="29.4915687" lon="103.283249"><ele>1887.87</ele><time>2026-08-15T00:24:17.000Z</time></trkpt>
        <trkpt lat="29.4914614" lon="103.283242"><ele>1887.62</ele><time>2026-08-15T00:24:27.000Z</time></trkpt>
        <trkpt lat="29.4913559" lon="103.2832717"><ele>1887.1</ele><time>2026-08-15T00:24:37.000Z</time></trkpt>
        <trkpt lat="29.4912609" lon="103.2833162"><ele>1886.67</ele><time>2026-08-15T00:24:47.000Z</time></trkpt>
        <trkpt lat="29.4911705" lon="103.283319"><ele>1885.73</ele><time>2026-08-15T00:24:55.000Z</time></trkpt>
        <trkpt lat="29.4911159" lon="103.2832362"><ele>1884.58</ele><time>2026-08-15T00:25:03.000Z</time></trkpt>
        <trkpt lat="29.4910453" lon="103.2831409"><ele>1883.34</ele><time>2026-08-15T00:25:13.000Z</time></trkpt>
        <trkpt lat="29.4909681" lon="103.2831497"><ele>1882.36</ele><time>2026-08-15T00:25:21.000Z</time></trkpt>
        <trkpt lat="29.4909112" lon="103.2832459"><ele>1881.64</ele><time>2026-08-15T00:25:31.000Z</time></trkpt>
        <trkpt lat="29.4908619" lon="103.2833589"><ele>1880.75</ele><time>2026-08-15T00:25:39.000Z</time></trkpt>
        <trkpt lat="29.49079" lon="103.2834425"><ele>1880.05</ele><time>2026-08-15T00:25:47.000Z</time></trkpt>
        <trkpt lat="29.4907047" lon="103.2834879"><ele>1879.43</ele><time>2026-08-15T00:25:55.000Z</time></trkpt>
        <trkpt lat="29.4906223" lon="103.2835529"><ele>1878.92</ele><time>2026-08-15T00:26:05.000Z</time></trkpt>
        <trkpt lat="29.4905737" lon="103.2836498"><ele>1878.78</ele><time>2026-08-15T00:26:15.000Z</time></trkpt>
        <trkpt lat="29.490555" lon="103.283758"><ele>1878.51</ele><time>2026-08-15T00:26:25.000Z</time></trkpt>
        <trkpt lat="29.4904912" lon="103.2838399"><ele>1878.65</ele><time>2026-08-15T00:26:36.000Z</time></trkpt>
        <trkpt lat="29.4904084" lon="103.2838189"><ele>1878.5</ele><time>2026-08-15T00:26:43.000Z</time></trkpt>
        <trkpt lat="29.4903212" lon="103.2837666"><ele>1878.6</ele><time>2026-08-15T00:26:51.000Z</time></trkpt>
        <trkpt lat="29.4902212" lon="103.2837031"><ele>1878.56</ele><time>2026-08-15T00:27:01.000Z</time></trkpt>
        <trkpt lat="29.4901262" lon="103.2836346"><ele>1878.11</ele><time>2026-08-15T00:27:11.000Z</time></trkpt>
        <trkpt lat="29.4900244" lon="103.2835962"><ele>1877.15</ele><time>2026-08-15T00:27:21.000Z</time></trkpt>
        <trkpt lat="29.4899218" lon="103.2836223"><ele>1876.45</ele><time>2026-08-15T00:27:31.000Z</time></trkpt>
        <trkpt lat="29.4898167" lon="103.2836256"><ele>1875.78</ele><time>2026-08-15T00:27:41.000Z</time></trkpt>
        <trkpt lat="29.489724" lon="103.2836051"><ele>1874.92</ele><time>2026-08-15T00:27:50.000Z</time></trkpt>
        <trkpt lat="29.4896303" lon="103.2836326"><ele>1874.19</ele><time>2026-08-15T00:28:00.000Z</time></trkpt>
        <trkpt lat="29.4895387" lon="103.2836841"><ele>1873.36</ele><time>2026-08-15T00:28:12.000Z</time></trkpt>
        <trkpt lat="29.4894534" lon="103.2837653"><ele>1872.12</ele><time>2026-08-15T00:28:22.000Z</time></trkpt>
        <trkpt lat="29.4894016" lon="103.2838662"><ele>1870.94</ele><time>2026-08-15T00:28:32.000Z</time></trkpt>
        <trkpt lat="29.4893645" lon="103.2839829"><ele>1869.48</ele><time>2026-08-15T00:28:42.000Z</time></trkpt>
        <trkpt lat="29.4893207" lon="103.2840855"><ele>1868.05</ele><time>2026-08-15T00:28:50.000Z</time></trkpt>
        <trkpt lat="29.4892495" lon="103.2841521"><ele>1866.47</ele><time>2026-08-15T00:28:58.000Z</time></trkpt>
        <trkpt lat="29.4891477" lon="103.2841592"><ele>1865</ele><time>2026-08-15T00:29:08.000Z</time></trkpt>
        <trkpt lat="29.4890401" lon="103.2841291"><ele>1863.21</ele><time>2026-08-15T00:29:18.000Z</time></trkpt>
        <trkpt lat="29.488947" lon="103.2840552"><ele>1861.51</ele><time>2026-08-15T00:29:36.000Z</time></trkpt>
        <trkpt lat="29.4888766" lon="103.2839639"><ele>1859.26</ele><time>2026-08-15T00:29:45.000Z</time></trkpt>
        <trkpt lat="29.4887929" lon="103.2838938"><ele>1857.56</ele><time>2026-08-15T00:29:55.000Z</time></trkpt>
        <trkpt lat="29.4886988" lon="103.2838749"><ele>1855.97</ele><time>2026-08-15T00:30:07.000Z</time></trkpt>
        <trkpt lat="29.4885996" lon="103.2839099"><ele>1854.28</ele><time>2026-08-15T00:30:15.000Z</time></trkpt>
        <trkpt lat="29.4885092" lon="103.2839677"><ele>1852.79</ele><time>2026-08-15T00:30:23.000Z</time></trkpt>
        <trkpt lat="29.4884254" lon="103.284024"><ele>1851.8</ele><time>2026-08-15T00:30:31.000Z</time></trkpt>
        <trkpt lat="29.4883382" lon="103.2840704"><ele>1851.57</ele><time>2026-08-15T00:30:39.000Z</time></trkpt>
        <trkpt lat="29.4882492" lon="103.2840943"><ele>1851.7</ele><time>2026-08-15T00:30:47.000Z</time></trkpt>
        <trkpt lat="29.4881596" lon="103.2840809"><ele>1851.65</ele><time>2026-08-15T00:30:55.000Z</time></trkpt>
        <trkpt lat="29.4880612" lon="103.2840663"><ele>1851.57</ele><time>2026-08-15T00:31:05.000Z</time></trkpt>
        <trkpt lat="29.4879683" lon="103.2840883"><ele>1851.34</ele><time>2026-08-15T00:31:13.000Z</time></trkpt>
        <trkpt lat="29.4878707" lon="103.2840906"><ele>1851.12</ele><time>2026-08-15T00:31:21.000Z</time></trkpt>
        <trkpt lat="29.4877772" lon="103.2840674"><ele>1850.74</ele><time>2026-08-15T00:31:29.000Z</time></trkpt>
        <trkpt lat="29.4876853" lon="103.284041"><ele>1850.18</ele><time>2026-08-15T00:31:37.000Z</time></trkpt>
        <trkpt lat="29.4875868" lon="103.2840379"><ele>1849.14</ele><time>2026-08-15T00:31:45.000Z</time></trkpt>
        <trkpt lat="29.4874943" lon="103.2840101"><ele>1847.86</ele><time>2026-08-15T00:31:53.000Z</time></trkpt>
        <trkpt lat="29.4874029" lon="103.2840068"><ele>1846.86</ele><time>2026-08-15T00:32:01.000Z</time></trkpt>
        <trkpt lat="29.4873003" lon="103.2840307"><ele>1846.27</ele><time>2026-08-15T00:32:11.000Z</time></trkpt>
        <trkpt lat="29.4871991" lon="103.2840637"><ele>1845.64</ele><time>2026-08-15T00:32:21.000Z</time></trkpt>
        <trkpt lat="29.4871076" lon="103.2840293"><ele>1845.32</ele><time>2026-08-15T00:32:31.000Z</time></trkpt>
        <trkpt lat="29.4870298" lon="103.2839515"><ele>1844.43</ele><time>2026-08-15T00:32:41.000Z</time></trkpt>
        <trkpt lat="29.486951" lon="103.2838723"><ele>1842.9</ele><time>2026-08-15T00:32:49.000Z</time></trkpt>
        <trkpt lat="29.4868994" lon="103.2837792"><ele>1841.72</ele><time>2026-08-15T00:32:57.000Z</time></trkpt>
        <trkpt lat="29.4868444" lon="103.2836832"><ele>1840.75</ele><time>2026-08-15T00:33:07.000Z</time></trkpt>
        <trkpt lat="29.4867606" lon="103.2836282"><ele>1839.6</ele><time>2026-08-15T00:33:17.000Z</time></trkpt>
        <trkpt lat="29.4866771" lon="103.283681"><ele>1838.26</ele><time>2026-08-15T00:33:27.000Z</time></trkpt>
        <trkpt lat="29.4865948" lon="103.2837716"><ele>1837.03</ele><time>2026-08-15T00:33:37.000Z</time></trkpt>
        <trkpt lat="29.4865064" lon="103.2838521"><ele>1836.19</ele><time>2026-08-15T00:33:47.000Z</time></trkpt>
        <trkpt lat="29.4864118" lon="103.2838716"><ele>1835.88</ele><time>2026-08-15T00:33:57.000Z</time></trkpt>
        <trkpt lat="29.4863154" lon="103.2838434"><ele>1835.38</ele><time>2026-08-15T00:34:07.000Z</time></trkpt>
        <trkpt lat="29.486226" lon="103.2838801"><ele>1833.45</ele><time>2026-08-15T00:34:23.000Z</time></trkpt>
        <trkpt lat="29.4861354" lon="103.2839328"><ele>1831.39</ele><time>2026-08-15T00:34:39.000Z</time></trkpt>
        <trkpt lat="29.4860455" lon="103.2839381"><ele>1828.32</ele><time>2026-08-15T00:34:51.000Z</time></trkpt>
        <trkpt lat="29.4859516" lon="103.2839587"><ele>1825.48</ele><time>2026-08-15T00:35:03.000Z</time></trkpt>
        <trkpt lat="29.4858577" lon="103.2839695"><ele>1822.88</ele><time>2026-08-15T00:35:15.000Z</time></trkpt>
        <trkpt lat="29.4857796" lon="103.2839079"><ele>1820.43</ele><time>2026-08-15T00:35:27.000Z</time></trkpt>
        <trkpt lat="29.4856946" lon="103.2838606"><ele>1818.54</ele><time>2026-08-15T00:35:39.000Z</time></trkpt>
        <trkpt lat="29.4856076" lon="103.2838285"><ele>1816.93</ele><time>2026-08-15T00:35:53.000Z</time></trkpt>
        <trkpt lat="29.4855185" lon="103.2838263"><ele>1815.4</ele><time>2026-08-15T00:36:07.000Z</time></trkpt>
        <trkpt lat="29.4854186" lon="103.2838064"><ele>1813.57</ele><time>2026-08-15T00:36:17.000Z</time></trkpt>
        <trkpt lat="29.4853292" lon="103.2837726"><ele>1812.02</ele><time>2026-08-15T00:36:29.000Z</time></trkpt>
        <trkpt lat="29.4852344" lon="103.2837682"><ele>1810.02</ele><time>2026-08-15T00:36:41.000Z</time></trkpt>
        <trkpt lat="29.4851316" lon="103.2837524"><ele>1807.79</ele><time>2026-08-15T00:36:55.000Z</time></trkpt>
        <trkpt lat="29.4850376" lon="103.2837428"><ele>1805.9</ele><time>2026-08-15T00:37:07.000Z</time></trkpt>
        <trkpt lat="29.4849401" lon="103.2837239"><ele>1804.66</ele><time>2026-08-15T00:37:21.000Z</time></trkpt>
        <trkpt lat="29.4848512" lon="103.2836898"><ele>1803.05</ele><time>2026-08-15T00:37:31.000Z</time></trkpt>
        <trkpt lat="29.4847612" lon="103.2836563"><ele>1801.86</ele><time>2026-08-15T00:37:41.000Z</time></trkpt>
        <trkpt lat="29.4846661" lon="103.283624"><ele>1800.83</ele><time>2026-08-15T00:37:51.000Z</time></trkpt>
        <trkpt lat="29.4845704" lon="103.2835926"><ele>1799.77</ele><time>2026-08-15T00:38:01.000Z</time></trkpt>
        <trkpt lat="29.4844775" lon="103.2835732"><ele>1798.97</ele><time>2026-08-15T00:38:13.000Z</time></trkpt>
        <trkpt lat="29.4844102" lon="103.2836385"><ele>1798.47</ele><time>2026-08-15T00:38:23.000Z</time></trkpt>
        <trkpt lat="29.4843764" lon="103.2837513"><ele>1797.98</ele><time>2026-08-15T00:38:33.000Z</time></trkpt>
        <trkpt lat="29.4843392" lon="103.2838593"><ele>1797.56</ele><time>2026-08-15T00:38:41.000Z</time></trkpt>
        <trkpt lat="29.484268" lon="103.2839259"><ele>1797.05</ele><time>2026-08-15T00:38:49.000Z</time></trkpt>
        <trkpt lat="29.4841717" lon="103.283952"><ele>1796.82</ele><time>2026-08-15T00:38:59.000Z</time></trkpt>
        <trkpt lat="29.4840704" lon="103.2839698"><ele>1796.61</ele><time>2026-08-15T00:39:09.000Z</time></trkpt>
        <trkpt lat="29.4839692" lon="103.2840104"><ele>1796.47</ele><time>2026-08-15T00:39:19.000Z</time></trkpt>
        <trkpt lat="29.4838752" lon="103.2840668"><ele>1796.37</ele><time>2026-08-15T00:39:29.000Z</time></trkpt>
        <trkpt lat="29.4837816" lon="103.2841289"><ele>1796.57</ele><time>2026-08-15T00:39:39.000Z</time></trkpt>
        <trkpt lat="29.4837025" lon="103.2841919"><ele>1796.53</ele><time>2026-08-15T00:39:47.000Z</time></trkpt>
        <trkpt lat="29.4836201" lon="103.2842603"><ele>1796.52</ele><time>2026-08-15T00:39:57.000Z</time></trkpt>
        <trkpt lat="29.4835371" lon="103.2843358"><ele>1796.23</ele><time>2026-08-15T00:40:07.000Z</time></trkpt>
        <trkpt lat="29.4834364" lon="103.2843617"><ele>1795.93</ele><time>2026-08-15T00:40:17.000Z</time></trkpt>
        <trkpt lat="29.4833335" lon="103.2843689"><ele>1795.33</ele><time>2026-08-15T00:40:27.000Z</time></trkpt>
        <trkpt lat="29.4832392" lon="103.284383"><ele>1795.12</ele><time>2026-08-15T00:40:37.000Z</time></trkpt>
        <trkpt lat="29.4831444" lon="103.284402"><ele>1794.77</ele><time>2026-08-15T00:40:53.000Z</time></trkpt>
        <trkpt lat="29.4830536" lon="103.2844178"><ele>1794.37</ele><time>2026-08-15T00:41:03.000Z</time></trkpt>
        <trkpt lat="29.4829599" lon="103.2844154"><ele>1794.12</ele><time>2026-08-15T00:41:15.000Z</time></trkpt>
        <trkpt lat="29.4828663" lon="103.2844067"><ele>1793.98</ele><time>2026-08-15T00:41:25.000Z</time></trkpt>
        <trkpt lat="29.4827614" lon="103.284391"><ele>1793.85</ele><time>2026-08-15T00:41:35.000Z</time></trkpt>
        <trkpt lat="29.4826623" lon="103.284391"><ele>1793.66</ele><time>2026-08-15T00:41:43.000Z</time></trkpt>
        <trkpt lat="29.4825531" lon="103.2843861"><ele>1794.53</ele><time>2026-08-15T00:41:53.000Z</time></trkpt>
        <trkpt lat="29.482453" lon="103.2843962"><ele>1794.81</ele><time>2026-08-15T00:42:01.000Z</time></trkpt>
        <trkpt lat="29.482357" lon="103.2844061"><ele>1794.86</ele><time>2026-08-15T00:42:09.000Z</time></trkpt>
        <trkpt lat="29.482265" lon="103.2844152"><ele>1794.75</ele><time>2026-08-15T00:42:17.000Z</time></trkpt>
        <trkpt lat="29.4821699" lon="103.2844006"><ele>1794.9</ele><time>2026-08-15T00:42:27.000Z</time></trkpt>
        <trkpt lat="29.4820689" lon="103.2843829"><ele>1795.04</ele><time>2026-08-15T00:42:37.000Z</time></trkpt>
        <trkpt lat="29.4819672" lon="103.2843826"><ele>1795.08</ele><time>2026-08-15T00:42:47.000Z</time></trkpt>
        <trkpt lat="29.4818727" lon="103.2844008"><ele>1794.81</ele><time>2026-08-15T00:42:55.000Z</time></trkpt>
        <trkpt lat="29.4817825" lon="103.2844252"><ele>1794.53</ele><time>2026-08-15T00:43:03.000Z</time></trkpt>
        <trkpt lat="29.4816835" lon="103.2844564"><ele>1794.53</ele><time>2026-08-15T00:43:13.000Z</time></trkpt>
        <trkpt lat="29.4815838" lon="103.2844891"><ele>1794.62</ele><time>2026-08-15T00:43:23.000Z</time></trkpt>
        <trkpt lat="29.4814783" lon="103.2845099"><ele>1794.67</ele><time>2026-08-15T00:43:33.000Z</time></trkpt>
        <trkpt lat="29.4813853" lon="103.2845315"><ele>1795.51</ele><time>2026-08-15T00:43:43.000Z</time></trkpt>
        <trkpt lat="29.4812929" lon="103.2845767"><ele>1796.07</ele><time>2026-08-15T00:43:53.000Z</time></trkpt>
        <trkpt lat="29.4812003" lon="103.2846192"><ele>1797.04</ele><time>2026-08-15T00:44:03.000Z</time></trkpt>
        <trkpt lat="29.4811045" lon="103.2846423"><ele>1797.87</ele><time>2026-08-15T00:44:13.000Z</time></trkpt>
        <trkpt lat="29.481006" lon="103.2846291"><ele>1799.01</ele><time>2026-08-15T00:44:23.000Z</time></trkpt>
        <trkpt lat="29.4809051" lon="103.2846207"><ele>1799.83</ele><time>2026-08-15T00:44:33.000Z</time></trkpt>
        <trkpt lat="29.4808107" lon="103.2846394"><ele>1800.36</ele><time>2026-08-15T00:44:45.000Z</time></trkpt>
        <trkpt lat="29.4807132" lon="103.2846518"><ele>1801.24</ele><time>2026-08-15T00:44:59.000Z</time></trkpt>
        <trkpt lat="29.4806215" lon="103.2846208"><ele>1801.68</ele><time>2026-08-15T00:45:09.000Z</time></trkpt>
        <trkpt lat="29.4805606" lon="103.2845279"><ele>1802.14</ele><time>2026-08-15T00:45:21.000Z</time></trkpt>
        <trkpt lat="29.4805752" lon="103.2844148"><ele>1802.92</ele><time>2026-08-15T00:45:31.000Z</time></trkpt>
        <trkpt lat="29.4806241" lon="103.2842988"><ele>1803.56</ele><time>2026-08-15T00:45:41.000Z</time></trkpt>
        <trkpt lat="29.4806747" lon="103.2841854"><ele>1804.24</ele><time>2026-08-15T00:45:51.000Z</time></trkpt>
        <trkpt lat="29.4807213" lon="103.2840692"><ele>1804.48</ele><time>2026-08-15T00:46:01.000Z</time></trkpt>
        <trkpt lat="29.4807927" lon="103.2839701"><ele>1804.42</ele><time>2026-08-15T00:46:11.000Z</time></trkpt>
        <trkpt lat="29.4808561" lon="103.2838722"><ele>1804.27</ele><time>2026-08-15T00:46:21.000Z</time></trkpt>
        <trkpt lat="29.4808545" lon="103.283757"><ele>1804.41</ele><time>2026-08-15T00:46:31.000Z</time></trkpt>
        <trkpt lat="29.4808043" lon="103.2836579"><ele>1804.74</ele><time>2026-08-15T00:46:41.000Z</time></trkpt>
        <trkpt lat="29.4807451" lon="103.2835656"><ele>1804.55</ele><time>2026-08-15T00:46:51.000Z</time></trkpt>
        <trkpt lat="29.4807044" lon="103.2834694"><ele>1804.33</ele><time>2026-08-15T00:47:01.000Z</time></trkpt>
        <trkpt lat="29.4806975" lon="103.2833483"><ele>1804.23</ele><time>2026-08-15T00:47:11.000Z</time></trkpt>
        <trkpt lat="29.4806548" lon="103.2832409"><ele>1804.03</ele><time>2026-08-15T00:47:21.000Z</time></trkpt>
        <trkpt lat="29.4805988" lon="103.2831971"><ele>1803.45</ele><time>2026-08-15T00:47:29.000Z</time></trkpt>
        <trkpt lat="29.4805118" lon="103.283188"><ele>1802.75</ele><time>2026-08-15T00:47:41.000Z</time></trkpt>
        <trkpt lat="29.4804378" lon="103.2832511"><ele>1802.25</ele><time>2026-08-15T00:47:53.000Z</time></trkpt>
        <trkpt lat="29.4803881" lon="103.2833654"><ele>1801.91</ele><time>2026-08-15T00:48:01.000Z</time></trkpt>
        <trkpt lat="29.4803378" lon="103.2834868"><ele>1800.98</ele><time>2026-08-15T00:48:11.000Z</time></trkpt>
        <trkpt lat="29.480272" lon="103.2835934"><ele>1799.62</ele><time>2026-08-15T00:48:21.000Z</time></trkpt>
        <trkpt lat="29.4801913" lon="103.2836623"><ele>1798.27</ele><time>2026-08-15T00:48:29.000Z</time></trkpt>
        <trkpt lat="29.4801029" lon="103.2836934"><ele>1797.04</ele><time>2026-08-15T00:48:37.000Z</time></trkpt>
        <trkpt lat="29.4800201" lon="103.2837352"><ele>1796.02</ele><time>2026-08-15T00:48:45.000Z</time></trkpt>
        <trkpt lat="29.4799516" lon="103.2838009"><ele>1794.87</ele><time>2026-08-15T00:48:53.000Z</time></trkpt>
        <trkpt lat="29.4798816" lon="103.2838649"><ele>1793.4</ele><time>2026-08-15T00:49:01.000Z</time></trkpt>
        <trkpt lat="29.4798017" lon="103.2839159"><ele>1792.18</ele><time>2026-08-15T00:49:11.000Z</time></trkpt>
        <trkpt lat="29.4797165" lon="103.2839561"><ele>1790.45</ele><time>2026-08-15T00:49:21.000Z</time></trkpt>
        <trkpt lat="29.4796226" lon="103.2839871"><ele>1788.3</ele><time>2026-08-15T00:49:31.000Z</time></trkpt>
        <trkpt lat="29.4795231" lon="103.28401"><ele>1786.07</ele><time>2026-08-15T00:49:45.000Z</time></trkpt>
        <trkpt lat="29.479431" lon="103.2840481"><ele>1783.7</ele><time>2026-08-15T00:49:55.000Z</time></trkpt>
        <trkpt lat="29.4793336" lon="103.2840697"><ele>1781.6</ele><time>2026-08-15T00:50:05.000Z</time></trkpt>
        <trkpt lat="29.4792314" lon="103.2840849"><ele>1779.36</ele><time>2026-08-15T00:50:17.000Z</time></trkpt>
        <trkpt lat="29.4791278" lon="103.2840929"><ele>1777.26</ele><time>2026-08-15T00:50:27.000Z</time></trkpt>
        <trkpt lat="29.4790311" lon="103.2841219"><ele>1775.67</ele><time>2026-08-15T00:50:37.000Z</time></trkpt>
        <trkpt lat="29.4789388" lon="103.2841306"><ele>1774.23</ele><time>2026-08-15T00:50:47.000Z</time></trkpt>
        <trkpt lat="29.4788636" lon="103.2840797"><ele>1773.15</ele><time>2026-08-15T00:50:57.000Z</time></trkpt>
        <trkpt lat="29.4787986" lon="103.2840019"><ele>1772.55</ele><time>2026-08-15T00:51:07.000Z</time></trkpt>
        <trkpt lat="29.4787505" lon="103.2839008"><ele>1771.86</ele><time>2026-08-15T00:51:17.000Z</time></trkpt>
        <trkpt lat="29.4787002" lon="103.2837831"><ele>1771.25</ele><time>2026-08-15T00:51:27.000Z</time></trkpt>
        <trkpt lat="29.4786262" lon="103.2837083"><ele>1770.38</ele><time>2026-08-15T00:51:35.000Z</time></trkpt>
        <trkpt lat="29.478537" lon="103.2836689"><ele>1770.07</ele><time>2026-08-15T00:51:43.000Z</time></trkpt>
        <trkpt lat="29.4784461" lon="103.2836471"><ele>1770.09</ele><time>2026-08-15T00:51:51.000Z</time></trkpt>
        <trkpt lat="29.4783415" lon="103.2836179"><ele>1769.64</ele><time>2026-08-15T00:52:01.000Z</time></trkpt>
        <trkpt lat="29.4782428" lon="103.283641"><ele>1769.39</ele><time>2026-08-15T00:52:11.000Z</time></trkpt>
        <trkpt lat="29.4781445" lon="103.2836996"><ele>1769.21</ele><time>2026-08-15T00:52:21.000Z</time></trkpt>
        <trkpt lat="29.478051" lon="103.2837393"><ele>1768.94</ele><time>2026-08-15T00:52:29.000Z</time></trkpt>
        <trkpt lat="29.4779608" lon="103.2837969"><ele>1767.99</ele><time>2026-08-15T00:52:39.000Z</time></trkpt>
        <trkpt lat="29.4778616" lon="103.2838144"><ele>1767.9</ele><time>2026-08-15T00:52:49.000Z</time></trkpt>
        <trkpt lat="29.4777631" lon="103.2837756"><ele>1767.8</ele><time>2026-08-15T00:52:59.000Z</time></trkpt>
        <trkpt lat="29.477681" lon="103.2837119"><ele>1767.55</ele><time>2026-08-15T00:53:09.000Z</time></trkpt>
        <trkpt lat="29.4776064" lon="103.2836315"><ele>1767.64</ele><time>2026-08-15T00:53:21.000Z</time></trkpt>
        <trkpt lat="29.4775352" lon="103.2835542"><ele>1767.48</ele><time>2026-08-15T00:53:33.000Z</time></trkpt>
        <trkpt lat="29.4774888" lon="103.2834462"><ele>1767.14</ele><time>2026-08-15T00:53:45.000Z</time></trkpt>
        <trkpt lat="29.4774823" lon="103.2833341"><ele>1766.15</ele><time>2026-08-15T00:53:55.000Z</time></trkpt>
        <trkpt lat="29.4774858" lon="103.2832114"><ele>1765.25</ele><time>2026-08-15T00:54:05.000Z</time></trkpt>
        <trkpt lat="29.4775028" lon="103.2830862"><ele>1764.51</ele><time>2026-08-15T00:54:15.000Z</time></trkpt>
        <trkpt lat="29.4775182" lon="103.2829673"><ele>1763.98</ele><time>2026-08-15T00:54:25.000Z</time></trkpt>
        <trkpt lat="29.4775298" lon="103.2828572"><ele>1762.91</ele><time>2026-08-15T00:54:33.000Z</time></trkpt>
        <trkpt lat="29.4775361" lon="103.2827448"><ele>1761.76</ele><time>2026-08-15T00:54:42.000Z</time></trkpt>
        <trkpt lat="29.4775474" lon="103.2826368"><ele>1761.61</ele><time>2026-08-15T00:54:50.000Z</time></trkpt>
        <trkpt lat="29.4775607" lon="103.2825246"><ele>1761.94</ele><time>2026-08-15T00:54:58.000Z</time></trkpt>
        <trkpt lat="29.4775658" lon="103.2824048"><ele>1762.05</ele><time>2026-08-15T00:55:08.000Z</time></trkpt>
        <trkpt lat="29.4775392" lon="103.2822823"><ele>1761.04</ele><time>2026-08-15T00:55:18.000Z</time></trkpt>
        <trkpt lat="29.4775099" lon="103.2821765"><ele>1760.9</ele><time>2026-08-15T00:55:27.000Z</time></trkpt>
        <trkpt lat="29.4774929" lon="103.2820715"><ele>1760.92</ele><time>2026-08-15T00:55:37.000Z</time></trkpt>
        <trkpt lat="29.4774688" lon="103.281966"><ele>1760.89</ele><time>2026-08-15T00:55:51.000Z</time></trkpt>
        <trkpt lat="29.4774391" lon="103.2818484"><ele>1762.48</ele><time>2026-08-15T00:56:49.000Z</time></trkpt>
        <trkpt lat="29.477369" lon="103.2818524"><ele>1762.3</ele><time>2026-08-15T00:57:01.000Z</time></trkpt>
        <trkpt lat="29.477309" lon="103.2819358"><ele>1761.62</ele><time>2026-08-15T00:57:09.000Z</time></trkpt>
        <trkpt lat="29.477261" lon="103.2820589"><ele>1761.02</ele><time>2026-08-15T00:57:19.000Z</time></trkpt>
        <trkpt lat="29.4771951" lon="103.2821545"><ele>1760.44</ele><time>2026-08-15T00:57:27.000Z</time></trkpt>
        <trkpt lat="29.4771082" lon="103.282228"><ele>1759.83</ele><time>2026-08-15T00:57:35.000Z</time></trkpt>
        <trkpt lat="29.4770086" lon="103.2822802"><ele>1759.09</ele><time>2026-08-15T00:57:45.000Z</time></trkpt>
        <trkpt lat="29.4769275" lon="103.282342"><ele>1758.42</ele><time>2026-08-15T00:57:55.000Z</time></trkpt>
        <trkpt lat="29.4768576" lon="103.2824143"><ele>1758.24</ele><time>2026-08-15T00:58:05.000Z</time></trkpt>
        <trkpt lat="29.4767888" lon="103.282485"><ele>1758.23</ele><time>2026-08-15T00:58:15.000Z</time></trkpt>
        <trkpt lat="29.4767066" lon="103.2825545"><ele>1758.55</ele><time>2026-08-15T00:58:27.000Z</time></trkpt>
        <trkpt lat="29.4766221" lon="103.2826177"><ele>1759.45</ele><time>2026-08-15T00:58:39.000Z</time></trkpt>
        <trkpt lat="29.4765415" lon="103.2826728"><ele>1760.77</ele><time>2026-08-15T00:58:51.000Z</time></trkpt>
        <trkpt lat="29.4764527" lon="103.2827139"><ele>1761.92</ele><time>2026-08-15T00:59:03.000Z</time></trkpt>
        <trkpt lat="29.4763594" lon="103.2827275"><ele>1763.22</ele><time>2026-08-15T00:59:17.000Z</time></trkpt>
        <trkpt lat="29.4762564" lon="103.2827149"><ele>1765.11</ele><time>2026-08-15T00:59:29.000Z</time></trkpt>
        <trkpt lat="29.4761531" lon="103.2827007"><ele>1766.93</ele><time>2026-08-15T00:59:39.000Z</time></trkpt>
        <trkpt lat="29.4760534" lon="103.2827055"><ele>1768.23</ele><time>2026-08-15T00:59:47.000Z</time></trkpt>
        <trkpt lat="29.4759469" lon="103.2827188"><ele>1768.95</ele><time>2026-08-15T00:59:57.000Z</time></trkpt>
        <trkpt lat="29.4758479" lon="103.282752"><ele>1769.6</ele><time>2026-08-15T01:00:07.000Z</time></trkpt>
        <trkpt lat="29.4757521" lon="103.282792"><ele>1770.33</ele><time>2026-08-15T01:00:17.000Z</time></trkpt>
        <trkpt lat="29.4756529" lon="103.2828215"><ele>1770.82</ele><time>2026-08-15T01:00:29.000Z</time></trkpt>
        <trkpt lat="29.4755594" lon="103.2828748"><ele>1771.12</ele><time>2026-08-15T01:00:41.000Z</time></trkpt>
        <trkpt lat="29.4754737" lon="103.2829309"><ele>1771.29</ele><time>2026-08-15T01:00:53.000Z</time></trkpt>
        <trkpt lat="29.475392" lon="103.283004"><ele>1771.84</ele><time>2026-08-15T01:01:03.000Z</time></trkpt>
        <trkpt lat="29.4753542" lon="103.2830997"><ele>1773.17</ele><time>2026-08-15T01:01:13.000Z</time></trkpt>
        <trkpt lat="29.4753749" lon="103.2832136"><ele>1774.01</ele><time>2026-08-15T01:01:25.000Z</time></trkpt>
        <trkpt lat="29.4754128" lon="103.2833266"><ele>1774.68</ele><time>2026-08-15T01:01:37.000Z</time></trkpt>
        <trkpt lat="29.4754323" lon="103.2834429"><ele>1775.23</ele><time>2026-08-15T01:01:49.000Z</time></trkpt>
        <trkpt lat="29.4754088" lon="103.2835593"><ele>1776.19</ele><time>2026-08-15T01:02:03.000Z</time></trkpt>
        <trkpt lat="29.4753745" lon="103.2836694"><ele>1777.17</ele><time>2026-08-15T01:02:15.000Z</time></trkpt>
        <trkpt lat="29.4753267" lon="103.2837767"><ele>1778.72</ele><time>2026-08-15T01:02:27.000Z</time></trkpt>
        <trkpt lat="29.4752426" lon="103.2838144"><ele>1780.62</ele><time>2026-08-15T01:02:37.000Z</time></trkpt>
        <trkpt lat="29.4751425" lon="103.2838497"><ele>1782.3</ele><time>2026-08-15T01:02:49.000Z</time></trkpt>
        <trkpt lat="29.4750467" lon="103.2838939"><ele>1783.81</ele><time>2026-08-15T01:03:01.000Z</time></trkpt>
        <trkpt lat="29.4749476" lon="103.2839379"><ele>1784.6</ele><time>2026-08-15T01:03:11.000Z</time></trkpt>
        <trkpt lat="29.4748569" lon="103.2839881"><ele>1785.33</ele><time>2026-08-15T01:03:21.000Z</time></trkpt>
        <trkpt lat="29.4747786" lon="103.2840697"><ele>1785.88</ele><time>2026-08-15T01:03:43.000Z</time></trkpt>
        <trkpt lat="29.4747105" lon="103.2841683"><ele>1786.15</ele><time>2026-08-15T01:03:59.000Z</time></trkpt>
        <trkpt lat="29.4746411" lon="103.2842599"><ele>1786.79</ele><time>2026-08-15T01:04:11.000Z</time></trkpt>
        <trkpt lat="29.474556" lon="103.2842725"><ele>1788.28</ele><time>2026-08-15T01:04:21.000Z</time></trkpt>
        <trkpt lat="29.4744618" lon="103.2842729"><ele>1789.42</ele><time>2026-08-15T01:04:31.000Z</time></trkpt>
        <trkpt lat="29.4743736" lon="103.2843071"><ele>1790.12</ele><time>2026-08-15T01:04:39.000Z</time></trkpt>
        <trkpt lat="29.4743055" lon="103.2843566"><ele>1790.55</ele><time>2026-08-15T01:04:51.000Z</time></trkpt>
        <trkpt lat="29.4742665" lon="103.2844628"><ele>1791.07</ele><time>2026-08-15T01:05:22.000Z</time></trkpt>
        <trkpt lat="29.4742599" lon="103.284583"><ele>1791.58</ele><time>2026-08-15T01:05:32.000Z</time></trkpt>
        <trkpt lat="29.4742903" lon="103.2846931"><ele>1791.51</ele><time>2026-08-15T01:05:42.000Z</time></trkpt>
        <trkpt lat="29.4742853" lon="103.2848027"><ele>1791.36</ele><time>2026-08-15T01:05:52.000Z</time></trkpt>
        <trkpt lat="29.4742138" lon="103.2848767"><ele>1791.51</ele><time>2026-08-15T01:06:04.000Z</time></trkpt>
        <trkpt lat="29.474118" lon="103.2849258"><ele>1792.49</ele><time>2026-08-15T01:06:14.000Z</time></trkpt>
        <trkpt lat="29.4740141" lon="103.2849561"><ele>1794.86</ele><time>2026-08-15T01:06:24.000Z</time></trkpt>
        <trkpt lat="29.4739148" lon="103.2849589"><ele>1796.61</ele><time>2026-08-15T01:06:34.000Z</time></trkpt>
        <trkpt lat="29.4738194" lon="103.2849424"><ele>1797.93</ele><time>2026-08-15T01:06:42.000Z</time></trkpt>
        <trkpt lat="29.4737235" lon="103.2849273"><ele>1798.36</ele><time>2026-08-15T01:06:50.000Z</time></trkpt>
        <trkpt lat="29.4736305" lon="103.2849151"><ele>1798.3</ele><time>2026-08-15T01:06:58.000Z</time></trkpt>
        <trkpt lat="29.4735258" lon="103.2849168"><ele>1798.07</ele><time>2026-08-15T01:07:08.000Z</time></trkpt>
        <trkpt lat="29.4734269" lon="103.284924"><ele>1797.45</ele><time>2026-08-15T01:07:18.000Z</time></trkpt>
        <trkpt lat="29.473332" lon="103.2849098"><ele>1796.7</ele><time>2026-08-15T01:07:28.000Z</time></trkpt>
        <trkpt lat="29.4732373" lon="103.2848757"><ele>1795.75</ele><time>2026-08-15T01:07:38.000Z</time></trkpt>
        <trkpt lat="29.4731366" lon="103.2848525"><ele>1794.52</ele><time>2026-08-15T01:07:48.000Z</time></trkpt>
        <trkpt lat="29.4730393" lon="103.2848347"><ele>1793.3</ele><time>2026-08-15T01:07:58.000Z</time></trkpt>
        <trkpt lat="29.4729336" lon="103.284825"><ele>1792</ele><time>2026-08-15T01:08:08.000Z</time></trkpt>
        <trkpt lat="29.4728375" lon="103.2848007"><ele>1790.89</ele><time>2026-08-15T01:08:20.000Z</time></trkpt>
        <trkpt lat="29.4727513" lon="103.2847592"><ele>1789.74</ele><time>2026-08-15T01:08:34.000Z</time></trkpt>
        <trkpt lat="29.4726582" lon="103.2847349"><ele>1788.73</ele><time>2026-08-15T01:08:48.000Z</time></trkpt>
        <trkpt lat="29.4725576" lon="103.2847122"><ele>1788.07</ele><time>2026-08-15T01:09:00.000Z</time></trkpt>
        <trkpt lat="29.4724558" lon="103.2846957"><ele>1787.23</ele><time>2026-08-15T01:09:12.000Z</time></trkpt>
        <trkpt lat="29.4723496" lon="103.2846754"><ele>1786.45</ele><time>2026-08-15T01:09:22.000Z</time></trkpt>
        <trkpt lat="29.4722507" lon="103.2846532"><ele>1785.29</ele><time>2026-08-15T01:09:32.000Z</time></trkpt>
        <trkpt lat="29.4721535" lon="103.284636"><ele>1783.88</ele><time>2026-08-15T01:09:42.000Z</time></trkpt>
        <trkpt lat="29.4720552" lon="103.2846437"><ele>1782.62</ele><time>2026-08-15T01:09:52.000Z</time></trkpt>
        <trkpt lat="29.4719706" lon="103.2847061"><ele>1781.61</ele><time>2026-08-15T01:10:04.000Z</time></trkpt>
        <trkpt lat="29.4718796" lon="103.2847297"><ele>1780.81</ele><time>2026-08-15T01:10:20.000Z</time></trkpt>
        <trkpt lat="29.4718686" lon="103.2846493"><ele>1779.77</ele><time>2026-08-15T01:10:42.000Z</time></trkpt>
        <trkpt lat="29.4719354" lon="103.2845483"><ele>1776.56</ele><time>2026-08-15T01:10:52.000Z</time></trkpt>
        <trkpt lat="29.4719776" lon="103.2844971"><ele>1773.97</ele><time>2026-08-15T01:10:54.000Z</time></trkpt>
        <trkpt lat="29.4720442" lon="103.2844338"><ele>1772.42</ele><time>2026-08-15T01:11:02.000Z</time></trkpt>
        <trkpt lat="29.4720704" lon="103.2843485"><ele>1770.64</ele><time>2026-08-15T01:11:10.000Z</time></trkpt>
        <trkpt lat="29.4720162" lon="103.2842784"><ele>1769.21</ele><time>2026-08-15T01:11:20.000Z</time></trkpt>
        <trkpt lat="29.4719164" lon="103.2842497"><ele>1766.94</ele><time>2026-08-15T01:11:28.000Z</time></trkpt>
        <trkpt lat="29.4718005" lon="103.2842704"><ele>1764.56</ele><time>2026-08-15T01:11:38.000Z</time></trkpt>
        <trkpt lat="29.4716981" lon="103.2843126"><ele>1762.05</ele><time>2026-08-15T01:11:48.000Z</time></trkpt>
        <trkpt lat="29.4715928" lon="103.2843529"><ele>1759.68</ele><time>2026-08-15T01:11:58.000Z</time></trkpt>
        <trkpt lat="29.4714976" lon="103.2843894"><ele>1757.9</ele><time>2026-08-15T01:12:08.000Z</time></trkpt>
        <trkpt lat="29.4713969" lon="103.2844285"><ele>1756.2</ele><time>2026-08-15T01:12:18.000Z</time></trkpt>
        <trkpt lat="29.4713068" lon="103.2844622"><ele>1754.85</ele><time>2026-08-15T01:12:26.000Z</time></trkpt>
        <trkpt lat="29.4712109" lon="103.2844476"><ele>1753.84</ele><time>2026-08-15T01:12:36.000Z</time></trkpt>
        <trkpt lat="29.4711282" lon="103.2843924"><ele>1752.8</ele><time>2026-08-15T01:12:46.000Z</time></trkpt>
        <trkpt lat="29.4710317" lon="103.2843652"><ele>1751.58</ele><time>2026-08-15T01:12:58.000Z</time></trkpt>
        <trkpt lat="29.4709337" lon="103.2843519"><ele>1750.06</ele><time>2026-08-15T01:13:12.000Z</time></trkpt>
        <trkpt lat="29.4708386" lon="103.2843497"><ele>1748.68</ele><time>2026-08-15T01:13:20.000Z</time></trkpt>
        <trkpt lat="29.4707346" lon="103.2843396"><ele>1747.48</ele><time>2026-08-15T01:13:30.000Z</time></trkpt>
        <trkpt lat="29.470649" lon="103.2842971"><ele>1746.45</ele><time>2026-08-15T01:13:38.000Z</time></trkpt>
        <trkpt lat="29.470562" lon="103.2842427"><ele>1745.33</ele><time>2026-08-15T01:13:48.000Z</time></trkpt>
        <trkpt lat="29.4704736" lon="103.2842028"><ele>1744.14</ele><time>2026-08-15T01:13:56.000Z</time></trkpt>
        <trkpt lat="29.4703831" lon="103.2842043"><ele>1743.55</ele><time>2026-08-15T01:14:04.000Z</time></trkpt>
        <trkpt lat="29.4702945" lon="103.2842496"><ele>1743.09</ele><time>2026-08-15T01:14:14.000Z</time></trkpt>
        <trkpt lat="29.4702039" lon="103.2842971"><ele>1742.97</ele><time>2026-08-15T01:14:24.000Z</time></trkpt>
        <trkpt lat="29.4701038" lon="103.284319"><ele>1742.55</ele><time>2026-08-15T01:14:34.000Z</time></trkpt>
        <trkpt lat="29.4700146" lon="103.2843524"><ele>1742.21</ele><time>2026-08-15T01:14:44.000Z</time></trkpt>
        <trkpt lat="29.4699473" lon="103.2844305"><ele>1741.98</ele><time>2026-08-15T01:14:56.000Z</time></trkpt>
        <trkpt lat="29.4698646" lon="103.2844957"><ele>1741.4</ele><time>2026-08-15T01:15:06.000Z</time></trkpt>
        <trkpt lat="29.4697764" lon="103.2844906"><ele>1740.75</ele><time>2026-08-15T01:15:16.000Z</time></trkpt>
        <trkpt lat="29.4696792" lon="103.284459"><ele>1740</ele><time>2026-08-15T01:15:29.000Z</time></trkpt>
        <trkpt lat="29.4695748" lon="103.2844498"><ele>1739.09</ele><time>2026-08-15T01:15:41.000Z</time></trkpt>
        <trkpt lat="29.4694755" lon="103.2844694"><ele>1738.1</ele><time>2026-08-15T01:15:51.000Z</time></trkpt>
        <trkpt lat="29.4693804" lon="103.2845286"><ele>1736.75</ele><time>2026-08-15T01:16:03.000Z</time></trkpt>
        <trkpt lat="29.4692897" lon="103.2845666"><ele>1735.71</ele><time>2026-08-15T01:16:13.000Z</time></trkpt>
        <trkpt lat="29.4691948" lon="103.2845367"><ele>1734.27</ele><time>2026-08-15T01:16:29.000Z</time></trkpt>
        <trkpt lat="29.4690994" lon="103.284516"><ele>1732.91</ele><time>2026-08-15T01:16:37.000Z</time></trkpt>
        <trkpt lat="29.4689982" lon="103.2845309"><ele>1731.54</ele><time>2026-08-15T01:16:47.000Z</time></trkpt>
        <trkpt lat="29.4689006" lon="103.2845773"><ele>1730.46</ele><time>2026-08-15T01:16:57.000Z</time></trkpt>
        <trkpt lat="29.4688147" lon="103.2846455"><ele>1729.59</ele><time>2026-08-15T01:17:07.000Z</time></trkpt>
        <trkpt lat="29.4687303" lon="103.2846964"><ele>1728.9</ele><time>2026-08-15T01:17:17.000Z</time></trkpt>
        <trkpt lat="29.4686486" lon="103.2847441"><ele>1727.46</ele><time>2026-08-15T01:17:29.000Z</time></trkpt>
        <trkpt lat="29.4685961" lon="103.2848363"><ele>1726.09</ele><time>2026-08-15T01:17:41.000Z</time></trkpt>
        <trkpt lat="29.4685324" lon="103.284916"><ele>1724.59</ele><time>2026-08-15T01:17:57.000Z</time></trkpt>
        <trkpt lat="29.46846" lon="103.2848913"><ele>1723.53</ele><time>2026-08-15T01:18:09.000Z</time></trkpt>
        <trkpt lat="29.4683955" lon="103.2848163"><ele>1722.46</ele><time>2026-08-15T01:18:21.000Z</time></trkpt>
        <trkpt lat="29.4683184" lon="103.2847227"><ele>1721.37</ele><time>2026-08-15T01:18:33.000Z</time></trkpt>
        <trkpt lat="29.4682307" lon="103.2846737"><ele>1720.16</ele><time>2026-08-15T01:18:41.000Z</time></trkpt>
        <trkpt lat="29.4681397" lon="103.2846679"><ele>1719.17</ele><time>2026-08-15T01:18:51.000Z</time></trkpt>
        <trkpt lat="29.4680412" lon="103.2846547"><ele>1718.18</ele><time>2026-08-15T01:19:07.000Z</time></trkpt>
        <trkpt lat="29.4679721" lon="103.2845903"><ele>1717.01</ele><time>2026-08-15T01:19:17.000Z</time></trkpt>
        <trkpt lat="29.4679074" lon="103.2844949"><ele>1715.91</ele><time>2026-08-15T01:19:27.000Z</time></trkpt>
        <trkpt lat="29.4678372" lon="103.2844191"><ele>1715.08</ele><time>2026-08-15T01:19:35.000Z</time></trkpt>
        <trkpt lat="29.4677628" lon="103.2843534"><ele>1713.89</ele><time>2026-08-15T01:19:49.000Z</time></trkpt>
        <trkpt lat="29.4676824" lon="103.2842918"><ele>1711.59</ele><time>2026-08-15T01:20:01.000Z</time></trkpt>
        <trkpt lat="29.4675956" lon="103.2842601"><ele>1708.96</ele><time>2026-08-15T01:20:11.000Z</time></trkpt>
        <trkpt lat="29.4675055" lon="103.2842447"><ele>1707.63</ele><time>2026-08-15T01:20:23.000Z</time></trkpt>
        <trkpt lat="29.4674061" lon="103.2842563"><ele>1706.39</ele><time>2026-08-15T01:20:37.000Z</time></trkpt>
        <trkpt lat="29.4673024" lon="103.2842645"><ele>1705.36</ele><time>2026-08-15T01:20:51.000Z</time></trkpt>
        <trkpt lat="29.4671993" lon="103.2842803"><ele>1704.02</ele><time>2026-08-15T01:21:07.000Z</time></trkpt>
        <trkpt lat="29.4670985" lon="103.2842693"><ele>1702.98</ele><time>2026-08-15T01:21:21.000Z</time></trkpt>
        <trkpt lat="29.4670103" lon="103.2842244"><ele>1702.46</ele><time>2026-08-15T01:21:37.000Z</time></trkpt>
        <trkpt lat="29.4669238" lon="103.2841796"><ele>1701.8</ele><time>2026-08-15T01:21:47.000Z</time></trkpt>
        <trkpt lat="29.4668403" lon="103.2841314"><ele>1700.91</ele><time>2026-08-15T01:21:57.000Z</time></trkpt>
        <trkpt lat="29.4667429" lon="103.2841176"><ele>1700.08</ele><time>2026-08-15T01:22:09.000Z</time></trkpt>
        <trkpt lat="29.4666474" lon="103.2841344"><ele>1699.12</ele><time>2026-08-15T01:22:21.000Z</time></trkpt>
        <trkpt lat="29.4665487" lon="103.2841553"><ele>1698.86</ele><time>2026-08-15T01:22:35.000Z</time></trkpt>
        <trkpt lat="29.4664433" lon="103.2841752"><ele>1698.46</ele><time>2026-08-15T01:22:47.000Z</time></trkpt>
        <trkpt lat="29.4663429" lon="103.2841932"><ele>1698.1</ele><time>2026-08-15T01:22:59.000Z</time></trkpt>
        <trkpt lat="29.4662492" lon="103.2841753"><ele>1698.01</ele><time>2026-08-15T01:23:07.000Z</time></trkpt>
        <trkpt lat="29.466155" lon="103.2841728"><ele>1697.22</ele><time>2026-08-15T01:23:15.000Z</time></trkpt>
        <trkpt lat="29.4660617" lon="103.284149"><ele>1696.02</ele><time>2026-08-15T01:23:26.000Z</time></trkpt>
        <trkpt lat="29.4659672" lon="103.2841462"><ele>1694.53</ele><time>2026-08-15T01:23:38.000Z</time></trkpt>
        <trkpt lat="29.4658734" lon="103.2841121"><ele>1693.07</ele><time>2026-08-15T01:23:50.000Z</time></trkpt>
        <trkpt lat="29.4657757" lon="103.2840891"><ele>1691.85</ele><time>2026-08-15T01:24:02.000Z</time></trkpt>
        <trkpt lat="29.4656836" lon="103.284106"><ele>1690.62</ele><time>2026-08-15T01:24:12.000Z</time></trkpt>
        <trkpt lat="29.4655924" lon="103.2841605"><ele>1689.53</ele><time>2026-08-15T01:24:24.000Z</time></trkpt>
        <trkpt lat="29.4655084" lon="103.2842267"><ele>1688.36</ele><time>2026-08-15T01:24:36.000Z</time></trkpt>
        <trkpt lat="29.4654341" lon="103.2842939"><ele>1687.35</ele><time>2026-08-15T01:24:46.000Z</time></trkpt>
        <trkpt lat="29.4653557" lon="103.2843478"><ele>1686.2</ele><time>2026-08-15T01:24:56.000Z</time></trkpt>
        <trkpt lat="29.4652649" lon="103.2843611"><ele>1685.27</ele><time>2026-08-15T01:25:06.000Z</time></trkpt>
        <trkpt lat="29.4651723" lon="103.2843654"><ele>1684.37</ele><time>2026-08-15T01:25:14.000Z</time></trkpt>
        <trkpt lat="29.4650782" lon="103.2843628"><ele>1683.7</ele><time>2026-08-15T01:25:22.000Z</time></trkpt>
        <trkpt lat="29.4649811" lon="103.2843366"><ele>1682.78</ele><time>2026-08-15T01:25:30.000Z</time></trkpt>
        <trkpt lat="29.4648846" lon="103.2843086"><ele>1681.95</ele><time>2026-08-15T01:25:38.000Z</time></trkpt>
        <trkpt lat="29.4647858" lon="103.2842993"><ele>1681.31</ele><time>2026-08-15T01:25:46.000Z</time></trkpt>
        <trkpt lat="29.464682" lon="103.2842978"><ele>1680.66</ele><time>2026-08-15T01:25:54.000Z</time></trkpt>
        <trkpt lat="29.4645737" lon="103.2842931"><ele>1679.94</ele><time>2026-08-15T01:26:02.000Z</time></trkpt>
        <trkpt lat="29.4644742" lon="103.2842866"><ele>1679.3</ele><time>2026-08-15T01:26:10.000Z</time></trkpt>
        <trkpt lat="29.4643797" lon="103.2842448"><ele>1678.65</ele><time>2026-08-15T01:26:20.000Z</time></trkpt>
        <trkpt lat="29.4643098" lon="103.284173"><ele>1677.51</ele><time>2026-08-15T01:26:28.000Z</time></trkpt>
        <trkpt lat="29.4642413" lon="103.2840749"><ele>1676.32</ele><time>2026-08-15T01:26:38.000Z</time></trkpt>
        <trkpt lat="29.464166" lon="103.2839985"><ele>1675.35</ele><time>2026-08-15T01:26:46.000Z</time></trkpt>
        <trkpt lat="29.4640715" lon="103.2839445"><ele>1674.97</ele><time>2026-08-15T01:26:56.000Z</time></trkpt>
        <trkpt lat="29.46398" lon="103.2838931"><ele>1674.5</ele><time>2026-08-15T01:27:06.000Z</time></trkpt>
        <trkpt lat="29.4638863" lon="103.2838532"><ele>1673.91</ele><time>2026-08-15T01:27:16.000Z</time></trkpt>
        <trkpt lat="29.4637921" lon="103.2837996"><ele>1673.28</ele><time>2026-08-15T01:27:26.000Z</time></trkpt>
        <trkpt lat="29.4637295" lon="103.2837112"><ele>1672.73</ele><time>2026-08-15T01:27:36.000Z</time></trkpt>
        <trkpt lat="29.4636673" lon="103.2836104"><ele>1673.01</ele><time>2026-08-15T01:27:46.000Z</time></trkpt>
        <trkpt lat="29.4635921" lon="103.2835301"><ele>1673.42</ele><time>2026-08-15T01:27:56.000Z</time></trkpt>
        <trkpt lat="29.4634998" lon="103.2834875"><ele>1673.44</ele><time>2026-08-15T01:28:06.000Z</time></trkpt>
        <trkpt lat="29.4633972" lon="103.2834587"><ele>1673.53</ele><time>2026-08-15T01:28:16.000Z</time></trkpt>
        <trkpt lat="29.4632933" lon="103.2834498"><ele>1673.69</ele><time>2026-08-15T01:28:26.000Z</time></trkpt>
        <trkpt lat="29.4631901" lon="103.2834464"><ele>1673.51</ele><time>2026-08-15T01:28:36.000Z</time></trkpt>
        <trkpt lat="29.4630821" lon="103.283437"><ele>1672.76</ele><time>2026-08-15T01:28:46.000Z</time></trkpt>
        <trkpt lat="29.4629784" lon="103.2834473"><ele>1672.04</ele><time>2026-08-15T01:29:52.000Z</time></trkpt>
        <trkpt lat="29.4628735" lon="103.2834854"><ele>1671.26</ele><time>2026-08-15T01:30:06.000Z</time></trkpt>
        <trkpt lat="29.462775" lon="103.2835236"><ele>1670.81</ele><time>2026-08-15T01:30:16.000Z</time></trkpt>
        <trkpt lat="29.4626895" lon="103.2835676"><ele>1670.1</ele><time>2026-08-15T01:30:24.000Z</time></trkpt>
        <trkpt lat="29.4625965" lon="103.2836192"><ele>1669.41</ele><time>2026-08-15T01:30:34.000Z</time></trkpt>
        <trkpt lat="29.4625048" lon="103.2836791"><ele>1669.02</ele><time>2026-08-15T01:30:44.000Z</time></trkpt>
        <trkpt lat="29.4624076" lon="103.2836842"><ele>1668.63</ele><time>2026-08-15T01:30:54.000Z</time></trkpt>
        <trkpt lat="29.4623185" lon="103.2836455"><ele>1668</ele><time>2026-08-15T01:31:02.000Z</time></trkpt>
        <trkpt lat="29.4622181" lon="103.2836164"><ele>1667.6</ele><time>2026-08-15T01:31:12.000Z</time></trkpt>
        <trkpt lat="29.4621679" lon="103.283606"><ele>1666.77</ele><time>2026-08-15T01:31:18.000Z</time></trkpt>
        <trkpt lat="29.4621091" lon="103.2835409"><ele>1666.15</ele><time>2026-08-15T01:31:30.000Z</time></trkpt>
        <trkpt lat="29.4620834" lon="103.2834383"><ele>1665.87</ele><time>2026-08-15T01:31:40.000Z</time></trkpt>
        <trkpt lat="29.4620848" lon="103.2833192"><ele>1665.45</ele><time>2026-08-15T01:31:50.000Z</time></trkpt>
        <trkpt lat="29.4620579" lon="103.2832034"><ele>1665.33</ele><time>2026-08-15T01:32:02.000Z</time></trkpt>
        <trkpt lat="29.4619893" lon="103.283126"><ele>1664.8</ele><time>2026-08-15T01:32:14.000Z</time></trkpt>
        <trkpt lat="29.4619042" lon="103.283081"><ele>1664.28</ele><time>2026-08-15T01:32:24.000Z</time></trkpt>
        <trkpt lat="29.4618053" lon="103.2830351"><ele>1663.96</ele><time>2026-08-15T01:32:34.000Z</time></trkpt>
        <trkpt lat="29.4617165" lon="103.2829749"><ele>1663.69</ele><time>2026-08-15T01:32:44.000Z</time></trkpt>
        <trkpt lat="29.4616333" lon="103.2829081"><ele>1663.45</ele><time>2026-08-15T01:32:54.000Z</time></trkpt>
        <trkpt lat="29.4615511" lon="103.2828447"><ele>1662.54</ele><time>2026-08-15T01:33:06.000Z</time></trkpt>
        <trkpt lat="29.4614678" lon="103.2827945"><ele>1661.25</ele><time>2026-08-15T01:33:16.000Z</time></trkpt>
        <trkpt lat="29.4613783" lon="103.2827377"><ele>1659.95</ele><time>2026-08-15T01:33:26.000Z</time></trkpt>
        <trkpt lat="29.4612965" lon="103.2826834"><ele>1658.49</ele><time>2026-08-15T01:33:34.000Z</time></trkpt>
        <trkpt lat="29.4612151" lon="103.2826187"><ele>1656.98</ele><time>2026-08-15T01:33:44.000Z</time></trkpt>
        <trkpt lat="29.4611264" lon="103.2825556"><ele>1655.49</ele><time>2026-08-15T01:33:52.000Z</time></trkpt>
        <trkpt lat="29.4610348" lon="103.2824995"><ele>1654.43</ele><time>2026-08-15T01:34:00.000Z</time></trkpt>
        <trkpt lat="29.4609311" lon="103.282446"><ele>1653.58</ele><time>2026-08-15T01:34:10.000Z</time></trkpt>
        <trkpt lat="29.4608305" lon="103.2824047"><ele>1652.46</ele><time>2026-08-15T01:34:20.000Z</time></trkpt>
        <trkpt lat="29.4607389" lon="103.282356"><ele>1651.33</ele><time>2026-08-15T01:34:30.000Z</time></trkpt>
        <trkpt lat="29.4606539" lon="103.2823039"><ele>1650.51</ele><time>2026-08-15T01:34:38.000Z</time></trkpt>
        <trkpt lat="29.4605722" lon="103.2822504"><ele>1649.83</ele><time>2026-08-15T01:34:46.000Z</time></trkpt>
        <trkpt lat="29.4604899" lon="103.2821967"><ele>1649.52</ele><time>2026-08-15T01:34:54.000Z</time></trkpt>
        <trkpt lat="29.4603954" lon="103.2821487"><ele>1649.3</ele><time>2026-08-15T01:35:02.000Z</time></trkpt>
        <trkpt lat="29.460309" lon="103.2821029"><ele>1649.24</ele><time>2026-08-15T01:35:10.000Z</time></trkpt>
        <trkpt lat="29.4602421" lon="103.282029"><ele>1649.05</ele><time>2026-08-15T01:35:18.000Z</time></trkpt>
        <trkpt lat="29.4601748" lon="103.2819504"><ele>1648.39</ele><time>2026-08-15T01:35:26.000Z</time></trkpt>
        <trkpt lat="29.4600891" lon="103.2818885"><ele>1647.94</ele><time>2026-08-15T01:35:36.000Z</time></trkpt>
        <trkpt lat="29.4599947" lon="103.2818453"><ele>1647.37</ele><time>2026-08-15T01:35:46.000Z</time></trkpt>
        <trkpt lat="29.4599049" lon="103.2818085"><ele>1646.94</ele><time>2026-08-15T01:35:54.000Z</time></trkpt>
        <trkpt lat="29.4598019" lon="103.2817556"><ele>1646.58</ele><time>2026-08-15T01:36:02.000Z</time></trkpt>
        <trkpt lat="29.4596914" lon="103.2817188"><ele>1645.76</ele><time>2026-08-15T01:36:10.000Z</time></trkpt>
        <trkpt lat="29.459589" lon="103.2816882"><ele>1645.08</ele><time>2026-08-15T01:36:18.000Z</time></trkpt>
        <trkpt lat="29.4594962" lon="103.2816707"><ele>1643.15</ele><time>2026-08-15T01:36:28.000Z</time></trkpt>
        <trkpt lat="29.4593997" lon="103.281703"><ele>1641.35</ele><time>2026-08-15T01:36:38.000Z</time></trkpt>
        <trkpt lat="29.4593128" lon="103.2817468"><ele>1640.22</ele><time>2026-08-15T01:36:46.000Z</time></trkpt>
        <trkpt lat="29.4592222" lon="103.2817914"><ele>1638.96</ele><time>2026-08-15T01:36:56.000Z</time></trkpt>
        <trkpt lat="29.4591268" lon="103.2817938"><ele>1637.97</ele><time>2026-08-15T01:37:08.000Z</time></trkpt>
        <trkpt lat="29.4590381" lon="103.2817279"><ele>1637.41</ele><time>2026-08-15T01:37:22.000Z</time></trkpt>
        <trkpt lat="29.4589493" lon="103.2816444"><ele>1636.72</ele><time>2026-08-15T01:37:30.000Z</time></trkpt>
        <trkpt lat="29.4588644" lon="103.2815705"><ele>1636.29</ele><time>2026-08-15T01:37:38.000Z</time></trkpt>
        <trkpt lat="29.4587851" lon="103.2814979"><ele>1635.76</ele><time>2026-08-15T01:37:48.000Z</time></trkpt>
        <trkpt lat="29.458689" lon="103.2814498"><ele>1635.31</ele><time>2026-08-15T01:38:00.000Z</time></trkpt>
        <trkpt lat="29.4586193" lon="103.2814286"><ele>1635.03</ele><time>2026-08-15T01:38:06.000Z</time></trkpt>
        <trkpt lat="29.4585326" lon="103.2813932"><ele>1634.89</ele><time>2026-08-15T01:38:18.000Z</time></trkpt>
        <trkpt lat="29.4584386" lon="103.2813678"><ele>1635.11</ele><time>2026-08-15T01:38:30.000Z</time></trkpt>
        <trkpt lat="29.4583423" lon="103.2813401"><ele>1634.68</ele><time>2026-08-15T01:38:46.000Z</time></trkpt>
        <trkpt lat="29.4582487" lon="103.2813108"><ele>1634.5</ele><time>2026-08-15T01:38:56.000Z</time></trkpt>
        <trkpt lat="29.4581435" lon="103.2813093"><ele>1634.18</ele><time>2026-08-15T01:39:06.000Z</time></trkpt>
        <trkpt lat="29.4580457" lon="103.2813409"><ele>1634.02</ele><time>2026-08-15T01:39:14.000Z</time></trkpt>
        <trkpt lat="29.4579584" lon="103.281383"><ele>1633.4</ele><time>2026-08-15T01:39:24.000Z</time></trkpt>
        <trkpt lat="29.4578678" lon="103.2814264"><ele>1632.49</ele><time>2026-08-15T01:39:34.000Z</time></trkpt>
        <trkpt lat="29.4577767" lon="103.2814797"><ele>1631.72</ele><time>2026-08-15T01:39:45.000Z</time></trkpt>
        <trkpt lat="29.4576739" lon="103.2814552"><ele>1631.08</ele><time>2026-08-15T01:39:56.000Z</time></trkpt>
        <trkpt lat="29.4575955" lon="103.2813725"><ele>1629.79</ele><time>2026-08-15T01:40:06.000Z</time></trkpt>
        <trkpt lat="29.4575308" lon="103.2812723"><ele>1628.35</ele><time>2026-08-15T01:40:16.000Z</time></trkpt>
        <trkpt lat="29.4574659" lon="103.2811707"><ele>1626.45</ele><time>2026-08-15T01:40:28.000Z</time></trkpt>
        <trkpt lat="29.4573953" lon="103.2810953"><ele>1624.63</ele><time>2026-08-15T01:40:38.000Z</time></trkpt>
        <trkpt lat="29.4573133" lon="103.2810429"><ele>1623.23</ele><time>2026-08-15T01:40:48.000Z</time></trkpt>
        <trkpt lat="29.4572157" lon="103.2810043"><ele>1621.77</ele><time>2026-08-15T01:40:58.000Z</time></trkpt>
        <trkpt lat="29.4571746" lon="103.2809865"><ele>1620.69</ele><time>2026-08-15T01:41:03.000Z</time></trkpt>
        <trkpt lat="29.4571138" lon="103.2809289"><ele>1619.95</ele><time>2026-08-15T01:41:31.000Z</time></trkpt>
        <trkpt lat="29.4570447" lon="103.280849"><ele>1618.46</ele><time>2026-08-15T01:41:41.000Z</time></trkpt>
        <trkpt lat="29.4569809" lon="103.2807508"><ele>1616.96</ele><time>2026-08-15T01:41:51.000Z</time></trkpt>
        <trkpt lat="29.4569195" lon="103.2806533"><ele>1615.28</ele><time>2026-08-15T01:42:01.000Z</time></trkpt>
        <trkpt lat="29.456843" lon="103.2805754"><ele>1613.43</ele><time>2026-08-15T01:42:11.000Z</time></trkpt>
        <trkpt lat="29.4567565" lon="103.2805113"><ele>1612.28</ele><time>2026-08-15T01:42:21.000Z</time></trkpt>
        <trkpt lat="29.4566728" lon="103.2804574"><ele>1611.9</ele><time>2026-08-15T01:42:31.000Z</time></trkpt>
        <trkpt lat="29.4565954" lon="103.2803891"><ele>1611.63</ele><time>2026-08-15T01:42:41.000Z</time></trkpt>
        <trkpt lat="29.4565235" lon="103.2803201"><ele>1610.72</ele><time>2026-08-15T01:42:51.000Z</time></trkpt>
        <trkpt lat="29.4564433" lon="103.2802453"><ele>1609.75</ele><time>2026-08-15T01:43:03.000Z</time></trkpt>
        <trkpt lat="29.4563656" lon="103.2801685"><ele>1608.54</ele><time>2026-08-15T01:43:13.000Z</time></trkpt>
        <trkpt lat="29.4562861" lon="103.2801087"><ele>1607.67</ele><time>2026-08-15T01:43:27.000Z</time></trkpt>
        <trkpt lat="29.4562861" lon="103.2801087"><ele>1607.67</ele><time>2026-08-15T01:44:13.000Z</time></trkpt>
      </trkseg>
  </trk>
</gpx>